Wetterdaten: Samstag, 17.02.2018
Datum Zeit Temp. A. Pool Temp. Feuchte A. Luftdruck Regen Wind Richtung Richtung Sonnenschein ET UV Solar Taupunkt Windchill Windben Empfang
17.02.2018 00:00 1,4 C 4,4 C 98 % 1027,0 hPa 0,0 l/m 0,9 km/h (0 Bft) W-SW 258 0 min 0,000 mm 0,0 UV-I 0 W/m 1,1 C 1,4 C 3,2 km/h (1 Bft) 91,67 %
17.02.2018 00:01 1,4 C 4,4 C 98 % 1026,9 hPa 0,0 l/m 0,5 km/h (0 Bft) W-SW 258 0 min 0,000 mm 0,0 UV-I 0 W/m 1,1 C 1,4 C 1,6 km/h (1 Bft) 100,00 %
17.02.2018 00:02 1,4 C 4,4 C 98 % 1027,0 hPa 0,0 l/m 1,4 km/h (1 Bft) W-SW 258 0 min 0,000 mm 0,0 UV-I 0 W/m 1,1 C 1,4 C 1,6 km/h (1 Bft) 92,59 %
17.02.2018 00:03 1,4 C 4,4 C 98 % 1027,0 hPa 0,0 l/m 1,8 km/h (1 Bft) W-SW 258 0 min 0,000 mm 0,0 UV-I 0 W/m 1,1 C 1,4 C 3,2 km/h (1 Bft) 95,65 %
17.02.2018 00:04 1,4 C 4,4 C 98 % 1027,0 hPa 0,0 l/m 1,4 km/h (1 Bft) W-SW 258 0 min 0,000 mm 0,0 UV-I 0 W/m 1,1 C 1,4 C 3,2 km/h (1 Bft) 95,83 %
17.02.2018 00:05 1,4 C 4,4 C 98 % 1027,0 hPa 0,0 l/m 1,1 km/h (1 Bft) W-SW 258 0 min 0,000 mm 0,0 UV-I 0 W/m 1,1 C 1,4 C 1,6 km/h (1 Bft) 100,00 %
17.02.2018 00:06 1,4 C 4,4 C 98 % 1027,0 hPa 0,0 l/m 0,7 km/h (0 Bft) W-SW 258 0 min 0,000 mm 0,0 UV-I 0 W/m 1,1 C 1,4 C 1,6 km/h (1 Bft) 95,65 %
17.02.2018 00:07 1,4 C 4,4 C 98 % 1026,9 hPa 0,0 l/m 0,6 km/h (0 Bft) W-SW 258 0 min 0,000 mm 0,0 UV-I 0 W/m 1,1 C 1,4 C 1,6 km/h (1 Bft) 100,00 %
17.02.2018 00:08 1,4 C 4,4 C 98 % 1026,9 hPa 0,0 l/m 0,5 km/h (0 Bft) W-SW 258 0 min 0,000 mm 0,0 UV-I 0 W/m 1,1 C 1,4 C 1,6 km/h (1 Bft) 95,65 %
17.02.2018 00:09 1,4 C 4,4 C 98 % 1026,9 hPa 0,0 l/m 0,0 km/h (0 Bft) W-SW 258 0 min 0,000 mm 0,0 UV-I 0 W/m 1,1 C 1,4 C 0,0 km/h (0 Bft) 95,83 %
17.02.2018 00:10 1,3 C 4,4 C 98 % 1026,9 hPa 0,0 l/m 0,0 km/h (0 Bft) W-SW 258 0 min 0,000 mm 0,0 UV-I 0 W/m 1,0 C 1,3 C 0,0 km/h (0 Bft) 100,00 %
17.02.2018 00:11 1,3 C 4,4 C 98 % 1026,9 hPa 0,0 l/m 0,0 km/h (0 Bft) W-SW 258 0 min 0,000 mm 0,0 UV-I 0 W/m 1,0 C 1,3 C 0,0 km/h (0 Bft) 91,67 %
17.02.2018 00:12 1,3 C 4,4 C 98 % 1026,8 hPa 0,0 l/m 0,0 km/h (0 Bft) W-SW 258 0 min 0,000 mm 0,0 UV-I 0 W/m 1,0 C 1,3 C 0,0 km/h (0 Bft) 100,00 %
17.02.2018 00:13 1,3 C 4,4 C 98 % 1026,7 hPa 0,0 l/m 0,0 km/h (0 Bft) W-SW 258 0 min 0,000 mm 0,0 UV-I 0 W/m 1,0 C 1,3 C 0,0 km/h (0 Bft) 95,83 %
17.02.2018 00:14 1,3 C 4,4 C 98 % 1026,7 hPa 0,0 l/m 0,0 km/h (0 Bft) W-SW 258 0 min 0,000 mm 0,0 UV-I 0 W/m 1,0 C 1,3 C 0,0 km/h (0 Bft) 100,00 %
17.02.2018 00:15 1,3 C 4,4 C 98 % 1026,7 hPa 0,0 l/m 0,0 km/h (0 Bft) W-SW 258 0 min 0,000 mm 0,0 UV-I 0 W/m 1,0 C 1,3 C 0,0 km/h (0 Bft) 91,67 %
17.02.2018 00:16 1,3 C 4,4 C 98 % 1026,6 hPa 0,0 l/m 0,0 km/h (0 Bft) W-SW 258 0 min 0,000 mm 0,0 UV-I 0 W/m 1,0 C 1,3 C 0,0 km/h (0 Bft) 100,00 %
17.02.2018 00:17 1,3 C 4,4 C 98 % 1026,6 hPa 0,0 l/m 0,0 km/h (0 Bft) W-SW 258 0 min 0,000 mm 0,0 UV-I 0 W/m 1,0 C 1,3 C 0,0 km/h (0 Bft) 95,83 %
17.02.2018 00:18 1,3 C 4,4 C 98 % 1026,6 hPa 0,0 l/m 0,0 km/h (0 Bft) W-SW 258 0 min 0,000 mm 0,0 UV-I 0 W/m 1,0 C 1,3 C 0,0 km/h (0 Bft) 100,00 %
17.02.2018 00:19 1,4 C 4,4 C 98 % 1026,6 hPa 0,0 l/m 0,3 km/h (0 Bft) W-SW 258 0 min 0,000 mm 0,0 UV-I 0 W/m 1,1 C 1,4 C 1,6 km/h (1 Bft) 95,83 %
17.02.2018 00:20 1,4 C 4,4 C 98 % 1026,6 hPa 0,0 l/m 1,8 km/h (1 Bft) W-SW 258 0 min 0,000 mm 0,0 UV-I 0 W/m 1,1 C 1,4 C 3,2 km/h (1 Bft) 95,83 %
17.02.2018 00:21 1,4 C 4,4 C 98 % 1026,5 hPa 0,0 l/m 1,1 km/h (1 Bft) W-SW 258 0 min 0,000 mm 0,0 UV-I 0 W/m 1,1 C 1,4 C 1,6 km/h (1 Bft) 95,65 %
17.02.2018 00:22 1,4 C 4,4 C 98 % 1026,5 hPa 0,0 l/m 1,6 km/h (1 Bft) W-SW 258 0 min 0,000 mm 0,0 UV-I 0 W/m 1,1 C 1,4 C 3,2 km/h (1 Bft) 95,83 %
17.02.2018 00:23 1,3 C 4,4 C 98 % 1026,5 hPa 0,0 l/m 2,0 km/h (1 Bft) W-SW 258 0 min 0,000 mm 0,0 UV-I 0 W/m 1,0 C 1,3 C 3,2 km/h (1 Bft) 95,65 %
17.02.2018 00:24 1,3 C 4,4 C 98 % 1026,5 hPa 0,0 l/m 3,0 km/h (1 Bft) W-SW 258 0 min 0,000 mm 0,0 UV-I 0 W/m 1,0 C 1,3 C 3,2 km/h (1 Bft) 95,83 %
17.02.2018 00:25 1,4 C 4,4 C 98 % 1026,6 hPa 0,0 l/m 3,5 km/h (1 Bft) W-SW 258 0 min 0,000 mm 0,0 UV-I 0 W/m 1,1 C 1,4 C 4,8 km/h (1 Bft) 95,65 %
17.02.2018 00:26 1,3 C 4,4 C 98 % 1026,6 hPa 0,0 l/m 3,7 km/h (1 Bft) W-SW 258 0 min 0,000 mm 0,0 UV-I 0 W/m 1,0 C 1,3 C 4,8 km/h (1 Bft) 95,83 %
17.02.2018 00:27 1,3 C 4,4 C 98 % 1026,6 hPa 0,0 l/m 3,7 km/h (1 Bft) W-SW 258 0 min 0,000 mm 0,0 UV-I 0 W/m 1,0 C 1,3 C 4,8 km/h (1 Bft) 95,65 %
17.02.2018 00:28 1,3 C 4,4 C 98 % 1026,6 hPa 0,0 l/m 3,7 km/h (1 Bft) W-SW 258 0 min 0,000 mm 0,0 UV-I 0 W/m 1,0 C 1,3 C 4,8 km/h (1 Bft) 95,83 %
17.02.2018 00:29 1,3 C 4,4 C 98 % 1026,5 hPa 0,0 l/m 3,8 km/h (1 Bft) N-NO 28 0 min 0,000 mm 0,0 UV-I 0 W/m 1,0 C 1,3 C 4,8 km/h (1 Bft) 95,65 %
17.02.2018 00:30 1,3 C 4,4 C 98 % 1026,5 hPa 0,0 l/m 4,8 km/h (1 Bft) N-NO 28 0 min 0,000 mm 0,0 UV-I 0 W/m 1,0 C 1,3 C 6,4 km/h (2 Bft) 100,00 %
17.02.2018 00:31 1,3 C 4,4 C 98 % 1026,5 hPa 0,0 l/m 5,4 km/h (1 Bft) N-NO 28 0 min 0,000 mm 0,0 UV-I 0 W/m 1,0 C 1,3 C 6,4 km/h (2 Bft) 91,30 %
17.02.2018 00:32 1,3 C 4,4 C 98 % 1026,4 hPa 0,0 l/m 5,6 km/h (1 Bft) N-NO 33 0 min 0,000 mm 0,0 UV-I 0 W/m 1,0 C 1,3 C 6,4 km/h (2 Bft) 100,00 %
17.02.2018 00:33 1,3 C 4,4 C 98 % 1026,5 hPa 0,0 l/m 5,0 km/h (1 Bft) N-NO 33 0 min 0,000 mm 0,0 UV-I 0 W/m 1,0 C 1,3 C 6,4 km/h (2 Bft) 100,00 %
17.02.2018 00:34 1,3 C 4,4 C 98 % 1026,5 hPa 0,0 l/m 4,0 km/h (1 Bft) N-NO 33 0 min 0,000 mm 0,0 UV-I 0 W/m 1,0 C 1,3 C 4,8 km/h (1 Bft) 100,00 %
17.02.2018 00:35 1,3 C 4,4 C 98 % 1026,4 hPa 0,0 l/m 2,7 km/h (1 Bft) N-NO 33 0 min 0,000 mm 0,0 UV-I 0 W/m 1,0 C 1,3 C 4,8 km/h (1 Bft) 100,00 %
17.02.2018 00:36 1,3 C 4,4 C 98 % 1026,4 hPa 0,0 l/m 2,0 km/h (1 Bft) N-NO 33 0 min 0,000 mm 0,0 UV-I 0 W/m 1,0 C 1,3 C 3,2 km/h (1 Bft) 100,00 %
17.02.2018 00:37 1,3 C 4,4 C 98 % 1026,5 hPa 0,0 l/m 2,0 km/h (1 Bft) N-NO 33 0 min 0,000 mm 0,0 UV-I 0 W/m 1,0 C 1,3 C 3,2 km/h (1 Bft) 100,00 %
17.02.2018 00:38 1,3 C 4,4 C 98 % 1026,5 hPa 0,0 l/m 1,4 km/h (1 Bft) N-NO 33 0 min 0,000 mm 0,0 UV-I 0 W/m 1,0 C 1,3 C 1,6 km/h (1 Bft) 100,00 %
17.02.2018 00:39 1,3 C 4,4 C 98 % 1026,6 hPa 0,0 l/m 2,1 km/h (1 Bft) N-NO 33 0 min 0,000 mm 0,0 UV-I 0 W/m 1,0 C 1,3 C 3,2 km/h (1 Bft) 95,65 %
17.02.2018 00:40 1,3 C 4,4 C 98 % 1026,6 hPa 0,0 l/m 2,2 km/h (1 Bft) N-NO 33 0 min 0,000 mm 0,0 UV-I 0 W/m 1,0 C 1,3 C 3,2 km/h (1 Bft) 100,00 %
17.02.2018 00:41 1,3 C 4,4 C 98 % 1026,6 hPa 0,0 l/m 2,0 km/h (1 Bft) N-NO 33 0 min 0,000 mm 0,0 UV-I 0 W/m 1,0 C 1,3 C 3,2 km/h (1 Bft) 100,00 %
17.02.2018 00:42 1,3 C 4,4 C 98 % 1026,4 hPa 0,0 l/m 2,5 km/h (1 Bft) N-NO 33 0 min 0,000 mm 0,0 UV-I 0 W/m 1,0 C 1,3 C 3,2 km/h (1 Bft) 100,00 %
17.02.2018 00:43 1,3 C 4,4 C 98 % 1026,4 hPa 0,0 l/m 2,3 km/h (1 Bft) N-NO 33 0 min 0,000 mm 0,0 UV-I 0 W/m 1,0 C 1,3 C 3,2 km/h (1 Bft) 95,83 %
17.02.2018 00:44 1,3 C 4,4 C 98 % 1026,4 hPa 0,0 l/m 3,2 km/h (1 Bft) N-NO 33 0 min 0,000 mm 0,0 UV-I 0 W/m 1,0 C 1,3 C 3,2 km/h (1 Bft) 100,00 %
17.02.2018 00:45 1,3 C 4,4 C 98 % 1026,4 hPa 0,0 l/m 3,0 km/h (1 Bft) N-NO 32 0 min 0,000 mm 0,0 UV-I 0 W/m 1,0 C 1,3 C 4,8 km/h (1 Bft) 95,83 %
17.02.2018 00:46 1,3 C 4,4 C 98 % 1026,4 hPa 0,0 l/m 3,3 km/h (1 Bft) N-NO 32 0 min 0,000 mm 0,0 UV-I 0 W/m 1,0 C 1,3 C 4,8 km/h (1 Bft) 95,65 %
17.02.2018 00:47 1,3 C 4,4 C 98 % 1026,5 hPa 0,0 l/m 3,8 km/h (1 Bft) N-NO 32 0 min 0,000 mm 0,0 UV-I 0 W/m 1,0 C 1,3 C 6,4 km/h (2 Bft) 100,00 %
17.02.2018 00:48 1,3 C 4,4 C 98 % 1026,5 hPa 0,0 l/m 4,1 km/h (1 Bft) N-NO 32 0 min 0,000 mm 0,0 UV-I 0 W/m 1,0 C 1,3 C 6,4 km/h (2 Bft) 100,00 %
17.02.2018 00:49 1,3 C 4,4 C 98 % 1026,5 hPa 0,0 l/m 5,7 km/h (1 Bft) N-NO 32 0 min 0,000 mm 0,0 UV-I 0 W/m 1,0 C 1,3 C 6,4 km/h (2 Bft) 100,00 %
17.02.2018 00:50 1,3 C 4,4 C 98 % 1026,5 hPa 0,0 l/m 6,0 km/h (2 Bft) N 9 0 min 0,000 mm 0,0 UV-I 0 W/m 1,0 C 1,3 C 8,0 km/h (2 Bft) 100,00 %
17.02.2018 00:51 1,3 C 4,4 C 98 % 1026,5 hPa 0,0 l/m 6,1 km/h (2 Bft) N-NO 12 0 min 0,000 mm 0,0 UV-I 0 W/m 1,0 C 1,3 C 8,0 km/h (2 Bft) 100,00 %
17.02.2018 00:52 1,3 C 4,4 C 98 % 1026,5 hPa 0,0 l/m 8,9 km/h (2 Bft) NO 37 0 min 0,000 mm 0,0 UV-I 0 W/m 1,0 C -1,1 C 9,7 km/h (2 Bft) 100,00 %
17.02.2018 00:53 1,3 C 4,4 C 98 % 1026,5 hPa 0,0 l/m 6,7 km/h (2 Bft) N-NO 27 0 min 0,000 mm 0,0 UV-I 0 W/m 1,0 C 1,0 C 9,7 km/h (2 Bft) 100,00 %
17.02.2018 00:54 1,3 C 4,4 C 98 % 1026,5 hPa 0,0 l/m 6,6 km/h (2 Bft) NO 42 0 min 0,000 mm 0,0 UV-I 0 W/m 1,0 C 1,1 C 8,0 km/h (2 Bft) 100,00 %
17.02.2018 00:55 1,2 C 4,4 C 98 % 1026,5 hPa 0,0 l/m 6,2 km/h (2 Bft) NO 43 0 min 0,000 mm 0,0 UV-I 0 W/m 0,9 C 1,2 C 6,4 km/h (2 Bft) 95,83 %
17.02.2018 00:56 1,2 C 4,4 C 98 % 1026,5 hPa 0,0 l/m 5,0 km/h (1 Bft) NO 43 0 min 0,000 mm 0,0 UV-I 0 W/m 0,9 C 1,2 C 6,4 km/h (2 Bft) 100,00 %
17.02.2018 00:57 1,2 C 4,4 C 98 % 1026,5 hPa 0,0 l/m 4,2 km/h (1 Bft) NO 43 0 min 0,000 mm 0,0 UV-I 0 W/m 0,9 C 1,2 C 4,8 km/h (1 Bft) 95,83 %
17.02.2018 00:58 1,2 C 4,4 C 98 % 1026,5 hPa 0,0 l/m 3,4 km/h (1 Bft) NO 43 0 min 0,000 mm 0,0 UV-I 0 W/m 0,9 C 1,2 C 4,8 km/h (1 Bft) 95,83 %
17.02.2018 00:59 1,2 C 4,4 C 98 % 1026,5 hPa 0,0 l/m 3,6 km/h (1 Bft) NO 43 0 min 0,000 mm 0,0 UV-I 0 W/m 0,9 C 1,2 C 4,8 km/h (1 Bft) 100,00 %
17.02.2018 01:00 1,2 C 4,4 C 98 % 1026,5 hPa 0,0 l/m 3,7 km/h (1 Bft) NO 43 0 min 0,000 mm 0,0 UV-I 0 W/m 0,9 C 1,2 C 6,4 km/h (2 Bft) 95,83 %
17.02.2018 01:01 1,2 C 4,4 C 98 % 1026,5 hPa 0,0 l/m 4,4 km/h (1 Bft) NO 43 0 min 0,000 mm 0,0 UV-I 0 W/m 0,9 C 1,2 C 4,8 km/h (1 Bft) 100,00 %
17.02.2018 01:02 1,2 C 4,4 C 98 % 1026,5 hPa 0,0 l/m 4,4 km/h (1 Bft) NO 36 0 min 0,000 mm 0,0 UV-I 0 W/m 0,9 C 1,2 C 4,8 km/h (1 Bft) 91,67 %
17.02.2018 01:03 1,2 C 4,4 C 98 % 1026,4 hPa 0,0 l/m 5,9 km/h (2 Bft) N 11 0 min 0,000 mm 0,0 UV-I 0 W/m 0,9 C 1,2 C 6,4 km/h (2 Bft) 96,15 %
17.02.2018 01:04 1,2 C 4,4 C 98 % 1026,4 hPa 0,0 l/m 5,0 km/h (1 Bft) N-NO 13 0 min 0,000 mm 0,0 UV-I 0 W/m 0,9 C 1,2 C 6,4 km/h (2 Bft) 95,83 %
17.02.2018 01:05 1,2 C 4,4 C 98 % 1026,4 hPa 0,0 l/m 5,4 km/h (1 Bft) N-NO 19 0 min 0,000 mm 0,0 UV-I 0 W/m 0,9 C 1,2 C 8,0 km/h (2 Bft) 100,00 %
17.02.2018 01:06 1,2 C 4,4 C 98 % 1026,5 hPa 0,0 l/m 6,7 km/h (2 Bft) N-NO 16 0 min 0,000 mm 0,0 UV-I 0 W/m 0,9 C 0,9 C 8,0 km/h (2 Bft) 95,83 %
17.02.2018 01:07 1,2 C 4,4 C 98 % 1026,4 hPa 0,0 l/m 5,9 km/h (2 Bft) N-NO 12 0 min 0,000 mm 0,0 UV-I 0 W/m 0,9 C 1,2 C 8,0 km/h (2 Bft) 95,65 %
17.02.2018 01:08 1,2 C 4,4 C 98 % 1026,5 hPa 0,0 l/m 4,3 km/h (1 Bft) N-NO 12 0 min 0,000 mm 0,0 UV-I 0 W/m 0,9 C 1,2 C 4,8 km/h (1 Bft) 95,83 %
17.02.2018 01:09 1,1 C 4,4 C 98 % 1026,5 hPa 0,0 l/m 4,6 km/h (1 Bft) N 10 0 min 0,000 mm 0,0 UV-I 0 W/m 0,8 C 1,1 C 6,4 km/h (2 Bft) 92,31 %
17.02.2018 01:10 1,1 C 4,4 C 98 % 1026,5 hPa 0,0 l/m 6,2 km/h (2 Bft) N-NW 333 0 min 0,000 mm 0,0 UV-I 0 W/m 0,8 C 1,1 C 9,7 km/h (2 Bft) 100,00 %
17.02.2018 01:11 1,0 C 4,4 C 98 % 1026,5 hPa 0,0 l/m 8,3 km/h (2 Bft) N-NO 22 0 min 0,000 mm 0,0 UV-I 0 W/m 0,7 C -0,9 C 11,3 km/h (2 Bft) 95,65 %
17.02.2018 01:12 0,9 C 4,4 C 98 % 1026,5 hPa 0,0 l/m 9,2 km/h (2 Bft) N 355 0 min 0,000 mm 0,0 UV-I 0 W/m 0,6 C -1,8 C 14,5 km/h (3 Bft) 100,00 %
17.02.2018 01:13 0,8 C 4,4 C 98 % 1026,5 hPa 0,0 l/m 8,5 km/h (2 Bft) N-NW 335 0 min 0,000 mm 0,0 UV-I 0 W/m 0,5 C -1,3 C 12,9 km/h (3 Bft) 96,15 %
17.02.2018 01:14 0,8 C 4,4 C 98 % 1026,5 hPa 0,0 l/m 8,5 km/h (2 Bft) N-NO 12 0 min 0,000 mm 0,0 UV-I 0 W/m 0,5 C -1,3 C 12,9 km/h (3 Bft) 95,83 %
17.02.2018 01:15 0,7 C 4,4 C 98 % 1026,4 hPa 0,0 l/m 9,1 km/h (2 Bft) N-NO 29 0 min 0,000 mm 0,0 UV-I 0 W/m 0,4 C -1,9 C 12,9 km/h (3 Bft) 100,00 %
17.02.2018 01:16 0,7 C 4,4 C 98 % 1026,4 hPa 0,0 l/m 8,9 km/h (2 Bft) N 5 0 min 0,000 mm 0,0 UV-I 0 W/m 0,4 C -1,7 C 12,9 km/h (3 Bft) 95,83 %
17.02.2018 01:17 0,6 C 4,4 C 98 % 1026,5 hPa 0,0 l/m 9,2 km/h (2 Bft) N-NO 30 0 min 0,000 mm 0,0 UV-I 0 W/m 0,3 C -2,1 C 11,3 km/h (2 Bft) 100,00 %
17.02.2018 01:18 0,6 C 4,4 C 98 % 1026,4 hPa 0,0 l/m 5,9 km/h (2 Bft) N-NO 14 0 min 0,000 mm 0,0 UV-I 0 W/m 0,3 C 0,6 C 8,0 km/h (2 Bft) 95,83 %
17.02.2018 01:19 0,6 C 4,4 C 98 % 1026,4 hPa 0,0 l/m 5,9 km/h (2 Bft) N 5 0 min 0,000 mm 0,0 UV-I 0 W/m 0,3 C 0,6 C 8,0 km/h (2 Bft) 100,00 %
17.02.2018 01:20 0,6 C 4,4 C 98 % 1026,4 hPa 0,0 l/m 7,9 km/h (2 Bft) N-NO 26 0 min 0,000 mm 0,0 UV-I 0 W/m 0,3 C -0,9 C 11,3 km/h (2 Bft) 96,00 %
17.02.2018 01:21 0,6 C 4,4 C 98 % 1026,4 hPa 0,0 l/m 6,1 km/h (2 Bft) N-NW 347 0 min 0,000 mm 0,0 UV-I 0 W/m 0,3 C 0,6 C 9,7 km/h (2 Bft) 91,67 %
17.02.2018 01:22 0,6 C 4,4 C 98 % 1026,4 hPa 0,0 l/m 7,6 km/h (2 Bft) N-NW 342 0 min 0,000 mm 0,0 UV-I 0 W/m 0,3 C -0,6 C 9,7 km/h (2 Bft) 96,15 %
17.02.2018 01:23 0,5 C 4,4 C 98 % 1026,4 hPa 0,0 l/m 7,3 km/h (2 Bft) N-NO 19 0 min 0,000 mm 0,0 UV-I 0 W/m 0,2 C -0,4 C 11,3 km/h (2 Bft) 100,00 %
17.02.2018 01:24 0,5 C 4,4 C 98 % 1026,4 hPa 0,0 l/m 8,3 km/h (2 Bft) N 350 0 min 0,000 mm 0,0 UV-I 0 W/m 0,2 C -1,4 C 11,3 km/h (2 Bft) 95,65 %
17.02.2018 01:25 0,5 C 4,4 C 98 % 1026,4 hPa 0,0 l/m 5,0 km/h (1 Bft) N-NO 17 0 min 0,000 mm 0,0 UV-I 0 W/m 0,2 C 0,5 C 6,4 km/h (2 Bft) 95,83 %
17.02.2018 01:26 0,5 C 4,4 C 98 % 1026,4 hPa 0,0 l/m 4,0 km/h (1 Bft) N-NO 15 0 min 0,000 mm 0,0 UV-I 0 W/m 0,2 C 0,5 C 6,4 km/h (2 Bft) 100,00 %
17.02.2018 01:27 0,5 C 4,4 C 98 % 1026,4 hPa 0,0 l/m 5,4 km/h (1 Bft) N-NO 13 0 min 0,000 mm 0,0 UV-I 0 W/m 0,2 C 0,5 C 8,0 km/h (2 Bft) 95,83 %
17.02.2018 01:28 0,5 C 4,4 C 98 % 1026,4 hPa 0,0 l/m 5,5 km/h (1 Bft) N-NO 24 0 min 0,000 mm 0,0 UV-I 0 W/m 0,2 C 0,5 C 8,0 km/h (2 Bft) 100,00 %
17.02.2018 01:29 0,4 C 4,4 C 98 % 1026,4 hPa 0,0 l/m 4,5 km/h (1 Bft) NO 34 0 min 0,000 mm 0,0 UV-I 0 W/m 0,1 C 0,4 C 6,4 km/h (2 Bft) 94,74 %
17.02.2018 01:30 0,4 C 4,4 C 98 % 1026,4 hPa 0,0 l/m 6,8 km/h (2 Bft) NO 51 0 min 0,000 mm 0,0 UV-I 0 W/m 0,1 C 0,0 C 8,0 km/h (2 Bft) 91,67 %
17.02.2018 01:31 0,4 C 4,4 C 98 % 1026,3 hPa 0,0 l/m 4,8 km/h (1 Bft) NO 35 0 min 0,000 mm 0,0 UV-I 0 W/m 0,1 C 0,4 C 6,4 km/h (2 Bft) 100,00 %
17.02.2018 01:32 0,4 C 4,4 C 98 % 1026,3 hPa 0,0 l/m 4,0 km/h (1 Bft) NO 35 0 min 0,000 mm 0,0 UV-I 0 W/m 0,1 C 0,4 C 4,8 km/h (1 Bft) 100,00 %
17.02.2018 01:33 0,4 C 4,4 C 98 % 1026,3 hPa 0,0 l/m 3,5 km/h (1 Bft) NO 35 0 min 0,000 mm 0,0 UV-I 0 W/m 0,1 C 0,4 C 4,8 km/h (1 Bft) 100,00 %
17.02.2018 01:34 0,4 C 4,4 C 98 % 1026,4 hPa 0,0 l/m 4,0 km/h (1 Bft) NO 35 0 min 0,000 mm 0,0 UV-I 0 W/m 0,1 C 0,4 C 4,8 km/h (1 Bft) 100,00 %
17.02.2018 01:35 0,4 C 4,4 C 98 % 1026,4 hPa 0,0 l/m 5,3 km/h (1 Bft) N-NO 33 0 min 0,000 mm 0,0 UV-I 0 W/m 0,1 C 0,4 C 6,4 km/h (2 Bft) 100,00 %
17.02.2018 01:36 0,4 C 4,4 C 98 % 1026,4 hPa 0,0 l/m 4,5 km/h (1 Bft) NO 40 0 min 0,000 mm 0,0 UV-I 0 W/m 0,1 C 0,4 C 6,4 km/h (2 Bft) 100,00 %
17.02.2018 01:37 0,4 C 4,4 C 98 % 1026,4 hPa 0,0 l/m 6,2 km/h (2 Bft) NO 38 0 min 0,000 mm 0,0 UV-I 0 W/m 0,1 C 0,4 C 8,0 km/h (2 Bft) 100,00 %
17.02.2018 01:38 0,4 C 4,4 C 98 % 1026,3 hPa 0,0 l/m 5,2 km/h (1 Bft) NO 40 0 min 0,000 mm 0,0 UV-I 0 W/m 0,1 C 0,4 C 6,4 km/h (2 Bft) 91,67 %
17.02.2018 01:39 0,4 C 4,4 C 98 % 1026,3 hPa 0,0 l/m 4,6 km/h (1 Bft) NO 47 0 min 0,000 mm 0,0 UV-I 0 W/m 0,1 C 0,4 C 6,4 km/h (2 Bft) 100,00 %
17.02.2018 01:40 0,4 C 4,4 C 98 % 1026,3 hPa 0,0 l/m 4,6 km/h (1 Bft) NO 47 0 min 0,000 mm 0,0 UV-I 0 W/m 0,1 C 0,4 C 4,8 km/h (1 Bft) 100,00 %
17.02.2018 01:41 0,4 C 4,4 C 98 % 1026,4 hPa 0,0 l/m 5,1 km/h (1 Bft) NO 47 0 min 0,000 mm 0,0 UV-I 0 W/m 0,1 C 0,4 C 6,4 km/h (2 Bft) 100,00 %
17.02.2018 01:42 0,4 C 4,4 C 98 % 1026,3 hPa 0,0 l/m 4,7 km/h (1 Bft) NO 47 0 min 0,000 mm 0,0 UV-I 0 W/m 0,1 C 0,4 C 6,4 km/h (2 Bft) 100,00 %
17.02.2018 01:43 0,4 C 4,4 C 98 % 1026,4 hPa 0,0 l/m 4,8 km/h (1 Bft) NO 49 0 min 0,000 mm 0,0 UV-I 0 W/m 0,1 C 0,4 C 6,4 km/h (2 Bft) 100,00 %
17.02.2018 01:44 0,4 C 4,4 C 98 % 1026,4 hPa 0,0 l/m 3,3 km/h (1 Bft) NO 49 0 min 0,000 mm 0,0 UV-I 0 W/m 0,1 C 0,4 C 4,8 km/h (1 Bft) 95,83 %
17.02.2018 01:45 0,4 C 4,4 C 98 % 1026,5 hPa 0,0 l/m 4,6 km/h (1 Bft) NO 49 0 min 0,000 mm 0,0 UV-I 0 W/m 0,1 C 0,4 C 6,4 km/h (2 Bft) 100,00 %
17.02.2018 01:46 0,4 C 4,4 C 98 % 1026,5 hPa 0,0 l/m 3,5 km/h (1 Bft) NO 49 0 min 0,000 mm 0,0 UV-I 0 W/m 0,1 C 0,4 C 6,4 km/h (2 Bft) 100,00 %
17.02.2018 01:47 0,4 C 4,4 C 98 % 1026,5 hPa 0,0 l/m 5,6 km/h (1 Bft) NO 49 0 min 0,000 mm 0,0 UV-I 0 W/m 0,1 C 0,4 C 6,4 km/h (2 Bft) 100,00 %
17.02.2018 01:48 0,4 C 4,4 C 98 % 1026,5 hPa 0,0 l/m 4,1 km/h (1 Bft) NO 49 0 min 0,000 mm 0,0 UV-I 0 W/m 0,1 C 0,4 C 4,8 km/h (1 Bft) 100,00 %
17.02.2018 01:49 0,4 C 4,4 C 98 % 1026,5 hPa 0,0 l/m 3,3 km/h (1 Bft) NO 49 0 min 0,000 mm 0,0 UV-I 0 W/m 0,1 C 0,4 C 4,8 km/h (1 Bft) 95,65 %
17.02.2018 01:50 0,4 C 4,4 C 98 % 1026,5 hPa 0,0 l/m 4,8 km/h (1 Bft) O-NO 71 0 min 0,000 mm 0,0 UV-I 0 W/m 0,1 C 0,4 C 6,4 km/h (2 Bft) 100,00 %
17.02.2018 01:51 0,4 C 4,4 C 98 % 1026,5 hPa 0,0 l/m 4,2 km/h (1 Bft) O-NO 71 0 min 0,000 mm 0,0 UV-I 0 W/m 0,1 C 0,4 C 4,8 km/h (1 Bft) 97,63 %
17.02.2018 01:52 0,4 C 4,4 C 98 % 1026,4 hPa 0,0 l/m 3,8 km/h (1 Bft) O-NO 71 0 min 0,000 mm 0,0 UV-I 0 W/m 0,1 C 0,4 C 6,4 km/h (2 Bft) 97,37 %
17.02.2018 01:53 0,3 C 4,4 C 98 % 1026,4 hPa 0,0 l/m 3,7 km/h (1 Bft) O-NO 71 0 min 0,000 mm 0,0 UV-I 0 W/m 0,0 C 0,3 C 4,8 km/h (1 Bft) 100,00 %
17.02.2018 01:54 0,3 C 4,4 C 98 % 1026,3 hPa 0,0 l/m 3,3 km/h (1 Bft) O-NO 71 0 min 0,000 mm 0,0 UV-I 0 W/m 0,0 C 0,3 C 4,8 km/h (1 Bft) 95,65 %
17.02.2018 01:55 0,3 C 4,4 C 98 % 1026,3 hPa 0,0 l/m 2,6 km/h (1 Bft) O-NO 71 0 min 0,000 mm 0,0 UV-I 0 W/m 0,0 C 0,3 C 4,8 km/h (1 Bft) 100,00 %
17.02.2018 01:56 0,3 C 4,4 C 98 % 1026,4 hPa 0,0 l/m 3,4 km/h (1 Bft) O-NO 71 0 min 0,000 mm 0,0 UV-I 0 W/m 0,0 C 0,3 C 4,8 km/h (1 Bft) 100,00 %
17.02.2018 01:57 0,3 C 4,4 C 98 % 1026,3 hPa 0,0 l/m 3,5 km/h (1 Bft) O-NO 71 0 min 0,000 mm 0,0 UV-I 0 W/m 0,0 C 0,3 C 4,8 km/h (1 Bft) 95,83 %
17.02.2018 01:58 0,3 C 4,4 C 98 % 1026,4 hPa 0,0 l/m 2,4 km/h (1 Bft) O-NO 71 0 min 0,000 mm 0,0 UV-I 0 W/m 0,0 C 0,3 C 3,2 km/h (1 Bft) 95,65 %
17.02.2018 01:59 0,3 C 4,4 C 98 % 1026,3 hPa 0,0 l/m 1,9 km/h (1 Bft) O-NO 71 0 min 0,000 mm 0,0 UV-I 0 W/m 0,0 C 0,3 C 3,2 km/h (1 Bft) 100,00 %
17.02.2018 02:00 0,3 C 4,4 C 98 % 1026,3 hPa 0,0 l/m 2,1 km/h (1 Bft) O-NO 71 0 min 0,000 mm 0,0 UV-I 0 W/m 0,0 C 0,3 C 3,2 km/h (1 Bft) 100,00 %
17.02.2018 02:01 0,3 C 4,4 C 98 % 1026,3 hPa 0,0 l/m 1,9 km/h (1 Bft) O-NO 71 0 min 0,000 mm 0,0 UV-I 0 W/m 0,0 C 0,3 C 3,2 km/h (1 Bft) 100,00 %
17.02.2018 02:02 0,3 C 4,4 C 98 % 1026,3 hPa 0,0 l/m 0,5 km/h (0 Bft) O-NO 71 0 min 0,000 mm 0,0 UV-I 0 W/m 0,0 C 0,3 C 1,6 km/h (1 Bft) 100,00 %
17.02.2018 02:03 0,3 C 4,4 C 98 % 1026,3 hPa 0,0 l/m 2,0 km/h (1 Bft) O-NO 71 0 min 0,000 mm 0,0 UV-I 0 W/m 0,0 C 0,3 C 3,2 km/h (1 Bft) 100,00 %
17.02.2018 02:04 0,3 C 4,4 C 98 % 1026,3 hPa 0,0 l/m 2,2 km/h (1 Bft) O-NO 71 0 min 0,000 mm 0,0 UV-I 0 W/m 0,0 C 0,3 C 3,2 km/h (1 Bft) 100,00 %
17.02.2018 02:05 0,3 C 4,4 C 98 % 1026,3 hPa 0,0 l/m 2,2 km/h (1 Bft) O-NO 71 0 min 0,000 mm 0,0 UV-I 0 W/m 0,0 C 0,3 C 3,2 km/h (1 Bft) 100,00 %
17.02.2018 02:06 0,3 C 4,4 C 98 % 1026,3 hPa 0,0 l/m 2,6 km/h (1 Bft) O-NO 71 0 min 0,000 mm 0,0 UV-I 0 W/m 0,0 C 0,3 C 4,8 km/h (1 Bft) 100,00 %
17.02.2018 02:07 0,3 C 4,4 C 98 % 1026,3 hPa 0,0 l/m 2,2 km/h (1 Bft) O-NO 71 0 min 0,000 mm 0,0 UV-I 0 W/m 0,0 C 0,3 C 3,2 km/h (1 Bft) 100,00 %
17.02.2018 02:08 0,3 C 4,4 C 98 % 1026,3 hPa 0,0 l/m 2,4 km/h (1 Bft) O-NO 71 0 min 0,000 mm 0,0 UV-I 0 W/m 0,0 C 0,3 C 3,2 km/h (1 Bft) 100,00 %
17.02.2018 02:09 0,3 C 4,4 C 98 % 1026,3 hPa 0,0 l/m 2,5 km/h (1 Bft) O-NO 71 0 min 0,000 mm 0,0 UV-I 0 W/m 0,0 C 0,3 C 3,2 km/h (1 Bft) 100,00 %
17.02.2018 02:10 0,3 C 4,4 C 98 % 1026,3 hPa 0,0 l/m 1,6 km/h (1 Bft) O-NO 71 0 min 0,000 mm 0,0 UV-I 0 W/m 0,0 C 0,3 C 3,2 km/h (1 Bft) 95,65 %
17.02.2018 02:11 0,3 C 4,4 C 98 % 1026,3 hPa 0,0 l/m 2,6 km/h (1 Bft) O-NO 71 0 min 0,000 mm 0,0 UV-I 0 W/m 0,0 C 0,3 C 3,2 km/h (1 Bft) 100,00 %
17.02.2018 02:12 0,3 C 4,4 C 98 % 1026,3 hPa 0,0 l/m 3,2 km/h (1 Bft) O-NO 71 0 min 0,000 mm 0,0 UV-I 0 W/m 0,0 C 0,3 C 3,2 km/h (1 Bft) 100,00 %
17.02.2018 02:13 0,3 C 4,4 C 98 % 1026,3 hPa 0,0 l/m 2,2 km/h (1 Bft) O-NO 71 0 min 0,000 mm 0,0 UV-I 0 W/m 0,0 C 0,3 C 3,2 km/h (1 Bft) 95,65 %
17.02.2018 02:14 0,3 C 4,4 C 98 % 1026,3 hPa 0,0 l/m 2,4 km/h (1 Bft) O-NO 71 0 min 0,000 mm 0,0 UV-I 0 W/m 0,0 C 0,3 C 3,2 km/h (1 Bft) 100,00 %
17.02.2018 02:15 0,3 C 4,4 C 98 % 1026,3 hPa 0,0 l/m 3,4 km/h (1 Bft) O-NO 71 0 min 0,000 mm 0,0 UV-I 0 W/m 0,0 C 0,3 C 4,8 km/h (1 Bft) 95,65 %
17.02.2018 02:16 0,3 C 4,4 C 98 % 1026,3 hPa 0,0 l/m 3,5 km/h (1 Bft) O-NO 62 0 min 0,000 mm 0,0 UV-I 0 W/m 0,0 C 0,3 C 4,8 km/h (1 Bft) 100,00 %
17.02.2018 02:17 0,3 C 4,4 C 98 % 1026,3 hPa 0,0 l/m 2,3 km/h (1 Bft) O-NO 62 0 min 0,000 mm 0,0 UV-I 0 W/m 0,0 C 0,3 C 3,2 km/h (1 Bft) 100,00 %
17.02.2018 02:18 0,3 C 4,4 C 98 % 1026,2 hPa 0,0 l/m 1,8 km/h (1 Bft) O-NO 63 0 min 0,000 mm 0,0 UV-I 0 W/m 0,0 C 0,3 C 3,2 km/h (1 Bft) 100,00 %
17.02.2018 02:19 0,3 C 4,4 C 98 % 1026,3 hPa 0,0 l/m 3,4 km/h (1 Bft) O-NO 62 0 min 0,000 mm 0,0 UV-I 0 W/m 0,0 C 0,3 C 4,8 km/h (1 Bft) 95,65 %
17.02.2018 02:20 0,3 C 4,4 C 98 % 1026,3 hPa 0,0 l/m 2,0 km/h (1 Bft) O-NO 62 0 min 0,000 mm 0,0 UV-I 0 W/m 0,0 C 0,3 C 3,2 km/h (1 Bft) 95,83 %
17.02.2018 02:21 0,3 C 4,4 C 98 % 1026,3 hPa 0,0 l/m 0,5 km/h (0 Bft) O-NO 62 0 min 0,000 mm 0,0 UV-I 0 W/m 0,0 C 0,3 C 1,6 km/h (1 Bft) 100,00 %
17.02.2018 02:22 0,3 C 4,4 C 98 % 1026,3 hPa 0,0 l/m 1,0 km/h (0 Bft) O-NO 62 0 min 0,000 mm 0,0 UV-I 0 W/m 0,0 C 0,3 C 1,6 km/h (1 Bft) 100,00 %
17.02.2018 02:23 0,3 C 4,4 C 98 % 1026,3 hPa 0,0 l/m 0,6 km/h (0 Bft) O-NO 62 0 min 0,000 mm 0,0 UV-I 0 W/m 0,0 C 0,3 C 1,6 km/h (1 Bft) 95,65 %
17.02.2018 02:24 0,3 C 4,4 C 98 % 1026,3 hPa 0,0 l/m 0,4 km/h (0 Bft) O-NO 62 0 min 0,000 mm 0,0 UV-I 0 W/m 0,0 C 0,3 C 1,6 km/h (1 Bft) 100,00 %
17.02.2018 02:25 0,3 C 4,4 C 98 % 1026,3 hPa 0,0 l/m 0,1 km/h (0 Bft) O-NO 62 0 min 0,000 mm 0,0 UV-I 0 W/m 0,0 C 0,3 C 1,6 km/h (1 Bft) 100,00 %
17.02.2018 02:26 0,3 C 4,4 C 98 % 1026,3 hPa 0,0 l/m 1,2 km/h (1 Bft) O-NO 62 0 min 0,000 mm 0,0 UV-I 0 W/m 0,0 C 0,3 C 3,2 km/h (1 Bft) 95,83 %
17.02.2018 02:27 0,3 C 4,4 C 98 % 1026,2 hPa 0,0 l/m 1,1 km/h (1 Bft) O-NO 62 0 min 0,000 mm 0,0 UV-I 0 W/m 0,0 C 0,3 C 3,2 km/h (1 Bft) 100,00 %
17.02.2018 02:28 0,3 C 4,4 C 98 % 1026,2 hPa 0,0 l/m 0,9 km/h (0 Bft) O-NO 62 0 min 0,000 mm 0,0 UV-I 0 W/m 0,0 C 0,3 C 1,6 km/h (1 Bft) 100,00 %
17.02.2018 02:29 0,3 C 4,4 C 98 % 1026,3 hPa 0,0 l/m 0,1 km/h (0 Bft) O-NO 62 0 min 0,000 mm 0,0 UV-I 0 W/m 0,0 C 0,3 C 1,6 km/h (1 Bft) 95,65 %
17.02.2018 02:30 0,3 C 4,4 C 98 % 1026,3 hPa 0,0 l/m 0,9 km/h (0 Bft) O-NO 62 0 min 0,000 mm 0,0 UV-I 0 W/m 0,0 C 0,3 C 1,6 km/h (1 Bft) 100,00 %
17.02.2018 02:31 0,3 C 4,4 C 98 % 1026,3 hPa 0,0 l/m 2,9 km/h (1 Bft) O-NO 62 0 min 0,000 mm 0,0 UV-I 0 W/m 0,0 C 0,3 C 3,2 km/h (1 Bft) 91,30 %
17.02.2018 02:32 0,3 C 4,4 C 98 % 1026,3 hPa 0,0 l/m 3,1 km/h (1 Bft) O-NO 62 0 min 0,000 mm 0,0 UV-I 0 W/m 0,0 C 0,3 C 4,8 km/h (1 Bft) 95,83 %
17.02.2018 02:33 0,3 C 4,4 C 98 % 1026,2 hPa 0,0 l/m 4,9 km/h (1 Bft) O-NO 60 0 min 0,000 mm 0,0 UV-I 0 W/m 0,0 C 0,3 C 6,4 km/h (2 Bft) 100,00 %
17.02.2018 02:34 0,3 C 4,4 C 98 % 1026,2 hPa 0,0 l/m 4,6 km/h (1 Bft) O-NO 59 0 min 0,000 mm 0,0 UV-I 0 W/m 0,0 C 0,3 C 6,4 km/h (2 Bft) 95,83 %
17.02.2018 02:35 0,4 C 4,4 C 98 % 1026,2 hPa 0,0 l/m 4,1 km/h (1 Bft) O-NO 59 0 min 0,000 mm 0,0 UV-I 0 W/m 0,1 C 0,4 C 4,8 km/h (1 Bft) 100,00 %
17.02.2018 02:36 0,4 C 4,4 C 98 % 1026,0 hPa 0,0 l/m 4,0 km/h (1 Bft) N-NO 18 0 min 0,000 mm 0,0 UV-I 0 W/m 0,1 C 0,4 C 6,4 km/h (2 Bft) 100,00 %
17.02.2018 02:37 0,4 C 4,4 C 98 % 1026,0 hPa 0,0 l/m 5,4 km/h (1 Bft) N-NO 13 0 min 0,000 mm 0,0 UV-I 0 W/m 0,1 C 0,4 C 8,0 km/h (2 Bft) 100,00 %
17.02.2018 02:38 0,4 C 4,4 C 98 % 1026,0 hPa 0,0 l/m 4,9 km/h (1 Bft) N-NO 13 0 min 0,000 mm 0,0 UV-I 0 W/m 0,1 C 0,4 C 6,4 km/h (2 Bft) 100,00 %
17.02.2018 02:39 0,4 C 4,4 C 98 % 1026,0 hPa 0,0 l/m 5,2 km/h (1 Bft) N-NO 15 0 min 0,000 mm 0,0 UV-I 0 W/m 0,1 C 0,4 C 6,4 km/h (2 Bft) 100,00 %
17.02.2018 02:40 0,4 C 4,4 C 98 % 1026,0 hPa 0,0 l/m 4,2 km/h (1 Bft) N-NO 15 0 min 0,000 mm 0,0 UV-I 0 W/m 0,1 C 0,4 C 4,8 km/h (1 Bft) 95,65 %
17.02.2018 02:41 0,4 C 4,4 C 98 % 1026,0 hPa 0,0 l/m 4,5 km/h (1 Bft) N-NO 15 0 min 0,000 mm 0,0 UV-I 0 W/m 0,1 C 0,4 C 6,4 km/h (2 Bft) 100,00 %
17.02.2018 02:42 0,4 C 4,4 C 98 % 1026,0 hPa 0,0 l/m 5,4 km/h (1 Bft) NO 40 0 min 0,000 mm 0,0 UV-I 0 W/m 0,1 C 0,4 C 6,4 km/h (2 Bft) 100,00 %
17.02.2018 02:43 0,4 C 4,4 C 98 % 1026,0 hPa 0,0 l/m 4,9 km/h (1 Bft) NO 40 0 min 0,000 mm 0,0 UV-I 0 W/m 0,1 C 0,4 C 6,4 km/h (2 Bft) 100,00 %
17.02.2018 02:44 0,4 C 4,4 C 98 % 1026,0 hPa 0,0 l/m 4,5 km/h (1 Bft) NO 40 0 min 0,000 mm 0,0 UV-I 0 W/m 0,1 C 0,4 C 4,8 km/h (1 Bft) 100,00 %
17.02.2018 02:45 0,4 C 4,4 C 98 % 1026,0 hPa 0,0 l/m 3,4 km/h (1 Bft) NO 40 0 min 0,000 mm 0,0 UV-I 0 W/m 0,1 C 0,4 C 4,8 km/h (1 Bft) 100,00 %
17.02.2018 02:46 0,4 C 4,4 C 98 % 1025,9 hPa 0,0 l/m 4,4 km/h (1 Bft) NO 40 0 min 0,000 mm 0,0 UV-I 0 W/m 0,1 C 0,4 C 4,8 km/h (1 Bft) 100,00 %
17.02.2018 02:47 0,4 C 4,4 C 98 % 1025,9 hPa 0,0 l/m 4,0 km/h (1 Bft) NO 40 0 min 0,000 mm 0,0 UV-I 0 W/m 0,1 C 0,4 C 4,8 km/h (1 Bft) 100,00 %
17.02.2018 02:48 0,4 C 4,4 C 98 % 1025,9 hPa 0,0 l/m 4,6 km/h (1 Bft) NO 40 0 min 0,000 mm 0,0 UV-I 0 W/m 0,1 C 0,4 C 6,4 km/h (2 Bft) 100,00 %
17.02.2018 02:49 0,4 C 4,4 C 98 % 1025,9 hPa 0,0 l/m 5,0 km/h (1 Bft) NO 40 0 min 0,000 mm 0,0 UV-I 0 W/m 0,1 C 0,4 C 6,4 km/h (2 Bft) 100,00 %
17.02.2018 02:50 0,4 C 4,4 C 98 % 1025,9 hPa 0,0 l/m 5,1 km/h (1 Bft) NO 40 0 min 0,000 mm 0,0 UV-I 0 W/m 0,1 C 0,4 C 6,4 km/h (2 Bft) 100,00 %
17.02.2018 02:51 0,4 C 4,4 C 98 % 1025,8 hPa 0,0 l/m 4,6 km/h (1 Bft) NO 40 0 min 0,000 mm 0,0 UV-I 0 W/m 0,1 C 0,4 C 6,4 km/h (2 Bft) 100,00 %
17.02.2018 02:52 0,4 C 4,4 C 98 % 1025,9 hPa 0,0 l/m 5,9 km/h (2 Bft) NO 40 0 min 0,000 mm 0,0 UV-I 0 W/m 0,1 C 0,4 C 6,4 km/h (2 Bft) 95,65 %
17.02.2018 02:53 0,4 C 4,4 C 98 % 1025,9 hPa 0,0 l/m 5,9 km/h (2 Bft) NO 40 0 min 0,000 mm 0,0 UV-I 0 W/m 0,1 C 0,4 C 8,0 km/h (2 Bft) 95,83 %
17.02.2018 02:54 0,4 C 4,4 C 98 % 1025,9 hPa 0,0 l/m 5,2 km/h (1 Bft) NO 40 0 min 0,000 mm 0,0 UV-I 0 W/m 0,1 C 0,4 C 6,4 km/h (2 Bft) 100,00 %
17.02.2018 02:55 0,4 C 4,4 C 98 % 1025,9 hPa 0,0 l/m 6,3 km/h (2 Bft) NO 40 0 min 0,000 mm 0,0 UV-I 0 W/m 0,1 C 0,4 C 8,0 km/h (2 Bft) 100,00 %
17.02.2018 02:56 0,4 C 4,4 C 98 % 1025,8 hPa 0,0 l/m 6,6 km/h (2 Bft) NO 40 0 min 0,000 mm 0,0 UV-I 0 W/m 0,1 C 0,2 C 8,0 km/h (2 Bft) 100,00 %
17.02.2018 02:57 0,4 C 4,4 C 98 % 1025,8 hPa 0,0 l/m 6,1 km/h (2 Bft) NO 40 0 min 0,000 mm 0,0 UV-I 0 W/m 0,1 C 0,4 C 6,4 km/h (2 Bft) 95,65 %
17.02.2018 02:58 0,4 C 4,4 C 98 % 1025,7 hPa 0,0 l/m 6,6 km/h (2 Bft) NO 40 0 min 0,000 mm 0,0 UV-I 0 W/m 0,1 C 0,2 C 8,0 km/h (2 Bft) 95,83 %
17.02.2018 02:59 0,4 C 4,4 C 98 % 1025,7 hPa 0,0 l/m 5,6 km/h (1 Bft) NO 40 0 min 0,000 mm 0,0 UV-I 0 W/m 0,1 C 0,4 C 6,4 km/h (2 Bft) 92,31 %
17.02.2018 03:00 0,4 C 4,4 C 98 % 1025,8 hPa 0,0 l/m 4,8 km/h (1 Bft) NO 40 0 min 0,000 mm 0,0 UV-I 0 W/m 0,1 C 0,4 C 6,4 km/h (2 Bft) 95,83 %
17.02.2018 03:01 0,4 C 4,4 C 98 % 1025,8 hPa 0,0 l/m 4,8 km/h (1 Bft) NO 40 0 min 0,000 mm 0,0 UV-I 0 W/m 0,1 C 0,4 C 6,4 km/h (2 Bft) 95,65 %
17.02.2018 03:02 0,4 C 4,4 C 98 % 1025,8 hPa 0,0 l/m 5,0 km/h (1 Bft) NO 40 0 min 0,000 mm 0,0 UV-I 0 W/m 0,1 C 0,4 C 6,4 km/h (2 Bft) 95,83 %
17.02.2018 03:03 0,4 C 4,4 C 98 % 1025,7 hPa 0,0 l/m 4,9 km/h (1 Bft) NO 40 0 min 0,000 mm 0,0 UV-I 0 W/m 0,1 C 0,4 C 6,4 km/h (2 Bft) 100,00 %
17.02.2018 03:04 0,4 C 4,4 C 98 % 1025,7 hPa 0,0 l/m 5,0 km/h (1 Bft) NO 40 0 min 0,000 mm 0,0 UV-I 0 W/m 0,1 C 0,4 C 6,4 km/h (2 Bft) 95,83 %
17.02.2018 03:05 0,4 C 4,4 C 98 % 1025,8 hPa 0,0 l/m 5,3 km/h (1 Bft) NO 40 0 min 0,000 mm 0,0 UV-I 0 W/m 0,1 C 0,4 C 6,4 km/h (2 Bft) 100,00 %
17.02.2018 03:06 0,5 C 4,4 C 98 % 1025,7 hPa 0,0 l/m 5,2 km/h (1 Bft) NO 40 0 min 0,000 mm 0,0 UV-I 0 W/m 0,2 C 0,5 C 6,4 km/h (2 Bft) 95,83 %
17.02.2018 03:07 0,5 C 4,4 C 98 % 1025,7 hPa 0,0 l/m 5,9 km/h (2 Bft) NO 40 0 min 0,000 mm 0,0 UV-I 0 W/m 0,2 C 0,5 C 8,0 km/h (2 Bft) 86,96 %
17.02.2018 03:08 0,5 C 4,4 C 98 % 1025,7 hPa 0,0 l/m 4,5 km/h (1 Bft) NO 40 0 min 0,000 mm 0,0 UV-I 0 W/m 0,2 C 0,5 C 6,4 km/h (2 Bft) 100,00 %
17.02.2018 03:09 0,5 C 4,4 C 98 % 1025,7 hPa 0,0 l/m 2,8 km/h (1 Bft) NO 40 0 min 0,000 mm 0,0 UV-I 0 W/m 0,2 C 0,5 C 4,8 km/h (1 Bft) 95,65 %
17.02.2018 03:10 0,5 C 4,4 C 98 % 1025,7 hPa 0,0 l/m 3,6 km/h (1 Bft) NO 40 0 min 0,000 mm 0,0 UV-I 0 W/m 0,2 C 0,5 C 4,8 km/h (1 Bft) 95,83 %
17.02.2018 03:11 0,5 C 4,4 C 98 % 1025,7 hPa 0,0 l/m 5,4 km/h (1 Bft) NO 40 0 min 0,000 mm 0,0 UV-I 0 W/m 0,2 C 0,5 C 6,4 km/h (2 Bft) 95,65 %
17.02.2018 03:12 0,5 C 4,4 C 98 % 1025,7 hPa 0,0 l/m 3,4 km/h (1 Bft) NO 40 0 min 0,000 mm 0,0 UV-I 0 W/m 0,2 C 0,5 C 4,8 km/h (1 Bft) 100,00 %
17.02.2018 03:13 0,6 C 4,4 C 98 % 1025,7 hPa 0,0 l/m 3,6 km/h (1 Bft) NO 40 0 min 0,000 mm 0,0 UV-I 0 W/m 0,3 C 0,6 C 6,4 km/h (2 Bft) 95,83 %
17.02.2018 03:14 0,6 C 4,4 C 98 % 1025,7 hPa 0,0 l/m 5,5 km/h (1 Bft) NO 40 0 min 0,000 mm 0,0 UV-I 0 W/m 0,3 C 0,6 C 6,4 km/h (2 Bft) 100,00 %
17.02.2018 03:15 0,5 C 4,4 C 98 % 1025,6 hPa 0,0 l/m 5,2 km/h (1 Bft) NO 40 0 min 0,000 mm 0,0 UV-I 0 W/m 0,2 C 0,5 C 6,4 km/h (2 Bft) 91,67 %
17.02.2018 03:16 0,5 C 4,4 C 98 % 1025,6 hPa 0,0 l/m 5,6 km/h (1 Bft) NO 40 0 min 0,000 mm 0,0 UV-I 0 W/m 0,2 C 0,5 C 6,4 km/h (2 Bft) 91,30 %
17.02.2018 03:17 0,5 C 4,4 C 98 % 1025,6 hPa 0,0 l/m 3,8 km/h (1 Bft) NO 40 0 min 0,000 mm 0,0 UV-I 0 W/m 0,2 C 0,5 C 4,8 km/h (1 Bft) 100,00 %
17.02.2018 03:18 0,6 C 4,4 C 98 % 1025,6 hPa 0,0 l/m 4,1 km/h (1 Bft) NO 40 0 min 0,000 mm 0,0 UV-I 0 W/m 0,3 C 0,6 C 4,8 km/h (1 Bft) 95,65 %
17.02.2018 03:19 0,6 C 4,4 C 98 % 1025,5 hPa 0,0 l/m 4,5 km/h (1 Bft) NO 40 0 min 0,000 mm 0,0 UV-I 0 W/m 0,3 C 0,6 C 6,4 km/h (2 Bft) 91,67 %
17.02.2018 03:20 0,6 C 4,4 C 98 % 1025,5 hPa 0,0 l/m 3,8 km/h (1 Bft) NO 40 0 min 0,000 mm 0,0 UV-I 0 W/m 0,3 C 0,6 C 4,8 km/h (1 Bft) 95,65 %
17.02.2018 03:21 0,6 C 4,4 C 98 % 1025,5 hPa 0,0 l/m 2,3 km/h (1 Bft) NO 40 0 min 0,000 mm 0,0 UV-I 0 W/m 0,3 C 0,6 C 3,2 km/h (1 Bft) 100,00 %
17.02.2018 03:22 0,5 C 4,4 C 98 % 1025,5 hPa 0,0 l/m 1,6 km/h (1 Bft) NO 40 0 min 0,000 mm 0,0 UV-I 0 W/m 0,2 C 0,5 C 3,2 km/h (1 Bft) 95,65 %
17.02.2018 03:23 0,6 C 4,4 C 98 % 1025,5 hPa 0,0 l/m 1,7 km/h (1 Bft) NO 40 0 min 0,000 mm 0,0 UV-I 0 W/m 0,3 C 0,6 C 3,2 km/h (1 Bft) 95,83 %
17.02.2018 03:24 0,6 C 4,4 C 98 % 1025,5 hPa 0,0 l/m 3,3 km/h (1 Bft) NO 40 0 min 0,000 mm 0,0 UV-I 0 W/m 0,3 C 0,6 C 4,8 km/h (1 Bft) 91,30 %
17.02.2018 03:25 0,6 C 4,4 C 98 % 1025,5 hPa 0,0 l/m 4,6 km/h (1 Bft) NO 40 0 min 0,000 mm 0,0 UV-I 0 W/m 0,3 C 0,6 C 4,8 km/h (1 Bft) 95,83 %
17.02.2018 03:26 0,6 C 4,4 C 98 % 1025,5 hPa 0,0 l/m 4,8 km/h (1 Bft) NO 40 0 min 0,000 mm 0,0 UV-I 0 W/m 0,3 C 0,6 C 6,4 km/h (2 Bft) 100,00 %
17.02.2018 03:27 0,6 C 4,4 C 98 % 1025,4 hPa 0,0 l/m 4,2 km/h (1 Bft) NO 40 0 min 0,000 mm 0,0 UV-I 0 W/m 0,3 C 0,6 C 4,8 km/h (1 Bft) 91,67 %
17.02.2018 03:28 0,6 C 4,4 C 98 % 1025,4 hPa 0,0 l/m 5,8 km/h (2 Bft) NO 40 0 min 0,000 mm 0,0 UV-I 0 W/m 0,3 C 0,6 C 6,4 km/h (2 Bft) 91,30 %
17.02.2018 03:29 0,6 C 4,4 C 98 % 1025,4 hPa 0,0 l/m 4,8 km/h (1 Bft) NO 40 0 min 0,000 mm 0,0 UV-I 0 W/m 0,3 C 0,6 C 6,4 km/h (2 Bft) 91,67 %
17.02.2018 03:30 0,6 C 4,4 C 98 % 1025,4 hPa 0,0 l/m 3,8 km/h (1 Bft) NO 40 0 min 0,000 mm 0,0 UV-I 0 W/m 0,3 C 0,6 C 4,8 km/h (1 Bft) 91,30 %
17.02.2018 03:31 0,6 C 4,4 C 98 % 1025,4 hPa 0,0 l/m 3,3 km/h (1 Bft) NO 40 0 min 0,000 mm 0,0 UV-I 0 W/m 0,3 C 0,6 C 4,8 km/h (1 Bft) 100,00 %
17.02.2018 03:32 0,6 C 4,4 C 98 % 1025,4 hPa 0,0 l/m 2,6 km/h (1 Bft) NO 40 0 min 0,000 mm 0,0 UV-I 0 W/m 0,3 C 0,6 C 4,8 km/h (1 Bft) 91,30 %
17.02.2018 03:33 0,6 C 4,4 C 98 % 1025,4 hPa 0,0 l/m 3,4 km/h (1 Bft) NO 40 0 min 0,000 mm 0,0 UV-I 0 W/m 0,3 C 0,6 C 4,8 km/h (1 Bft) 100,00 %
17.02.2018 03:34 0,6 C 4,4 C 98 % 1025,4 hPa 0,0 l/m 3,2 km/h (1 Bft) NO 40 0 min 0,000 mm 0,0 UV-I 0 W/m 0,3 C 0,6 C 3,2 km/h (1 Bft) 91,67 %
17.02.2018 03:35 0,6 C 4,4 C 98 % 1025,4 hPa 0,0 l/m 3,1 km/h (1 Bft) NO 40 0 min 0,000 mm 0,0 UV-I 0 W/m 0,3 C 0,6 C 4,8 km/h (1 Bft) 100,00 %
17.02.2018 03:36 0,6 C 4,4 C 98 % 1025,4 hPa 0,0 l/m 2,1 km/h (1 Bft) NO 40 0 min 0,000 mm 0,0 UV-I 0 W/m 0,3 C 0,6 C 3,2 km/h (1 Bft) 95,83 %
17.02.2018 03:37 0,6 C 4,4 C 98 % 1025,3 hPa 0,0 l/m 3,0 km/h (1 Bft) NO 40 0 min 0,000 mm 0,0 UV-I 0 W/m 0,3 C 0,6 C 4,8 km/h (1 Bft) 100,00 %
17.02.2018 03:38 0,6 C 4,4 C 98 % 1025,3 hPa 0,0 l/m 2,7 km/h (1 Bft) NO 40 0 min 0,000 mm 0,0 UV-I 0 W/m 0,3 C 0,6 C 3,2 km/h (1 Bft) 95,83 %
17.02.2018 03:39 0,6 C 4,4 C 98 % 1025,3 hPa 0,0 l/m 2,5 km/h (1 Bft) NO 40 0 min 0,000 mm 0,0 UV-I 0 W/m 0,3 C 0,6 C 3,2 km/h (1 Bft) 100,00 %
17.02.2018 03:40 0,6 C 4,4 C 98 % 1025,3 hPa 0,0 l/m 2,5 km/h (1 Bft) NO 40 0 min 0,000 mm 0,0 UV-I 0 W/m 0,3 C 0,6 C 3,2 km/h (1 Bft) 96,30 %
17.02.2018 03:41 0,6 C 4,4 C 98 % 1025,2 hPa 0,0 l/m 1,7 km/h (1 Bft) NO 40 0 min 0,000 mm 0,0 UV-I 0 W/m 0,3 C 0,6 C 3,2 km/h (1 Bft) 100,00 %
17.02.2018 03:42 0,6 C 4,4 C 98 % 1025,2 hPa 0,0 l/m 2,2 km/h (1 Bft) NO 40 0 min 0,000 mm 0,0 UV-I 0 W/m 0,3 C 0,6 C 3,2 km/h (1 Bft) 95,83 %
17.02.2018 03:43 0,6 C 4,4 C 98 % 1025,2 hPa 0,0 l/m 0,4 km/h (0 Bft) NO 40 0 min 0,000 mm 0,0 UV-I 0 W/m 0,3 C 0,6 C 1,6 km/h (1 Bft) 91,67 %
17.02.2018 03:44 0,6 C 4,4 C 98 % 1025,2 hPa 0,0 l/m 0,0 km/h (0 Bft) NO 40 0 min 0,000 mm 0,0 UV-I 0 W/m 0,3 C 0,6 C 0,0 km/h (0 Bft) 100,00 %
17.02.2018 03:45 0,6 C 4,4 C 98 % 1025,2 hPa 0,0 l/m 0,0 km/h (0 Bft) NO 40 0 min 0,000 mm 0,0 UV-I 0 W/m 0,3 C 0,6 C 0,0 km/h (0 Bft) 95,65 %
17.02.2018 03:46 0,6 C 4,4 C 98 % 1025,2 hPa 0,0 l/m 0,0 km/h (0 Bft) NO 40 0 min 0,000 mm 0,0 UV-I 0 W/m 0,3 C 0,6 C 0,0 km/h (0 Bft) 100,00 %
17.02.2018 03:47 0,6 C 4,4 C 98 % 1025,1 hPa 0,0 l/m 0,0 km/h (0 Bft) NO 40 0 min 0,000 mm 0,0 UV-I 0 W/m 0,3 C 0,6 C 0,0 km/h (0 Bft) 86,96 %
17.02.2018 03:48 0,6 C 4,4 C 98 % 1025,1 hPa 0,0 l/m 0,0 km/h (0 Bft) NO 40 0 min 0,000 mm 0,0 UV-I 0 W/m 0,3 C 0,6 C 0,0 km/h (0 Bft) 100,00 %
17.02.2018 03:49 0,6 C 4,4 C 98 % 1025,1 hPa 0,0 l/m 0,6 km/h (0 Bft) NO 40 0 min 0,000 mm 0,0 UV-I 0 W/m 0,3 C 0,6 C 1,6 km/h (1 Bft) 91,30 %
17.02.2018 03:50 0,6 C 4,4 C 98 % 1025,1 hPa 0,0 l/m 0,0 km/h (0 Bft) NO 40 0 min 0,000 mm 0,0 UV-I 0 W/m 0,3 C 0,6 C 0,0 km/h (0 Bft) 100,00 %
17.02.2018 03:51 0,6 C 4,4 C 98 % 1025,1 hPa 0,0 l/m 0,5 km/h (0 Bft) NO 40 0 min 0,000 mm 0,0 UV-I 0 W/m 0,3 C 0,6 C 1,6 km/h (1 Bft) 91,67 %
17.02.2018 03:52 0,6 C 4,4 C 98 % 1025,1 hPa 0,0 l/m 0,0 km/h (0 Bft) NO 40 0 min 0,000 mm 0,0 UV-I 0 W/m 0,3 C 0,6 C 0,0 km/h (0 Bft) 95,65 %
17.02.2018 03:53 0,6 C 4,4 C 98 % 1025,1 hPa 0,0 l/m 0,0 km/h (0 Bft) NO 40 0 min 0,000 mm 0,0 UV-I 0 W/m 0,3 C 0,6 C 0,0 km/h (0 Bft) 100,00 %
17.02.2018 03:54 0,6 C 4,4 C 98 % 1025,1 hPa 0,0 l/m 0,0 km/h (0 Bft) NO 40 0 min 0,000 mm 0,0 UV-I 0 W/m 0,3 C 0,6 C 0,0 km/h (0 Bft) 91,30 %
17.02.2018 03:55 0,6 C 4,4 C 98 % 1025,1 hPa 0,0 l/m 0,0 km/h (0 Bft) NO 40 0 min 0,000 mm 0,0 UV-I 0 W/m 0,3 C 0,6 C 0,0 km/h (0 Bft) 100,00 %
17.02.2018 03:56 0,7 C 4,4 C 98 % 1025,1 hPa 0,0 l/m 1,1 km/h (1 Bft) NO 40 0 min 0,000 mm 0,0 UV-I 0 W/m 0,4 C 0,7 C 1,6 km/h (1 Bft) 95,65 %
17.02.2018 03:57 0,7 C 4,4 C 98 % 1025,0 hPa 0,0 l/m 0,1 km/h (0 Bft) NO 40 0 min 0,000 mm 0,0 UV-I 0 W/m 0,4 C 0,7 C 1,6 km/h (1 Bft) 100,00 %
17.02.2018 03:58 0,7 C 4,4 C 98 % 1025,0 hPa 0,0 l/m 1,2 km/h (1 Bft) NO 40 0 min 0,000 mm 0,0 UV-I 0 W/m 0,4 C 0,7 C 1,6 km/h (1 Bft) 91,30 %
17.02.2018 03:59 0,7 C 4,4 C 98 % 1025,0 hPa 0,0 l/m 1,2 km/h (1 Bft) NO 40 0 min 0,000 mm 0,0 UV-I 0 W/m 0,4 C 0,7 C 1,6 km/h (1 Bft) 100,00 %
17.02.2018 04:00 0,7 C 4,4 C 98 % 1025,0 hPa 0,0 l/m 2,2 km/h (1 Bft) NO 40 0 min 0,000 mm 0,0 UV-I 0 W/m 0,4 C 0,7 C 3,2 km/h (1 Bft) 91,30 %
17.02.2018 04:01 0,7 C 4,4 C 98 % 1025,0 hPa 0,0 l/m 1,7 km/h (1 Bft) NO 40 0 min 0,000 mm 0,0 UV-I 0 W/m 0,4 C 0,7 C 3,2 km/h (1 Bft) 100,00 %
17.02.2018 04:02 0,7 C 4,4 C 98 % 1025,0 hPa 0,0 l/m 2,1 km/h (1 Bft) NO 40 0 min 0,000 mm 0,0 UV-I 0 W/m 0,4 C 0,7 C 3,2 km/h (1 Bft) 86,96 %
17.02.2018 04:03 0,7 C 4,4 C 98 % 1024,9 hPa 0,0 l/m 3,3 km/h (1 Bft) NO 40 0 min 0,000 mm 0,0 UV-I 0 W/m 0,4 C 0,7 C 4,8 km/h (1 Bft) 95,83 %
17.02.2018 04:04 0,7 C 4,4 C 98 % 1024,9 hPa 0,0 l/m 3,8 km/h (1 Bft) NO 40 0 min 0,000 mm 0,0 UV-I 0 W/m 0,4 C 0,7 C 4,8 km/h (1 Bft) 95,65 %
17.02.2018 04:05 0,7 C 4,4 C 98 % 1024,9 hPa 0,0 l/m 3,4 km/h (1 Bft) NO 40 0 min 0,000 mm 0,0 UV-I 0 W/m 0,4 C 0,7 C 4,8 km/h (1 Bft) 95,83 %
17.02.2018 04:06 0,7 C 4,4 C 98 % 1024,9 hPa 0,0 l/m 3,6 km/h (1 Bft) NO 40 0 min 0,000 mm 0,0 UV-I 0 W/m 0,4 C 0,7 C 4,8 km/h (1 Bft) 95,65 %
17.02.2018 04:07 0,6 C 4,4 C 98 % 1024,9 hPa 0,0 l/m 3,9 km/h (1 Bft) NO 40 0 min 0,000 mm 0,0 UV-I 0 W/m 0,3 C 0,6 C 4,8 km/h (1 Bft) 95,83 %
17.02.2018 04:08 0,6 C 4,4 C 98 % 1024,9 hPa 0,0 l/m 3,4 km/h (1 Bft) NO 40 0 min 0,000 mm 0,0 UV-I 0 W/m 0,3 C 0,6 C 4,8 km/h (1 Bft) 95,65 %
17.02.2018 04:09 0,7 C 4,4 C 98 % 1024,8 hPa 0,0 l/m 2,6 km/h (1 Bft) NO 40 0 min 0,000 mm 0,0 UV-I 0 W/m 0,4 C 0,7 C 3,2 km/h (1 Bft) 91,67 %
17.02.2018 04:10 0,7 C 4,4 C 98 % 1024,8 hPa 0,0 l/m 2,4 km/h (1 Bft) NO 40 0 min 0,000 mm 0,0 UV-I 0 W/m 0,4 C 0,7 C 3,2 km/h (1 Bft) 100,00 %
17.02.2018 04:11 0,7 C 4,4 C 98 % 1024,8 hPa 0,0 l/m 1,8 km/h (1 Bft) NO 40 0 min 0,000 mm 0,0 UV-I 0 W/m 0,4 C 0,7 C 3,2 km/h (1 Bft) 91,67 %
17.02.2018 04:12 0,6 C 4,4 C 98 % 1024,8 hPa 0,0 l/m 2,7 km/h (1 Bft) NO 40 0 min 0,000 mm 0,0 UV-I 0 W/m 0,3 C 0,6 C 3,2 km/h (1 Bft) 95,83 %
17.02.2018 04:13 0,7 C 4,4 C 98 % 1024,7 hPa 0,0 l/m 3,0 km/h (1 Bft) NO 40 0 min 0,000 mm 0,0 UV-I 0 W/m 0,4 C 0,7 C 3,2 km/h (1 Bft) 95,65 %
17.02.2018 04:14 0,6 C 4,4 C 98 % 1024,7 hPa 0,0 l/m 3,2 km/h (1 Bft) NO 40 0 min 0,000 mm 0,0 UV-I 0 W/m 0,3 C 0,6 C 3,2 km/h (1 Bft) 95,83 %
17.02.2018 04:15 0,6 C 4,4 C 98 % 1024,7 hPa 0,0 l/m 3,4 km/h (1 Bft) NO 40 0 min 0,000 mm 0,0 UV-I 0 W/m 0,3 C 0,6 C 4,8 km/h (1 Bft) 100,00 %
17.02.2018 04:16 0,6 C 4,4 C 98 % 1024,6 hPa 0,0 l/m 3,8 km/h (1 Bft) NO 40 0 min 0,000 mm 0,0 UV-I 0 W/m 0,3 C 0,6 C 4,8 km/h (1 Bft) 95,83 %
17.02.2018 04:17 0,6 C 4,4 C 98 % 1024,6 hPa 0,0 l/m 3,8 km/h (1 Bft) NO 40 0 min 0,000 mm 0,0 UV-I 0 W/m 0,3 C 0,6 C 4,8 km/h (1 Bft) 100,00 %
17.02.2018 04:18 0,6 C 4,4 C 98 % 1024,6 hPa 0,0 l/m 3,0 km/h (1 Bft) NO 40 0 min 0,000 mm 0,0 UV-I 0 W/m 0,3 C 0,6 C 3,2 km/h (1 Bft) 91,67 %
17.02.2018 04:19 0,6 C 4,4 C 98 % 1024,7 hPa 0,0 l/m 2,6 km/h (1 Bft) NO 40 0 min 0,000 mm 0,0 UV-I 0 W/m 0,3 C 0,6 C 3,2 km/h (1 Bft) 100,00 %
17.02.2018 04:20 0,6 C 4,4 C 98 % 1024,6 hPa 0,0 l/m 2,5 km/h (1 Bft) NO 40 0 min 0,000 mm 0,0 UV-I 0 W/m 0,3 C 0,6 C 3,2 km/h (1 Bft) 95,83 %
17.02.2018 04:21 0,6 C 4,4 C 98 % 1024,6 hPa 0,0 l/m 2,5 km/h (1 Bft) NO 40 0 min 0,000 mm 0,0 UV-I 0 W/m 0,3 C 0,6 C 3,2 km/h (1 Bft) 100,00 %
17.02.2018 04:22 0,6 C 4,4 C 98 % 1024,7 hPa 0,0 l/m 3,4 km/h (1 Bft) NO 40 0 min 0,000 mm 0,0 UV-I 0 W/m 0,3 C 0,6 C 4,8 km/h (1 Bft) 95,83 %
17.02.2018 04:23 0,6 C 4,4 C 98 % 1024,6 hPa 0,0 l/m 3,4 km/h (1 Bft) NO 40 0 min 0,000 mm 0,0 UV-I 0 W/m 0,3 C 0,6 C 4,8 km/h (1 Bft) 100,00 %
17.02.2018 04:24 0,6 C 4,4 C 98 % 1024,6 hPa 0,0 l/m 3,8 km/h (1 Bft) NO 40 0 min 0,000 mm 0,0 UV-I 0 W/m 0,3 C 0,6 C 4,8 km/h (1 Bft) 95,83 %
17.02.2018 04:25 0,6 C 4,4 C 98 % 1024,7 hPa 0,0 l/m 3,2 km/h (1 Bft) NO 40 0 min 0,000 mm 0,0 UV-I 0 W/m 0,3 C 0,6 C 4,8 km/h (1 Bft) 100,00 %
17.02.2018 04:26 0,6 C 4,4 C 98 % 1024,7 hPa 0,0 l/m 2,4 km/h (1 Bft) NO 40 0 min 0,000 mm 0,0 UV-I 0 W/m 0,3 C 0,6 C 3,2 km/h (1 Bft) 91,30 %
17.02.2018 04:27 0,6 C 4,4 C 98 % 1024,6 hPa 0,0 l/m 2,6 km/h (1 Bft) NO 40 0 min 0,000 mm 0,0 UV-I 0 W/m 0,3 C 0,6 C 3,2 km/h (1 Bft) 100,00 %
17.02.2018 04:28 0,6 C 4,4 C 98 % 1024,6 hPa 0,0 l/m 3,1 km/h (1 Bft) NO 40 0 min 0,000 mm 0,0 UV-I 0 W/m 0,3 C 0,6 C 4,8 km/h (1 Bft) 95,65 %
17.02.2018 04:29 0,6 C 4,4 C 98 % 1024,7 hPa 0,0 l/m 3,1 km/h (1 Bft) NO 40 0 min 0,000 mm 0,0 UV-I 0 W/m 0,3 C 0,6 C 3,2 km/h (1 Bft) 95,83 %
17.02.2018 04:30 0,6 C 4,4 C 98 % 1024,6 hPa 0,0 l/m 1,9 km/h (1 Bft) NO 40 0 min 0,000 mm 0,0 UV-I 0 W/m 0,3 C 0,6 C 3,2 km/h (1 Bft) 100,00 %
17.02.2018 04:31 0,6 C 4,4 C 98 % 1024,7 hPa 0,0 l/m 2,3 km/h (1 Bft) NO 40 0 min 0,000 mm 0,0 UV-I 0 W/m 0,3 C 0,6 C 3,2 km/h (1 Bft) 95,83 %
17.02.2018 04:32 0,6 C 4,4 C 98 % 1024,6 hPa 0,0 l/m 2,1 km/h (1 Bft) NO 40 0 min 0,000 mm 0,0 UV-I 0 W/m 0,3 C 0,6 C 3,2 km/h (1 Bft) 95,65 %
17.02.2018 04:33 0,6 C 4,4 C 98 % 1024,7 hPa 0,0 l/m 2,2 km/h (1 Bft) NO 40 0 min 0,000 mm 0,0 UV-I 0 W/m 0,3 C 0,6 C 3,2 km/h (1 Bft) 95,83 %
17.02.2018 04:34 0,6 C 4,4 C 98 % 1024,6 hPa 0,0 l/m 1,6 km/h (1 Bft) NO 40 0 min 0,000 mm 0,0 UV-I 0 W/m 0,3 C 0,6 C 3,2 km/h (1 Bft) 96,15 %
17.02.2018 04:35 0,6 C 4,4 C 98 % 1024,5 hPa 0,0 l/m 1,1 km/h (1 Bft) NO 40 0 min 0,000 mm 0,0 UV-I 0 W/m 0,3 C 0,6 C 3,2 km/h (1 Bft) 95,83 %
17.02.2018 04:36 0,6 C 4,4 C 98 % 1024,5 hPa 0,0 l/m 2,9 km/h (1 Bft) NO 40 0 min 0,000 mm 0,0 UV-I 0 W/m 0,3 C 0,6 C 4,8 km/h (1 Bft) 100,00 %
17.02.2018 04:37 0,6 C 4,4 C 98 % 1024,5 hPa 0,0 l/m 3,2 km/h (1 Bft) NO 40 0 min 0,000 mm 0,0 UV-I 0 W/m 0,3 C 0,6 C 4,8 km/h (1 Bft) 95,83 %
17.02.2018 04:38 0,6 C 4,4 C 98 % 1024,4 hPa 0,0 l/m 3,7 km/h (1 Bft) NO 40 0 min 0,000 mm 0,0 UV-I 0 W/m 0,3 C 0,6 C 4,8 km/h (1 Bft) 95,65 %
17.02.2018 04:39 0,6 C 4,4 C 98 % 1024,4 hPa 0,0 l/m 4,3 km/h (1 Bft) NO 40 0 min 0,000 mm 0,0 UV-I 0 W/m 0,3 C 0,6 C 4,8 km/h (1 Bft) 100,00 %
17.02.2018 04:40 0,6 C 4,4 C 98 % 1024,4 hPa 0,0 l/m 3,9 km/h (1 Bft) NO 40 0 min 0,000 mm 0,0 UV-I 0 W/m 0,3 C 0,6 C 4,8 km/h (1 Bft) 100,00 %
17.02.2018 04:41 0,6 C 4,4 C 98 % 1024,3 hPa 0,0 l/m 4,8 km/h (1 Bft) NO 40 0 min 0,000 mm 0,0 UV-I 0 W/m 0,3 C 0,6 C 6,4 km/h (2 Bft) 100,00 %
17.02.2018 04:42 0,7 C 4,4 C 98 % 1024,3 hPa 0,0 l/m 4,4 km/h (1 Bft) NO 40 0 min 0,000 mm 0,0 UV-I 0 W/m 0,4 C 0,7 C 4,8 km/h (1 Bft) 100,00 %
17.02.2018 04:43 0,7 C 4,4 C 98 % 1024,3 hPa 0,0 l/m 4,4 km/h (1 Bft) NO 40 0 min 0,000 mm 0,0 UV-I 0 W/m 0,4 C 0,7 C 4,8 km/h (1 Bft) 100,00 %
17.02.2018 04:44 0,7 C 4,4 C 98 % 1024,3 hPa 0,0 l/m 3,8 km/h (1 Bft) NO 40 0 min 0,000 mm 0,0 UV-I 0 W/m 0,4 C 0,7 C 4,8 km/h (1 Bft) 100,00 %
17.02.2018 04:45 0,6 C 4,4 C 98 % 1024,3 hPa 0,0 l/m 3,7 km/h (1 Bft) NO 40 0 min 0,000 mm 0,0 UV-I 0 W/m 0,3 C 0,6 C 4,8 km/h (1 Bft) 95,83 %
17.02.2018 04:46 0,6 C 4,4 C 98 % 1024,3 hPa 0,0 l/m 4,7 km/h (1 Bft) NO 40 0 min 0,000 mm 0,0 UV-I 0 W/m 0,3 C 0,6 C 6,4 km/h (2 Bft) 100,00 %
17.02.2018 04:47 0,6 C 4,4 C 98 % 1024,3 hPa 0,0 l/m 4,7 km/h (1 Bft) NO 40 0 min 0,000 mm 0,0 UV-I 0 W/m 0,3 C 0,6 C 6,4 km/h (2 Bft) 100,00 %
17.02.2018 04:48 0,6 C 4,4 C 98 % 1024,3 hPa 0,0 l/m 6,4 km/h (2 Bft) NO 40 0 min 0,000 mm 0,0 UV-I 0 W/m 0,3 C 0,6 C 8,0 km/h (2 Bft) 100,00 %
17.02.2018 04:49 0,6 C 4,4 C 98 % 1024,3 hPa 0,0 l/m 7,0 km/h (2 Bft) NO 40 0 min 0,000 mm 0,0 UV-I 0 W/m 0,3 C -0,0 C 8,0 km/h (2 Bft) 100,00 %
17.02.2018 04:50 0,6 C 4,4 C 98 % 1024,2 hPa 0,0 l/m 6,4 km/h (2 Bft) NO 40 0 min 0,000 mm 0,0 UV-I 0 W/m 0,3 C 0,6 C 8,0 km/h (2 Bft) 100,00 %
17.02.2018 04:51 0,6 C 4,4 C 98 % 1024,2 hPa 0,0 l/m 6,4 km/h (2 Bft) NO 40 0 min 0,000 mm 0,0 UV-I 0 W/m 0,3 C 0,6 C 8,0 km/h (2 Bft) 91,30 %
17.02.2018 04:52 0,6 C 4,4 C 98 % 1024,2 hPa 0,0 l/m 7,0 km/h (2 Bft) NO 40 0 min 0,000 mm 0,0 UV-I 0 W/m 0,3 C -0,0 C 8,0 km/h (2 Bft) 100,00 %
17.02.2018 04:53 0,6 C 4,4 C 98 % 1024,2 hPa 0,0 l/m 6,5 km/h (2 Bft) NO 40 0 min 0,000 mm 0,0 UV-I 0 W/m 0,3 C 0,5 C 8,0 km/h (2 Bft) 95,65 %
17.02.2018 04:54 0,6 C 4,4 C 98 % 1024,2 hPa 0,0 l/m 6,2 km/h (2 Bft) NO 40 0 min 0,000 mm 0,0 UV-I 0 W/m 0,3 C 0,6 C 6,4 km/h (2 Bft) 95,83 %
17.02.2018 04:55 0,6 C 4,4 C 98 % 1024,1 hPa 0,0 l/m 5,3 km/h (1 Bft) NO 40 0 min 0,000 mm 0,0 UV-I 0 W/m 0,3 C 0,6 C 6,4 km/h (2 Bft) 100,00 %
17.02.2018 04:56 0,6 C 4,4 C 98 % 1024,1 hPa 0,0 l/m 5,0 km/h (1 Bft) NO 40 0 min 0,000 mm 0,0 UV-I 0 W/m 0,3 C 0,6 C 6,4 km/h (2 Bft) 100,00 %
17.02.2018 04:57 0,6 C 4,4 C 98 % 1024,1 hPa 0,0 l/m 4,3 km/h (1 Bft) NO 40 0 min 0,000 mm 0,0 UV-I 0 W/m 0,3 C 0,6 C 6,4 km/h (2 Bft) 100,00 %
17.02.2018 04:58 0,6 C 4,4 C 98 % 1024,1 hPa 0,0 l/m 3,1 km/h (1 Bft) NO 40 0 min 0,000 mm 0,0 UV-I 0 W/m 0,3 C 0,6 C 4,8 km/h (1 Bft) 100,00 %
17.02.2018 04:59 0,6 C 4,4 C 98 % 1024,1 hPa 0,0 l/m 5,0 km/h (1 Bft) NO 40 0 min 0,000 mm 0,0 UV-I 0 W/m 0,3 C 0,6 C 6,4 km/h (2 Bft) 100,00 %
17.02.2018 05:00 0,6 C 4,4 C 98 % 1024,1 hPa 0,0 l/m 5,8 km/h (2 Bft) NO 40 0 min 0,000 mm 0,0 UV-I 0 W/m 0,3 C 0,6 C 8,0 km/h (2 Bft) 95,83 %
17.02.2018 05:01 0,6 C 4,4 C 98 % 1024,1 hPa 0,0 l/m 5,5 km/h (1 Bft) NO 40 0 min 0,000 mm 0,0 UV-I 0 W/m 0,3 C 0,6 C 6,4 km/h (2 Bft) 92,31 %
17.02.2018 05:02 0,6 C 4,4 C 98 % 1024,1 hPa 0,0 l/m 7,8 km/h (2 Bft) NO 40 0 min 0,000 mm 0,0 UV-I 0 W/m 0,3 C -0,8 C 9,7 km/h (2 Bft) 96,15 %
17.02.2018 05:03 0,6 C 4,4 C 98 % 1024,0 hPa 0,0 l/m 7,1 km/h (2 Bft) NO 40 0 min 0,000 mm 0,0 UV-I 0 W/m 0,3 C -0,1 C 9,7 km/h (2 Bft) 95,65 %
17.02.2018 05:04 0,6 C 4,4 C 98 % 1024,0 hPa 0,0 l/m 8,4 km/h (2 Bft) NO 40 0 min 0,000 mm 0,0 UV-I 0 W/m 0,3 C -1,4 C 11,3 km/h (2 Bft) 100,00 %
17.02.2018 05:05 0,6 C 4,4 C 98 % 1024,0 hPa 0,0 l/m 8,3 km/h (2 Bft) NO 40 0 min 0,000 mm 0,0 UV-I 0 W/m 0,3 C -1,3 C 9,7 km/h (2 Bft) 100,00 %
17.02.2018 05:06 0,6 C 4,4 C 98 % 1023,9 hPa 0,0 l/m 7,0 km/h (2 Bft) NO 47 0 min 0,000 mm 0,0 UV-I 0 W/m 0,3 C -0,0 C 8,0 km/h (2 Bft) 91,67 %
17.02.2018 05:07 0,6 C 4,4 C 98 % 1023,9 hPa 0,0 l/m 6,6 km/h (2 Bft) NO 46 0 min 0,000 mm 0,0 UV-I 0 W/m 0,3 C 0,4 C 8,0 km/h (2 Bft) 100,00 %
17.02.2018 05:08 0,6 C 4,4 C 98 % 1023,8 hPa 0,0 l/m 8,0 km/h (2 Bft) O-NO 59 0 min 0,000 mm 0,0 UV-I 0 W/m 0,3 C -1,0 C 9,7 km/h (2 Bft) 95,83 %
17.02.2018 05:09 0,6 C 4,4 C 98 % 1023,8 hPa 0,0 l/m 7,5 km/h (2 Bft) NO 37 0 min 0,000 mm 0,0 UV-I 0 W/m 0,3 C -0,5 C 8,0 km/h (2 Bft) 96,15 %
17.02.2018 05:10 0,6 C 4,4 C 98 % 1023,8 hPa 0,0 l/m 7,9 km/h (2 Bft) NO 38 0 min 0,000 mm 0,0 UV-I 0 W/m 0,3 C -0,9 C 9,7 km/h (2 Bft) 100,00 %
17.02.2018 05:11 0,7 C 4,4 C 98 % 1023,8 hPa 0,0 l/m 7,6 km/h (2 Bft) O-NO 64 0 min 0,000 mm 0,0 UV-I 0 W/m 0,4 C -0,5 C 11,3 km/h (2 Bft) 95,65 %
17.02.2018 05:12 0,7 C 4,4 C 98 % 1023,8 hPa 0,0 l/m 7,0 km/h (2 Bft) NO 38 0 min 0,000 mm 0,0 UV-I 0 W/m 0,4 C 0,1 C 9,7 km/h (2 Bft) 100,00 %
17.02.2018 05:13 0,7 C 4,4 C 98 % 1023,8 hPa 0,0 l/m 7,1 km/h (2 Bft) NO 39 0 min 0,000 mm 0,0 UV-I 0 W/m 0,4 C -0,0 C 9,7 km/h (2 Bft) 91,67 %
17.02.2018 05:14 0,7 C 4,4 C 98 % 1023,8 hPa 0,0 l/m 7,2 km/h (2 Bft) NO 39 0 min 0,000 mm 0,0 UV-I 0 W/m 0,4 C -0,1 C 8,0 km/h (2 Bft) 100,00 %
17.02.2018 05:15 0,7 C 4,4 C 98 % 1023,8 hPa 0,0 l/m 9,9 km/h (2 Bft) NO 45 0 min 0,000 mm 0,0 UV-I 0 W/m 0,4 C -2,6 C 11,3 km/h (2 Bft) 95,83 %
17.02.2018 05:16 0,7 C 4,4 C 98 % 1023,7 hPa 0,0 l/m 7,6 km/h (2 Bft) O-NO 58 0 min 0,000 mm 0,0 UV-I 0 W/m 0,4 C -0,5 C 11,3 km/h (2 Bft) 100,00 %
17.02.2018 05:17 0,7 C 4,4 C 98 % 1023,7 hPa 0,0 l/m 8,6 km/h (2 Bft) NO 40 0 min 0,000 mm 0,0 UV-I 0 W/m 0,4 C -1,5 C 12,9 km/h (3 Bft) 95,83 %
17.02.2018 05:18 0,7 C 4,4 C 98 % 1023,7 hPa 0,0 l/m 7,3 km/h (2 Bft) NO 35 0 min 0,000 mm 0,0 UV-I 0 W/m 0,4 C -0,2 C 9,7 km/h (2 Bft) 100,00 %
17.02.2018 05:19 0,7 C 4,4 C 98 % 1023,7 hPa 0,0 l/m 7,8 km/h (2 Bft) NO 46 0 min 0,000 mm 0,0 UV-I 0 W/m 0,4 C -0,7 C 9,7 km/h (2 Bft) 95,83 %
17.02.2018 05:20 0,7 C 4,4 C 98 % 1023,7 hPa 0,0 l/m 6,9 km/h (2 Bft) NO 35 0 min 0,000 mm 0,0 UV-I 0 W/m 0,4 C 0,2 C 8,0 km/h (2 Bft) 95,65 %
17.02.2018 05:21 0,7 C 4,4 C 98 % 1023,7 hPa 0,0 l/m 7,0 km/h (2 Bft) NO 38 0 min 0,000 mm 0,0 UV-I 0 W/m 0,4 C 0,1 C 8,0 km/h (2 Bft) 95,83 %
17.02.2018 05:22 0,7 C 4,4 C 98 % 1023,7 hPa 0,0 l/m 6,3 km/h (2 Bft) NO 34 0 min 0,000 mm 0,0 UV-I 0 W/m 0,4 C 0,7 C 8,0 km/h (2 Bft) 95,65 %
17.02.2018 05:23 0,7 C 4,4 C 98 % 1023,7 hPa 0,0 l/m 6,1 km/h (2 Bft) O-NO 59 0 min 0,000 mm 0,0 UV-I 0 W/m 0,4 C 0,7 C 9,7 km/h (2 Bft) 100,00 %
17.02.2018 05:24 0,7 C 4,4 C 98 % 1023,6 hPa 0,0 l/m 7,6 km/h (2 Bft) O-NO 63 0 min 0,000 mm 0,0 UV-I 0 W/m 0,4 C -0,5 C 11,3 km/h (2 Bft) 95,65 %
17.02.2018 05:25 0,7 C 4,4 C 98 % 1023,6 hPa 0,0 l/m 6,6 km/h (2 Bft) NO 46 0 min 0,000 mm 0,0 UV-I 0 W/m 0,4 C 0,5 C 8,0 km/h (2 Bft) 100,00 %
17.02.2018 05:26 0,7 C 4,4 C 98 % 1023,6 hPa 0,0 l/m 5,2 km/h (1 Bft) NO 53 0 min 0,000 mm 0,0 UV-I 0 W/m 0,4 C 0,7 C 6,4 km/h (2 Bft) 92,31 %
17.02.2018 05:27 0,7 C 4,4 C 98 % 1023,6 hPa 0,0 l/m 7,2 km/h (2 Bft) O-NO 65 0 min 0,000 mm 0,0 UV-I 0 W/m 0,4 C -0,1 C 12,9 km/h (3 Bft) 95,83 %
17.02.2018 05:28 0,7 C 4,4 C 98 % 1023,6 hPa 0,0 l/m 10,3 km/h (2 Bft) O-NO 65 0 min 0,000 mm 0,0 UV-I 0 W/m 0,4 C -2,9 C 12,9 km/h (3 Bft) 100,00 %
17.02.2018 05:29 0,7 C 4,4 C 98 % 1023,6 hPa 0,0 l/m 9,6 km/h (2 Bft) NO 53 0 min 0,000 mm 0,0 UV-I 0 W/m 0,4 C -2,3 C 14,5 km/h (3 Bft) 95,65 %
17.02.2018 05:30 0,8 C 4,4 C 98 % 1023,6 hPa 0,0 l/m 8,9 km/h (2 Bft) O-NO 59 0 min 0,000 mm 0,0 UV-I 0 W/m 0,5 C -1,6 C 11,3 km/h (2 Bft) 95,83 %
17.02.2018 05:31 0,8 C 4,4 C 98 % 1023,5 hPa 0,0 l/m 7,0 km/h (2 Bft) O-NO 61 0 min 0,000 mm 0,0 UV-I 0 W/m 0,5 C 0,2 C 9,7 km/h (2 Bft) 91,30 %
17.02.2018 05:32 0,8 C 4,4 C 98 % 1023,5 hPa 0,0 l/m 8,9 km/h (2 Bft) NO 55 0 min 0,000 mm 0,0 UV-I 0 W/m 0,5 C -1,6 C 12,9 km/h (3 Bft) 100,00 %
17.02.2018 05:33 0,8 C 4,4 C 98 % 1023,5 hPa 0,0 l/m 9,0 km/h (2 Bft) N-NO 30 0 min 0,000 mm 0,0 UV-I 0 W/m 0,5 C -1,7 C 11,3 km/h (2 Bft) 85,71 %
17.02.2018 05:34 0,8 C 4,4 C 98 % 1023,5 hPa 0,0 l/m 10,5 km/h (2 Bft) NO 46 0 min 0,000 mm 0,0 UV-I 0 W/m 0,5 C -3,0 C 12,9 km/h (3 Bft) 95,83 %
17.02.2018 05:35 0,8 C 4,4 C 98 % 1023,5 hPa 0,0 l/m 8,8 km/h (2 Bft) NO 47 0 min 0,000 mm 0,0 UV-I 0 W/m 0,5 C -1,5 C 11,3 km/h (2 Bft) 95,65 %
17.02.2018 05:36 0,8 C 4,4 C 98 % 1023,5 hPa 0,0 l/m 8,1 km/h (2 Bft) NO 44 0 min 0,000 mm 0,0 UV-I 0 W/m 0,5 C -0,9 C 9,7 km/h (2 Bft) 100,00 %
17.02.2018 05:37 0,8 C 4,4 C 98 % 1023,5 hPa 0,0 l/m 7,5 km/h (2 Bft) NO 55 0 min 0,000 mm 0,0 UV-I 0 W/m 0,5 C -0,3 C 9,7 km/h (2 Bft) 100,00 %
17.02.2018 05:38 0,8 C 4,4 C 98 % 1023,4 hPa 0,0 l/m 6,2 km/h (2 Bft) NO 36 0 min 0,000 mm 0,0 UV-I 0 W/m 0,5 C 0,8 C 8,0 km/h (2 Bft) 100,00 %
17.02.2018 05:39 0,8 C 4,4 C 98 % 1023,4 hPa 0,0 l/m 6,6 km/h (2 Bft) NO 42 0 min 0,000 mm 0,0 UV-I 0 W/m 0,5 C 0,6 C 8,0 km/h (2 Bft) 100,00 %
17.02.2018 05:40 0,8 C 4,4 C 98 % 1023,5 hPa 0,0 l/m 8,7 km/h (2 Bft) NO 51 0 min 0,000 mm 0,0 UV-I 0 W/m 0,5 C -1,5 C 9,7 km/h (2 Bft) 95,83 %
17.02.2018 05:41 0,8 C 4,4 C 98 % 1023,4 hPa 0,0 l/m 6,1 km/h (2 Bft) NO 45 0 min 0,000 mm 0,0 UV-I 0 W/m 0,5 C 0,8 C 8,0 km/h (2 Bft) 100,00 %
17.02.2018 05:42 0,8 C 4,4 C 98 % 1023,4 hPa 0,0 l/m 9,0 km/h (2 Bft) NO 38 0 min 0,000 mm 0,0 UV-I 0 W/m 0,5 C -1,7 C 11,3 km/h (2 Bft) 100,00 %
17.02.2018 05:43 0,8 C 4,4 C 98 % 1023,4 hPa 0,0 l/m 7,6 km/h (2 Bft) N-NO 29 0 min 0,000 mm 0,0 UV-I 0 W/m 0,5 C -0,4 C 9,7 km/h (2 Bft) 100,00 %
17.02.2018 05:44 0,8 C 4,4 C 98 % 1023,4 hPa 0,0 l/m 7,2 km/h (2 Bft) N-NO 30 0 min 0,000 mm 0,0 UV-I 0 W/m 0,5 C -0,0 C 9,7 km/h (2 Bft) 100,00 %
17.02.2018 05:45 0,8 C 4,4 C 98 % 1023,4 hPa 0,0 l/m 6,8 km/h (2 Bft) N-NO 30 0 min 0,000 mm 0,0 UV-I 0 W/m 0,5 C 0,4 C 8,0 km/h (2 Bft) 95,65 %
17.02.2018 05:46 0,8 C 4,4 C 98 % 1023,3 hPa 0,0 l/m 6,4 km/h (2 Bft) NO 34 0 min 0,000 mm 0,0 UV-I 0 W/m 0,5 C 0,8 C 8,0 km/h (2 Bft) 91,67 %
17.02.2018 05:47 0,8 C 4,4 C 98 % 1023,3 hPa 0,0 l/m 5,9 km/h (2 Bft) NO 42 0 min 0,000 mm 0,0 UV-I 0 W/m 0,5 C 0,8 C 8,0 km/h (2 Bft) 91,67 %
17.02.2018 05:48 0,7 C 4,4 C 98 % 1023,3 hPa 0,0 l/m 5,0 km/h (1 Bft) NO 42 0 min 0,000 mm 0,0 UV-I 0 W/m 0,4 C 0,7 C 6,4 km/h (2 Bft) 100,00 %
17.02.2018 05:49 0,7 C 4,4 C 98 % 1023,2 hPa 0,0 l/m 4,0 km/h (1 Bft) NO 42 0 min 0,000 mm 0,0 UV-I 0 W/m 0,4 C 0,7 C 4,8 km/h (1 Bft) 95,83 %
17.02.2018 05:50 0,7 C 4,4 C 98 % 1023,1 hPa 0,0 l/m 5,6 km/h (1 Bft) NO 42 0 min 0,000 mm 0,0 UV-I 0 W/m 0,4 C 0,7 C 6,4 km/h (2 Bft) 100,00 %
17.02.2018 05:51 0,7 C 4,4 C 98 % 1023,1 hPa 0,0 l/m 7,5 km/h (2 Bft) NO 38 0 min 0,000 mm 0,0 UV-I 0 W/m 0,4 C -0,4 C 11,3 km/h (2 Bft) 100,00 %
17.02.2018 05:52 0,7 C 4,4 C 98 % 1023,1 hPa 0,0 l/m 10,6 km/h (2 Bft) NO 38 0 min 0,000 mm 0,0 UV-I 0 W/m 0,4 C -3,2 C 14,5 km/h (3 Bft) 95,65 %
17.02.2018 05:53 0,7 C 4,4 C 98 % 1023,1 hPa 0,0 l/m 10,5 km/h (2 Bft) NO 41 0 min 0,000 mm 0,0 UV-I 0 W/m 0,4 C -3,1 C 14,5 km/h (3 Bft) 95,83 %
17.02.2018 05:54 0,7 C 4,4 C 98 % 1023,0 hPa 0,0 l/m 10,5 km/h (2 Bft) NO 50 0 min 0,000 mm 0,0 UV-I 0 W/m 0,4 C -3,1 C 14,5 km/h (3 Bft) 100,00 %
17.02.2018 05:55 0,7 C 4,4 C 98 % 1023,0 hPa 0,0 l/m 8,0 km/h (2 Bft) NO 38 0 min 0,000 mm 0,0 UV-I 0 W/m 0,4 C -0,9 C 9,7 km/h (2 Bft) 100,00 %
17.02.2018 05:56 0,7 C 4,4 C 98 % 1022,9 hPa 0,0 l/m 12,9 km/h (3 Bft) NO 48 0 min 0,000 mm 0,0 UV-I 0 W/m 0,4 C -4,8 C 16,1 km/h (3 Bft) 100,00 %
17.02.2018 05:57 0,7 C 4,4 C 98 % 1023,0 hPa 0,0 l/m 10,1 km/h (2 Bft) NO 44 0 min 0,000 mm 0,0 UV-I 0 W/m 0,4 C -2,8 C 12,9 km/h (3 Bft) 100,00 %
17.02.2018 05:58 0,7 C 4,4 C 98 % 1023,0 hPa 0,0 l/m 13,6 km/h (3 Bft) O-NO 61 0 min 0,000 mm 0,0 UV-I 0 W/m 0,4 C -5,3 C 16,1 km/h (3 Bft) 100,00 %
17.02.2018 05:59 0,7 C 4,4 C 98 % 1022,9 hPa 0,0 l/m 9,9 km/h (2 Bft) NO 40 0 min 0,000 mm 0,0 UV-I 0 W/m 0,4 C -2,6 C 14,5 km/h (3 Bft) 100,00 %
17.02.2018 06:00 0,7 C 4,4 C 98 % 1022,9 hPa 0,0 l/m 8,6 km/h (2 Bft) NO 50 0 min 0,000 mm 0,0 UV-I 0 W/m 0,4 C -1,5 C 11,3 km/h (2 Bft) 100,00 %
17.02.2018 06:01 0,7 C 4,4 C 98 % 1022,9 hPa 0,0 l/m 10,4 km/h (2 Bft) O-NO 63 0 min 0,000 mm 0,0 UV-I 0 W/m 0,4 C -3,0 C 12,9 km/h (3 Bft) 100,00 %
17.02.2018 06:02 0,7 C 4,4 C 98 % 1022,9 hPa 0,0 l/m 11,6 km/h (2 Bft) NO 41 0 min 0,000 mm 0,0 UV-I 0 W/m 0,4 C -3,9 C 14,5 km/h (3 Bft) 100,00 %
17.02.2018 06:03 0,7 C 4,4 C 98 % 1022,9 hPa 0,0 l/m 13,2 km/h (3 Bft) NO 55 0 min 0,000 mm 0,0 UV-I 0 W/m 0,4 C -5,0 C 17,7 km/h (3 Bft) 100,00 %
17.02.2018 06:04 0,7 C 4,4 C 98 % 1022,8 hPa 0,0 l/m 11,5 km/h (2 Bft) NO 49 0 min 0,000 mm 0,0 UV-I 0 W/m 0,4 C -3,8 C 16,1 km/h (3 Bft) 100,00 %
17.02.2018 06:05 0,7 C 4,4 C 98 % 1022,7 hPa 0,0 l/m 10,9 km/h (2 Bft) O-NO 63 0 min 0,000 mm 0,0 UV-I 0 W/m 0,4 C -3,4 C 16,1 km/h (3 Bft) 100,00 %
17.02.2018 06:06 0,7 C 4,4 C 98 % 1022,7 hPa 0,0 l/m 10,3 km/h (2 Bft) NO 49 0 min 0,000 mm 0,0 UV-I 0 W/m 0,4 C -2,9 C 14,5 km/h (3 Bft) 100,00 %
17.02.2018 06:07 0,6 C 4,4 C 98 % 1022,7 hPa 0,0 l/m 7,6 km/h (2 Bft) NO 35 0 min 0,000 mm 0,0 UV-I 0 W/m 0,3 C -0,6 C 9,7 km/h (2 Bft) 100,00 %
17.02.2018 06:08 0,6 C 4,4 C 98 % 1022,7 hPa 0,0 l/m 9,0 km/h (2 Bft) O-NO 60 0 min 0,000 mm 0,0 UV-I 0 W/m 0,3 C -1,9 C 11,3 km/h (2 Bft) 100,00 %
17.02.2018 06:09 0,6 C 4,4 C 98 % 1022,7 hPa 0,0 l/m 8,5 km/h (2 Bft) O-NO 57 0 min 0,000 mm 0,0 UV-I 0 W/m 0,3 C -1,5 C 12,9 km/h (3 Bft) 100,00 %
17.02.2018 06:10 0,6 C 4,4 C 98 % 1022,7 hPa 0,0 l/m 9,7 km/h (2 Bft) O-NO 61 0 min 0,000 mm 0,0 UV-I 0 W/m 0,3 C -2,5 C 14,5 km/h (3 Bft) 87,50 %
17.02.2018 06:11 0,6 C 4,4 C 98 % 1022,7 hPa 0,0 l/m 11,8 km/h (2 Bft) NO 44 0 min 0,000 mm 0,0 UV-I 0 W/m 0,3 C -4,2 C 16,1 km/h (3 Bft) 100,00 %
17.02.2018 06:12 0,6 C 4,4 C 98 % 1022,7 hPa 0,0 l/m 9,9 km/h (2 Bft) NO 46 0 min 0,000 mm 0,0 UV-I 0 W/m 0,3 C -2,7 C 12,9 km/h (3 Bft) 100,00 %
17.02.2018 06:13 0,6 C 4,4 C 98 % 1022,7 hPa 0,0 l/m 9,7 km/h (2 Bft) NO 48 0 min 0,000 mm 0,0 UV-I 0 W/m 0,3 C -2,5 C 11,3 km/h (2 Bft) 100,00 %
17.02.2018 06:14 0,6 C 4,4 C 98 % 1022,7 hPa 0,0 l/m 9,2 km/h (2 Bft) O-NO 72 0 min 0,000 mm 0,0 UV-I 0 W/m 0,3 C -2,1 C 14,5 km/h (3 Bft) 95,83 %
17.02.2018 06:15 0,6 C 4,4 C 98 % 1022,6 hPa 0,0 l/m 8,4 km/h (2 Bft) NO 53 0 min 0,000 mm 0,0 UV-I 0 W/m 0,3 C -1,4 C 12,9 km/h (3 Bft) 100,00 %
17.02.2018 06:16 0,6 C 4,4 C 98 % 1022,6 hPa 0,0 l/m 10,2 km/h (2 Bft) NO 38 0 min 0,000 mm 0,0 UV-I 0 W/m 0,3 C -2,9 C 14,5 km/h (3 Bft) 100,00 %
17.02.2018 06:17 0,6 C 4,4 C 98 % 1022,6 hPa 0,0 l/m 8,6 km/h (2 Bft) NO 38 0 min 0,000 mm 0,0 UV-I 0 W/m 0,3 C -1,6 C 12,9 km/h (3 Bft) 100,00 %
17.02.2018 06:18 0,6 C 4,4 C 98 % 1022,7 hPa 0,0 l/m 12,1 km/h (2 Bft) O-NO 74 0 min 0,000 mm 0,0 UV-I 0 W/m 0,3 C -4,4 C 16,1 km/h (3 Bft) 95,83 %
17.02.2018 06:19 0,6 C 4,4 C 98 % 1022,7 hPa 0,0 l/m 9,1 km/h (2 Bft) NO 48 0 min 0,000 mm 0,0 UV-I 0 W/m 0,3 C -2,0 C 11,3 km/h (2 Bft) 100,00 %
17.02.2018 06:20 0,6 C 4,4 C 98 % 1022,7 hPa 0,0 l/m 12,1 km/h (2 Bft) O-NO 71 0 min 0,000 mm 0,0 UV-I 0 W/m 0,3 C -4,4 C 16,1 km/h (3 Bft) 96,15 %
17.02.2018 06:21 0,6 C 4,4 C 98 % 1022,7 hPa 0,0 l/m 10,3 km/h (2 Bft) O-NO 57 0 min 0,000 mm 0,0 UV-I 0 W/m 0,3 C -3,0 C 14,5 km/h (3 Bft) 100,00 %
17.02.2018 06:22 0,6 C 4,4 C 98 % 1022,7 hPa 0,0 l/m 11,6 km/h (2 Bft) NO 42 0 min 0,000 mm 0,0 UV-I 0 W/m 0,3 C -4,0 C 14,5 km/h (3 Bft) 100,00 %
17.02.2018 06:23 0,6 C 4,4 C 98 % 1022,6 hPa 0,0 l/m 10,8 km/h (2 Bft) NO 40 0 min 0,000 mm 0,0 UV-I 0 W/m 0,3 C -3,4 C 14,5 km/h (3 Bft) 100,00 %
17.02.2018 06:24 0,6 C 4,4 C 98 % 1022,6 hPa 0,0 l/m 13,4 km/h (3 Bft) NO 37 0 min 0,000 mm 0,0 UV-I 0 W/m 0,3 C -5,3 C 16,1 km/h (3 Bft) 100,00 %
17.02.2018 06:25 0,6 C 4,4 C 98 % 1022,7 hPa 0,0 l/m 12,1 km/h (2 Bft) NO 47 0 min 0,000 mm 0,0 UV-I 0 W/m 0,3 C -4,4 C 16,1 km/h (3 Bft) 100,00 %
17.02.2018 06:26 0,6 C 4,4 C 98 % 1022,7 hPa 0,0 l/m 9,5 km/h (2 Bft) NO 39 0 min 0,000 mm 0,0 UV-I 0 W/m 0,3 C -2,4 C 11,3 km/h (2 Bft) 100,00 %
17.02.2018 06:27 0,6 C 4,4 C 98 % 1022,7 hPa 0,0 l/m 11,7 km/h (2 Bft) NO 34 0 min 0,000 mm 0,0 UV-I 0 W/m 0,3 C -4,1 C 16,1 km/h (3 Bft) 100,00 %
17.02.2018 06:28 0,6 C 4,4 C 98 % 1022,6 hPa 0,0 l/m 12,6 km/h (3 Bft) O-NO 70 0 min 0,000 mm 0,0 UV-I 0 W/m 0,3 C -4,7 C 19,3 km/h (3 Bft) 96,55 %
17.02.2018 06:29 0,6 C 4,4 C 98 % 1022,6 hPa 0,0 l/m 11,2 km/h (2 Bft) O-NO 63 0 min 0,000 mm 0,0 UV-I 0 W/m 0,3 C -3,7 C 16,1 km/h (3 Bft) 100,00 %
17.02.2018 06:30 0,6 C 4,4 C 98 % 1022,5 hPa 0,0 l/m 10,5 km/h (2 Bft) N-NO 28 0 min 0,000 mm 0,0 UV-I 0 W/m 0,3 C -3,2 C 16,1 km/h (3 Bft) 100,00 %
17.02.2018 06:31 0,6 C 4,4 C 98 % 1022,5 hPa 0,0 l/m 10,6 km/h (2 Bft) O-NO 64 0 min 0,000 mm 0,0 UV-I 0 W/m 0,3 C -3,3 C 12,9 km/h (3 Bft) 100,00 %
17.02.2018 06:32 0,7 C 4,4 C 98 % 1022,6 hPa 0,0 l/m 9,3 km/h (2 Bft) NO 55 0 min 0,000 mm 0,0 UV-I 0 W/m 0,4 C -2,1 C 12,9 km/h (3 Bft) 95,65 %
17.02.2018 06:33 0,7 C 4,4 C 98 % 1022,6 hPa 0,0 l/m 11,7 km/h (2 Bft) NO 39 0 min 0,000 mm 0,0 UV-I 0 W/m 0,4 C -4,0 C 16,1 km/h (3 Bft) 100,00 %
17.02.2018 06:34 0,6 C 4,4 C 98 % 1022,7 hPa 0,0 l/m 8,6 km/h (2 Bft) NO 42 0 min 0,000 mm 0,0 UV-I 0 W/m 0,3 C -1,6 C 9,7 km/h (2 Bft) 100,00 %
17.02.2018 06:35 0,7 C 4,4 C 98 % 1022,7 hPa 0,0 l/m 9,1 km/h (2 Bft) NO 45 0 min 0,000 mm 0,0 UV-I 0 W/m 0,4 C -1,9 C 11,3 km/h (2 Bft) 100,00 %
17.02.2018 06:36 0,6 C 4,4 C 98 % 1022,8 hPa 0,0 l/m 8,0 km/h (2 Bft) N-NO 32 0 min 0,000 mm 0,0 UV-I 0 W/m 0,3 C -1,0 C 9,7 km/h (2 Bft) 100,00 %
17.02.2018 06:37 0,6 C 4,4 C 98 % 1022,8 hPa 0,0 l/m 8,8 km/h (2 Bft) NO 39 0 min 0,000 mm 0,0 UV-I 0 W/m 0,3 C -1,8 C 12,9 km/h (3 Bft) 100,00 %
17.02.2018 06:38 0,6 C 4,4 C 98 % 1022,8 hPa 0,0 l/m 8,2 km/h (2 Bft) NO 42 0 min 0,000 mm 0,0 UV-I 0 W/m 0,3 C -1,2 C 9,7 km/h (2 Bft) 95,65 %
17.02.2018 06:39 0,6 C 4,4 C 98 % 1022,8 hPa 0,0 l/m 6,6 km/h (2 Bft) NO 49 0 min 0,000 mm 0,0 UV-I 0 W/m 0,3 C 0,4 C 8,0 km/h (2 Bft) 95,83 %
17.02.2018 06:40 0,6 C 4,4 C 98 % 1022,8 hPa 0,0 l/m 7,3 km/h (2 Bft) NO 37 0 min 0,000 mm 0,0 UV-I 0 W/m 0,3 C -0,3 C 9,7 km/h (2 Bft) 100,00 %
17.02.2018 06:41 0,7 C 4,4 C 98 % 1022,8 hPa 0,0 l/m 9,5 km/h (2 Bft) NO 53 0 min 0,000 mm 0,0 UV-I 0 W/m 0,4 C -2,3 C 14,5 km/h (3 Bft) 100,00 %
17.02.2018 06:42 0,6 C 4,4 C 98 % 1022,8 hPa 0,0 l/m 10,6 km/h (2 Bft) NO 36 0 min 0,000 mm 0,0 UV-I 0 W/m 0,3 C -3,3 C 14,5 km/h (3 Bft) 100,00 %
17.02.2018 06:43 0,7 C 4,4 C 98 % 1022,8 hPa 0,0 l/m 9,5 km/h (2 Bft) N-NO 28 0 min 0,000 mm 0,0 UV-I 0 W/m 0,4 C -2,3 C 12,9 km/h (3 Bft) 95,83 %
17.02.2018 06:44 0,7 C 4,4 C 98 % 1022,8 hPa 0,0 l/m 9,4 km/h (2 Bft) NO 39 0 min 0,000 mm 0,0 UV-I 0 W/m 0,4 C -2,2 C 12,9 km/h (3 Bft) 96,15 %
17.02.2018 06:45 0,7 C 4,4 C 98 % 1022,8 hPa 0,0 l/m 10,1 km/h (2 Bft) NO 37 0 min 0,000 mm 0,0 UV-I 0 W/m 0,4 C -2,8 C 12,9 km/h (3 Bft) 100,00 %
17.02.2018 06:46 0,7 C 4,4 C 98 % 1022,7 hPa 0,0 l/m 9,5 km/h (2 Bft) NO 36 0 min 0,000 mm 0,0 UV-I 0 W/m 0,4 C -2,3 C 14,5 km/h (3 Bft) 100,00 %
17.02.2018 06:47 0,7 C 4,4 C 98 % 1022,7 hPa 0,0 l/m 11,9 km/h (2 Bft) NO 39 0 min 0,000 mm 0,0 UV-I 0 W/m 0,4 C -4,1 C 14,5 km/h (3 Bft) 100,00 %
17.02.2018 06:48 0,7 C 4,4 C 98 % 1022,7 hPa 0,0 l/m 12,9 km/h (3 Bft) NO 40 0 min 0,000 mm 0,0 UV-I 0 W/m 0,4 C -4,8 C 16,1 km/h (3 Bft) 100,00 %
17.02.2018 06:49 0,7 C 4,4 C 98 % 1022,7 hPa 0,0 l/m 9,5 km/h (2 Bft) NO 35 0 min 0,000 mm 0,0 UV-I 0 W/m 0,4 C -2,3 C 11,3 km/h (2 Bft) 100,00 %
17.02.2018 06:50 0,7 C 4,4 C 98 % 1022,6 hPa 0,0 l/m 9,7 km/h (2 Bft) NO 48 0 min 0,000 mm 0,0 UV-I 0 W/m 0,4 C -2,4 C 14,5 km/h (3 Bft) 100,00 %
17.02.2018 06:51 0,7 C 4,4 C 98 % 1022,5 hPa 0,0 l/m 10,8 km/h (2 Bft) NO 38 0 min 0,000 mm 0,0 UV-I 0 W/m 0,4 C -3,3 C 14,5 km/h (3 Bft) 100,00 %
17.02.2018 06:52 0,7 C 4,4 C 98 % 1022,5 hPa 0,0 l/m 9,9 km/h (2 Bft) NO 49 0 min 0,000 mm 0,0 UV-I 0 W/m 0,4 C -2,6 C 12,9 km/h (3 Bft) 100,00 %
17.02.2018 06:53 0,7 C 4,4 C 98 % 1022,5 hPa 0,0 l/m 8,2 km/h (2 Bft) O-NO 71 0 min 0,000 mm 0,0 UV-I 0 W/m 0,4 C -1,1 C 12,9 km/h (3 Bft) 95,65 %
17.02.2018 06:54 0,7 C 4,4 C 98 % 1022,5 hPa 0,0 l/m 10,8 km/h (2 Bft) NO 38 0 min 0,000 mm 0,0 UV-I 0 W/m 0,4 C -3,3 C 14,5 km/h (3 Bft) 100,00 %
17.02.2018 06:55 0,7 C 4,4 C 98 % 1022,5 hPa 0,0 l/m 10,0 km/h (2 Bft) NO 43 0 min 0,000 mm 0,0 UV-I 0 W/m 0,4 C -2,7 C 12,9 km/h (3 Bft) 100,00 %
17.02.2018 06:56 0,7 C 4,4 C 98 % 1022,5 hPa 0,0 l/m 10,3 km/h (2 Bft) NO 43 0 min 0,000 mm 0,0 UV-I 0 W/m 0,4 C -2,9 C 12,9 km/h (3 Bft) 100,00 %
17.02.2018 06:57 0,7 C 4,4 C 98 % 1022,5 hPa 0,0 l/m 10,1 km/h (2 Bft) O-NO 61 0 min 0,000 mm 0,0 UV-I 0 W/m 0,4 C -2,8 C 12,9 km/h (3 Bft) 100,00 %
17.02.2018 06:58 0,7 C 4,4 C 98 % 1022,5 hPa 0,0 l/m 8,4 km/h (2 Bft) O-NO 57 0 min 0,000 mm 0,0 UV-I 0 W/m 0,4 C -1,3 C 12,9 km/h (3 Bft) 100,00 %
17.02.2018 06:59 0,7 C 4,4 C 98 % 1022,5 hPa 0,0 l/m 13,7 km/h (3 Bft) NO 55 0 min 0,000 mm 0,0 UV-I 0 W/m 0,4 C -5,3 C 17,7 km/h (3 Bft) 100,00 %
17.02.2018 07:00 0,8 C 4,4 C 98 % 1022,5 hPa 0,0 l/m 11,7 km/h (2 Bft) O-NO 69 0 min 0,000 mm 0,0 UV-I 0 W/m 0,5 C -3,9 C 14,5 km/h (3 Bft) 100,00 %
17.02.2018 07:01 0,8 C 4,4 C 98 % 1022,5 hPa 0,0 l/m 10,4 km/h (2 Bft) O 98 0 min 0,000 mm 0,0 UV-I 0 W/m 0,5 C -2,9 C 16,1 km/h (3 Bft) 100,00 %
17.02.2018 07:02 0,8 C 4,4 C 98 % 1022,5 hPa 0,0 l/m 12,8 km/h (3 Bft) O-SO 104 0 min 0,000 mm 0,0 UV-I 0 W/m 0,5 C -4,6 C 17,7 km/h (3 Bft) 95,83 %
17.02.2018 07:03 0,8 C 4,4 C 98 % 1022,4 hPa 0,0 l/m 9,0 km/h (2 Bft) O-NO 61 0 min 0,000 mm 0,0 UV-I 3 W/m 0,5 C -1,7 C 14,5 km/h (3 Bft) 100,00 %
17.02.2018 07:04 0,8 C 4,4 C 98 % 1022,4 hPa 0,0 l/m 9,8 km/h (2 Bft) NO 51 0 min 0,000 mm 0,0 UV-I 5 W/m 0,5 C -2,4 C 16,1 km/h (3 Bft) 95,65 %
17.02.2018 07:05 0,9 C 4,4 C 98 % 1022,4 hPa 0,0 l/m 10,5 km/h (2 Bft) O-NO 62 0 min 0,000 mm 0,0 UV-I 1 W/m 0,6 C -2,9 C 14,5 km/h (3 Bft) 100,00 %
17.02.2018 07:06 0,9 C 4,4 C 98 % 1022,4 hPa 0,0 l/m 8,3 km/h (2 Bft) O-NO 57 0 min 0,000 mm 0,0 UV-I 5 W/m 0,6 C -1,0 C 11,3 km/h (2 Bft) 95,65 %
17.02.2018 07:07 0,9 C 4,4 C 98 % 1022,5 hPa 0,0 l/m 10,8 km/h (2 Bft) O-NO 76 0 min 0,000 mm 0,0 UV-I 5 W/m 0,6 C -3,1 C 17,7 km/h (3 Bft) 100,00 %
17.02.2018 07:08 0,9 C 4,4 C 98 % 1022,5 hPa 0,0 l/m 9,9 km/h (2 Bft) N-NO 31 0 min 0,000 mm 0,0 UV-I 5 W/m 0,6 C -2,4 C 16,1 km/h (3 Bft) 95,65 %
17.02.2018 07:09 0,9 C 4,4 C 98 % 1022,5 hPa 0,0 l/m 10,2 km/h (2 Bft) O 92 0 min 0,000 mm 0,0 UV-I 5 W/m 0,6 C -2,6 C 14,5 km/h (3 Bft) 100,00 %
17.02.2018 07:10 0,9 C 4,4 C 98 % 1022,5 hPa 0,0 l/m 7,6 km/h (2 Bft) O-NO 59 0 min 0,000 mm 0,0 UV-I 5 W/m 0,6 C -0,3 C 9,7 km/h (2 Bft) 91,30 %
17.02.2018 07:11 0,9 C 4,4 C 98 % 1022,4 hPa 0,0 l/m 8,9 km/h (2 Bft) O-NO 57 0 min 0,000 mm 0,0 UV-I 5 W/m 0,6 C -1,5 C 12,9 km/h (3 Bft) 88,89 %
17.02.2018 07:12 0,9 C 4,4 C 98 % 1022,5 hPa 0,0 l/m 8,6 km/h (2 Bft) O 79 0 min 0,000 mm 0,0 UV-I 5 W/m 0,6 C -1,3 C 14,5 km/h (3 Bft) 92,31 %
17.02.2018 07:13 0,9 C 4,4 C 98 % 1022,5 hPa 0,0 l/m 11,3 km/h (2 Bft) O-NO 66 0 min 0,000 mm 0,0 UV-I 5 W/m 0,6 C -3,5 C 14,5 km/h (3 Bft) 91,67 %
17.02.2018 07:14 0,9 C 4,4 C 98 % 1022,5 hPa 0,0 l/m 11,1 km/h (2 Bft) O-NO 75 0 min 0,000 mm 0,0 UV-I 5 W/m 0,6 C -3,3 C 14,5 km/h (3 Bft) 100,00 %
17.02.2018 07:15 0,9 C 4,4 C 98 % 1022,4 hPa 0,0 l/m 9,1 km/h (2 Bft) O 86 0 min 0,000 mm 0,0 UV-I 5 W/m 0,6 C -1,7 C 12,9 km/h (3 Bft) 95,83 %
17.02.2018 07:16 0,9 C 4,4 C 98 % 1022,5 hPa 0,0 l/m 8,1 km/h (2 Bft) O-NO 69 0 min 0,000 mm 0,0 UV-I 5 W/m 0,6 C -0,8 C 11,3 km/h (2 Bft) 100,00 %
17.02.2018 07:17 0,9 C 4,4 C 98 % 1022,5 hPa 0,0 l/m 8,4 km/h (2 Bft) O-NO 76 0 min 0,000 mm 0,0 UV-I 5 W/m 0,6 C -1,1 C 12,9 km/h (3 Bft) 95,83 %
17.02.2018 07:18 0,9 C 4,4 C 98 % 1022,5 hPa 0,0 l/m 9,1 km/h (2 Bft) NO 56 0 min 0,000 mm 0,0 UV-I 5 W/m 0,6 C -1,7 C 14,5 km/h (3 Bft) 95,65 %
17.02.2018 07:19 0,9 C 4,4 C 98 % 1022,5 hPa 0,0 l/m 9,7 km/h (2 Bft) NO 43 0 min 0,000 mm 0,0 UV-I 5 W/m 0,6 C -2,2 C 12,9 km/h (3 Bft) 100,00 %
17.02.2018 07:20 0,9 C 4,4 C 98 % 1022,5 hPa 0,0 l/m 7,8 km/h (2 Bft) O-NO 64 0 min 0,000 mm 0,0 UV-I 5 W/m 0,6 C -0,5 C 12,9 km/h (3 Bft) 95,65 %
17.02.2018 07:21 0,9 C 4,4 C 98 % 1022,5 hPa 0,0 l/m 10,6 km/h (2 Bft) O-NO 61 0 min 0,000 mm 0,0 UV-I 6 W/m 0,6 C -2,9 C 16,1 km/h (3 Bft) 100,00 %
17.02.2018 07:22 0,9 C 4,4 C 98 % 1022,5 hPa 0,0 l/m 10,9 km/h (2 Bft) O-NO 61 0 min 0,000 mm 0,0 UV-I 7 W/m 0,6 C -3,2 C 14,5 km/h (3 Bft) 95,65 %
17.02.2018 07:23 0,9 C 4,4 C 98 % 1022,4 hPa 0,0 l/m 10,4 km/h (2 Bft) NO 46 0 min 0,000 mm 0,0 UV-I 7 W/m 0,6 C -2,8 C 14,5 km/h (3 Bft) 95,83 %
17.02.2018 07:24 0,9 C 4,4 C 98 % 1022,4 hPa 0,0 l/m 12,4 km/h (3 Bft) O-NO 71 0 min 0,000 mm 0,0 UV-I 7 W/m 0,6 C -4,2 C 14,5 km/h (3 Bft) 95,83 %
17.02.2018 07:25 0,9 C 4,4 C 98 % 1022,4 hPa 0,0 l/m 10,1 km/h (2 Bft) O-NO 61 0 min 0,000 mm 0,0 UV-I 7 W/m 0,6 C -2,5 C 14,5 km/h (3 Bft) 100,00 %
17.02.2018 07:26 0,9 C 4,4 C 98 % 1022,2 hPa 0,0 l/m 9,1 km/h (2 Bft) O-NO 70 0 min 0,000 mm 0,0 UV-I 7 W/m 0,6 C -1,7 C 12,9 km/h (3 Bft) 95,65 %
17.02.2018 07:27 0,9 C 4,4 C 98 % 1022,2 hPa 0,0 l/m 12,7 km/h (3 Bft) O 85 0 min 0,000 mm 0,0 UV-I 8 W/m 0,6 C -4,4 C 16,1 km/h (3 Bft) 91,67 %
17.02.2018 07:28 0,9 C 4,4 C 98 % 1022,2 hPa 0,0 l/m 12,5 km/h (3 Bft) O 79 0 min 0,000 mm 0,0 UV-I 9 W/m 0,6 C -4,3 C 14,5 km/h (3 Bft) 100,00 %
17.02.2018 07:29 0,8 C 4,4 C 98 % 1022,2 hPa 0,0 l/m 7,5 km/h (2 Bft) O 80 0 min 0,000 mm 0,0 UV-I 9 W/m 0,5 C -0,3 C 12,9 km/h (3 Bft) 92,31 %
17.02.2018 07:30 0,8 C 4,4 C 98 % 1022,2 hPa 0,0 l/m 9,5 km/h (2 Bft) O-NO 76 0 min 0,000 mm 0,0 UV-I 9 W/m 0,5 C -2,2 C 14,5 km/h (3 Bft) 100,00 %
17.02.2018 07:31 0,8 C 4,4 C 98 % 1022,2 hPa 0,0 l/m 12,9 km/h (3 Bft) NO 48 0 min 0,000 mm 0,0 UV-I 9 W/m 0,5 C -4,7 C 14,5 km/h (3 Bft) 92,31 %
17.02.2018 07:32 0,8 C 4,4 C 98 % 1022,2 hPa 0,0 l/m 9,7 km/h (2 Bft) O-NO 63 0 min 0,000 mm 0,0 UV-I 9 W/m 0,5 C -2,3 C 14,5 km/h (3 Bft) 96,30 %
17.02.2018 07:33 0,8 C 4,4 C 98 % 1022,1 hPa 0,0 l/m 10,9 km/h (2 Bft) NO 56 0 min 0,000 mm 0,0 UV-I 9 W/m 0,5 C -3,3 C 16,1 km/h (3 Bft) 95,65 %
17.02.2018 07:34 0,8 C 4,4 C 98 % 1022,0 hPa 0,0 l/m 16,0 km/h (3 Bft) O-NO 74 0 min 0,000 mm 0,0 UV-I 9 W/m 0,5 C -6,6 C 19,3 km/h (3 Bft) 100,00 %
17.02.2018 07:35 0,8 C 4,4 C 98 % 1022,0 hPa 0,0 l/m 11,4 km/h (2 Bft) NO 54 0 min 0,000 mm 0,0 UV-I 9 W/m 0,5 C -3,6 C 16,1 km/h (3 Bft) 100,00 %
17.02.2018 07:36 0,8 C 4,4 C 98 % 1022,1 hPa 0,0 l/m 12,1 km/h (2 Bft) O-NO 72 0 min 0,000 mm 0,0 UV-I 9 W/m 0,5 C -4,2 C 14,5 km/h (3 Bft) 95,83 %
17.02.2018 07:37 0,8 C 4,4 C 98 % 1022,0 hPa 0,0 l/m 11,1 km/h (2 Bft) O-NO 72 0 min 0,000 mm 0,0 UV-I 11 W/m 0,5 C -3,4 C 14,5 km/h (3 Bft) 100,00 %
17.02.2018 07:38 0,8 C 4,4 C 98 % 1022,0 hPa 0,0 l/m 11,5 km/h (2 Bft) O-NO 65 0 min 0,000 mm 0,0 UV-I 11 W/m 0,5 C -3,7 C 16,1 km/h (3 Bft) 95,83 %
17.02.2018 07:39 0,8 C 4,4 C 98 % 1022,0 hPa 0,0 l/m 10,9 km/h (2 Bft) O-NO 64 0 min 0,000 mm 0,0 UV-I 11 W/m 0,5 C -3,3 C 14,5 km/h (3 Bft) 100,00 %
17.02.2018 07:40 0,8 C 4,4 C 98 % 1022,0 hPa 0,0 l/m 9,1 km/h (2 Bft) NO 36 0 min 0,000 mm 0,0 UV-I 11 W/m 0,5 C -1,8 C 14,5 km/h (3 Bft) 100,00 %
17.02.2018 07:41 0,8 C 4,4 C 98 % 1022,0 hPa 0,0 l/m 13,1 km/h (3 Bft) O-NO 74 0 min 0,000 mm 0,0 UV-I 11 W/m 0,5 C -4,8 C 17,7 km/h (3 Bft) 95,83 %
17.02.2018 07:42 0,8 C 4,4 C 98 % 1021,9 hPa 0,0 l/m 13,0 km/h (3 Bft) O-NO 69 0 min 0,000 mm 0,0 UV-I 11 W/m 0,5 C -4,8 C 16,1 km/h (3 Bft) 100,00 %
17.02.2018 07:43 0,8 C 4,4 C 98 % 1021,9 hPa 0,0 l/m 13,4 km/h (3 Bft) O-NO 62 0 min 0,000 mm 0,0 UV-I 11 W/m 0,5 C -5,0 C 16,1 km/h (3 Bft) 91,67 %
17.02.2018 07:44 0,8 C 4,4 C 98 % 1021,9 hPa 0,0 l/m 12,8 km/h (3 Bft) O 82 0 min 0,000 mm 0,0 UV-I 11 W/m 0,5 C -4,6 C 16,1 km/h (3 Bft) 100,00 %
17.02.2018 07:45 0,8 C 4,4 C 98 % 1021,9 hPa 0,0 l/m 10,8 km/h (2 Bft) O 81 0 min 0,000 mm 0,0 UV-I 11 W/m 0,5 C -3,2 C 14,5 km/h (3 Bft) 95,83 %
17.02.2018 07:46 0,8 C 4,4 C 98 % 1021,9 hPa 0,0 l/m 11,7 km/h (2 Bft) O 82 0 min 0,000 mm 0,0 UV-I 11 W/m 0,5 C -3,9 C 14,5 km/h (3 Bft) 95,65 %
17.02.2018 07:47 0,8 C 4,4 C 98 % 1021,9 hPa 0,0 l/m 11,0 km/h (2 Bft) O 81 0 min 0,000 mm 0,0 UV-I 12 W/m 0,5 C -3,3 C 16,1 km/h (3 Bft) 95,83 %
17.02.2018 07:48 0,8 C 4,4 C 98 % 1021,8 hPa 0,0 l/m 13,5 km/h (3 Bft) O 86 0 min 0,000 mm 0,0 UV-I 12 W/m 0,5 C -5,1 C 17,7 km/h (3 Bft) 100,00 %
17.02.2018 07:49 0,8 C 4,4 C 98 % 1021,7 hPa 0,0 l/m 13,2 km/h (3 Bft) O-NO 57 0 min 0,000 mm 0,0 UV-I 12 W/m 0,5 C -4,9 C 16,1 km/h (3 Bft) 95,83 %
17.02.2018 07:50 0,8 C 4,4 C 98 % 1021,8 hPa 0,0 l/m 13,3 km/h (3 Bft) O-NO 75 0 min 0,000 mm 0,0 UV-I 12 W/m 0,5 C -5,0 C 17,7 km/h (3 Bft) 91,30 %
17.02.2018 07:51 0,8 C 4,4 C 98 % 1021,8 hPa 0,0 l/m 14,8 km/h (3 Bft) O 89 0 min 0,000 mm 0,0 UV-I 12 W/m 0,5 C -5,9 C 19,3 km/h (3 Bft) 95,83 %
17.02.2018 07:52 0,8 C 4,4 C 98 % 1021,8 hPa 0,0 l/m 14,3 km/h (3 Bft) O-NO 72 0 min 0,000 mm 0,0 UV-I 14 W/m 0,5 C -5,6 C 17,7 km/h (3 Bft) 91,30 %
17.02.2018 07:53 0,8 C 4,4 C 98 % 1021,8 hPa 0,0 l/m 12,5 km/h (3 Bft) O-NO 75 0 min 0,000 mm 0,0 UV-I 14 W/m 0,5 C -4,4 C 16,1 km/h (3 Bft) 100,00 %
17.02.2018 07:54 0,8 C 4,4 C 98 % 1021,8 hPa 0,0 l/m 12,1 km/h (2 Bft) O-NO 75 0 min 0,000 mm 0,0 UV-I 14 W/m 0,5 C -4,2 C 16,1 km/h (3 Bft) 95,65 %
17.02.2018 07:55 0,8 C 4,4 C 98 % 1021,8 hPa 0,0 l/m 13,3 km/h (3 Bft) O-NO 68 0 min 0,000 mm 0,0 UV-I 14 W/m 0,5 C -5,0 C 16,1 km/h (3 Bft) 100,00 %
17.02.2018 07:56 0,8 C 4,4 C 98 % 1021,8 hPa 0,0 l/m 12,4 km/h (3 Bft) O-NO 74 0 min 0,000 mm 0,0 UV-I 15 W/m 0,5 C -4,4 C 17,7 km/h (3 Bft) 96,15 %
17.02.2018 07:57 0,8 C 4,4 C 98 % 1021,8 hPa 0,0 l/m 13,9 km/h (3 Bft) O-NO 71 0 min 0,000 mm 0,0 UV-I 16 W/m 0,5 C -5,3 C 19,3 km/h (3 Bft) 95,83 %
17.02.2018 07:58 0,8 C 4,4 C 98 % 1021,7 hPa 0,0 l/m 13,9 km/h (3 Bft) O-NO 68 0 min 0,000 mm 0,0 UV-I 16 W/m 0,5 C -5,3 C 17,7 km/h (3 Bft) 100,00 %
17.02.2018 07:59 0,8 C 4,4 C 98 % 1021,7 hPa 0,0 l/m 14,5 km/h (3 Bft) O-NO 58 0 min 0,000 mm 0,0 UV-I 16 W/m 0,5 C -5,7 C 17,7 km/h (3 Bft) 95,83 %
17.02.2018 08:00 0,8 C 4,4 C 98 % 1021,7 hPa 0,0 l/m 13,4 km/h (3 Bft) O-NO 68 0 min 0,000 mm 0,0 UV-I 17 W/m 0,5 C -5,0 C 16,1 km/h (3 Bft) 100,00 %
17.02.2018 08:01 0,8 C 4,4 C 98 % 1021,7 hPa 0,0 l/m 12,7 km/h (3 Bft) O-NO 66 0 min 0,000 mm 0,0 UV-I 18 W/m 0,5 C -4,6 C 16,1 km/h (3 Bft) 95,83 %
17.02.2018 08:02 0,8 C 4,4 C 98 % 1021,6 hPa 0,0 l/m 14,3 km/h (3 Bft) O 87 0 min 0,000 mm 0,0 UV-I 17 W/m 0,5 C -5,6 C 16,1 km/h (3 Bft) 100,00 %
17.02.2018 08:03 0,8 C 4,4 C 98 % 1021,6 hPa 0,0 l/m 10,4 km/h (2 Bft) O 80 0 min 0,000 mm 0,0 UV-I 16 W/m 0,5 C -2,9 C 14,5 km/h (3 Bft) 95,83 %
17.02.2018 08:04 0,8 C 4,4 C 98 % 1021,6 hPa 0,0 l/m 9,9 km/h (2 Bft) O-NO 60 0 min 0,000 mm 0,0 UV-I 16 W/m 0,5 C -2,5 C 12,9 km/h (3 Bft) 100,00 %
17.02.2018 08:05 0,8 C 4,4 C 98 % 1021,6 hPa 0,0 l/m 11,5 km/h (2 Bft) O-NO 60 0 min 0,000 mm 0,0 UV-I 16 W/m 0,5 C -3,7 C 14,5 km/h (3 Bft) 91,67 %
17.02.2018 08:06 0,8 C 4,4 C 98 % 1021,6 hPa 0,0 l/m 11,6 km/h (2 Bft) O-NO 62 0 min 0,000 mm 0,0 UV-I 16 W/m 0,5 C -3,8 C 16,1 km/h (3 Bft) 100,00 %
17.02.2018 08:07 0,8 C 4,4 C 98 % 1021,7 hPa 0,0 l/m 11,5 km/h (2 Bft) O 87 0 min 0,000 mm 0,0 UV-I 17 W/m 0,5 C -3,7 C 14,5 km/h (3 Bft) 96,15 %
17.02.2018 08:08 0,8 C 4,4 C 98 % 1021,7 hPa 0,0 l/m 11,1 km/h (2 Bft) O-NO 65 0 min 0,000 mm 0,0 UV-I 18 W/m 0,5 C -3,4 C 14,5 km/h (3 Bft) 100,00 %
17.02.2018 08:09 0,8 C 4,4 C 98 % 1021,7 hPa 0,0 l/m 12,9 km/h (3 Bft) O 82 0 min 0,000 mm 0,0 UV-I 18 W/m 0,5 C -4,7 C 19,3 km/h (3 Bft) 95,65 %
17.02.2018 08:10 0,8 C 4,4 C 98 % 1021,7 hPa 0,0 l/m 10,6 km/h (2 Bft) O 87 0 min 0,000 mm 0,0 UV-I 16 W/m 0,5 C -3,0 C 14,5 km/h (3 Bft) 95,83 %
17.02.2018 08:11 0,8 C 4,4 C 98 % 1021,6 hPa 0,0 l/m 11,6 km/h (2 Bft) O-NO 76 0 min 0,000 mm 0,0 UV-I 16 W/m 0,5 C -3,8 C 14,5 km/h (3 Bft) 91,30 %
17.02.2018 08:12 0,8 C 4,4 C 98 % 1021,6 hPa 0,0 l/m 9,1 km/h (2 Bft) O 82 0 min 0,000 mm 0,0 UV-I 18 W/m 0,5 C -1,8 C 14,5 km/h (3 Bft) 95,83 %
17.02.2018 08:13 0,8 C 4,4 C 97 % 1021,6 hPa 0,0 l/m 11,1 km/h (2 Bft) O-NO 70 0 min 0,000 mm 0,0 UV-I 20 W/m 0,4 C -3,4 C 17,7 km/h (3 Bft) 91,30 %
17.02.2018 08:14 0,8 C 4,4 C 98 % 1021,5 hPa 0,0 l/m 11,8 km/h (2 Bft) NO 55 0 min 0,000 mm 0,0 UV-I 21 W/m 0,5 C -3,9 C 17,7 km/h (3 Bft) 95,83 %
17.02.2018 08:15 0,8 C 4,4 C 97 % 1021,5 hPa 0,0 l/m 11,0 km/h (2 Bft) O-NO 64 0 min 0,000 mm 0,0 UV-I 21 W/m 0,4 C -3,3 C 14,5 km/h (3 Bft) 95,65 %
17.02.2018 08:16 0,8 C 4,4 C 97 % 1021,5 hPa 0,0 l/m 10,8 km/h (2 Bft) O 82 0 min 0,000 mm 0,0 UV-I 25 W/m 0,4 C -3,2 C 16,1 km/h (3 Bft) 95,83 %
17.02.2018 08:17 0,8 C 4,4 C 97 % 1021,5 hPa 0,0 l/m 9,7 km/h (2 Bft) NO 50 0 min 0,000 mm 0,0 UV-I 26 W/m 0,4 C -2,3 C 14,5 km/h (3 Bft) 96,15 %
17.02.2018 08:18 0,8 C 4,4 C 97 % 1021,5 hPa 0,0 l/m 10,5 km/h (2 Bft) O-NO 65 0 min 0,000 mm 0,0 UV-I 30 W/m 0,4 C -3,0 C 17,7 km/h (3 Bft) 95,83 %
17.02.2018 08:19 0,8 C 4,4 C 97 % 1021,4 hPa 0,0 l/m 12,9 km/h (3 Bft) O 94 0 min 0,000 mm 0,0 UV-I 30 W/m 0,4 C -4,7 C 16,1 km/h (3 Bft) 100,00 %
17.02.2018 08:20 0,8 C 4,4 C 97 % 1021,4 hPa 0,0 l/m 12,9 km/h (3 Bft) O-NO 78 0 min 0,000 mm 0,0 UV-I 32 W/m 0,4 C -4,7 C 17,7 km/h (3 Bft) 91,67 %
17.02.2018 08:21 0,8 C 4,4 C 97 % 1021,4 hPa 0,0 l/m 12,5 km/h (3 Bft) O-NO 65 0 min 0,000 mm 0,0 UV-I 35 W/m 0,4 C -4,4 C 19,3 km/h (3 Bft) 95,65 %
17.02.2018 08:22 0,8 C 4,4 C 97 % 1021,4 hPa 0,0 l/m 12,2 km/h (2 Bft) O-NO 61 0 min 0,000 mm 0,0 UV-I 39 W/m 0,4 C -4,2 C 16,1 km/h (3 Bft) 100,00 %
17.02.2018 08:23 0,8 C 4,4 C 97 % 1021,4 hPa 0,0 l/m 10,5 km/h (2 Bft) O-NO 78 0 min 0,000 mm 0,0 UV-I 39 W/m 0,4 C -3,0 C 14,5 km/h (3 Bft) 100,00 %
17.02.2018 08:24 0,8 C 4,4 C 97 % 1021,5 hPa 0,0 l/m 9,7 km/h (2 Bft) N-NO 28 0 min 0,000 mm 0,0 UV-I 39 W/m 0,4 C -2,3 C 14,5 km/h (3 Bft) 97,37 %
17.02.2018 08:25 0,8 C 4,4 C 97 % 1021,5 hPa 0,0 l/m 9,5 km/h (2 Bft) O 81 0 min 0,000 mm 0,0 UV-I 40 W/m 0,4 C -2,2 C 12,9 km/h (3 Bft) 95,83 %
17.02.2018 08:26 0,8 C 4,4 C 97 % 1021,5 hPa 0,0 l/m 12,7 km/h (3 Bft) O 79 0 min 0,000 mm 0,0 UV-I 38 W/m 0,4 C -4,6 C 17,7 km/h (3 Bft) 100,00 %
17.02.2018 08:27 0,8 C 4,4 C 97 % 1021,5 hPa 0,0 l/m 12,2 km/h (2 Bft) O-NO 61 0 min 0,000 mm 0,0 UV-I 34 W/m 0,4 C -4,2 C 16,1 km/h (3 Bft) 95,83 %
17.02.2018 08:28 0,8 C 4,4 C 97 % 1021,5 hPa 0,0 l/m 11,3 km/h (2 Bft) NO 54 0 min 0,000 mm 0,0 UV-I 33 W/m 0,4 C -3,6 C 16,1 km/h (3 Bft) 100,00 %
17.02.2018 08:29 0,8 C 4,4 C 97 % 1021,5 hPa 0,0 l/m 11,3 km/h (2 Bft) O 89 0 min 0,000 mm 0,0 UV-I 32 W/m 0,4 C -3,6 C 16,1 km/h (3 Bft) 92,31 %
17.02.2018 08:30 0,9 C 4,4 C 97 % 1021,5 hPa 0,0 l/m 11,3 km/h (2 Bft) O-NO 71 0 min 0,000 mm 0,0 UV-I 32 W/m 0,5 C -3,5 C 14,5 km/h (3 Bft) 95,65 %
17.02.2018 08:31 0,9 C 4,4 C 97 % 1021,5 hPa 0,0 l/m 13,3 km/h (3 Bft) O-NO 67 0 min 0,000 mm 0,0 UV-I 32 W/m 0,5 C -4,8 C 16,1 km/h (3 Bft) 95,83 %
17.02.2018 08:32 0,9 C 4,4 C 97 % 1021,5 hPa 0,0 l/m 11,5 km/h (2 Bft) NO 37 0 min 0,000 mm 0,0 UV-I 32 W/m 0,5 C -3,6 C 16,1 km/h (3 Bft) 91,30 %
17.02.2018 08:33 0,9 C 4,4 C 97 % 1021,6 hPa 0,0 l/m 10,3 km/h (2 Bft) N-NO 32 0 min 0,000 mm 0,0 UV-I 29 W/m 0,5 C -2,7 C 14,5 km/h (3 Bft) 100,00 %
17.02.2018 08:34 0,9 C 4,4 C 97 % 1021,6 hPa 0,0 l/m 9,3 km/h (2 Bft) O-NO 59 0 min 0,000 mm 0,0 UV-I 26 W/m 0,5 C -1,9 C 14,5 km/h (3 Bft) 92,31 %
17.02.2018 08:35 0,9 C 4,4 C 97 % 1021,5 hPa 0,0 l/m 11,3 km/h (2 Bft) O-NO 63 0 min 0,000 mm 0,0 UV-I 26 W/m 0,5 C -3,5 C 14,5 km/h (3 Bft) 100,00 %
17.02.2018 08:36 0,9 C 4,4 C 97 % 1021,5 hPa 0,0 l/m 11,5 km/h (2 Bft) O-NO 60 0 min 0,000 mm 0,0 UV-I 26 W/m 0,5 C -3,6 C 14,5 km/h (3 Bft) 95,65 %
17.02.2018 08:37 0,9 C 4,4 C 97 % 1021,3 hPa 0,0 l/m 9,7 km/h (2 Bft) O-NO 62 0 min 0,000 mm 0,0 UV-I 26 W/m 0,5 C -2,2 C 12,9 km/h (3 Bft) 100,00 %
17.02.2018 08:38 0,9 C 4,4 C 97 % 1021,3 hPa 0,0 l/m 12,7 km/h (3 Bft) O-NO 70 0 min 0,000 mm 0,0 UV-I 26 W/m 0,5 C -4,4 C 17,7 km/h (3 Bft) 95,83 %
17.02.2018 08:39 0,9 C 4,4 C 97 % 1021,3 hPa 0,0 l/m 12,1 km/h (2 Bft) NO 53 0 min 0,000 mm 0,0 UV-I 24 W/m 0,5 C -4,0 C 14,5 km/h (3 Bft) 100,00 %
17.02.2018 08:40 0,9 C 4,4 C 97 % 1021,3 hPa 0,0 l/m 10,8 km/h (2 Bft) NO 52 0 min 0,000 mm 0,0 UV-I 23 W/m 0,5 C -3,1 C 14,5 km/h (3 Bft) 95,83 %
17.02.2018 08:41 0,9 C 4,4 C 97 % 1021,3 hPa 0,0 l/m 11,5 km/h (2 Bft) NO 44 0 min 0,000 mm 0,0 UV-I 24 W/m 0,5 C -3,6 C 17,7 km/h (3 Bft) 96,15 %
17.02.2018 08:42 0,9 C 4,4 C 97 % 1021,2 hPa 0,0 l/m 11,3 km/h (2 Bft) NO 37 0 min 0,000 mm 0,0 UV-I 24 W/m 0,5 C -3,5 C 16,1 km/h (3 Bft) 96,30 %
17.02.2018 08:43 0,9 C 4,4 C 97 % 1021,2 hPa 0,0 l/m 12,6 km/h (3 Bft) NO 49 0 min 0,000 mm 0,0 UV-I 25 W/m 0,5 C -4,4 C 16,1 km/h (3 Bft) 86,96 %
17.02.2018 08:44 0,9 C 4,4 C 97 % 1021,2 hPa 0,0 l/m 13,7 km/h (3 Bft) O-NO 65 0 min 0,000 mm 0,0 UV-I 29 W/m 0,5 C -5,1 C 17,7 km/h (3 Bft) 100,00 %
17.02.2018 08:45 0,9 C 4,4 C 97 % 1021,2 hPa 0,0 l/m 16,5 km/h (3 Bft) N-NO 31 0 min 0,000 mm 0,0 UV-I 33 W/m 0,5 C -6,7 C 20,9 km/h (4 Bft) 95,65 %
17.02.2018 08:46 0,9 C 4,4 C 97 % 1021,1 hPa 0,0 l/m 15,5 km/h (3 Bft) NO 42 0 min 0,000 mm 0,0 UV-I 37 W/m 0,5 C -6,2 C 19,3 km/h (3 Bft) 100,00 %
17.02.2018 08:47 0,9 C 4,4 C 97 % 1021,1 hPa 0,0 l/m 13,5 km/h (3 Bft) NO 40 0 min 0,000 mm 0,0 UV-I 41 W/m 0,5 C -5,0 C 17,7 km/h (3 Bft) 95,65 %
17.02.2018 08:48 0,9 C 4,4 C 97 % 1021,0 hPa 0,0 l/m 13,9 km/h (3 Bft) NO 49 0 min 0,000 mm 0,0 UV-I 47 W/m 0,5 C -5,2 C 16,1 km/h (3 Bft) 100,00 %
17.02.2018 08:49 0,9 C 4,4 C 97 % 1021,0 hPa 0,0 l/m 13,5 km/h (3 Bft) O-NO 63 0 min 0,000 mm 0,0 UV-I 46 W/m 0,5 C -5,0 C 16,1 km/h (3 Bft) 95,65 %
17.02.2018 08:50 0,9 C 4,4 C 97 % 1020,9 hPa 0,0 l/m 15,5 km/h (3 Bft) NO 53 0 min 0,000 mm 0,0 UV-I 46 W/m 0,5 C -6,2 C 20,9 km/h (4 Bft) 95,83 %
17.02.2018 08:51 0,9 C 4,4 C 97 % 1020,9 hPa 0,0 l/m 14,8 km/h (3 Bft) O-NO 63 0 min 0,000 mm 0,0 UV-I 46 W/m 0,5 C -5,8 C 19,3 km/h (3 Bft) 91,30 %
17.02.2018 08:52 0,9 C 4,4 C 97 % 1020,9 hPa 0,0 l/m 14,6 km/h (3 Bft) NO 40 0 min 0,000 mm 0,0 UV-I 47 W/m 0,5 C -5,7 C 19,3 km/h (3 Bft) 100,00 %
17.02.2018 08:53 0,9 C 4,4 C 97 % 1020,8 hPa 0,0 l/m 16,5 km/h (3 Bft) NO 55 0 min 0,000 mm 0,0 UV-I 48 W/m 0,5 C -6,7 C 22,5 km/h (4 Bft) 95,65 %
17.02.2018 08:54 0,9 C 4,4 C 97 % 1020,7 hPa 0,0 l/m 17,2 km/h (3 Bft) NO 53 0 min 0,000 mm 0,0 UV-I 47 W/m 0,5 C -7,1 C 19,3 km/h (3 Bft) 100,00 %
17.02.2018 08:55 0,9 C 4,4 C 97 % 1020,8 hPa 0,0 l/m 16,4 km/h (3 Bft) NO 50 0 min 0,000 mm 0,0 UV-I 47 W/m 0,5 C -6,7 C 19,3 km/h (3 Bft) 100,00 %
17.02.2018 08:56 0,9 C 4,4 C 97 % 1020,8 hPa 0,0 l/m 14,3 km/h (3 Bft) NO 43 0 min 0,000 mm 0,0 UV-I 46 W/m 0,5 C -5,5 C 20,9 km/h (4 Bft) 100,00 %
17.02.2018 08:57 0,9 C 4,4 C 96 % 1020,8 hPa 0,0 l/m 14,8 km/h (3 Bft) O-NO 60 0 min 0,000 mm 0,0 UV-I 42 W/m 0,3 C -5,8 C 19,3 km/h (3 Bft) 100,00 %
17.02.2018 08:58 0,9 C 4,4 C 96 % 1020,7 hPa 0,0 l/m 12,6 km/h (3 Bft) NO 51 0 min 0,000 mm 0,0 UV-I 42 W/m 0,3 C -4,4 C 19,3 km/h (3 Bft) 100,00 %
17.02.2018 08:59 0,9 C 4,4 C 96 % 1020,7 hPa 0,0 l/m 14,6 km/h (3 Bft) O-NO 74 0 min 0,000 mm 0,0 UV-I 42 W/m 0,3 C -5,7 C 19,3 km/h (3 Bft) 100,00 %
17.02.2018 09:00 0,9 C 4,4 C 96 % 1020,6 hPa 0,0 l/m 13,1 km/h (3 Bft) NO 48 0 min 0,025 mm 0,0 UV-I 41 W/m 0,3 C -4,7 C 17,7 km/h (3 Bft) 100,00 %
17.02.2018 09:01 0,9 C 4,4 C 96 % 1020,6 hPa 0,0 l/m 12,3 km/h (3 Bft) O-NO 77 0 min 0,000 mm 0,0 UV-I 44 W/m 0,3 C -4,2 C 16,1 km/h (3 Bft) 95,83 %
17.02.2018 09:02 0,9 C 4,4 C 96 % 1020,6 hPa 0,0 l/m 17,0 km/h (3 Bft) O-NO 63 0 min 0,000 mm 0,0 UV-I 47 W/m 0,3 C -7,0 C 20,9 km/h (4 Bft) 100,00 %
17.02.2018 09:03 0,9 C 4,4 C 96 % 1020,6 hPa 0,0 l/m 14,8 km/h (3 Bft) O-NO 61 0 min 0,000 mm 0,0 UV-I 47 W/m 0,3 C -5,8 C 19,3 km/h (3 Bft) 100,00 %
17.02.2018 09:04 0,9 C 4,4 C 96 % 1020,6 hPa 0,0 l/m 13,3 km/h (3 Bft) NO 54 0 min 0,000 mm 0,0 UV-I 47 W/m 0,3 C -4,8 C 20,9 km/h (4 Bft) 95,65 %
17.02.2018 09:05 0,9 C 4,4 C 96 % 1020,5 hPa 0,0 l/m 19,8 km/h (3 Bft) O-NO 61 0 min 0,000 mm 0,0 UV-I 51 W/m 0,3 C -8,4 C 22,5 km/h (4 Bft) 100,00 %
17.02.2018 09:06 0,9 C 4,4 C 96 % 1020,5 hPa 0,0 l/m 15,4 km/h (3 Bft) NO 51 0 min 0,000 mm 0,0 UV-I 57 W/m 0,3 C -6,1 C 19,3 km/h (3 Bft) 95,65 %
17.02.2018 09:07 0,9 C 4,4 C 96 % 1020,6 hPa 0,0 l/m 14,6 km/h (3 Bft) O-NO 57 0 min 0,000 mm 0,0 UV-I 62 W/m 0,3 C -5,7 C 16,1 km/h (3 Bft) 100,00 %
17.02.2018 09:08 0,9 C 4,4 C 96 % 1020,6 hPa 0,0 l/m 11,9 km/h (2 Bft) NO 49 0 min 0,000 mm 0,0 UV-I 63 W/m 0,3 C -3,9 C 17,7 km/h (3 Bft) 100,00 %
17.02.2018 09:09 0,9 C 4,4 C 96 % 1020,6 hPa 0,0 l/m 9,9 km/h (2 Bft) O-NO 59 0 min 0,000 mm 0,0 UV-I 65 W/m 0,3 C -2,4 C 14,5 km/h (3 Bft) 100,00 %
17.02.2018 09:10 0,9 C 4,4 C 96 % 1020,6 hPa 0,0 l/m 9,2 km/h (2 Bft) O-NO 65 0 min 0,000 mm 0,0 UV-I 62 W/m 0,3 C -1,8 C 14,5 km/h (3 Bft) 92,31 %
17.02.2018 09:11 1,0 C 4,4 C 96 % 1020,6 hPa 0,0 l/m 12,5 km/h (3 Bft) NO 54 0 min 0,000 mm 0,0 UV-I 59 W/m 0,4 C -4,2 C 17,7 km/h (3 Bft) 95,83 %
17.02.2018 09:12 1,0 C 4,4 C 96 % 1020,6 hPa 0,0 l/m 15,1 km/h (3 Bft) O-NO 59 0 min 0,000 mm 0,0 UV-I 58 W/m 0,4 C -5,8 C 19,3 km/h (3 Bft) 95,65 %
17.02.2018 09:13 1,0 C 4,4 C 96 % 1020,6 hPa 0,0 l/m 15,2 km/h (3 Bft) O-NO 74 0 min 0,000 mm 0,0 UV-I 55 W/m 0,4 C -5,9 C 19,3 km/h (3 Bft) 95,83 %
17.02.2018 09:14 1,0 C 4,4 C 96 % 1020,6 hPa 0,0 l/m 11,5 km/h (2 Bft) O-NO 73 0 min 0,000 mm 0,0 UV-I 48 W/m 0,4 C -3,5 C 16,1 km/h (3 Bft) 100,00 %
17.02.2018 09:15 1,0 C 4,4 C 96 % 1020,6 hPa 0,0 l/m 10,8 km/h (2 Bft) NO 48 0 min 0,000 mm 0,0 UV-I 46 W/m 0,4 C -3,0 C 17,7 km/h (3 Bft) 95,83 %
17.02.2018 09:16 1,0 C 4,4 C 96 % 1020,6 hPa 0,0 l/m 12,8 km/h (3 Bft) N-NO 26 0 min 0,000 mm 0,0 UV-I 46 W/m 0,4 C -4,4 C 16,1 km/h (3 Bft) 95,65 %
17.02.2018 09:17 1,1 C 4,4 C 96 % 1020,6 hPa 0,0 l/m 13,3 km/h (3 Bft) NO 50 0 min 0,000 mm 0,0 UV-I 44 W/m 0,5 C -4,6 C 16,1 km/h (3 Bft) 95,83 %
17.02.2018 09:18 1,1 C 4,4 C 96 % 1020,6 hPa 0,0 l/m 15,4 km/h (3 Bft) NO 48 0 min 0,000 mm 0,0 UV-I 45 W/m 0,5 C -5,9 C 17,7 km/h (3 Bft) 100,00 %
17.02.2018 09:19 1,1 C 4,4 C 96 % 1020,5 hPa 0,0 l/m 17,2 km/h (3 Bft) O-NO 74 0 min 0,000 mm 0,0 UV-I 47 W/m 0,5 C -6,9 C 22,5 km/h (4 Bft) 95,83 %
17.02.2018 09:20 1,1 C 4,4 C 96 % 1020,5 hPa 0,0 l/m 16,4 km/h (3 Bft) NO 56 0 min 0,000 mm 0,0 UV-I 43 W/m 0,5 C -6,4 C 19,3 km/h (3 Bft) 95,83 %
17.02.2018 09:21 1,1 C 4,4 C 96 % 1020,5 hPa 0,0 l/m 19,4 km/h (3 Bft) NO 53 0 min 0,000 mm 0,0 UV-I 40 W/m 0,5 C -7,9 C 22,5 km/h (4 Bft) 100,00 %
17.02.2018 09:22 1,1 C 4,4 C 96 % 1020,5 hPa 0,0 l/m 13,4 km/h (3 Bft) NO 56 0 min 0,000 mm 0,0 UV-I 40 W/m 0,5 C -4,7 C 17,7 km/h (3 Bft) 91,67 %
17.02.2018 09:23 1,1 C 4,4 C 96 % 1020,5 hPa 0,0 l/m 14,2 km/h (3 Bft) NO 47 0 min 0,000 mm 0,0 UV-I 39 W/m 0,5 C -5,2 C 22,5 km/h (4 Bft) 100,00 %
17.02.2018 09:24 1,1 C 4,4 C 96 % 1020,4 hPa 0,0 l/m 16,5 km/h (3 Bft) NO 46 0 min 0,000 mm 0,0 UV-I 39 W/m 0,5 C -6,5 C 19,3 km/h (3 Bft) 96,30 %
17.02.2018 09:25 1,1 C 4,4 C 96 % 1020,5 hPa 0,0 l/m 14,3 km/h (3 Bft) O-NO 67 0 min 0,000 mm 0,0 UV-I 39 W/m 0,5 C -5,2 C 19,3 km/h (3 Bft) 100,00 %
17.02.2018 09:26 1,1 C 4,4 C 96 % 1020,5 hPa 0,0 l/m 14,1 km/h (3 Bft) NO 53 0 min 0,000 mm 0,0 UV-I 39 W/m 0,5 C -5,1 C 17,7 km/h (3 Bft) 95,83 %
17.02.2018 09:27 1,1 C 4,4 C 96 % 1020,5 hPa 0,0 l/m 17,1 km/h (3 Bft) O-NO 64 0 min 0,000 mm 0,0 UV-I 46 W/m 0,5 C -6,8 C 22,5 km/h (4 Bft) 96,00 %
17.02.2018 09:28 1,1 C 4,4 C 96 % 1020,5 hPa 0,0 l/m 17,6 km/h (3 Bft) NO 44 0 min 0,000 mm 0,0 UV-I 42 W/m 0,5 C -7,1 C 22,5 km/h (4 Bft) 95,83 %
17.02.2018 09:29 1,1 C 4,4 C 96 % 1020,5 hPa 0,0 l/m 18,6 km/h (3 Bft) NO 53 0 min 0,000 mm 0,0 UV-I 38 W/m 0,5 C -7,6 C 22,5 km/h (4 Bft) 95,65 %
17.02.2018 09:30 1,1 C 4,4 C 95 % 1020,4 hPa 0,0 l/m 17,7 km/h (3 Bft) NO 48 0 min 0,000 mm 0,0 UV-I 39 W/m 0,4 C -7,1 C 25,7 km/h (4 Bft) 95,83 %
17.02.2018 09:31 1,1 C 4,4 C 95 % 1020,4 hPa 0,0 l/m 19,5 km/h (3 Bft) O 87 0 min 0,000 mm 0,0 UV-I 42 W/m 0,4 C -8,0 C 24,1 km/h (4 Bft) 92,59 %
17.02.2018 09:32 1,1 C 4,4 C 95 % 1020,4 hPa 0,0 l/m 15,6 km/h (3 Bft) O-NO 71 0 min 0,000 mm 0,0 UV-I 44 W/m 0,4 C -6,0 C 20,9 km/h (4 Bft) 100,00 %
17.02.2018 09:33 1,1 C 4,4 C 95 % 1020,3 hPa 0,0 l/m 14,0 km/h (3 Bft) NO 45 0 min 0,000 mm 0,0 UV-I 46 W/m 0,4 C -5,0 C 20,9 km/h (4 Bft) 95,65 %
17.02.2018 09:34 1,1 C 4,4 C 95 % 1020,3 hPa 0,0 l/m 16,8 km/h (3 Bft) O-NO 58 0 min 0,000 mm 0,0 UV-I 46 W/m 0,4 C -6,6 C 20,9 km/h (4 Bft) 100,00 %
17.02.2018 09:35 1,1 C 4,4 C 96 % 1020,3 hPa 0,0 l/m 14,6 km/h (3 Bft) NO 43 0 min 0,000 mm 0,0 UV-I 47 W/m 0,5 C -5,4 C 19,3 km/h (3 Bft) 95,65 %
17.02.2018 09:36 1,1 C 4,4 C 96 % 1020,2 hPa 0,0 l/m 17,2 km/h (3 Bft) NO 51 0 min 0,000 mm 0,0 UV-I 48 W/m 0,5 C -6,9 C 22,5 km/h (4 Bft) 100,00 %
17.02.2018 09:37 1,1 C 4,4 C 95 % 1020,1 hPa 0,0 l/m 15,7 km/h (3 Bft) O 95 0 min 0,000 mm 0,0 UV-I 51 W/m 0,4 C -6,0 C 20,9 km/h (4 Bft) 91,30 %
17.02.2018 09:38 1,1 C 4,4 C 95 % 1020,0 hPa 0,0 l/m 17,4 km/h (3 Bft) O-NO 69 0 min 0,000 mm 0,0 UV-I 54 W/m 0,4 C -7,0 C 22,5 km/h (4 Bft) 96,30 %
17.02.2018 09:39 1,1 C 4,4 C 95 % 1019,9 hPa 0,0 l/m 20,3 km/h (4 Bft) NO 37 0 min 0,000 mm 0,0 UV-I 56 W/m 0,4 C -8,3 C 27,4 km/h (4 Bft) 100,00 %
17.02.2018 09:40 1,1 C 4,4 C 95 % 1019,9 hPa 0,0 l/m 21,5 km/h (4 Bft) O 80 0 min 0,000 mm 0,0 UV-I 55 W/m 0,4 C -8,9 C 25,7 km/h (4 Bft) 83,33 %
17.02.2018 09:41 1,1 C 4,4 C 96 % 1019,9 hPa 0,0 l/m 13,6 km/h (3 Bft) O-NO 63 0 min 0,000 mm 0,0 UV-I 53 W/m 0,5 C -4,8 C 19,3 km/h (3 Bft) 100,00 %
17.02.2018 09:42 1,1 C 4,4 C 95 % 1019,9 hPa 0,0 l/m 13,9 km/h (3 Bft) O-NO 63 0 min 0,000 mm 0,0 UV-I 53 W/m 0,4 C -5,0 C 20,9 km/h (4 Bft) 95,83 %
17.02.2018 09:43 1,1 C 4,4 C 96 % 1019,9 hPa 0,0 l/m 14,7 km/h (3 Bft) NO 46 0 min 0,000 mm 0,0 UV-I 54 W/m 0,5 C -5,5 C 19,3 km/h (3 Bft) 100,00 %
17.02.2018 09:44 1,1 C 4,4 C 96 % 1019,9 hPa 0,0 l/m 13,4 km/h (3 Bft) O-NO 65 0 min 0,000 mm 0,0 UV-I 54 W/m 0,5 C -4,7 C 16,1 km/h (3 Bft) 95,65 %
17.02.2018 09:45 1,1 C 4,4 C 96 % 1019,9 hPa 0,0 l/m 12,5 km/h (3 Bft) NO 44 0 min 0,000 mm 0,0 UV-I 54 W/m 0,5 C -4,1 C 17,7 km/h (3 Bft) 100,00 %
17.02.2018 09:46 1,1 C 4,4 C 96 % 1019,9 hPa 0,0 l/m 16,3 km/h (3 Bft) NO 53 0 min 0,000 mm 0,0 UV-I 52 W/m 0,5 C -6,4 C 20,9 km/h (4 Bft) 100,00 %
17.02.2018 09:47 1,1 C 4,4 C 96 % 1020,0 hPa 0,0 l/m 16,4 km/h (3 Bft) O-NO 57 0 min 0,000 mm 0,0 UV-I 52 W/m 0,5 C -6,4 C 20,9 km/h (4 Bft) 100,00 %
17.02.2018 09:48 1,1 C 4,4 C 96 % 1020,0 hPa 0,0 l/m 16,9 km/h (3 Bft) O-NO 60 0 min 0,000 mm 0,0 UV-I 51 W/m 0,5 C -6,7 C 24,1 km/h (4 Bft) 100,00 %
17.02.2018 09:49 1,2 C 4,4 C 96 % 1020,0 hPa 0,0 l/m 15,6 km/h (3 Bft) O-NO 65 0 min 0,000 mm 0,0 UV-I 51 W/m 0,6 C -5,9 C 22,5 km/h (4 Bft) 100,00 %
17.02.2018 09:50 1,2 C 4,4 C 96 % 1019,9 hPa 0,0 l/m 19,1 km/h (3 Bft) NO 53 0 min 0,000 mm 0,0 UV-I 49 W/m 0,6 C -7,7 C 24,1 km/h (4 Bft) 88,46 %
17.02.2018 09:51 1,2 C 4,4 C 96 % 1019,8 hPa 0,0 l/m 19,0 km/h (3 Bft) O-NO 65 0 min 0,000 mm 0,0 UV-I 46 W/m 0,6 C -7,6 C 27,4 km/h (4 Bft) 100,00 %
17.02.2018 09:52 1,2 C 4,4 C 96 % 1019,8 hPa 0,0 l/m 17,5 km/h (3 Bft) NO 40 0 min 0,000 mm 0,0 UV-I 45 W/m 0,6 C -6,9 C 20,9 km/h (4 Bft) 100,00 %
17.02.2018 09:53 1,2 C 4,4 C 96 % 1019,8 hPa 0,0 l/m 12,1 km/h (2 Bft) O 89 0 min 0,000 mm 0,0 UV-I 45 W/m 0,6 C -3,7 C 16,1 km/h (3 Bft) 100,00 %
17.02.2018 09:54 1,1 C 4,4 C 96 % 1019,6 hPa 0,0 l/m 15,6 km/h (3 Bft) NO 36 0 min 0,000 mm 0,0 UV-I 45 W/m 0,5 C -6,0 C 20,9 km/h (4 Bft) 100,00 %
17.02.2018 09:55 1,2 C 4,4 C 96 % 1019,6 hPa 0,0 l/m 15,9 km/h (3 Bft) NO 55 0 min 0,000 mm 0,0 UV-I 47 W/m 0,6 C -6,0 C 22,5 km/h (4 Bft) 100,00 %
17.02.2018 09:56 1,2 C 4,4 C 96 % 1019,5 hPa 0,0 l/m 16,8 km/h (3 Bft) O-NO 78 0 min 0,000 mm 0,0 UV-I 51 W/m 0,6 C -6,5 C 22,5 km/h (4 Bft) 95,65 %
17.02.2018 09:57 1,2 C 4,4 C 96 % 1019,4 hPa 0,0 l/m 16,4 km/h (3 Bft) O-NO 76 0 min 0,000 mm 0,0 UV-I 54 W/m 0,6 C -6,3 C 25,7 km/h (4 Bft) 100,00 %
17.02.2018 09:58 1,2 C 4,4 C 96 % 1019,4 hPa 0,0 l/m 18,3 km/h (3 Bft) O-NO 68 0 min 0,000 mm 0,0 UV-I 57 W/m 0,6 C -7,3 C 22,5 km/h (4 Bft) 100,00 %
17.02.2018 09:59 1,2 C 4,4 C 96 % 1019,4 hPa 0,0 l/m 14,9 km/h (3 Bft) O 88 0 min 0,000 mm 0,0 UV-I 60 W/m 0,6 C -5,5 C 20,9 km/h (4 Bft) 100,00 %
17.02.2018 10:00 1,2 C 4,4 C 96 % 1019,4 hPa 0,0 l/m 16,7 km/h (3 Bft) O-NO 61 0 min 0,000 mm 0,0 UV-I 57 W/m 0,6 C -6,5 C 22,5 km/h (4 Bft) 100,00 %
17.02.2018 10:01 1,2 C 4,4 C 96 % 1019,4 hPa 0,0 l/m 23,1 km/h (4 Bft) O-NO 76 0 min 0,026 mm 0,0 UV-I 58 W/m 0,6 C -9,4 C 29,0 km/h (5 Bft) 100,00 %
17.02.2018 10:02 1,2 C 4,4 C 96 % 1019,3 hPa 0,0 l/m 23,3 km/h (4 Bft) O 82 0 min 0,000 mm 0,0 UV-I 58 W/m 0,6 C -9,5 C 29,0 km/h (5 Bft) 100,00 %
17.02.2018 10:03 1,3 C 4,4 C 96 % 1019,3 hPa 0,0 l/m 18,0 km/h (3 Bft) O-NO 67 0 min 0,000 mm 0,0 UV-I 56 W/m 0,7 C -7,0 C 22,5 km/h (4 Bft) 95,65 %
17.02.2018 10:04 1,3 C 4,4 C 96 % 1019,2 hPa 0,0 l/m 19,8 km/h (3 Bft) O 82 0 min 0,000 mm 0,0 UV-I 55 W/m 0,7 C -7,9 C 27,4 km/h (4 Bft) 95,83 %
17.02.2018 10:05 1,3 C 4,4 C 96 % 1019,2 hPa 0,0 l/m 21,3 km/h (4 Bft) O-NO 77 0 min 0,000 mm 0,0 UV-I 54 W/m 0,7 C -8,5 C 32,2 km/h (5 Bft) 95,65 %
17.02.2018 10:06 1,3 C 4,4 C 96 % 1019,1 hPa 0,0 l/m 27,4 km/h (4 Bft) O-SO 111 0 min 0,000 mm 0,0 UV-I 57 W/m 0,7 C -10,8 C 35,4 km/h (5 Bft) 100,00 %
17.02.2018 10:07 1,3 C 4,4 C 96 % 1019,1 hPa 0,0 l/m 22,3 km/h (4 Bft) O-NO 73 0 min 0,000 mm 0,0 UV-I 56 W/m 0,7 C -8,9 C 32,2 km/h (5 Bft) 100,00 %
17.02.2018 10:08 1,3 C 4,4 C 96 % 1019,1 hPa 0,0 l/m 26,0 km/h (4 Bft) O 79 0 min 0,000 mm 0,0 UV-I 54 W/m 0,7 C -10,3 C 32,2 km/h (5 Bft) 100,00 %
17.02.2018 10:09 1,3 C 4,4 C 96 % 1019,1 hPa 0,0 l/m 28,1 km/h (4 Bft) O 84 0 min 0,000 mm 0,0 UV-I 56 W/m 0,7 C -11,0 C 37,0 km/h (5 Bft) 100,00 %
17.02.2018 10:10 1,3 C 4,4 C 96 % 1019,1 hPa 0,0 l/m 24,6 km/h (4 Bft) O 85 0 min 0,000 mm 0,0 UV-I 55 W/m 0,7 C -9,8 C 29,0 km/h (5 Bft) 100,00 %
17.02.2018 10:11 1,3 C 4,4 C 96 % 1019,1 hPa 0,0 l/m 21,3 km/h (4 Bft) O-NO 74 0 min 0,000 mm 0,0 UV-I 54 W/m 0,7 C -8,5 C 25,7 km/h (4 Bft) 100,00 %
17.02.2018 10:12 1,3 C 4,4 C 96 % 1019,2 hPa 0,0 l/m 21,5 km/h (4 Bft) O-NO 61 0 min 0,000 mm 0,0 UV-I 60 W/m 0,7 C -8,6 C 32,2 km/h (5 Bft) 100,00 %
17.02.2018 10:13 1,3 C 4,4 C 96 % 1019,2 hPa 0,0 l/m 22,5 km/h (4 Bft) O-NO 66 0 min 0,000 mm 0,0 UV-I 68 W/m 0,7 C -9,0 C 32,2 km/h (5 Bft) 100,00 %
17.02.2018 10:14 1,3 C 4,4 C 96 % 1019,2 hPa 0,0 l/m 23,5 km/h (4 Bft) O-NO 68 0 min 0,000 mm 0,0 UV-I 67 W/m 0,7 C -9,4 C 32,2 km/h (5 Bft) 100,00 %
17.02.2018 10:15 1,3 C 4,4 C 96 % 1019,3 hPa 0,0 l/m 24,6 km/h (4 Bft) O 93 0 min 0,000 mm 0,0 UV-I 68 W/m 0,7 C -9,8 C 30,6 km/h (5 Bft) 100,00 %
17.02.2018 10:16 1,2 C 4,4 C 96 % 1019,3 hPa 0,0 l/m 20,0 km/h (4 Bft) O-NO 68 0 min 0,000 mm 0,0 UV-I 69 W/m 0,6 C -8,1 C 25,7 km/h (4 Bft) 100,00 %
17.02.2018 10:17 1,3 C 4,4 C 96 % 1019,3 hPa 0,0 l/m 24,1 km/h (4 Bft) O 94 0 min 0,000 mm 0,0 UV-I 66 W/m 0,7 C -9,6 C 30,6 km/h (5 Bft) 95,83 %
17.02.2018 10:18 1,3 C 4,4 C 96 % 1019,2 hPa 0,0 l/m 19,2 km/h (3 Bft) O-NO 74 0 min 0,000 mm 0,0 UV-I 69 W/m 0,7 C -7,6 C 22,5 km/h (4 Bft) 95,65 %
17.02.2018 10:19 1,3 C 4,4 C 96 % 1019,2 hPa 0,0 l/m 21,8 km/h (4 Bft) O 86 0 min 0,000 mm 0,0 UV-I 67 W/m 0,7 C -8,7 C 27,4 km/h (4 Bft) 100,00 %
17.02.2018 10:20 1,3 C 4,4 C 96 % 1019,1 hPa 0,0 l/m 23,9 km/h (4 Bft) O-NO 74 0 min 0,000 mm 0,0 UV-I 63 W/m 0,7 C -9,6 C 30,6 km/h (5 Bft) 91,30 %
17.02.2018 10:21 1,3 C 4,4 C 96 % 1018,9 hPa 0,0 l/m 22,7 km/h (4 Bft) O 82 0 min 0,000 mm 0,0 UV-I 63 W/m 0,7 C -9,1 C 29,0 km/h (5 Bft) 100,00 %
17.02.2018 10:22 1,3 C 4,4 C 96 % 1018,8 hPa 0,0 l/m 25,4 km/h (4 Bft) O-NO 69 0 min 0,000 mm 0,0 UV-I 64 W/m 0,7 C -10,1 C 32,2 km/h (5 Bft) 95,65 %
17.02.2018 10:23 1,3 C 4,4 C 96 % 1018,6 hPa 0,0 l/m 28,5 km/h (4 Bft) O 99 0 min 0,000 mm 0,0 UV-I 68 W/m 0,7 C -11,1 C 33,8 km/h (5 Bft) 83,33 %
17.02.2018 10:24 1,3 C 4,4 C 96 % 1018,5 hPa 0,0 l/m 21,9 km/h (4 Bft) O-NO 71 0 min 0,000 mm 0,0 UV-I 61 W/m 0,7 C -8,8 C 29,0 km/h (5 Bft) 100,00 %
17.02.2018 10:25 1,3 C 4,4 C 96 % 1018,5 hPa 0,0 l/m 22,0 km/h (4 Bft) O-NO 64 0 min 0,000 mm 0,0 UV-I 63 W/m 0,7 C -8,8 C 25,7 km/h (4 Bft) 100,00 %
17.02.2018 10:26 1,3 C 4,4 C 96 % 1018,4 hPa 0,0 l/m 27,9 km/h (4 Bft) O 88 0 min 0,000 mm 0,0 UV-I 67 W/m 0,7 C -10,9 C 38,6 km/h (5 Bft) 95,65 %
17.02.2018 10:27 1,3 C 4,4 C 96 % 1018,3 hPa 0,0 l/m 26,3 km/h (4 Bft) O 80 0 min 0,000 mm 0,0 UV-I 68 W/m 0,7 C -10,4 C 33,8 km/h (5 Bft) 100,00 %
17.02.2018 10:28 1,3 C 4,4 C 96 % 1018,3 hPa 0,0 l/m 26,8 km/h (4 Bft) O 82 0 min 0,000 mm 0,0 UV-I 70 W/m 0,7 C -10,6 C 37,0 km/h (5 Bft) 100,00 %
17.02.2018 10:29 1,3 C 4,4 C 96 % 1018,3 hPa 0,0 l/m 27,8 km/h (4 Bft) NO 53 0 min 0,000 mm 0,0 UV-I 68 W/m 0,7 C -10,9 C 33,8 km/h (5 Bft) 100,00 %
17.02.2018 10:30 1,3 C 4,4 C 96 % 1018,3 hPa 0,0 l/m 20,4 km/h (4 Bft) O-NO 77 0 min 0,000 mm 0,0 UV-I 69 W/m 0,7 C -8,1 C 24,1 km/h (4 Bft) 100,00 %
17.02.2018 10:31 1,3 C 4,4 C 96 % 1018,3 hPa 0,0 l/m 24,1 km/h (4 Bft) O-NO 76 0 min 0,000 mm 0,0 UV-I 77 W/m 0,7 C -9,6 C 29,0 km/h (5 Bft) 100,00 %
17.02.2018 10:32 1,3 C 4,4 C 96 % 1018,3 hPa 0,0 l/m 25,2 km/h (4 Bft) O-NO 74 0 min 0,000 mm 0,0 UV-I 77 W/m 0,7 C -10,0 C 32,2 km/h (5 Bft) 100,00 %
17.02.2018 10:33 1,3 C 4,4 C 96 % 1018,4 hPa 0,0 l/m 24,6 km/h (4 Bft) O 85 0 min 0,000 mm 0,0 UV-I 71 W/m 0,7 C -9,8 C 30,6 km/h (5 Bft) 95,83 %
17.02.2018 10:34 1,3 C 4,4 C 96 % 1018,4 hPa 0,0 l/m 28,5 km/h (4 Bft) O 83 0 min 0,000 mm 0,0 UV-I 61 W/m 0,7 C -11,1 C 37,0 km/h (5 Bft) 100,00 %
17.02.2018 10:35 1,3 C 4,4 C 96 % 1018,5 hPa 0,0 l/m 27,6 km/h (4 Bft) O-NO 57 0 min 0,000 mm 0,0 UV-I 59 W/m 0,7 C -10,8 C 33,8 km/h (5 Bft) 100,00 %
17.02.2018 10:36 1,2 C 4,4 C 96 % 1018,5 hPa 0,0 l/m 19,8 km/h (3 Bft) O-NO 65 0 min 0,000 mm 0,0 UV-I 61 W/m 0,6 C -8,0 C 27,4 km/h (4 Bft) 100,00 %
17.02.2018 10:37 1,2 C 4,4 C 96 % 1018,6 hPa 0,0 l/m 17,2 km/h (3 Bft) O-NO 66 0 min 0,000 mm 0,0 UV-I 62 W/m 0,6 C -6,7 C 22,5 km/h (4 Bft) 95,83 %
17.02.2018 10:38 1,3 C 4,4 C 96 % 1018,6 hPa 0,0 l/m 21,8 km/h (4 Bft) O 82 0 min 0,000 mm 0,0 UV-I 66 W/m 0,7 C -8,7 C 27,4 km/h (4 Bft) 95,83 %
17.02.2018 10:39 1,2 C 4,4 C 96 % 1018,7 hPa 0,0 l/m 26,9 km/h (4 Bft) NO 55 0 min 0,000 mm 0,0 UV-I 75 W/m 0,6 C -10,8 C 33,8 km/h (5 Bft) 95,65 %
17.02.2018 10:40 1,2 C 4,4 C 96 % 1018,6 hPa 0,0 l/m 30,4 km/h (5 Bft) O-NO 69 0 min 0,000 mm 0,0 UV-I 69 W/m 0,6 C -11,8 C 38,6 km/h (5 Bft) 100,00 %
17.02.2018 10:41 1,2 C 4,4 C 96 % 1018,6 hPa 0,0 l/m 21,1 km/h (4 Bft) SO 140 0 min 0,000 mm 0,0 UV-I 66 W/m 0,6 C -8,6 C 29,0 km/h (5 Bft) 95,65 %
17.02.2018 10:42 1,2 C 4,4 C 96 % 1018,6 hPa 0,0 l/m 24,5 km/h (4 Bft) O-SO 113 0 min 0,000 mm 0,0 UV-I 63 W/m 0,6 C -9,9 C 30,6 km/h (5 Bft) 100,00 %
17.02.2018 10:43 1,2 C 4,4 C 96 % 1018,6 hPa 0,0 l/m 24,3 km/h (4 Bft) O-NO 64 0 min 0,000 mm 0,0 UV-I 60 W/m 0,6 C -9,8 C 30,6 km/h (5 Bft) 100,00 %
17.02.2018 10:44 1,2 C 4,4 C 96 % 1018,6 hPa 0,0 l/m 23,3 km/h (4 Bft) O-NO 77 0 min 0,000 mm 0,0 UV-I 61 W/m 0,6 C -9,5 C 29,0 km/h (5 Bft) 96,15 %
17.02.2018 10:45 1,2 C 4,4 C 96 % 1018,6 hPa 0,0 l/m 21,7 km/h (4 Bft) O-NO 66 0 min 0,000 mm 0,0 UV-I 58 W/m 0,6 C -8,8 C 29,0 km/h (5 Bft) 95,65 %
17.02.2018 10:46 1,2 C 4,4 C 96 % 1018,5 hPa 0,0 l/m 21,0 km/h (4 Bft) O 86 0 min 0,000 mm 0,0 UV-I 58 W/m 0,6 C -8,5 C 25,7 km/h (4 Bft) 100,00 %
17.02.2018 10:47 1,2 C 4,4 C 96 % 1018,5 hPa 0,0 l/m 20,7 km/h (4 Bft) O-NO 65 0 min 0,000 mm 0,0 UV-I 53 W/m 0,6 C -8,4 C 25,7 km/h (4 Bft) 95,65 %
17.02.2018 10:48 1,2 C 4,4 C 96 % 1018,6 hPa 0,0 l/m 17,9 km/h (3 Bft) O 92 0 min 0,000 mm 0,0 UV-I 49 W/m 0,6 C -7,1 C 22,5 km/h (4 Bft) 100,00 %
17.02.2018 10:49 1,2 C 4,4 C 96 % 1018,6 hPa 0,0 l/m 20,0 km/h (4 Bft) O-NO 72 0 min 0,000 mm 0,0 UV-I 48 W/m 0,6 C -8,1 C 25,7 km/h (4 Bft) 100,00 %
17.02.2018 10:50 1,2 C 4,4 C 96 % 1018,6 hPa 0,0 l/m 16,4 km/h (3 Bft) O-NO 78 0 min 0,000 mm 0,0 UV-I 45 W/m 0,6 C -6,3 C 20,9 km/h (4 Bft) 100,00 %
17.02.2018 10:51 1,2 C 4,4 C 96 % 1018,7 hPa 0,0 l/m 17,0 km/h (3 Bft) O-NO 65 0 min 0,000 mm 0,0 UV-I 46 W/m 0,6 C -6,6 C 22,5 km/h (4 Bft) 100,00 %
17.02.2018 10:52 1,2 C 4,4 C 96 % 1018,7 hPa 0,0 l/m 22,5 km/h (4 Bft) O 82 0 min 0,000 mm 0,0 UV-I 49 W/m 0,6 C -9,1 C 27,4 km/h (4 Bft) 100,00 %
17.02.2018 10:53 1,2 C 4,4 C 96 % 1018,8 hPa 0,0 l/m 26,7 km/h (4 Bft) O-NO 67 0 min 0,000 mm 0,0 UV-I 47 W/m 0,6 C -10,7 C 32,2 km/h (5 Bft) 100,00 %
17.02.2018 10:54 1,2 C 4,4 C 96 % 1018,8 hPa 0,0 l/m 24,7 km/h (4 Bft) O-NO 60 0 min 0,000 mm 0,0 UV-I 49 W/m 0,6 C -10,0 C 32,2 km/h (5 Bft) 100,00 %
17.02.2018 10:55 1,2 C 4,4 C 96 % 1018,8 hPa 0,0 l/m 23,0 km/h (4 Bft) O-NO 78 0 min 0,000 mm 0,0 UV-I 46 W/m 0,6 C -9,3 C 29,0 km/h (5 Bft) 100,00 %
17.02.2018 10:56 1,2 C 4,4 C 96 % 1018,7 hPa 0,0 l/m 23,9 km/h (4 Bft) O 90 0 min 0,000 mm 0,0 UV-I 42 W/m 0,6 C -9,7 C 30,6 km/h (5 Bft) 100,00 %
17.02.2018 10:57 1,2 C 4,4 C 96 % 1018,7 hPa 0,0 l/m 17,8 km/h (3 Bft) O 88 0 min 0,000 mm 0,0 UV-I 43 W/m 0,6 C -7,0 C 27,4 km/h (4 Bft) 95,83 %
17.02.2018 10:58 1,2 C 4,4 C 96 % 1018,6 hPa 0,0 l/m 23,6 km/h (4 Bft) O-NO 69 0 min 0,000 mm 0,0 UV-I 44 W/m 0,6 C -9,6 C 33,8 km/h (5 Bft) 100,00 %
17.02.2018 10:59 1,2 C 4,4 C 96 % 1018,5 hPa 0,0 l/m 20,8 km/h (4 Bft) O-NO 70 0 min 0,000 mm 0,0 UV-I 46 W/m 0,6 C -8,4 C 24,1 km/h (4 Bft) 100,00 %
17.02.2018 11:00 1,1 C 4,4 C 96 % 1018,5 hPa 0,0 l/m 26,2 km/h (4 Bft) O 83 0 min 0,025 mm 0,0 UV-I 44 W/m 0,5 C -10,7 C 35,4 km/h (5 Bft) 100,00 %
17.02.2018 11:01 1,1 C 4,4 C 96 % 1018,4 hPa 0,0 l/m 24,5 km/h (4 Bft) O 84 0 min 0,000 mm 0,0 UV-I 45 W/m 0,5 C -10,0 C 27,4 km/h (4 Bft) 95,83 %
17.02.2018 11:02 1,1 C 4,4 C 96 % 1018,4 hPa 0,0 l/m 22,7 km/h (4 Bft) O 82 0 min 0,000 mm 0,0 UV-I 44 W/m 0,5 C -9,4 C 27,4 km/h (4 Bft) 100,00 %
17.02.2018 11:03 1,1 C 4,4 C 96 % 1018,4 hPa 0,0 l/m 20,0 km/h (4 Bft) O-NO 70 0 min 0,000 mm 0,0 UV-I 48 W/m 0,5 C -8,2 C 27,4 km/h (4 Bft) 100,00 %
17.02.2018 11:04 1,1 C 4,4 C 96 % 1018,5 hPa 0,0 l/m 15,7 km/h (3 Bft) O-NO 70 0 min 0,000 mm 0,0 UV-I 51 W/m 0,5 C -6,0 C 20,9 km/h (4 Bft) 95,65 %
17.02.2018 11:05 1,2 C 4,4 C 96 % 1018,5 hPa 0,0 l/m 14,8 km/h (3 Bft) O 88 0 min 0,000 mm 0,0 UV-I 47 W/m 0,6 C -5,4 C 20,9 km/h (4 Bft) 95,83 %
17.02.2018 11:06 1,2 C 4,4 C 96 % 1018,6 hPa 0,0 l/m 13,0 km/h (3 Bft) NO 54 0 min 0,000 mm 0,0 UV-I 47 W/m 0,6 C -4,3 C 19,3 km/h (3 Bft) 92,31 %
17.02.2018 11:07 1,2 C 4,4 C 96 % 1018,7 hPa 0,0 l/m 14,4 km/h (3 Bft) O-NO 61 0 min 0,000 mm 0,0 UV-I 52 W/m 0,6 C -5,2 C 17,7 km/h (3 Bft) 100,00 %
17.02.2018 11:08 1,2 C 4,4 C 96 % 1018,7 hPa 0,0 l/m 19,4 km/h (3 Bft) O-NO 66 0 min 0,000 mm 0,0 UV-I 52 W/m 0,6 C -7,8 C 24,1 km/h (4 Bft) 100,00 %
17.02.2018 11:09 1,2 C 4,4 C 96 % 1018,7 hPa 0,0 l/m 18,0 km/h (3 Bft) O-NO 68 0 min 0,000 mm 0,0 UV-I 49 W/m 0,6 C -7,1 C 22,5 km/h (4 Bft) 100,00 %
17.02.2018 11:10 1,2 C 4,4 C 96 % 1018,7 hPa 0,0 l/m 13,4 km/h (3 Bft) O 79 0 min 0,000 mm 0,0 UV-I 46 W/m 0,6 C -4,6 C 16,1 km/h (3 Bft) 100,00 %
17.02.2018 11:11 1,2 C 4,4 C 96 % 1018,7 hPa 0,0 l/m 14,7 km/h (3 Bft) NO 48 0 min 0,000 mm 0,0 UV-I 47 W/m 0,6 C -5,4 C 17,7 km/h (3 Bft) 100,00 %
17.02.2018 11:12 1,2 C 4,4 C 96 % 1018,7 hPa 0,0 l/m 20,7 km/h (4 Bft) NO 51 0 min 0,000 mm 0,0 UV-I 49 W/m 0,6 C -8,4 C 32,2 km/h (5 Bft) 100,00 %
17.02.2018 11:13 1,2 C 4,4 C 96 % 1018,7 hPa 0,0 l/m 17,1 km/h (3 Bft) O-NO 62 0 min 0,000 mm 0,0 UV-I 46 W/m 0,6 C -6,7 C 24,1 km/h (4 Bft) 100,00 %
17.02.2018 11:14 1,2 C 4,4 C 96 % 1018,7 hPa 0,0 l/m 15,3 km/h (3 Bft) NO 51 0 min 0,000 mm 0,0 UV-I 41 W/m 0,6 C -5,7 C 19,3 km/h (3 Bft) 95,83 %
17.02.2018 11:15 1,2 C 4,4 C 96 % 1018,7 hPa 0,0 l/m 20,7 km/h (4 Bft) O-NO 74 0 min 0,000 mm 0,0 UV-I 42 W/m 0,6 C -8,4 C 30,6 km/h (5 Bft) 95,65 %
17.02.2018 11:16 1,2 C 4,4 C 96 % 1018,7 hPa 0,0 l/m 20,5 km/h (4 Bft) O 82 0 min 0,000 mm 0,0 UV-I 44 W/m 0,6 C -8,3 C 30,6 km/h (5 Bft) 100,00 %
17.02.2018 11:17 1,1 C 4,4 C 96 % 1018,8 hPa 0,0 l/m 23,2 km/h (4 Bft) O 94 0 min 0,000 mm 0,0 UV-I 44 W/m 0,5 C -9,6 C 29,0 km/h (5 Bft) 95,65 %
17.02.2018 11:18 1,1 C 4,4 C 96 % 1018,8 hPa 0,0 l/m 18,1 km/h (3 Bft) O-NO 66 0 min 0,000 mm 0,0 UV-I 49 W/m 0,5 C -7,3 C 22,5 km/h (4 Bft) 100,00 %
17.02.2018 11:19 1,1 C 4,4 C 96 % 1018,9 hPa 0,0 l/m 19,4 km/h (3 Bft) O-NO 70 0 min 0,000 mm 0,0 UV-I 47 W/m 0,5 C -7,9 C 24,1 km/h (4 Bft) 95,65 %
17.02.2018 11:20 1,1 C 4,4 C 96 % 1018,9 hPa 0,0 l/m 15,5 km/h (3 Bft) O-NO 57 0 min 0,000 mm 0,0 UV-I 39 W/m 0,5 C -5,9 C 22,5 km/h (4 Bft) 100,00 %
17.02.2018 11:21 1,1 C 4,4 C 96 % 1018,9 hPa 0,0 l/m 16,3 km/h (3 Bft) NO 55 0 min 0,000 mm 0,0 UV-I 35 W/m 0,5 C -6,4 C 20,9 km/h (4 Bft) 95,65 %
17.02.2018 11:22 1,1 C 4,4 C 96 % 1018,9 hPa 0,0 l/m 19,5 km/h (3 Bft) NO 53 0 min 0,000 mm 0,0 UV-I 34 W/m 0,5 C -8,0 C 24,1 km/h (4 Bft) 95,83 %
17.02.2018 11:23 1,1 C 4,4 C 96 % 1018,8 hPa 0,0 l/m 20,0 km/h (4 Bft) O-NO 72 0 min 0,000 mm 0,0 UV-I 36 W/m 0,5 C -8,2 C 27,4 km/h (4 Bft) 95,65 %
17.02.2018 11:24 1,1 C 4,4 C 96 % 1018,7 hPa 0,0 l/m 28,1 km/h (4 Bft) O-NO 75 0 min 0,000 mm 0,0 UV-I 42 W/m 0,5 C -11,3 C 33,8 km/h (5 Bft) 95,83 %
17.02.2018 11:25 1,1 C 4,4 C 96 % 1018,5 hPa 0,0 l/m 26,7 km/h (4 Bft) O-NO 64 0 min 0,000 mm 0,0 UV-I 43 W/m 0,5 C -10,8 C 32,2 km/h (5 Bft) 100,00 %
17.02.2018 11:26 1,1 C 4,4 C 96 % 1018,4 hPa 0,0 l/m 19,2 km/h (3 Bft) O-NO 76 0 min 0,000 mm 0,0 UV-I 43 W/m 0,5 C -7,8 C 25,7 km/h (4 Bft) 95,83 %
17.02.2018 11:27 1,1 C 4,4 C 96 % 1018,3 hPa 0,0 l/m 21,9 km/h (4 Bft) O 98 0 min 0,000 mm 0,0 UV-I 41 W/m 0,5 C -9,0 C 27,4 km/h (4 Bft) 100,00 %
17.02.2018 11:28 1,1 C 4,4 C 96 % 1018,1 hPa 0,0 l/m 25,3 km/h (4 Bft) O 82 0 min 0,000 mm 0,0 UV-I 40 W/m 0,5 C -10,3 C 30,6 km/h (5 Bft) 95,83 %
17.02.2018 11:29 1,1 C 4,4 C 96 % 1018,1 hPa 0,0 l/m 26,6 km/h (4 Bft) O 86 0 min 0,000 mm 0,0 UV-I 42 W/m 0,5 C -10,8 C 37,0 km/h (5 Bft) 100,00 %
17.02.2018 11:30 1,1 C 4,4 C 96 % 1017,9 hPa 0,0 l/m 20,8 km/h (4 Bft) O 85 0 min 0,000 mm 0,0 UV-I 46 W/m 0,5 C -8,6 C 27,4 km/h (4 Bft) 92,11 %
17.02.2018 11:31 1,1 C 4,4 C 96 % 1017,9 hPa 0,0 l/m 21,0 km/h (4 Bft) O-NO 65 0 min 0,000 mm 0,0 UV-I 54 W/m 0,5 C -8,7 C 25,7 km/h (4 Bft) 96,15 %
17.02.2018 11:32 1,1 C 4,4 C 96 % 1017,9 hPa 0,0 l/m 20,0 km/h (4 Bft) O 92 0 min 0,000 mm 0,0 UV-I 52 W/m 0,5 C -8,2 C 25,7 km/h (4 Bft) 100,00 %
17.02.2018 11:33 1,0 C 4,4 C 96 % 1017,9 hPa 0,0 l/m 26,4 km/h (4 Bft) O 90 0 min 0,000 mm 0,0 UV-I 54 W/m 0,4 C -10,9 C 33,8 km/h (5 Bft) 95,83 %
17.02.2018 11:34 1,0 C 4,4 C 96 % 1017,9 hPa 0,0 l/m 24,1 km/h (4 Bft) O-SO 113 0 min 0,000 mm 0,0 UV-I 54 W/m 0,4 C -10,0 C 33,8 km/h (5 Bft) 100,00 %
17.02.2018 11:35 1,0 C 4,4 C 96 % 1018,2 hPa 0,0 l/m 22,1 km/h (4 Bft) O 82 0 min 0,000 mm 0,0 UV-I 54 W/m 0,4 C -9,2 C 30,6 km/h (5 Bft) 91,67 %
17.02.2018 11:36 1,0 C 4,4 C 96 % 1018,1 hPa 0,0 l/m 23,6 km/h (4 Bft) O-NO 78 0 min 0,000 mm 0,0 UV-I 49 W/m 0,4 C -9,8 C 29,0 km/h (5 Bft) 100,00 %
17.02.2018 11:37 1,0 C 4,4 C 96 % 1018,1 hPa 0,0 l/m 19,4 km/h (3 Bft) NO 55 0 min 0,000 mm 0,0 UV-I 47 W/m 0,4 C -8,1 C 27,4 km/h (4 Bft) 95,83 %
17.02.2018 11:38 1,1 C 4,4 C 96 % 1018,2 hPa 0,0 l/m 16,8 km/h (3 Bft) N-NO 32 0 min 0,000 mm 0,0 UV-I 47 W/m 0,5 C -6,6 C 25,7 km/h (4 Bft) 100,00 %
17.02.2018 11:39 1,1 C 4,4 C 96 % 1018,2 hPa 0,0 l/m 20,3 km/h (4 Bft) O-NO 64 0 min 0,000 mm 0,0 UV-I 45 W/m 0,5 C -8,3 C 25,7 km/h (4 Bft) 95,83 %
17.02.2018 11:40 1,1 C 4,4 C 96 % 1018,2 hPa 0,0 l/m 17,2 km/h (3 Bft) O-NO 64 0 min 0,000 mm 0,0 UV-I 44 W/m 0,5 C -6,9 C 20,9 km/h (4 Bft) 95,65 %
17.02.2018 11:41 1,1 C 4,4 C 96 % 1018,2 hPa 0,0 l/m 14,7 km/h (3 Bft) O 87 0 min 0,000 mm 0,0 UV-I 42 W/m 0,5 C -5,5 C 19,3 km/h (3 Bft) 100,00 %
17.02.2018 11:42 1,1 C 4,4 C 96 % 1018,2 hPa 0,0 l/m 19,0 km/h (3 Bft) O-NO 71 0 min 0,000 mm 0,0 UV-I 42 W/m 0,5 C -7,7 C 24,1 km/h (4 Bft) 95,65 %
17.02.2018 11:43 1,1 C 4,4 C 96 % 1018,1 hPa 0,0 l/m 17,8 km/h (3 Bft) O-NO 69 0 min 0,000 mm 0,0 UV-I 43 W/m 0,5 C -7,2 C 24,1 km/h (4 Bft) 100,00 %
17.02.2018 11:44 1,1 C 4,4 C 96 % 1018,0 hPa 0,0 l/m 20,7 km/h (4 Bft) O-NO 75 0 min 0,000 mm 0,0 UV-I 45 W/m 0,5 C -8,5 C 24,1 km/h (4 Bft) 91,30 %
17.02.2018 11:45 1,1 C 4,4 C 96 % 1017,9 hPa 0,0 l/m 20,2 km/h (4 Bft) O-NO 74 0 min 0,000 mm 0,0 UV-I 44 W/m 0,5 C -8,3 C 29,0 km/h (5 Bft) 95,83 %
17.02.2018 11:46 1,1 C 4,4 C 96 % 1018,0 hPa 0,0 l/m 26,3 km/h (4 Bft) O 92 0 min 0,000 mm 0,0 UV-I 54 W/m 0,5 C -10,7 C 35,4 km/h (5 Bft) 96,15 %
17.02.2018 11:47 1,0 C 4,4 C 96 % 1017,9 hPa 0,0 l/m 26,4 km/h (4 Bft) O 88 0 min 0,000 mm 0,0 UV-I 54 W/m 0,4 C -10,9 C 33,8 km/h (5 Bft) 95,83 %
17.02.2018 11:48 1,0 C 4,4 C 96 % 1017,9 hPa 0,0 l/m 26,7 km/h (4 Bft) O-NO 76 0 min 0,000 mm 0,0 UV-I 57 W/m 0,4 C -11,0 C 33,8 km/h (5 Bft) 95,65 %
17.02.2018 11:49 0,9 C 4,4 C 96 % 1017,9 hPa 0,0 l/m 26,5 km/h (4 Bft) O-NO 62 0 min 0,000 mm 0,0 UV-I 66 W/m 0,3 C -11,0 C 32,2 km/h (5 Bft) 100,00 %
17.02.2018 11:50 0,9 C 4,4 C 96 % 1017,9 hPa 0,0 l/m 26,8 km/h (4 Bft) O-NO 68 0 min 0,000 mm 0,0 UV-I 62 W/m 0,3 C -11,1 C 37,0 km/h (5 Bft) 100,00 %
17.02.2018 11:51 0,9 C 4,4 C 96 % 1017,8 hPa 0,0 l/m 27,0 km/h (4 Bft) O-NO 67 0 min 0,000 mm 0,0 UV-I 60 W/m 0,3 C -11,2 C 33,8 km/h (5 Bft) 100,00 %
17.02.2018 11:52 0,9 C 4,4 C 96 % 1017,8 hPa 0,0 l/m 27,1 km/h (4 Bft) O 101 0 min 0,000 mm 0,0 UV-I 60 W/m 0,3 C -11,2 C 35,4 km/h (5 Bft) 100,00 %
17.02.2018 11:53 0,9 C 4,4 C 96 % 1017,7 hPa 0,0 l/m 24,9 km/h (4 Bft) O-NO 63 0 min 0,000 mm 0,0 UV-I 54 W/m 0,3 C -10,5 C 30,6 km/h (5 Bft) 96,30 %
17.02.2018 11:54 0,9 C 4,4 C 96 % 1017,7 hPa 0,0 l/m 25,6 km/h (4 Bft) O-NO 68 0 min 0,000 mm 0,0 UV-I 61 W/m 0,3 C -10,7 C 30,6 km/h (5 Bft) 100,00 %
17.02.2018 11:55 0,9 C 4,4 C 96 % 1017,7 hPa 0,0 l/m 23,1 km/h (4 Bft) O 82 0 min 0,000 mm 0,0 UV-I 63 W/m 0,3 C -9,8 C 27,4 km/h (4 Bft) 100,00 %
17.02.2018 11:56 0,9 C 4,4 C 96 % 1017,6 hPa 0,0 l/m 18,6 km/h (3 Bft) O-NO 75 0 min 0,000 mm 0,0 UV-I 72 W/m 0,3 C -7,8 C 29,0 km/h (5 Bft) 95,83 %
17.02.2018 11:57 0,9 C 4,4 C 96 % 1017,6 hPa 0,0 l/m 31,4 km/h (5 Bft) O-NO 65 0 min 0,000 mm 0,0 UV-I 77 W/m 0,3 C -12,5 C 37,0 km/h (5 Bft) 100,00 %
17.02.2018 11:58 0,9 C 4,4 C 96 % 1017,5 hPa 0,0 l/m 31,1 km/h (5 Bft) O-NO 69 0 min 0,000 mm 0,0 UV-I 82 W/m 0,3 C -12,5 C 40,2 km/h (6 Bft) 96,30 %
17.02.2018 11:59 0,9 C 4,4 C 96 % 1017,5 hPa 0,0 l/m 32,6 km/h (5 Bft) O 92 0 min 0,000 mm 0,0 UV-I 79 W/m 0,3 C -12,9 C 40,2 km/h (6 Bft) 95,65 %
17.02.2018 12:00 0,9 C 4,4 C 96 % 1017,5 hPa 0,0 l/m 25,5 km/h (4 Bft) O-NO 75 0 min 0,000 mm 0,0 UV-I 87 W/m 0,3 C -10,7 C 30,6 km/h (5 Bft) 100,00 %
17.02.2018 12:01 0,9 C 4,4 C 96 % 1017,5 hPa 0,0 l/m 24,7 km/h (4 Bft) O-NO 71 0 min 0,026 mm 0,0 UV-I 83 W/m 0,3 C -10,4 C 33,8 km/h (5 Bft) 96,15 %
17.02.2018 12:02 0,8 C 4,4 C 96 % 1017,6 hPa 0,0 l/m 29,5 km/h (5 Bft) O-NO 62 0 min 0,000 mm 0,0 UV-I 84 W/m 0,2 C -12,1 C 35,4 km/h (5 Bft) 100,00 %
17.02.2018 12:03 0,9 C 4,4 C 96 % 1017,6 hPa 0,0 l/m 27,8 km/h (4 Bft) O 88 0 min 0,000 mm 0,0 UV-I 87 W/m 0,3 C -11,5 C 33,8 km/h (5 Bft) 92,86 %
17.02.2018 12:04 0,8 C 4,4 C 96 % 1017,6 hPa 0,0 l/m 30,8 km/h (5 Bft) O-NO 69 0 min 0,000 mm 0,0 UV-I 90 W/m 0,2 C -12,5 C 38,6 km/h (5 Bft) 100,00 %
17.02.2018 12:05 0,8 C 4,4 C 96 % 1017,5 hPa 0,0 l/m 23,0 km/h (4 Bft) O-SO 106 0 min 0,000 mm 0,0 UV-I 101 W/m 0,2 C -9,9 C 29,0 km/h (5 Bft) 91,30 %
17.02.2018 12:06 0,9 C 4,4 C 96 % 1017,6 hPa 0,0 l/m 22,8 km/h (4 Bft) O-NO 69 0 min 0,000 mm 0,5 UV-I 123 W/m 0,3 C -9,7 C 30,6 km/h (5 Bft) 100,00 %
17.02.2018 12:07 0,9 C 4,4 C 96 % 1017,5 hPa 0,0 l/m 27,7 km/h (4 Bft) O-NO 78 0 min 0,000 mm 0,4 UV-I 122 W/m 0,3 C -11,4 C 33,8 km/h (5 Bft) 96,15 %
17.02.2018 12:08 0,9 C 4,4 C 96 % 1017,5 hPa 0,0 l/m 24,8 km/h (4 Bft) O-NO 63 0 min 0,000 mm 0,0 UV-I 113 W/m 0,3 C -10,4 C 30,6 km/h (5 Bft) 95,83 %
17.02.2018 12:09 0,9 C 4,4 C 96 % 1017,5 hPa 0,0 l/m 23,3 km/h (4 Bft) O 85 0 min 0,000 mm 0,0 UV-I 101 W/m 0,3 C -9,9 C 33,8 km/h (5 Bft) 100,00 %
17.02.2018 12:10 0,9 C 4,4 C 96 % 1017,5 hPa 0,0 l/m 22,9 km/h (4 Bft) O-SO 120 0 min 0,000 mm 0,0 UV-I 91 W/m 0,3 C -9,7 C 29,0 km/h (5 Bft) 95,83 %
17.02.2018 12:11 0,9 C 4,4 C 96 % 1017,5 hPa 0,0 l/m 22,7 km/h (4 Bft) O 80 0 min 0,000 mm 0,0 UV-I 87 W/m 0,3 C -9,6 C 35,4 km/h (5 Bft) 100,00 %
17.02.2018 12:12 0,9 C 4,4 C 96 % 1017,5 hPa 0,0 l/m 26,3 km/h (4 Bft) O-SO 103 0 min 0,000 mm 0,0 UV-I 82 W/m 0,3 C -11,0 C 33,8 km/h (5 Bft) 95,83 %
17.02.2018 12:13 0,9 C 4,4 C 96 % 1017,5 hPa 0,0 l/m 22,2 km/h (4 Bft) O-NO 78 0 min 0,000 mm 0,0 UV-I 81 W/m 0,3 C -9,4 C 27,4 km/h (4 Bft) 100,00 %
17.02.2018 12:14 0,9 C 4,4 C 96 % 1017,5 hPa 0,0 l/m 22,8 km/h (4 Bft) O 92 0 min 0,000 mm 0,0 UV-I 79 W/m 0,3 C -9,7 C 27,4 km/h (4 Bft) 95,65 %
17.02.2018 12:15 0,9 C 4,4 C 96 % 1017,5 hPa 0,0 l/m 19,2 km/h (3 Bft) O 83 0 min 0,000 mm 0,0 UV-I 80 W/m 0,3 C -8,1 C 25,7 km/h (4 Bft) 100,00 %
17.02.2018 12:16 0,9 C 4,4 C 96 % 1017,4 hPa 0,0 l/m 26,5 km/h (4 Bft) O 101 0 min 0,000 mm 0,0 UV-I 81 W/m 0,3 C -11,0 C 33,8 km/h (5 Bft) 95,65 %
17.02.2018 12:17 0,9 C 4,4 C 96 % 1017,4 hPa 0,0 l/m 22,3 km/h (4 Bft) O-NO 60 0 min 0,000 mm 0,0 UV-I 78 W/m 0,3 C -9,5 C 30,6 km/h (5 Bft) 95,83 %
17.02.2018 12:18 0,9 C 4,4 C 96 % 1017,4 hPa 0,0 l/m 26,1 km/h (4 Bft) O 80 0 min 0,000 mm 0,0 UV-I 68 W/m 0,3 C -10,9 C 32,2 km/h (5 Bft) 100,00 %
17.02.2018 12:19 0,9 C 4,4 C 96 % 1017,6 hPa 0,0 l/m 22,0 km/h (4 Bft) O 87 0 min 0,000 mm 0,0 UV-I 62 W/m 0,3 C -9,3 C 29,0 km/h (5 Bft) 100,00 %
17.02.2018 12:20 0,9 C 4,4 C 96 % 1017,5 hPa 0,0 l/m 24,2 km/h (4 Bft) O-NO 69 0 min 0,000 mm 0,0 UV-I 61 W/m 0,3 C -10,2 C 29,0 km/h (5 Bft) 95,65 %
17.02.2018 12:21 0,9 C 4,4 C 96 % 1017,6 hPa 0,0 l/m 21,4 km/h (4 Bft) O-SO 104 0 min 0,000 mm 0,0 UV-I 65 W/m 0,3 C -9,1 C 25,7 km/h (4 Bft) 96,30 %
17.02.2018 12:22 0,9 C 4,4 C 96 % 1017,6 hPa 0,0 l/m 23,8 km/h (4 Bft) O-SO 120 0 min 0,000 mm 0,0 UV-I 67 W/m 0,3 C -10,1 C 27,4 km/h (4 Bft) 100,00 %
17.02.2018 12:23 0,8 C 4,4 C 96 % 1017,6 hPa 0,0 l/m 24,6 km/h (4 Bft) O 97 0 min 0,000 mm 0,0 UV-I 67 W/m 0,2 C -10,5 C 32,2 km/h (5 Bft) 96,30 %
17.02.2018 12:24 0,8 C 4,4 C 96 % 1017,6 hPa 0,0 l/m 24,7 km/h (4 Bft) NO 51 0 min 0,000 mm 0,0 UV-I 70 W/m 0,2 C -10,5 C 32,2 km/h (5 Bft) 95,65 %
17.02.2018 12:25 0,8 C 4,4 C 96 % 1017,5 hPa 0,0 l/m 26,4 km/h (4 Bft) O 84 0 min 0,000 mm 0,0 UV-I 70 W/m 0,2 C -11,1 C 35,4 km/h (5 Bft) 95,83 %
17.02.2018 12:26 0,8 C 4,4 C 96 % 1017,5 hPa 0,0 l/m 25,1 km/h (4 Bft) O 98 0 min 0,000 mm 0,0 UV-I 75 W/m 0,2 C -10,7 C 35,4 km/h (5 Bft) 100,00 %
17.02.2018 12:27 0,8 C 4,4 C 96 % 1017,5 hPa 0,0 l/m 23,9 km/h (4 Bft) O 84 0 min 0,000 mm 0,0 UV-I 78 W/m 0,2 C -10,2 C 30,6 km/h (5 Bft) 95,83 %
17.02.2018 12:28 0,8 C 4,4 C 96 % 1017,5 hPa 0,0 l/m 23,4 km/h (4 Bft) O 96 0 min 0,000 mm 0,0 UV-I 85 W/m 0,2 C -10,0 C 32,2 km/h (5 Bft) 95,65 %
17.02.2018 12:29 0,8 C 4,4 C 96 % 1017,5 hPa 0,0 l/m 22,3 km/h (4 Bft) O 84 0 min 0,000 mm 0,0 UV-I 71 W/m 0,2 C -9,6 C 32,2 km/h (5 Bft) 95,83 %
17.02.2018 12:30 0,7 C 4,4 C 96 % 1017,5 hPa 0,0 l/m 22,5 km/h (4 Bft) O-NO 71 0 min 0,000 mm 0,0 UV-I 77 W/m 0,1 C -9,8 C 29,0 km/h (5 Bft) 91,30 %
17.02.2018 12:31 0,7 C 4,4 C 96 % 1017,6 hPa 0,0 l/m 23,5 km/h (4 Bft) O 90 0 min 0,000 mm 0,0 UV-I 71 W/m 0,1 C -10,2 C 32,2 km/h (5 Bft) 100,00 %
17.02.2018 12:32 0,7 C 4,4 C 96 % 1017,5 hPa 0,0 l/m 22,7 km/h (4 Bft) O-NO 72 0 min 0,000 mm 0,0 UV-I 63 W/m 0,1 C -9,9 C 30,6 km/h (5 Bft) 95,83 %
17.02.2018 12:33 0,7 C 4,4 C 96 % 1017,5 hPa 0,0 l/m 22,7 km/h (4 Bft) NO 56 0 min 0,000 mm 0,0 UV-I 63 W/m 0,1 C -9,9 C 30,6 km/h (5 Bft) 96,15 %
17.02.2018 12:34 0,7 C 4,4 C 96 % 1017,5 hPa 0,0 l/m 21,5 km/h (4 Bft) O 86 0 min 0,000 mm 0,0 UV-I 62 W/m 0,1 C -9,4 C 29,0 km/h (5 Bft) 95,83 %
17.02.2018 12:35 0,7 C 4,4 C 96 % 1017,6 hPa 0,0 l/m 16,7 km/h (3 Bft) O 96 0 min 0,000 mm 0,0 UV-I 58 W/m 0,1 C -7,1 C 24,1 km/h (4 Bft) 100,00 %
17.02.2018 12:36 0,7 C 4,4 C 96 % 1017,6 hPa 0,0 l/m 19,3 km/h (3 Bft) O 81 0 min 0,000 mm 0,0 UV-I 63 W/m 0,1 C -8,4 C 29,0 km/h (5 Bft) 96,30 %
17.02.2018 12:37 0,7 C 4,4 C 96 % 1017,6 hPa 0,0 l/m 23,0 km/h (4 Bft) O-NO 62 0 min 0,000 mm 0,0 UV-I 64 W/m 0,1 C -10,0 C 29,0 km/h (5 Bft) 100,00 %
17.02.2018 12:38 0,7 C 4,4 C 96 % 1017,7 hPa 0,0 l/m 21,3 km/h (4 Bft) O-NO 66 0 min 0,000 mm 0,0 UV-I 65 W/m 0,1 C -9,3 C 30,6 km/h (5 Bft) 95,83 %
17.02.2018 12:39 0,7 C 4,4 C 96 % 1017,7 hPa 0,0 l/m 23,7 km/h (4 Bft) O-NO 69 0 min 0,000 mm 0,0 UV-I 69 W/m 0,1 C -10,3 C 32,2 km/h (5 Bft) 100,00 %
17.02.2018 12:40 0,6 C 4,4 C 96 % 1017,6 hPa 0,0 l/m 28,2 km/h (4 Bft) O 94 0 min 0,000 mm 0,0 UV-I 65 W/m 0,0 C -12,0 C 33,8 km/h (5 Bft) 95,83 %
17.02.2018 12:41 0,6 C 4,4 C 96 % 1017,6 hPa 0,0 l/m 21,8 km/h (4 Bft) O-NO 71 0 min 0,000 mm 0,0 UV-I 64 W/m 0,0 C -9,6 C 27,4 km/h (4 Bft) 96,55 %
17.02.2018 12:42 0,6 C 4,4 C 96 % 1017,6 hPa 0,0 l/m 23,4 km/h (4 Bft) O 79 0 min 0,000 mm 0,0 UV-I 64 W/m 0,0 C -10,3 C 30,6 km/h (5 Bft) 100,00 %
17.02.2018 12:43 0,6 C 4,4 C 96 % 1017,5 hPa 0,0 l/m 27,4 km/h (4 Bft) O 86 0 min 0,000 mm 0,0 UV-I 60 W/m 0,0 C -11,7 C 37,0 km/h (5 Bft) 95,65 %
17.02.2018 12:44 0,6 C 4,4 C 96 % 1017,5 hPa 0,0 l/m 24,7 km/h (4 Bft) O 90 0 min 0,000 mm 0,0 UV-I 73 W/m 0,0 C -10,8 C 30,6 km/h (5 Bft) 100,00 %
17.02.2018 12:45 0,5 C 4,4 C 96 % 1017,5 hPa 0,0 l/m 27,0 km/h (4 Bft) O-NO 69 0 min 0,000 mm 0,0 UV-I 73 W/m -0,1 C -11,7 C 33,8 km/h (5 Bft) 95,65 %
17.02.2018 12:46 0,5 C 4,4 C 96 % 1017,4 hPa 0,0 l/m 25,4 km/h (4 Bft) O-NO 74 0 min 0,000 mm 0,0 UV-I 84 W/m -0,1 C -11,2 C 33,8 km/h (5 Bft) 100,00 %
17.02.2018 12:47 0,5 C 4,4 C 96 % 1017,4 hPa 0,0 l/m 21,1 km/h (4 Bft) O 83 0 min 0,000 mm 0,0 UV-I 83 W/m -0,1 C -9,5 C 27,4 km/h (4 Bft) 91,30 %
17.02.2018 12:48 0,5 C 4,4 C 96 % 1017,4 hPa 0,0 l/m 26,4 km/h (4 Bft) O-NO 74 0 min 0,000 mm 0,0 UV-I 75 W/m -0,1 C -11,5 C 33,8 km/h (5 Bft) 100,00 %
17.02.2018 12:49 0,5 C 4,4 C 96 % 1017,4 hPa 0,0 l/m 24,3 km/h (4 Bft) O 92 0 min 0,000 mm 0,0 UV-I 74 W/m -0,1 C -10,8 C 30,6 km/h (5 Bft) 93,33 %
17.02.2018 12:50 0,5 C 4,4 C 96 % 1017,4 hPa 0,0 l/m 25,2 km/h (4 Bft) O-NO 76 0 min 0,000 mm 0,0 UV-I 71 W/m -0,1 C -11,1 C 35,4 km/h (5 Bft) 100,00 %
17.02.2018 12:51 0,5 C 4,4 C 96 % 1017,5 hPa 0,0 l/m 24,9 km/h (4 Bft) O 87 0 min 0,000 mm 0,0 UV-I 63 W/m -0,1 C -11,0 C 30,6 km/h (5 Bft) 96,30 %
17.02.2018 12:52 0,5 C 4,4 C 96 % 1017,6 hPa 0,0 l/m 25,1 km/h (4 Bft) O-NO 67 0 min 0,000 mm 0,0 UV-I 60 W/m -0,1 C -11,1 C 32,2 km/h (5 Bft) 91,30 %
17.02.2018 12:53 0,5 C 4,4 C 96 % 1017,6 hPa 0,0 l/m 20,9 km/h (4 Bft) O 90 0 min 0,000 mm 0,0 UV-I 70 W/m -0,1 C -9,4 C 27,4 km/h (4 Bft) 100,00 %
17.02.2018 12:54 0,4 C 4,4 C 96 % 1017,6 hPa 0,0 l/m 22,0 km/h (4 Bft) O-NO 67 0 min 0,000 mm 0,0 UV-I 65 W/m -0,2 C -10,0 C 30,6 km/h (5 Bft) 96,15 %
17.02.2018 12:55 0,4 C 4,4 C 96 % 1017,6 hPa 0,0 l/m 20,1 km/h (4 Bft) O-NO 78 0 min 0,000 mm 0,0 UV-I 60 W/m -0,2 C -9,2 C 24,1 km/h (4 Bft) 100,00 %
17.02.2018 12:56 0,5 C 4,4 C 96 % 1017,6 hPa 0,0 l/m 21,5 km/h (4 Bft) O-NO 70 0 min 0,000 mm 0,0 UV-I 63 W/m -0,1 C -9,7 C 24,1 km/h (4 Bft) 95,65 %
17.02.2018 12:57 0,5 C 4,4 C 96 % 1017,6 hPa 0,0 l/m 25,0 km/h (4 Bft) O-NO 64 0 min 0,000 mm 0,0 UV-I 72 W/m -0,1 C -11,0 C 33,8 km/h (5 Bft) 100,00 %
17.02.2018 12:58 0,4 C 4,4 C 96 % 1017,5 hPa 0,0 l/m 26,4 km/h (4 Bft) O 90 0 min 0,000 mm 0,0 UV-I 75 W/m -0,2 C -11,7 C 32,2 km/h (5 Bft) 95,65 %
17.02.2018 12:59 0,5 C 4,4 C 96 % 1017,6 hPa 0,0 l/m 20,7 km/h (4 Bft) O 101 0 min 0,000 mm 0,0 UV-I 72 W/m -0,1 C -9,3 C 24,1 km/h (4 Bft) 100,00 %
17.02.2018 13:00 0,5 C 4,4 C 96 % 1017,5 hPa 0,0 l/m 20,5 km/h (4 Bft) O-NO 57 0 min 0,000 mm 0,0 UV-I 72 W/m -0,1 C -9,2 C 25,7 km/h (4 Bft) 91,30 %
17.02.2018 13:01 0,5 C 4,4 C 96 % 1017,5 hPa 0,0 l/m 20,4 km/h (4 Bft) O-NO 75 0 min 0,025 mm 0,0 UV-I 68 W/m -0,1 C -9,2 C 24,1 km/h (4 Bft) 100,00 %
17.02.2018 13:02 0,5 C 4,4 C 96 % 1017,5 hPa 0,0 l/m 28,3 km/h (4 Bft) O 82 0 min 0,000 mm 0,0 UV-I 63 W/m -0,1 C -12,2 C 35,4 km/h (5 Bft) 93,10 %
17.02.2018 13:03 0,4 C 4,4 C 96 % 1017,4 hPa 0,0 l/m 23,9 km/h (4 Bft) O 96 0 min 0,000 mm 0,0 UV-I 63 W/m -0,2 C -10,8 C 32,2 km/h (5 Bft) 95,83 %
17.02.2018 13:04 0,4 C 4,4 C 96 % 1017,5 hPa 0,0 l/m 18,3 km/h (3 Bft) O 96 0 min 0,000 mm 0,0 UV-I 60 W/m -0,2 C -8,3 C 25,7 km/h (4 Bft) 95,65 %
17.02.2018 13:05 0,4 C 4,4 C 96 % 1017,5 hPa 0,0 l/m 23,2 km/h (4 Bft) O 100 0 min 0,000 mm 0,0 UV-I 62 W/m -0,2 C -10,5 C 30,6 km/h (5 Bft) 91,67 %
17.02.2018 13:06 0,4 C 4,4 C 96 % 1017,4 hPa 0,0 l/m 20,7 km/h (4 Bft) O-NO 68 0 min 0,000 mm 0,0 UV-I 59 W/m -0,2 C -9,4 C 25,7 km/h (4 Bft) 100,00 %
17.02.2018 13:07 0,4 C 4,4 C 96 % 1017,5 hPa 0,0 l/m 15,0 km/h (3 Bft) O 84 0 min 0,000 mm 0,0 UV-I 60 W/m -0,2 C -6,5 C 22,5 km/h (4 Bft) 95,83 %
17.02.2018 13:08 0,4 C 4,4 C 96 % 1017,5 hPa 0,0 l/m 21,5 km/h (4 Bft) O 94 0 min 0,000 mm 0,0 UV-I 61 W/m -0,2 C -9,8 C 27,4 km/h (4 Bft) 95,65 %
17.02.2018 13:09 0,4 C 4,4 C 96 % 1017,5 hPa 0,0 l/m 21,2 km/h (4 Bft) O 96 0 min 0,000 mm 0,0 UV-I 64 W/m -0,2 C -9,7 C 25,7 km/h (4 Bft) 100,00 %
17.02.2018 13:10 0,4 C 4,4 C 96 % 1017,4 hPa 0,0 l/m 21,8 km/h (4 Bft) O-NO 68 0 min 0,000 mm 0,0 UV-I 63 W/m -0,2 C -9,9 C 29,0 km/h (5 Bft) 100,00 %
17.02.2018 13:11 0,5 C 4,4 C 96 % 1017,4 hPa 0,0 l/m 16,7 km/h (3 Bft) O-SO 112 0 min 0,000 mm 0,0 UV-I 63 W/m -0,1 C -7,3 C 19,3 km/h (3 Bft) 95,65 %
17.02.2018 13:12 0,5 C 4,4 C 96 % 1017,4 hPa 0,0 l/m 19,4 km/h (3 Bft) O-NO 76 0 min 0,000 mm 0,0 UV-I 66 W/m -0,1 C -8,7 C 27,4 km/h (4 Bft) 100,00 %
17.02.2018 13:13 0,5 C 4,4 C 96 % 1017,3 hPa 0,0 l/m 16,6 km/h (3 Bft) O 95 0 min 0,000 mm 0,0 UV-I 68 W/m -0,1 C -7,3 C 22,5 km/h (4 Bft) 100,00 %
17.02.2018 13:14 0,5 C 4,4 C 96 % 1017,2 hPa 0,0 l/m 19,2 km/h (3 Bft) O 84 0 min 0,000 mm 0,0 UV-I 69 W/m -0,1 C -8,6 C 22,5 km/h (4 Bft) 95,83 %
17.02.2018 13:15 0,6 C 4,4 C 96 % 1017,2 hPa 0,0 l/m 19,8 km/h (3 Bft) O-NO 59 0 min 0,000 mm 0,0 UV-I 74 W/m 0,0 C -8,8 C 25,7 km/h (4 Bft) 100,00 %
17.02.2018 13:16 0,6 C 4,4 C 96 % 1017,1 hPa 0,0 l/m 19,2 km/h (3 Bft) O 86 0 min 0,000 mm 0,0 UV-I 76 W/m 0,0 C -8,5 C 24,1 km/h (4 Bft) 100,00 %
17.02.2018 13:17 0,6 C 4,4 C 96 % 1017,1 hPa 0,0 l/m 21,1 km/h (4 Bft) O 89 0 min 0,000 mm 0,0 UV-I 72 W/m 0,0 C -9,3 C 27,4 km/h (4 Bft) 95,65 %
17.02.2018 13:18 0,6 C 4,4 C 96 % 1017,0 hPa 0,0 l/m 16,6 km/h (3 Bft) O 83 0 min 0,000 mm 0,0 UV-I 73 W/m 0,0 C -7,2 C 22,5 km/h (4 Bft) 100,00 %
17.02.2018 13:19 0,6 C 4,4 C 96 % 1017,0 hPa 0,0 l/m 18,1 km/h (3 Bft) O 101 0 min 0,000 mm 0,0 UV-I 68 W/m 0,0 C -7,9 C 24,1 km/h (4 Bft) 91,30 %
17.02.2018 13:20 0,6 C 4,4 C 96 % 1017,0 hPa 0,0 l/m 17,2 km/h (3 Bft) O-NO 68 0 min 0,000 mm 0,0 UV-I 69 W/m 0,0 C -7,5 C 22,5 km/h (4 Bft) 100,00 %
17.02.2018 13:21 0,6 C 4,4 C 96 % 1017,1 hPa 0,0 l/m 15,4 km/h (3 Bft) O 82 0 min 0,000 mm 0,0 UV-I 69 W/m 0,0 C -6,5 C 22,5 km/h (4 Bft) 95,65 %
17.02.2018 13:22 0,6 C 4,4 C 96 % 1017,1 hPa 0,0 l/m 18,8 km/h (3 Bft) O 82 0 min 0,000 mm 0,0 UV-I 63 W/m 0,0 C -8,3 C 25,7 km/h (4 Bft) 95,83 %
17.02.2018 13:23 0,6 C 4,4 C 96 % 1017,1 hPa 0,0 l/m 16,6 km/h (3 Bft) O-SO 103 0 min 0,000 mm 0,0 UV-I 65 W/m 0,0 C -7,2 C 24,1 km/h (4 Bft) 100,00 %
17.02.2018 13:24 0,6 C 4,4 C 96 % 1017,2 hPa 0,0 l/m 21,0 km/h (4 Bft) O-SO 107 0 min 0,000 mm 0,0 UV-I 67 W/m 0,0 C -9,3 C 27,4 km/h (4 Bft) 95,83 %
17.02.2018 13:25 0,6 C 4,4 C 96 % 1017,2 hPa 0,0 l/m 17,0 km/h (3 Bft) O-SO 109 0 min 0,000 mm 0,0 UV-I 67 W/m 0,0 C -7,4 C 22,5 km/h (4 Bft) 100,00 %
17.02.2018 13:26 0,6 C 4,4 C 96 % 1017,2 hPa 0,0 l/m 20,1 km/h (4 Bft) O 98 0 min 0,000 mm 0,0 UV-I 73 W/m 0,0 C -8,9 C 27,4 km/h (4 Bft) 95,83 %
17.02.2018 13:27 0,6 C 4,4 C 96 % 1017,2 hPa 0,0 l/m 21,6 km/h (4 Bft) O 88 0 min 0,000 mm 0,0 UV-I 67 W/m 0,0 C -9,6 C 27,4 km/h (4 Bft) 100,00 %
17.02.2018 13:28 0,6 C 4,4 C 96 % 1017,2 hPa 0,0 l/m 19,8 km/h (3 Bft) O 88 0 min 0,000 mm 0,0 UV-I 71 W/m 0,0 C -8,8 C 24,1 km/h (4 Bft) 91,30 %
17.02.2018 13:29 0,6 C 4,4 C 96 % 1017,2 hPa 0,0 l/m 17,2 km/h (3 Bft) O 90 0 min 0,000 mm 0,0 UV-I 75 W/m 0,0 C -7,5 C 22,5 km/h (4 Bft) 100,00 %
17.02.2018 13:30 0,6 C 4,4 C 96 % 1017,2 hPa 0,0 l/m 14,3 km/h (3 Bft) O-SO 105 0 min 0,000 mm 0,0 UV-I 69 W/m 0,0 C -5,8 C 19,3 km/h (3 Bft) 93,10 %
17.02.2018 13:31 0,6 C 4,4 C 96 % 1017,1 hPa 0,0 l/m 13,8 km/h (3 Bft) O-SO 107 0 min 0,000 mm 0,0 UV-I 79 W/m 0,0 C -5,5 C 17,7 km/h (3 Bft) 95,83 %
17.02.2018 13:32 0,6 C 4,4 C 96 % 1017,0 hPa 0,0 l/m 17,4 km/h (3 Bft) O 90 0 min 0,000 mm 0,0 UV-I 76 W/m 0,0 C -7,6 C 27,4 km/h (4 Bft) 96,15 %
17.02.2018 13:33 0,6 C 4,4 C 96 % 1017,0 hPa 0,0 l/m 23,4 km/h (4 Bft) O-SO 110 0 min 0,000 mm 0,0 UV-I 88 W/m 0,0 C -10,3 C 29,0 km/h (5 Bft) 95,83 %
17.02.2018 13:34 0,6 C 4,4 C 96 % 1016,9 hPa 0,0 l/m 18,4 km/h (3 Bft) O 84 0 min 0,000 mm 0,0 UV-I 88 W/m 0,0 C -8,1 C 24,1 km/h (4 Bft) 100,00 %
17.02.2018 13:35 0,6 C 4,4 C 96 % 1016,9 hPa 0,0 l/m 16,7 km/h (3 Bft) O 91 0 min 0,000 mm 0,0 UV-I 89 W/m 0,0 C -7,2 C 25,7 km/h (4 Bft) 95,83 %
17.02.2018 13:36 0,6 C 4,4 C 96 % 1016,9 hPa 0,0 l/m 22,1 km/h (4 Bft) O 94 0 min 0,000 mm 0,0 UV-I 84 W/m 0,0 C -9,8 C 25,7 km/h (4 Bft) 100,00 %
17.02.2018 13:37 0,6 C 4,4 C 96 % 1017,0 hPa 0,0 l/m 24,1 km/h (4 Bft) O 96 0 min 0,000 mm 0,0 UV-I 89 W/m 0,0 C -10,6 C 27,4 km/h (4 Bft) 95,83 %
17.02.2018 13:38 0,6 C 4,4 C 96 % 1016,9 hPa 0,0 l/m 21,9 km/h (4 Bft) O 97 0 min 0,000 mm 0,0 UV-I 88 W/m 0,0 C -9,7 C 30,6 km/h (5 Bft) 100,00 %
17.02.2018 13:39 0,6 C 4,4 C 96 % 1017,0 hPa 0,0 l/m 20,3 km/h (4 Bft) O 100 0 min 0,000 mm 0,0 UV-I 85 W/m 0,0 C -9,0 C 25,7 km/h (4 Bft) 95,83 %
17.02.2018 13:40 0,6 C 4,4 C 96 % 1017,1 hPa 0,0 l/m 19,5 km/h (3 Bft) O 89 0 min 0,000 mm 0,0 UV-I 75 W/m 0,0 C -8,6 C 25,7 km/h (4 Bft) 100,00 %
17.02.2018 13:41 0,6 C 4,4 C 96 % 1017,1 hPa 0,0 l/m 17,9 km/h (3 Bft) O 99 0 min 0,000 mm 0,0 UV-I 76 W/m 0,0 C -7,8 C 27,4 km/h (4 Bft) 95,83 %
17.02.2018 13:42 0,6 C 4,4 C 96 % 1017,1 hPa 0,0 l/m 18,0 km/h (3 Bft) O 85 0 min 0,000 mm 0,0 UV-I 75 W/m 0,0 C -7,9 C 25,7 km/h (4 Bft) 100,00 %
17.02.2018 13:43 0,6 C 4,4 C 96 % 1017,1 hPa 0,0 l/m 18,8 km/h (3 Bft) O-SO 107 0 min 0,000 mm 0,0 UV-I 84 W/m 0,0 C -8,3 C 25,7 km/h (4 Bft) 100,00 %
17.02.2018 13:44 0,6 C 4,4 C 96 % 1017,1 hPa 0,0 l/m 18,8 km/h (3 Bft) O 89 0 min 0,000 mm 0,0 UV-I 81 W/m 0,0 C -8,3 C 24,1 km/h (4 Bft) 95,65 %
17.02.2018 13:45 0,6 C 4,4 C 96 % 1017,0 hPa 0,0 l/m 19,3 km/h (3 Bft) O-SO 103 0 min 0,000 mm 0,0 UV-I 78 W/m 0,0 C -8,5 C 29,0 km/h (5 Bft) 100,00 %
17.02.2018 13:46 0,6 C 4,4 C 96 % 1016,9 hPa 0,0 l/m 21,1 km/h (4 Bft) O-NO 69 0 min 0,000 mm 0,0 UV-I 87 W/m 0,0 C -9,3 C 29,0 km/h (5 Bft) 91,30 %
17.02.2018 13:47 0,6 C 4,4 C 96 % 1016,9 hPa 0,0 l/m 16,8 km/h (3 Bft) O 90 0 min 0,000 mm 0,0 UV-I 82 W/m 0,0 C -7,3 C 22,5 km/h (4 Bft) 100,00 %
17.02.2018 13:48 0,6 C 4,4 C 96 % 1016,9 hPa 0,0 l/m 15,9 km/h (3 Bft) O-SO 117 0 min 0,000 mm 0,0 UV-I 65 W/m 0,0 C -6,8 C 20,9 km/h (4 Bft) 93,33 %
17.02.2018 13:49 0,7 C 4,4 C 96 % 1016,8 hPa 0,0 l/m 15,8 km/h (3 Bft) O-SO 114 0 min 0,000 mm 0,0 UV-I 63 W/m 0,1 C -6,6 C 19,3 km/h (3 Bft) 100,00 %
17.02.2018 13:50 0,7 C 4,4 C 96 % 1016,8 hPa 0,0 l/m 13,3 km/h (3 Bft) O-SO 116 0 min 0,000 mm 0,0 UV-I 62 W/m 0,1 C -5,1 C 17,7 km/h (3 Bft) 96,15 %
17.02.2018 13:51 0,7 C 4,4 C 96 % 1016,8 hPa 0,0 l/m 13,8 km/h (3 Bft) O-SO 117 0 min 0,000 mm 0,0 UV-I 64 W/m 0,1 C -5,4 C 20,9 km/h (4 Bft) 100,00 %
17.02.2018 13:52 0,6 C 4,4 C 96 % 1016,8 hPa 0,0 l/m 14,2 km/h (3 Bft) O 99 0 min 0,000 mm 0,0 UV-I 52 W/m 0,0 C -5,8 C 22,5 km/h (4 Bft) 100,00 %
17.02.2018 13:53 0,6 C 4,4 C 96 % 1016,9 hPa 0,0 l/m 18,9 km/h (3 Bft) O-SO 104 0 min 0,000 mm 0,0 UV-I 54 W/m 0,0 C -8,3 C 22,5 km/h (4 Bft) 95,65 %
17.02.2018 13:54 0,6 C 4,4 C 96 % 1016,9 hPa 0,0 l/m 17,7 km/h (3 Bft) O 98 0 min 0,000 mm 0,0 UV-I 60 W/m 0,0 C -7,7 C 22,5 km/h (4 Bft) 100,00 %
17.02.2018 13:55 0,5 C 4,4 C 95 % 1016,9 hPa 0,0 l/m 19,0 km/h (3 Bft) O 98 0 min 0,000 mm 0,0 UV-I 63 W/m -0,2 C -8,5 C 24,1 km/h (4 Bft) 95,65 %
17.02.2018 13:56 0,5 C 4,4 C 95 % 1016,9 hPa 0,0 l/m 15,8 km/h (3 Bft) O-SO 103 0 min 0,000 mm 0,0 UV-I 54 W/m -0,2 C -6,8 C 20,9 km/h (4 Bft) 100,00 %
17.02.2018 13:57 0,5 C 4,4 C 95 % 1016,9 hPa 0,0 l/m 13,4 km/h (3 Bft) O 82 0 min 0,000 mm 0,0 UV-I 54 W/m -0,2 C -5,4 C 19,3 km/h (3 Bft) 100,00 %
17.02.2018 13:58 0,4 C 4,4 C 95 % 1016,9 hPa 0,0 l/m 20,9 km/h (4 Bft) O 90 0 min 0,000 mm 0,0 UV-I 52 W/m -0,3 C -9,5 C 27,4 km/h (4 Bft) 100,00 %
17.02.2018 13:59 0,4 C 4,4 C 95 % 1016,8 hPa 0,0 l/m 19,1 km/h (3 Bft) SO 126 0 min 0,000 mm 0,0 UV-I 54 W/m -0,3 C -8,7 C 22,5 km/h (4 Bft) 100,00 %
17.02.2018 14:00 0,4 C 4,4 C 95 % 1016,8 hPa 0,0 l/m 17,1 km/h (3 Bft) SO 130 0 min 0,000 mm 0,0 UV-I 55 W/m -0,3 C -7,7 C 20,9 km/h (4 Bft) 95,83 %
17.02.2018 14:01 0,4 C 4,4 C 96 % 1016,7 hPa 0,0 l/m 16,6 km/h (3 Bft) O 92 0 min 0,025 mm 0,0 UV-I 56 W/m -0,2 C -7,4 C 20,9 km/h (4 Bft) 96,15 %
17.02.2018 14:02 0,4 C 4,4 C 96 % 1016,7 hPa 0,0 l/m 19,7 km/h (3 Bft) O-SO 121 0 min 0,000 mm 0,0 UV-I 54 W/m -0,2 C -9,0 C 24,1 km/h (4 Bft) 100,00 %
17.02.2018 14:03 0,4 C 4,4 C 96 % 1016,7 hPa 0,0 l/m 19,5 km/h (3 Bft) O-SO 104 0 min 0,000 mm 0,0 UV-I 58 W/m -0,2 C -8,9 C 27,4 km/h (4 Bft) 100,00 %
17.02.2018 14:04 0,3 C 4,4 C 96 % 1016,7 hPa 0,0 l/m 14,1 km/h (3 Bft) SO 124 0 min 0,000 mm 0,0 UV-I 62 W/m -0,3 C -6,1 C 24,1 km/h (4 Bft) 95,83 %
17.02.2018 14:05 0,3 C 4,4 C 96 % 1016,7 hPa 0,0 l/m 16,8 km/h (3 Bft) O 97 0 min 0,000 mm 0,0 UV-I 58 W/m -0,3 C -7,6 C 27,4 km/h (4 Bft) 95,65 %
17.02.2018 14:06 0,3 C 4,4 C 96 % 1016,7 hPa 0,0 l/m 22,7 km/h (4 Bft) O 84 0 min 0,000 mm 0,0 UV-I 57 W/m -0,3 C -10,4 C 30,6 km/h (5 Bft) 100,00 %
17.02.2018 14:07 0,3 C 4,4 C 96 % 1016,7 hPa 0,0 l/m 18,4 km/h (3 Bft) O-SO 107 0 min 0,000 mm 0,0 UV-I 58 W/m -0,3 C -8,5 C 24,1 km/h (4 Bft) 100,00 %
17.02.2018 14:08 0,3 C 4,4 C 96 % 1016,7 hPa 0,0 l/m 17,8 km/h (3 Bft) O 94 0 min 0,000 mm 0,0 UV-I 60 W/m -0,3 C -8,2 C 22,5 km/h (4 Bft) 100,00 %
17.02.2018 14:09 0,3 C 4,4 C 96 % 1016,7 hPa 0,0 l/m 13,3 km/h (3 Bft) O 86 0 min 0,000 mm 0,0 UV-I 56 W/m -0,3 C -5,6 C 19,3 km/h (3 Bft) 100,00 %
17.02.2018 14:10 0,3 C 4,4 C 96 % 1016,7 hPa 0,0 l/m 19,2 km/h (3 Bft) O-SO 103 0 min 0,000 mm 0,0 UV-I 53 W/m -0,3 C -8,9 C 24,1 km/h (4 Bft) 100,00 %
17.02.2018 14:11 0,3 C 4,4 C 96 % 1016,7 hPa 0,0 l/m 13,7 km/h (3 Bft) O 86 0 min 0,000 mm 0,0 UV-I 58 W/m -0,3 C -5,8 C 20,9 km/h (4 Bft) 100,00 %
17.02.2018 14:12 0,3 C 4,4 C 96 % 1016,7 hPa 0,0 l/m 13,8 km/h (3 Bft) O 87 0 min 0,000 mm 0,0 UV-I 61 W/m -0,3 C -5,9 C 17,7 km/h (3 Bft) 95,65 %
17.02.2018 14:13 0,3 C 4,4 C 96 % 1016,8 hPa 0,0 l/m 19,0 km/h (3 Bft) O-SO 105 0 min 0,000 mm 0,0 UV-I 52 W/m -0,3 C -8,8 C 29,0 km/h (5 Bft) 100,00 %
17.02.2018 14:14 0,3 C 4,4 C 96 % 1016,8 hPa 0,0 l/m 18,5 km/h (3 Bft) O 101 0 min 0,000 mm 0,0 UV-I 52 W/m -0,3 C -8,5 C 25,7 km/h (4 Bft) 95,65 %
17.02.2018 14:15 0,2 C 4,4 C 96 % 1016,8 hPa 0,0 l/m 18,9 km/h (3 Bft) O-NO 70 0 min 0,000 mm 0,0 UV-I 49 W/m -0,4 C -8,8 C 24,1 km/h (4 Bft) 100,00 %
17.02.2018 14:16 0,2 C 4,4 C 96 % 1016,8 hPa 0,0 l/m 19,2 km/h (3 Bft) O-NO 72 0 min 0,000 mm 0,0 UV-I 54 W/m -0,4 C -9,0 C 27,4 km/h (4 Bft) 96,15 %
17.02.2018 14:17 0,2 C 4,4 C 96 % 1016,8 hPa 0,0 l/m 15,4 km/h (3 Bft) O-SO 102 0 min 0,000 mm 0,0 UV-I 55 W/m -0,4 C -7,0 C 19,3 km/h (3 Bft) 100,00 %
17.02.2018 14:18 0,2 C 4,4 C 96 % 1016,8 hPa 0,0 l/m 15,2 km/h (3 Bft) O-SO 123 0 min 0,000 mm 0,0 UV-I 50 W/m -0,4 C -6,9 C 19,3 km/h (3 Bft) 95,65 %
17.02.2018 14:19 0,2 C 4,4 C 96 % 1016,8 hPa 0,0 l/m 13,3 km/h (3 Bft) O-SO 113 0 min 0,000 mm 0,0 UV-I 41 W/m -0,4 C -5,7 C 22,5 km/h (4 Bft) 100,00 %
17.02.2018 14:20 0,2 C 4,4 C 96 % 1016,8 hPa 0,0 l/m 18,6 km/h (3 Bft) O-SO 120 0 min 0,000 mm 0,0 UV-I 42 W/m -0,4 C -8,7 C 22,5 km/h (4 Bft) 95,83 %
17.02.2018 14:21 0,2 C 4,4 C 96 % 1016,8 hPa 0,0 l/m 17,4 km/h (3 Bft) SO 129 0 min 0,000 mm 0,0 UV-I 43 W/m -0,4 C -8,1 C 20,9 km/h (4 Bft) 92,00 %
17.02.2018 14:22 0,2 C 4,4 C 96 % 1016,8 hPa 0,0 l/m 16,0 km/h (3 Bft) O 95 0 min 0,000 mm 0,0 UV-I 45 W/m -0,4 C -7,3 C 20,9 km/h (4 Bft) 100,00 %
17.02.2018 14:23 0,2 C 4,4 C 96 % 1016,8 hPa 0,0 l/m 16,4 km/h (3 Bft) O-SO 121 0 min 0,000 mm 0,0 UV-I 44 W/m -0,4 C -7,5 C 24,1 km/h (4 Bft) 100,00 %
17.02.2018 14:24 0,2 C 4,4 C 96 % 1016,8 hPa 0,0 l/m 16,6 km/h (3 Bft) O-SO 108 0 min 0,000 mm 0,0 UV-I 45 W/m -0,4 C -7,7 C 27,4 km/h (4 Bft) 95,83 %
17.02.2018 14:25 0,2 C 4,4 C 96 % 1016,7 hPa 0,0 l/m 20,6 km/h (4 Bft) SO 135 0 min 0,000 mm 0,0 UV-I 44 W/m -0,4 C -9,6 C 25,7 km/h (4 Bft) 100,00 %
17.02.2018 14:26 0,1 C 4,4 C 96 % 1016,7 hPa 0,0 l/m 17,9 km/h (3 Bft) O 98 0 min 0,000 mm 0,0 UV-I 44 W/m -0,5 C -8,5 C 22,5 km/h (4 Bft) 100,00 %
17.02.2018 14:27 0,1 C 4,4 C 96 % 1016,7 hPa 0,0 l/m 15,5 km/h (3 Bft) O 98 0 min 0,000 mm 0,0 UV-I 49 W/m -0,5 C -7,2 C 24,1 km/h (4 Bft) 100,00 %
17.02.2018 14:28 0,1 C 4,4 C 96 % 1016,7 hPa 0,0 l/m 20,2 km/h (4 Bft) O 94 0 min 0,000 mm 0,0 UV-I 53 W/m -0,5 C -9,6 C 27,4 km/h (4 Bft) 100,00 %
17.02.2018 14:29 0,1 C 4,4 C 96 % 1016,7 hPa 0,0 l/m 20,7 km/h (4 Bft) O 96 0 min 0,000 mm 0,0 UV-I 53 W/m -0,5 C -9,8 C 27,4 km/h (4 Bft) 100,00 %
17.02.2018 14:30 0,1 C 4,4 C 96 % 1016,6 hPa 0,0 l/m 16,6 km/h (3 Bft) O-SO 109 0 min 0,000 mm 0,0 UV-I 46 W/m -0,5 C -7,8 C 24,1 km/h (4 Bft) 100,00 %
17.02.2018 14:31 0,1 C 4,4 C 96 % 1016,5 hPa 0,0 l/m 18,3 km/h (3 Bft) O 83 0 min 0,000 mm 0,0 UV-I 51 W/m -0,5 C -8,7 C 24,1 km/h (4 Bft) 92,86 %
17.02.2018 14:32 0,1 C 4,4 C 96 % 1016,6 hPa 0,0 l/m 15,3 km/h (3 Bft) O 90 0 min 0,000 mm 0,0 UV-I 49 W/m -0,5 C -7,0 C 22,5 km/h (4 Bft) 100,00 %
17.02.2018 14:33 0,1 C 4,4 C 96 % 1016,5 hPa 0,0 l/m 17,9 km/h (3 Bft) O-SO 106 0 min 0,000 mm 0,0 UV-I 46 W/m -0,5 C -8,5 C 22,5 km/h (4 Bft) 100,00 %
17.02.2018 14:34 0,1 C 4,4 C 96 % 1016,5 hPa 0,0 l/m 14,3 km/h (3 Bft) O-SO 120 0 min 0,000 mm 0,0 UV-I 48 W/m -0,5 C -6,4 C 17,7 km/h (3 Bft) 100,00 %
17.02.2018 14:35 0,1 C 4,4 C 96 % 1016,5 hPa 0,0 l/m 18,8 km/h (3 Bft) O-SO 120 0 min 0,000 mm 0,0 UV-I 47 W/m -0,5 C -8,9 C 27,4 km/h (4 Bft) 100,00 %
17.02.2018 14:36 0,1 C 4,4 C 96 % 1016,6 hPa 0,0 l/m 21,4 km/h (4 Bft) O 89 0 min 0,000 mm 0,0 UV-I 47 W/m -0,5 C -10,1 C 24,1 km/h (4 Bft) 100,00 %
17.02.2018 14:37 0,1 C 4,4 C 96 % 1016,5 hPa 0,0 l/m 22,5 km/h (4 Bft) O 94 0 min 0,000 mm 0,0 UV-I 44 W/m -0,5 C -10,6 C 29,0 km/h (5 Bft) 100,00 %
17.02.2018 14:38 0,0 C 4,4 C 96 % 1016,5 hPa 0,0 l/m 20,4 km/h (4 Bft) O 90 0 min 0,000 mm 0,0 UV-I 49 W/m -0,6 C -9,8 C 27,4 km/h (4 Bft) 100,00 %
17.02.2018 14:39 0,1 C 4,4 C 96 % 1016,5 hPa 0,0 l/m 15,4 km/h (3 Bft) O 96 0 min 0,000 mm 0,0 UV-I 55 W/m -0,5 C -7,1 C 22,5 km/h (4 Bft) 100,00 %
17.02.2018 14:40 0,1 C 4,4 C 96 % 1016,5 hPa 0,0 l/m 19,8 km/h (3 Bft) O 84 0 min 0,000 mm 0,0 UV-I 56 W/m -0,5 C -9,4 C 30,6 km/h (5 Bft) 96,15 %
17.02.2018 14:41 0,1 C 4,4 C 96 % 1016,5 hPa 0,0 l/m 17,0 km/h (3 Bft) O 90 0 min 0,000 mm 0,0 UV-I 56 W/m -0,5 C -8,0 C 29,0 km/h (5 Bft) 100,00 %
17.02.2018 14:42 0,1 C 4,4 C 96 % 1016,5 hPa 0,0 l/m 19,5 km/h (3 Bft) O-SO 113 0 min 0,000 mm 0,0 UV-I 54 W/m -0,5 C -9,3 C 27,4 km/h (4 Bft) 100,00 %
17.02.2018 14:43 0,1 C 4,4 C 96 % 1016,5 hPa 0,0 l/m 17,9 km/h (3 Bft) O 91 0 min 0,000 mm 0,0 UV-I 49 W/m -0,5 C -8,5 C 24,1 km/h (4 Bft) 95,83 %
17.02.2018 14:44 0,1 C 4,4 C 96 % 1016,6 hPa 0,0 l/m 16,5 km/h (3 Bft) O 79 0 min 0,000 mm 0,0 UV-I 52 W/m -0,5 C -7,7 C 22,5 km/h (4 Bft) 100,00 %
17.02.2018 14:45 0,1 C 4,4 C 96 % 1016,6 hPa 0,0 l/m 15,4 km/h (3 Bft) O 95 0 min 0,000 mm 0,0 UV-I 46 W/m -0,5 C -7,1 C 22,5 km/h (4 Bft) 100,00 %
17.02.2018 14:46 0,1 C 4,4 C 96 % 1016,6 hPa 0,0 l/m 15,7 km/h (3 Bft) O 87 0 min 0,000 mm 0,0 UV-I 44 W/m -0,5 C -7,3 C 20,9 km/h (4 Bft) 100,00 %
17.02.2018 14:47 0,1 C 4,4 C 96 % 1016,6 hPa 0,0 l/m 12,9 km/h (3 Bft) SO 132 0 min 0,000 mm 0,0 UV-I 45 W/m -0,5 C -5,5 C 17,7 km/h (3 Bft) 100,00 %
17.02.2018 14:48 0,1 C 4,4 C 96 % 1016,6 hPa 0,0 l/m 6,7 km/h (2 Bft) O-NO 67 0 min 0,000 mm 0,0 UV-I 38 W/m -0,5 C -0,2 C 11,3 km/h (2 Bft) 100,00 %
17.02.2018 14:49 0,1 C 4,4 C 96 % 1016,6 hPa 0,0 l/m 7,8 km/h (2 Bft) O-SO 123 0 min 0,000 mm 0,0 UV-I 33 W/m -0,5 C -1,3 C 11,3 km/h (2 Bft) 100,00 %
17.02.2018 14:50 0,1 C 4,4 C 96 % 1016,6 hPa 0,0 l/m 13,5 km/h (3 Bft) O-SO 123 0 min 0,000 mm 0,0 UV-I 34 W/m -0,5 C -5,9 C 24,1 km/h (4 Bft) 100,00 %
17.02.2018 14:51 0,1 C 4,4 C 96 % 1016,6 hPa 0,0 l/m 16,2 km/h (3 Bft) O 86 0 min 0,000 mm 0,0 UV-I 38 W/m -0,5 C -7,6 C 25,7 km/h (4 Bft) 100,00 %
17.02.2018 14:52 0,1 C 4,4 C 96 % 1016,5 hPa 0,0 l/m 28,1 km/h (4 Bft) O-SO 105 0 min 0,000 mm 0,0 UV-I 46 W/m -0,5 C -12,7 C 35,4 km/h (5 Bft) 100,00 %
17.02.2018 14:53 0,0 C 4,4 C 96 % 1016,5 hPa 0,0 l/m 23,6 km/h (4 Bft) O 100 0 min 0,000 mm 0,0 UV-I 42 W/m -0,6 C -11,2 C 29,0 km/h (5 Bft) 100,00 %
17.02.2018 14:54 -0,1 C 4,4 C 96 % 1016,5 hPa 0,0 l/m 20,3 km/h (4 Bft) O-SO 118 0 min 0,000 mm 0,0 UV-I 42 W/m -0,7 C -9,9 C 27,4 km/h (4 Bft) 100,00 %
17.02.2018 14:55 -0,1 C 4,4 C 96 % 1016,5 hPa 0,0 l/m 16,7 km/h (3 Bft) O-SO 103 0 min 0,000 mm 0,0 UV-I 41 W/m -0,7 C -8,1 C 20,9 km/h (4 Bft) 100,00 %
17.02.2018 14:56 -0,1 C 4,4 C 96 % 1016,5 hPa 0,0 l/m 25,0 km/h (4 Bft) SO 128 0 min 0,000 mm 0,0 UV-I 37 W/m -0,7 C -11,9 C 37,0 km/h (5 Bft) 100,00 %
17.02.2018 14:57 -0,1 C 4,4 C 96 % 1016,5 hPa 0,0 l/m 17,4 km/h (3 Bft) O-SO 111 0 min 0,000 mm 0,0 UV-I 35 W/m -0,7 C -8,5 C 25,7 km/h (4 Bft) 100,00 %
17.02.2018 14:58 -0,1 C 4,4 C 96 % 1016,5 hPa 0,0 l/m 19,1 km/h (3 Bft) O 85 0 min 0,000 mm 0,0 UV-I 40 W/m -0,7 C -9,3 C 25,7 km/h (4 Bft) 95,65 %
17.02.2018 14:59 -0,1 C 4,4 C 96 % 1016,5 hPa 0,0 l/m 17,7 km/h (3 Bft) SO 132 0 min 0,000 mm 0,0 UV-I 38 W/m -0,7 C -8,6 C 25,7 km/h (4 Bft) 100,00 %
17.02.2018 15:00 -0,2 C 4,4 C 96 % 1016,6 hPa 0,0 l/m 20,1 km/h (4 Bft) O 92 0 min 0,000 mm 0,0 UV-I 37 W/m -0,8 C -9,9 C 25,7 km/h (4 Bft) 100,00 %
17.02.2018 15:01 -0,2 C 4,4 C 96 % 1016,6 hPa 0,0 l/m 22,6 km/h (4 Bft) O-NO 71 0 min 0,026 mm 0,0 UV-I 37 W/m -0,8 C -11,0 C 30,6 km/h (5 Bft) 100,00 %
17.02.2018 15:02 -0,2 C 4,4 C 96 % 1016,6 hPa 0,0 l/m 16,1 km/h (3 Bft) O 94 0 min 0,000 mm 0,0 UV-I 38 W/m -0,8 C -7,9 C 24,1 km/h (4 Bft) 100,00 %
17.02.2018 15:03 -0,2 C 4,4 C 96 % 1016,7 hPa 0,0 l/m 15,0 km/h (3 Bft) O-SO 107 0 min 0,000 mm 0,0 UV-I 37 W/m -0,8 C -7,2 C 17,7 km/h (3 Bft) 93,33 %
17.02.2018 15:04 -0,1 C 4,4 C 96 % 1016,7 hPa 0,0 l/m 17,0 km/h (3 Bft) O 94 0 min 0,000 mm 0,0 UV-I 35 W/m -0,7 C -8,2 C 25,7 km/h (4 Bft) 100,00 %
17.02.2018 15:05 -0,2 C 4,4 C 96 % 1016,7 hPa 0,0 l/m 17,8 km/h (3 Bft) O 88 0 min 0,000 mm 0,0 UV-I 32 W/m -0,8 C -8,8 C 22,5 km/h (4 Bft) 100,00 %
17.02.2018 15:06 -0,2 C 4,4 C 96 % 1016,7 hPa 0,0 l/m 16,8 km/h (3 Bft) O 91 0 min 0,000 mm 0,0 UV-I 33 W/m -0,8 C -8,3 C 20,9 km/h (4 Bft) 100,00 %
17.02.2018 15:07 -0,1 C 4,4 C 96 % 1016,7 hPa 0,0 l/m 16,2 km/h (3 Bft) O 88 0 min 0,000 mm 0,0 UV-I 30 W/m -0,7 C -7,8 C 20,9 km/h (4 Bft) 100,00 %
17.02.2018 15:08 -0,1 C 4,4 C 96 % 1016,8 hPa 0,0 l/m 21,7 km/h (4 Bft) O 99 0 min 0,000 mm 0,0 UV-I 32 W/m -0,7 C -10,5 C 30,6 km/h (5 Bft) 100,00 %
17.02.2018 15:09 -0,1 C 4,4 C 96 % 1016,8 hPa 0,0 l/m 22,2 km/h (4 Bft) O-SO 117 0 min 0,000 mm 0,0 UV-I 32 W/m -0,7 C -10,7 C 27,4 km/h (4 Bft) 100,00 %
17.02.2018 15:10 -0,2 C 4,4 C 96 % 1016,8 hPa 0,0 l/m 17,2 km/h (3 Bft) O 92 0 min 0,000 mm 0,0 UV-I 34 W/m -0,8 C -8,5 C 22,5 km/h (4 Bft) 100,00 %
17.02.2018 15:11 -0,1 C 4,4 C 96 % 1016,8 hPa 0,0 l/m 18,3 km/h (3 Bft) O 99 0 min 0,000 mm 0,0 UV-I 35 W/m -0,7 C -8,9 C 25,7 km/h (4 Bft) 96,15 %
17.02.2018 15:12 -0,1 C 4,4 C 96 % 1016,8 hPa 0,0 l/m 17,4 km/h (3 Bft) O-SO 103 0 min 0,000 mm 0,0 UV-I 32 W/m -0,7 C -8,5 C 22,5 km/h (4 Bft) 95,83 %
17.02.2018 15:13 -0,1 C 4,4 C 96 % 1016,8 hPa 0,0 l/m 17,2 km/h (3 Bft) O-SO 110 0 min 0,000 mm 0,0 UV-I 29 W/m -0,7 C -8,4 C 22,5 km/h (4 Bft) 100,00 %
17.02.2018 15:14 -0,1 C 4,4 C 96 % 1016,9 hPa 0,0 l/m 20,1 km/h (4 Bft) O-SO 120 0 min 0,000 mm 0,0 UV-I 33 W/m -0,7 C -9,8 C 29,0 km/h (5 Bft) 100,00 %
17.02.2018 15:15 -0,1 C 4,4 C 96 % 1016,9 hPa 0,0 l/m 21,5 km/h (4 Bft) O-SO 110 0 min 0,000 mm 0,0 UV-I 32 W/m -0,7 C -10,4 C 30,6 km/h (5 Bft) 91,30 %
17.02.2018 15:16 -0,2 C 4,4 C 96 % 1016,9 hPa 0,0 l/m 25,9 km/h (4 Bft) O-SO 117 0 min 0,000 mm 0,0 UV-I 33 W/m -0,8 C -12,3 C 30,6 km/h (5 Bft) 95,83 %
17.02.2018 15:17 -0,2 C 4,4 C 96 % 1017,0 hPa 0,0 l/m 23,0 km/h (4 Bft) O 95 0 min 0,000 mm 0,0 UV-I 32 W/m -0,8 C -11,2 C 25,7 km/h (4 Bft) 100,00 %
17.02.2018 15:18 -0,2 C 4,4 C 96 % 1016,9 hPa 0,0 l/m 21,1 km/h (4 Bft) SO 126 0 min 0,000 mm 0,0 UV-I 30 W/m -0,8 C -10,4 C 29,0 km/h (5 Bft) 100,00 %
17.02.2018 15:19 -0,2 C 4,4 C 96 % 1016,9 hPa 0,0 l/m 21,9 km/h (4 Bft) O 101 0 min 0,000 mm 0,0 UV-I 30 W/m -0,8 C -10,7 C 29,0 km/h (5 Bft) 95,83 %
17.02.2018 15:20 -0,2 C 4,4 C 96 % 1016,9 hPa 0,0 l/m 25,1 km/h (4 Bft) O 84 0 min 0,000 mm 0,0 UV-I 30 W/m -0,8 C -12,0 C 29,0 km/h (5 Bft) 95,65 %
17.02.2018 15:21 -0,2 C 4,4 C 96 % 1016,9 hPa 0,0 l/m 20,9 km/h (4 Bft) O 86 0 min 0,000 mm 0,0 UV-I 27 W/m -0,8 C -10,3 C 29,0 km/h (5 Bft) 95,83 %
17.02.2018 15:22 -0,2 C 4,4 C 96 % 1016,8 hPa 0,0 l/m 17,0 km/h (3 Bft) O 91 0 min 0,000 mm 0,0 UV-I 26 W/m -0,8 C -8,4 C 20,9 km/h (4 Bft) 100,00 %
17.02.2018 15:23 -0,2 C 4,4 C 96 % 1016,9 hPa 0,0 l/m 16,2 km/h (3 Bft) O 88 0 min 0,000 mm 0,0 UV-I 26 W/m -0,8 C -7,9 C 22,5 km/h (4 Bft) 95,83 %
17.02.2018 15:24 -0,2 C 4,4 C 96 % 1016,9 hPa 0,0 l/m 18,1 km/h (3 Bft) O 98 0 min 0,000 mm 0,0 UV-I 27 W/m -0,8 C -9,0 C 22,5 km/h (4 Bft) 100,00 %
17.02.2018 15:25 -0,1 C 4,4 C 96 % 1016,9 hPa 0,0 l/m 17,5 km/h (3 Bft) O 91 0 min 0,000 mm 0,0 UV-I 31 W/m -0,7 C -8,5 C 20,9 km/h (4 Bft) 95,83 %
17.02.2018 15:26 -0,1 C 4,4 C 96 % 1016,9 hPa 0,0 l/m 23,3 km/h (4 Bft) O 90 0 min 0,000 mm 0,0 UV-I 27 W/m -0,7 C -11,2 C 30,6 km/h (5 Bft) 95,65 %
17.02.2018 15:27 -0,1 C 4,4 C 96 % 1016,9 hPa 0,0 l/m 22,9 km/h (4 Bft) O 96 0 min 0,000 mm 0,0 UV-I 29 W/m -0,7 C -11,0 C 27,4 km/h (4 Bft) 100,00 %
17.02.2018 15:28 -0,2 C 4,4 C 96 % 1016,9 hPa 0,0 l/m 14,9 km/h (3 Bft) O 100 0 min 0,000 mm 0,0 UV-I 31 W/m -0,8 C -7,2 C 20,9 km/h (4 Bft) 96,00 %
17.02.2018 15:29 -0,1 C 4,4 C 96 % 1016,9 hPa 0,0 l/m 19,8 km/h (3 Bft) O-NO 74 0 min 0,000 mm 0,0 UV-I 26 W/m -0,7 C -9,7 C 22,5 km/h (4 Bft) 100,00 %
17.02.2018 15:30 -0,1 C 4,4 C 96 % 1017,0 hPa 0,0 l/m 16,9 km/h (3 Bft) O 101 0 min 0,000 mm 0,0 UV-I 28 W/m -0,7 C -8,2 C 20,9 km/h (4 Bft) 95,65 %
17.02.2018 15:31 -0,1 C 4,4 C 96 % 1017,0 hPa 0,0 l/m 20,8 km/h (4 Bft) O 100 0 min 0,000 mm 0,0 UV-I 28 W/m -0,7 C -10,1 C 25,7 km/h (4 Bft) 96,30 %
17.02.2018 15:32 -0,2 C 4,4 C 96 % 1017,1 hPa 0,0 l/m 18,8 km/h (3 Bft) O 79 0 min 0,000 mm 0,0 UV-I 28 W/m -0,8 C -9,3 C 25,7 km/h (4 Bft) 91,30 %
17.02.2018 15:33 -0,1 C 4,4 C 96 % 1017,1 hPa 0,0 l/m 18,0 km/h (3 Bft) O 101 0 min 0,000 mm 0,0 UV-I 29 W/m -0,7 C -8,8 C 22,5 km/h (4 Bft) 95,83 %
17.02.2018 15:34 -0,1 C 4,4 C 96 % 1017,1 hPa 0,0 l/m 19,1 km/h (3 Bft) O 90 0 min 0,000 mm 0,0 UV-I 27 W/m -0,7 C -9,3 C 24,1 km/h (4 Bft) 100,00 %
17.02.2018 15:35 -0,2 C 4,4 C 96 % 1017,1 hPa 0,0 l/m 15,6 km/h (3 Bft) O-SO 118 0 min 0,000 mm 0,0 UV-I 25 W/m -0,8 C -7,6 C 20,9 km/h (4 Bft) 95,83 %
17.02.2018 15:36 -0,2 C 4,4 C 96 % 1017,1 hPa 0,0 l/m 14,5 km/h (3 Bft) O-SO 111 0 min 0,000 mm 0,0 UV-I 25 W/m -0,8 C -6,9 C 25,7 km/h (4 Bft) 100,00 %
17.02.2018 15:37 -0,2 C 4,4 C 96 % 1017,1 hPa 0,0 l/m 19,8 km/h (3 Bft) O 90 0 min 0,000 mm 0,0 UV-I 25 W/m -0,8 C -9,8 C 24,1 km/h (4 Bft) 82,61 %
17.02.2018 15:38 -0,2 C 4,4 C 96 % 1017,1 hPa 0,0 l/m 17,9 km/h (3 Bft) O 84 0 min 0,000 mm 0,0 UV-I 28 W/m -0,8 C -8,9 C 22,5 km/h (4 Bft) 100,00 %
17.02.2018 15:39 -0,2 C 4,4 C 96 % 1017,2 hPa 0,0 l/m 17,8 km/h (3 Bft) O 95 0 min 0,000 mm 0,0 UV-I 31 W/m -0,8 C -8,8 C 22,5 km/h (4 Bft) 86,96 %
17.02.2018 15:40 -0,1 C 4,4 C 96 % 1017,1 hPa 0,0 l/m 11,9 km/h (2 Bft) O 92 0 min 0,000 mm 0,0 UV-I 30 W/m -0,7 C -5,0 C 17,7 km/h (3 Bft) 95,83 %
17.02.2018 15:41 -0,1 C 4,4 C 96 % 1017,1 hPa 0,0 l/m 15,4 km/h (3 Bft) O-SO 103 0 min 0,000 mm 0,0 UV-I 32 W/m -0,7 C -7,3 C 22,5 km/h (4 Bft) 91,30 %
17.02.2018 15:42 -0,1 C 4,4 C 96 % 1017,1 hPa 0,0 l/m 16,9 km/h (3 Bft) O-SO 105 0 min 0,000 mm 0,0 UV-I 28 W/m -0,7 C -8,2 C 20,9 km/h (4 Bft) 95,83 %
17.02.2018 15:43 -0,1 C 4,4 C 96 % 1017,1 hPa 0,0 l/m 19,0 km/h (3 Bft) O 88 0 min 0,000 mm 0,0 UV-I 28 W/m -0,7 C -9,3 C 24,1 km/h (4 Bft) 95,65 %
17.02.2018 15:44 -0,1 C 4,4 C 96 % 1017,1 hPa 0,0 l/m 14,0 km/h (3 Bft) O-NO 74 0 min 0,000 mm 0,0 UV-I 27 W/m -0,7 C -6,5 C 20,9 km/h (4 Bft) 95,83 %
17.02.2018 15:45 -0,2 C 4,4 C 96 % 1017,1 hPa 0,0 l/m 20,5 km/h (4 Bft) O 93 0 min 0,000 mm 0,0 UV-I 30 W/m -0,8 C -10,1 C 27,4 km/h (4 Bft) 100,00 %
17.02.2018 15:46 -0,2 C 4,4 C 96 % 1017,2 hPa 0,0 l/m 20,7 km/h (4 Bft) O 83 0 min 0,000 mm 0,0 UV-I 32 W/m -0,8 C -10,2 C 24,1 km/h (4 Bft) 95,83 %
17.02.2018 15:47 -0,2 C 4,4 C 96 % 1017,2 hPa 0,0 l/m 15,6 km/h (3 Bft) O-SO 105 0 min 0,000 mm 0,0 UV-I 28 W/m -0,8 C -7,6 C 19,3 km/h (3 Bft) 95,65 %
17.02.2018 15:48 -0,2 C 4,4 C 96 % 1017,2 hPa 0,0 l/m 17,7 km/h (3 Bft) O 100 0 min 0,000 mm 0,0 UV-I 28 W/m -0,8 C -8,7 C 22,5 km/h (4 Bft) 96,30 %
17.02.2018 15:49 -0,2 C 4,4 C 96 % 1017,2 hPa 0,0 l/m 20,5 km/h (4 Bft) O 86 0 min 0,000 mm 0,0 UV-I 29 W/m -0,8 C -10,1 C 24,1 km/h (4 Bft) 95,65 %
17.02.2018 15:50 -0,2 C 4,4 C 96 % 1017,2 hPa 0,0 l/m 19,9 km/h (4 Bft) O 89 0 min 0,000 mm 0,0 UV-I 31 W/m -0,8 C -9,8 C 24,1 km/h (4 Bft) 96,30 %
17.02.2018 15:51 -0,2 C 4,4 C 96 % 1017,2 hPa 0,0 l/m 17,6 km/h (3 Bft) O-SO 110 0 min 0,000 mm 0,0 UV-I 31 W/m -0,8 C -8,7 C 24,1 km/h (4 Bft) 95,65 %
17.02.2018 15:52 -0,2 C 4,4 C 96 % 1017,3 hPa 0,0 l/m 13,0 km/h (3 Bft) O 96 0 min 0,000 mm 0,0 UV-I 33 W/m -0,8 C -5,9 C 16,1 km/h (3 Bft) 100,00 %
17.02.2018 15:53 -0,2 C 4,4 C 96 % 1017,3 hPa 0,0 l/m 15,1 km/h (3 Bft) O-SO 109 0 min 0,000 mm 0,0 UV-I 37 W/m -0,8 C -7,3 C 20,9 km/h (4 Bft) 95,65 %
17.02.2018 15:54 -0,2 C 4,4 C 96 % 1017,3 hPa 0,0 l/m 14,6 km/h (3 Bft) O 94 0 min 0,000 mm 0,0 UV-I 36 W/m -0,8 C -7,0 C 19,3 km/h (3 Bft) 100,00 %
17.02.2018 15:55 -0,2 C 4,4 C 96 % 1017,3 hPa 0,0 l/m 14,6 km/h (3 Bft) O 101 0 min 0,000 mm 0,0 UV-I 38 W/m -0,8 C -7,0 C 19,3 km/h (3 Bft) 96,00 %
17.02.2018 15:56 -0,2 C 4,4 C 96 % 1017,3 hPa 0,0 l/m 14,8 km/h (3 Bft) O-SO 102 0 min 0,000 mm 0,0 UV-I 47 W/m -0,8 C -7,1 C 17,7 km/h (3 Bft) 100,00 %
17.02.2018 15:57 -0,2 C 4,4 C 96 % 1017,3 hPa 0,0 l/m 17,0 km/h (3 Bft) O-NO 60 0 min 0,000 mm 0,0 UV-I 47 W/m -0,8 C -8,4 C 22,5 km/h (4 Bft) 96,30 %
17.02.2018 15:58 -0,2 C 4,4 C 96 % 1017,3 hPa 0,0 l/m 15,9 km/h (3 Bft) O-NO 71 0 min 0,000 mm 0,0 UV-I 46 W/m -0,8 C -7,8 C 20,9 km/h (4 Bft) 95,65 %
17.02.2018 15:59 -0,2 C 4,4 C 96 % 1017,3 hPa 0,0 l/m 10,9 km/h (2 Bft) O-SO 105 0 min 0,000 mm 0,0 UV-I 47 W/m -0,8 C -4,4 C 17,7 km/h (3 Bft) 95,83 %
17.02.2018 16:00 -0,1 C 4,4 C 96 % 1017,3 hPa 0,0 l/m 15,0 km/h (3 Bft) O 98 0 min 0,000 mm 0,0 UV-I 41 W/m -0,7 C -7,1 C 22,5 km/h (4 Bft) 100,00 %
17.02.2018 16:01 -0,2 C 4,4 C 96 % 1017,3 hPa 0,0 l/m 15,4 km/h (3 Bft) O-SO 103 0 min 0,025 mm 0,0 UV-I 40 W/m -0,8 C -7,5 C 22,5 km/h (4 Bft) 95,83 %
17.02.2018 16:02 -0,2 C 4,4 C 96 % 1017,4 hPa 0,0 l/m 18,0 km/h (3 Bft) O 100 0 min 0,000 mm 0,0 UV-I 39 W/m -0,8 C -8,9 C 22,5 km/h (4 Bft) 95,65 %
17.02.2018 16:03 -0,2 C 4,4 C 96 % 1017,4 hPa 0,0 l/m 20,5 km/h (4 Bft) O-SO 115 0 min 0,000 mm 0,0 UV-I 42 W/m -0,8 C -10,1 C 24,1 km/h (4 Bft) 100,00 %
17.02.2018 16:04 -0,2 C 4,4 C 96 % 1017,3 hPa 0,0 l/m 14,6 km/h (3 Bft) O 90 0 min 0,000 mm 0,0 UV-I 48 W/m -0,8 C -7,0 C 20,9 km/h (4 Bft) 92,31 %
17.02.2018 16:05 -0,2 C 4,4 C 96 % 1017,2 hPa 0,0 l/m 16,1 km/h (3 Bft) O-NO 60 0 min 0,000 mm 0,0 UV-I 48 W/m -0,8 C -7,9 C 20,9 km/h (4 Bft) 100,00 %
17.02.2018 16:06 -0,2 C 4,4 C 96 % 1017,3 hPa 0,0 l/m 15,1 km/h (3 Bft) O-SO 109 0 min 0,000 mm 0,0 UV-I 54 W/m -0,8 C -7,3 C 22,5 km/h (4 Bft) 91,30 %
17.02.2018 16:07 -0,2 C 4,4 C 96 % 1017,3 hPa 0,0 l/m 13,9 km/h (3 Bft) O 86 0 min 0,000 mm 0,0 UV-I 58 W/m -0,8 C -6,5 C 20,9 km/h (4 Bft) 100,00 %
17.02.2018 16:08 -0,2 C 4,4 C 96 % 1017,4 hPa 0,0 l/m 14,0 km/h (3 Bft) O 82 0 min 0,000 mm 0,0 UV-I 59 W/m -0,8 C -6,6 C 17,7 km/h (3 Bft) 96,15 %
17.02.2018 16:09 -0,2 C 4,4 C 96 % 1017,4 hPa 0,0 l/m 12,8 km/h (3 Bft) O 99 0 min 0,000 mm 0,0 UV-I 57 W/m -0,8 C -5,8 C 14,5 km/h (3 Bft) 100,00 %
17.02.2018 16:10 -0,2 C 4,4 C 96 % 1017,4 hPa 0,0 l/m 15,6 km/h (3 Bft) O-SO 117 0 min 0,000 mm 0,0 UV-I 52 W/m -0,8 C -7,6 C 22,5 km/h (4 Bft) 91,30 %
17.02.2018 16:11 -0,2 C 4,4 C 96 % 1017,4 hPa 0,0 l/m 16,7 km/h (3 Bft) O 94 0 min 0,000 mm 0,0 UV-I 45 W/m -0,8 C -8,2 C 24,1 km/h (4 Bft) 100,00 %
17.02.2018 16:12 -0,2 C 4,4 C 96 % 1017,4 hPa 0,0 l/m 18,3 km/h (3 Bft) O 85 0 min 0,000 mm 0,0 UV-I 41 W/m -0,8 C -9,1 C 20,9 km/h (4 Bft) 95,65 %
17.02.2018 16:13 -0,2 C 4,4 C 96 % 1017,4 hPa 0,0 l/m 19,0 km/h (3 Bft) O 84 0 min 0,000 mm 0,0 UV-I 39 W/m -0,8 C -9,4 C 24,1 km/h (4 Bft) 95,83 %
17.02.2018 16:14 -0,2 C 4,4 C 96 % 1017,3 hPa 0,0 l/m 15,8 km/h (3 Bft) O 94 0 min 0,000 mm 0,0 UV-I 40 W/m -0,8 C -7,7 C 24,1 km/h (4 Bft) 100,00 %
17.02.2018 16:15 -0,2 C 4,4 C 96 % 1017,3 hPa 0,0 l/m 20,3 km/h (4 Bft) O 86 0 min 0,000 mm 0,0 UV-I 39 W/m -0,8 C -10,0 C 24,1 km/h (4 Bft) 95,83 %
17.02.2018 16:16 -0,2 C 4,4 C 96 % 1017,3 hPa 0,0 l/m 18,1 km/h (3 Bft) O 90 0 min 0,000 mm 0,0 UV-I 34 W/m -0,8 C -9,0 C 27,4 km/h (4 Bft) 100,00 %
17.02.2018 16:17 -0,2 C 4,4 C 96 % 1017,3 hPa 0,0 l/m 14,9 km/h (3 Bft) O 88 0 min 0,000 mm 0,0 UV-I 39 W/m -0,8 C -7,2 C 20,9 km/h (4 Bft) 95,83 %
17.02.2018 16:18 -0,2 C 4,4 C 96 % 1017,3 hPa 0,0 l/m 15,8 km/h (3 Bft) O 82 0 min 0,000 mm 0,0 UV-I 36 W/m -0,8 C -7,7 C 19,3 km/h (3 Bft) 100,00 %
17.02.2018 16:19 -0,2 C 4,4 C 96 % 1017,2 hPa 0,0 l/m 11,4 km/h (2 Bft) O-SO 115 0 min 0,000 mm 0,0 UV-I 33 W/m -0,8 C -4,8 C 16,1 km/h (3 Bft) 95,83 %
17.02.2018 16:20 -0,2 C 4,4 C 96 % 1017,3 hPa 0,0 l/m 14,8 km/h (3 Bft) O 95 0 min 0,000 mm 0,0 UV-I 29 W/m -0,8 C -7,1 C 19,3 km/h (3 Bft) 95,83 %
17.02.2018 16:21 -0,2 C 4,4 C 96 % 1017,3 hPa 0,0 l/m 13,7 km/h (3 Bft) O 86 0 min 0,000 mm 0,0 UV-I 28 W/m -0,8 C -6,4 C 19,3 km/h (3 Bft) 86,96 %
17.02.2018 16:22 -0,2 C 4,4 C 96 % 1017,3 hPa 0,0 l/m 18,3 km/h (3 Bft) O-SO 105 0 min 0,000 mm 0,0 UV-I 26 W/m -0,8 C -9,1 C 20,9 km/h (4 Bft) 100,00 %
17.02.2018 16:23 -0,2 C 4,4 C 96 % 1017,4 hPa 0,0 l/m 16,5 km/h (3 Bft) O-SO 121 0 min 0,000 mm 0,0 UV-I 27 W/m -0,8 C -8,1 C 20,9 km/h (4 Bft) 96,15 %
17.02.2018 16:24 -0,2 C 4,4 C 96 % 1017,4 hPa 0,0 l/m 17,6 km/h (3 Bft) O 91 0 min 0,000 mm 0,0 UV-I 29 W/m -0,8 C -8,7 C 29,0 km/h (5 Bft) 95,83 %
17.02.2018 16:25 -0,2 C 4,4 C 96 % 1017,4 hPa 0,0 l/m 15,6 km/h (3 Bft) O 80 0 min 0,000 mm 0,0 UV-I 29 W/m -0,8 C -7,6 C 25,7 km/h (4 Bft) 91,30 %
17.02.2018 16:26 -0,2 C 4,4 C 96 % 1017,5 hPa 0,0 l/m 11,7 km/h (2 Bft) O-NO 64 0 min 0,000 mm 0,0 UV-I 29 W/m -0,8 C -5,0 C 17,7 km/h (3 Bft) 95,83 %
17.02.2018 16:27 -0,2 C 4,4 C 96 % 1017,5 hPa 0,0 l/m 17,8 km/h (3 Bft) O 96 0 min 0,000 mm 0,0 UV-I 26 W/m -0,8 C -8,8 C 24,1 km/h (4 Bft) 91,30 %
17.02.2018 16:28 -0,2 C 4,4 C 96 % 1017,5 hPa 0,0 l/m 18,0 km/h (3 Bft) O-SO 107 0 min 0,000 mm 0,0 UV-I 26 W/m -0,8 C -8,9 C 22,5 km/h (4 Bft) 95,83 %
17.02.2018 16:29 -0,2 C 4,4 C 96 % 1017,4 hPa 0,0 l/m 16,9 km/h (3 Bft) O 86 0 min 0,000 mm 0,0 UV-I 28 W/m -0,8 C -8,3 C 20,9 km/h (4 Bft) 91,30 %
17.02.2018 16:30 -0,2 C 4,4 C 96 % 1017,3 hPa 0,0 l/m 17,9 km/h (3 Bft) O 101 0 min 0,000 mm 0,0 UV-I 30 W/m -0,8 C -8,9 C 22,5 km/h (4 Bft) 96,30 %
17.02.2018 16:31 -0,2 C 4,4 C 96 % 1017,3 hPa 0,0 l/m 19,5 km/h (3 Bft) O 100 0 min 0,000 mm 0,0 UV-I 29 W/m -0,8 C -9,7 C 24,1 km/h (4 Bft) 100,00 %
17.02.2018 16:32 -0,2 C 4,4 C 96 % 1017,2 hPa 0,0 l/m 13,5 km/h (3 Bft) O 98 0 min 0,000 mm 0,0 UV-I 32 W/m -0,8 C -6,3 C 22,5 km/h (4 Bft) 88,89 %
17.02.2018 16:33 -0,2 C 4,4 C 96 % 1017,2 hPa 0,0 l/m 11,8 km/h (2 Bft) O-SO 109 0 min 0,000 mm 0,0 UV-I 30 W/m -0,8 C -5,1 C 14,5 km/h (3 Bft) 95,65 %
17.02.2018 16:34 -0,2 C 4,4 C 96 % 1017,3 hPa 0,0 l/m 11,9 km/h (2 Bft) O-SO 119 0 min 0,000 mm 0,0 UV-I 32 W/m -0,8 C -5,2 C 19,3 km/h (3 Bft) 95,83 %
17.02.2018 16:35 -0,2 C 4,4 C 96 % 1017,3 hPa 0,0 l/m 6,5 km/h (2 Bft) O-SO 118 0 min 0,000 mm 0,0 UV-I 33 W/m -0,8 C -0,3 C 9,7 km/h (2 Bft) 95,65 %
17.02.2018 16:36 -0,2 C 4,4 C 96 % 1017,3 hPa 0,0 l/m 9,1 km/h (2 Bft) O 101 0 min 0,000 mm 0,0 UV-I 33 W/m -0,8 C -2,9 C 16,1 km/h (3 Bft) 95,83 %
17.02.2018 16:37 -0,2 C 4,4 C 96 % 1017,4 hPa 0,0 l/m 10,8 km/h (2 Bft) O-SO 109 0 min 0,000 mm 0,0 UV-I 37 W/m -0,8 C -4,3 C 14,5 km/h (3 Bft) 100,00 %
17.02.2018 16:38 -0,2 C 4,4 C 96 % 1017,4 hPa 0,0 l/m 5,9 km/h (2 Bft) O 88 0 min 0,000 mm 0,0 UV-I 44 W/m -0,8 C -0,2 C 9,7 km/h (2 Bft) 97,37 %
17.02.2018 16:39 -0,2 C 4,4 C 96 % 1017,4 hPa 0,0 l/m 9,6 km/h (2 Bft) SO 131 0 min 0,000 mm 0,0 UV-I 44 W/m -0,8 C -3,3 C 12,9 km/h (3 Bft) 95,83 %
17.02.2018 16:40 -0,2 C 4,4 C 96 % 1017,4 hPa 0,0 l/m 8,5 km/h (2 Bft) O-SO 108 0 min 0,000 mm 0,0 UV-I 44 W/m -0,8 C -2,3 C 12,9 km/h (3 Bft) 96,15 %
17.02.2018 16:41 -0,2 C 4,4 C 96 % 1017,4 hPa 0,0 l/m 12,3 km/h (3 Bft) O-NO 70 0 min 0,000 mm 0,0 UV-I 41 W/m -0,8 C -5,4 C 16,1 km/h (3 Bft) 93,33 %
17.02.2018 16:42 -0,2 C 4,4 C 96 % 1017,4 hPa 0,0 l/m 12,4 km/h (3 Bft) SO 134 0 min 0,000 mm 0,0 UV-I 40 W/m -0,8 C -5,5 C 19,3 km/h (3 Bft) 100,00 %
17.02.2018 16:43 -0,2 C 4,4 C 96 % 1017,4 hPa 0,0 l/m 17,2 km/h (3 Bft) O 97 0 min 0,000 mm 0,0 UV-I 37 W/m -0,8 C -8,5 C 27,4 km/h (4 Bft) 95,83 %
17.02.2018 16:44 -0,2 C 4,4 C 96 % 1017,4 hPa 0,0 l/m 14,8 km/h (3 Bft) O-SO 105 0 min 0,000 mm 0,0 UV-I 34 W/m -0,8 C -7,1 C 19,3 km/h (3 Bft) 100,00 %
17.02.2018 16:45 -0,2 C 4,4 C 96 % 1017,4 hPa 0,0 l/m 12,9 km/h (3 Bft) O-SO 104 0 min 0,000 mm 0,0 UV-I 29 W/m -0,8 C -5,9 C 16,1 km/h (3 Bft) 95,83 %
17.02.2018 16:46 -0,2 C 4,4 C 96 % 1017,4 hPa 0,0 l/m 11,9 km/h (2 Bft) O-SO 109 0 min 0,000 mm 0,0 UV-I 23 W/m -0,8 C -5,2 C 17,7 km/h (3 Bft) 91,30 %
17.02.2018 16:47 -0,2 C 4,4 C 96 % 1017,4 hPa 0,0 l/m 17,8 km/h (3 Bft) O-SO 110 0 min 0,000 mm 0,0 UV-I 23 W/m -0,8 C -8,8 C 24,1 km/h (4 Bft) 96,30 %
17.02.2018 16:48 -0,3 C 4,4 C 96 % 1017,4 hPa 0,0 l/m 21,1 km/h (4 Bft) O 100 0 min 0,000 mm 0,0 UV-I 21 W/m -0,9 C -10,5 C 27,4 km/h (4 Bft) 91,30 %
17.02.2018 16:49 -0,3 C 4,4 C 96 % 1017,4 hPa 0,0 l/m 17,1 km/h (3 Bft) O-SO 102 0 min 0,000 mm 0,0 UV-I 18 W/m -0,9 C -8,6 C 20,9 km/h (4 Bft) 100,00 %
17.02.2018 16:50 -0,3 C 4,4 C 96 % 1017,5 hPa 0,0 l/m 17,5 km/h (3 Bft) O 100 0 min 0,000 mm 0,0 UV-I 18 W/m -0,9 C -8,8 C 20,9 km/h (4 Bft) 96,15 %
17.02.2018 16:51 -0,3 C 4,4 C 96 % 1017,4 hPa 0,0 l/m 15,4 km/h (3 Bft) O 101 0 min 0,000 mm 0,0 UV-I 16 W/m -0,9 C -7,6 C 20,9 km/h (4 Bft) 100,00 %
17.02.2018 16:52 -0,3 C 4,4 C 96 % 1017,4 hPa 0,0 l/m 18,0 km/h (3 Bft) SO 133 0 min 0,000 mm 0,0 UV-I 16 W/m -0,9 C -9,0 C 24,1 km/h (4 Bft) 95,65 %
17.02.2018 16:53 -0,3 C 4,4 C 96 % 1017,5 hPa 0,0 l/m 16,6 km/h (3 Bft) O 100 0 min 0,000 mm 0,0 UV-I 13 W/m -0,9 C -8,3 C 20,9 km/h (4 Bft) 95,83 %
17.02.2018 16:54 -0,3 C 4,4 C 96 % 1017,5 hPa 0,0 l/m 17,0 km/h (3 Bft) O-SO 103 0 min 0,000 mm 0,0 UV-I 12 W/m -0,9 C -8,5 C 19,3 km/h (3 Bft) 91,30 %
17.02.2018 16:55 -0,3 C 4,4 C 96 % 1017,5 hPa 0,0 l/m 10,4 km/h (2 Bft) SO 139 0 min 0,000 mm 0,0 UV-I 11 W/m -0,9 C -4,1 C 17,7 km/h (3 Bft) 100,00 %
17.02.2018 16:56 -0,3 C 4,4 C 96 % 1017,6 hPa 0,0 l/m 13,8 km/h (3 Bft) O 101 0 min 0,000 mm 0,0 UV-I 11 W/m -0,9 C -6,6 C 20,9 km/h (4 Bft) 91,67 %
17.02.2018 16:57 -0,3 C 4,4 C 96 % 1017,6 hPa 0,0 l/m 12,0 km/h (2 Bft) O-SO 120 0 min 0,000 mm 0,0 UV-I 11 W/m -0,9 C -5,3 C 19,3 km/h (3 Bft) 100,00 %
17.02.2018 16:58 -0,3 C 4,4 C 96 % 1017,6 hPa 0,0 l/m 12,2 km/h (2 Bft) O-NO 75 0 min 0,000 mm 0,0 UV-I 11 W/m -0,9 C -5,5 C 16,1 km/h (3 Bft) 96,67 %
17.02.2018 16:59 -0,3 C 4,4 C 96 % 1017,6 hPa 0,0 l/m 12,1 km/h (2 Bft) O-SO 114 0 min 0,000 mm 0,0 UV-I 11 W/m -0,9 C -5,4 C 17,7 km/h (3 Bft) 95,65 %
17.02.2018 17:00 -0,3 C 4,4 C 96 % 1017,5 hPa 0,0 l/m 12,9 km/h (3 Bft) O 82 0 min 0,000 mm 0,0 UV-I 10 W/m -0,9 C -6,0 C 19,3 km/h (3 Bft) 100,00 %
17.02.2018 17:01 -0,3 C 4,4 C 96 % 1017,5 hPa 0,0 l/m 14,2 km/h (3 Bft) O 82 0 min 0,026 mm 0,0 UV-I 10 W/m -0,9 C -6,8 C 19,3 km/h (3 Bft) 95,65 %
17.02.2018 17:02 -0,3 C 4,4 C 96 % 1017,6 hPa 0,0 l/m 10,3 km/h (2 Bft) O 84 0 min 0,000 mm 0,0 UV-I 10 W/m -0,9 C -4,0 C 16,1 km/h (3 Bft) 100,00 %
17.02.2018 17:03 -0,2 C 4,4 C 96 % 1017,5 hPa 0,0 l/m 12,7 km/h (3 Bft) O-SO 109 0 min 0,000 mm 0,0 UV-I 9 W/m -0,8 C -5,7 C 19,3 km/h (3 Bft) 100,00 %
17.02.2018 17:04 -0,2 C 4,4 C 96 % 1017,5 hPa 0,0 l/m 10,7 km/h (2 Bft) O 83 0 min 0,000 mm 0,0 UV-I 9 W/m -0,8 C -4,2 C 14,5 km/h (3 Bft) 100,00 %
17.02.2018 17:05 -0,2 C 4,4 C 96 % 1017,6 hPa 0,0 l/m 14,4 km/h (3 Bft) O-SO 102 0 min 0,000 mm 0,0 UV-I 9 W/m -0,8 C -6,9 C 24,1 km/h (4 Bft) 95,65 %
17.02.2018 17:06 -0,2 C 4,4 C 96 % 1017,5 hPa 0,0 l/m 16,8 km/h (3 Bft) O-SO 109 0 min 0,000 mm 0,0 UV-I 9 W/m -0,8 C -8,3 C 20,9 km/h (4 Bft) 100,00 %
17.02.2018 17:07 -0,2 C 4,4 C 96 % 1017,5 hPa 0,0 l/m 17,2 km/h (3 Bft) O-SO 107 0 min 0,000 mm 0,0 UV-I 9 W/m -0,8 C -8,5 C 20,9 km/h (4 Bft) 91,30 %
17.02.2018 17:08 -0,3 C 4,4 C 96 % 1017,5 hPa 0,0 l/m 14,1 km/h (3 Bft) O 83 0 min 0,000 mm 0,0 UV-I 9 W/m -0,9 C -6,8 C 19,3 km/h (3 Bft) 95,83 %
17.02.2018 17:09 -0,2 C 4,4 C 96 % 1017,4 hPa 0,0 l/m 16,2 km/h (3 Bft) O 83 0 min 0,000 mm 0,0 UV-I 9 W/m -0,8 C -7,9 C 19,3 km/h (3 Bft) 92,86 %
17.02.2018 17:10 -0,2 C 4,4 C 96 % 1017,5 hPa 0,0 l/m 17,6 km/h (3 Bft) O-SO 107 0 min 0,000 mm 0,0 UV-I 9 W/m -0,8 C -8,7 C 24,1 km/h (4 Bft) 100,00 %
17.02.2018 17:11 -0,2 C 4,4 C 96 % 1017,6 hPa 0,0 l/m 17,4 km/h (3 Bft) O 80 0 min 0,000 mm 0,0 UV-I 7 W/m -0,8 C -8,6 C 24,1 km/h (4 Bft) 95,65 %
17.02.2018 17:12 -0,2 C 4,4 C 96 % 1017,6 hPa 0,0 l/m 17,1 km/h (3 Bft) O 95 0 min 0,000 mm 0,0 UV-I 7 W/m -0,8 C -8,4 C 20,9 km/h (4 Bft) 100,00 %
17.02.2018 17:13 -0,2 C 4,4 C 96 % 1017,6 hPa 0,0 l/m 18,0 km/h (3 Bft) O 82 0 min 0,000 mm 0,0 UV-I 7 W/m -0,8 C -8,9 C 25,7 km/h (4 Bft) 100,00 %
17.02.2018 17:14 -0,2 C 4,4 C 96 % 1017,7 hPa 0,0 l/m 16,2 km/h (3 Bft) O 96 0 min 0,000 mm 0,0 UV-I 7 W/m -0,8 C -7,9 C 24,1 km/h (4 Bft) 95,65 %
17.02.2018 17:15 -0,2 C 4,4 C 96 % 1017,8 hPa 0,0 l/m 17,6 km/h (3 Bft) O-SO 110 0 min 0,000 mm 0,0 UV-I 7 W/m -0,8 C -8,7 C 22,5 km/h (4 Bft) 95,83 %
17.02.2018 17:16 -0,2 C 4,4 C 96 % 1017,7 hPa 0,0 l/m 15,5 km/h (3 Bft) O-SO 112 0 min 0,000 mm 0,0 UV-I 5 W/m -0,8 C -7,5 C 20,9 km/h (4 Bft) 100,00 %
17.02.2018 17:17 -0,2 C 4,4 C 96 % 1017,8 hPa 0,0 l/m 11,3 km/h (2 Bft) O 94 0 min 0,000 mm 0,0 UV-I 5 W/m -0,8 C -4,7 C 16,1 km/h (3 Bft) 100,00 %
17.02.2018 17:18 -0,2 C 4,4 C 96 % 1017,7 hPa 0,0 l/m 15,3 km/h (3 Bft) O 98 0 min 0,000 mm 0,0 UV-I 5 W/m -0,8 C -7,4 C 20,9 km/h (4 Bft) 95,65 %
17.02.2018 17:19 -0,2 C 4,4 C 96 % 1017,7 hPa 0,0 l/m 15,9 km/h (3 Bft) O 94 0 min 0,000 mm 0,0 UV-I 5 W/m -0,8 C -7,8 C 19,3 km/h (3 Bft) 95,83 %
17.02.2018 17:20 -0,2 C 4,4 C 96 % 1017,6 hPa 0,0 l/m 18,7 km/h (3 Bft) O-SO 107 0 min 0,000 mm 0,0 UV-I 5 W/m -0,8 C -9,3 C 24,1 km/h (4 Bft) 91,30 %
17.02.2018 17:21 -0,2 C 4,4 C 96 % 1017,6 hPa 0,0 l/m 13,3 km/h (3 Bft) O-SO 121 0 min 0,000 mm 0,0 UV-I 5 W/m -0,8 C -6,1 C 17,7 km/h (3 Bft) 100,00 %
17.02.2018 17:22 -0,2 C 4,4 C 96 % 1017,6 hPa 0,0 l/m 16,0 km/h (3 Bft) O 80 0 min 0,000 mm 0,0 UV-I 5 W/m -0,8 C -7,8 C 20,9 km/h (4 Bft) 100,00 %
17.02.2018 17:23 -0,2 C 4,4 C 96 % 1017,6 hPa 0,0 l/m 16,2 km/h (3 Bft) O 98 0 min 0,000 mm 0,0 UV-I 5 W/m -0,8 C -7,9 C 20,9 km/h (4 Bft) 95,83 %
17.02.2018 17:24 -0,2 C 4,4 C 96 % 1017,5 hPa 0,0 l/m 14,1 km/h (3 Bft) SO 126 0 min 0,000 mm 0,0 UV-I 5 W/m -0,8 C -6,7 C 19,3 km/h (3 Bft) 95,65 %
17.02.2018 17:25 -0,2 C 4,4 C 96 % 1017,4 hPa 0,0 l/m 15,1 km/h (3 Bft) O 99 0 min 0,000 mm 0,0 UV-I 5 W/m -0,8 C -7,3 C 20,9 km/h (4 Bft) 95,83 %
17.02.2018 17:26 -0,2 C 4,4 C 96 % 1017,4 hPa 0,0 l/m 16,5 km/h (3 Bft) O 92 0 min 0,000 mm 0,0 UV-I 5 W/m -0,8 C -8,1 C 20,9 km/h (4 Bft) 95,65 %
17.02.2018 17:27 -0,2 C 4,4 C 96 % 1017,4 hPa 0,0 l/m 16,2 km/h (3 Bft) O-SO 107 0 min 0,000 mm 0,0 UV-I 5 W/m -0,8 C -7,9 C 22,5 km/h (4 Bft) 95,83 %
17.02.2018 17:28 -0,2 C 4,4 C 96 % 1017,3 hPa 0,0 l/m 19,6 km/h (3 Bft) O 86 0 min 0,000 mm 0,0 UV-I 5 W/m -0,8 C -9,7 C 25,7 km/h (4 Bft) 95,65 %
17.02.2018 17:29 -0,2 C 4,4 C 96 % 1017,3 hPa 0,0 l/m 16,4 km/h (3 Bft) O 100 0 min 0,000 mm 0,0 UV-I 3 W/m -0,8 C -8,0 C 22,5 km/h (4 Bft) 91,67 %
17.02.2018 17:30 -0,2 C 4,4 C 96 % 1017,3 hPa 0,0 l/m 14,3 km/h (3 Bft) O 100 0 min 0,000 mm 0,0 UV-I 0 W/m -0,8 C -6,8 C 19,3 km/h (3 Bft) 96,15 %
17.02.2018 17:31 -0,2 C 4,4 C 96 % 1017,4 hPa 0,0 l/m 10,1 km/h (2 Bft) O 96 0 min 0,000 mm 0,0 UV-I 0 W/m -0,8 C -3,8 C 14,5 km/h (3 Bft) 100,00 %
17.02.2018 17:32 -0,2 C 4,4 C 96 % 1017,5 hPa 0,0 l/m 10,8 km/h (2 Bft) O-SO 116 0 min 0,000 mm 0,0 UV-I 0 W/m -0,8 C -4,3 C 17,7 km/h (3 Bft) 95,83 %
17.02.2018 17:33 -0,2 C 4,4 C 96 % 1017,5 hPa 0,0 l/m 13,7 km/h (3 Bft) O 96 0 min 0,000 mm 0,0 UV-I 0 W/m -0,8 C -6,4 C 19,3 km/h (3 Bft) 95,65 %
17.02.2018 17:34 -0,2 C 4,4 C 96 % 1017,5 hPa 0,0 l/m 13,9 km/h (3 Bft) O 87 0 min 0,000 mm 0,0 UV-I 0 W/m -0,8 C -6,5 C 17,7 km/h (3 Bft) 95,83 %
17.02.2018 17:35 -0,2 C 4,4 C 96 % 1017,6 hPa 0,0 l/m 14,4 km/h (3 Bft) O 90 0 min 0,000 mm 0,0 UV-I 0 W/m -0,8 C -6,9 C 19,3 km/h (3 Bft) 96,15 %
17.02.2018 17:36 -0,2 C 4,4 C 96 % 1017,6 hPa 0,0 l/m 12,3 km/h (3 Bft) O 82 0 min 0,000 mm 0,0 UV-I 0 W/m -0,8 C -5,4 C 17,7 km/h (3 Bft) 95,83 %
17.02.2018 17:37 -0,2 C 4,4 C 96 % 1017,6 hPa 0,0 l/m 12,5 km/h (3 Bft) O 84 0 min 0,000 mm 0,0 UV-I 0 W/m -0,8 C -5,6 C 16,1 km/h (3 Bft) 95,65 %
17.02.2018 17:38 -0,2 C 4,4 C 96 % 1017,6 hPa 0,0 l/m 13,1 km/h (3 Bft) O-NO 78 0 min 0,000 mm 0,0 UV-I 0 W/m -0,8 C -6,0 C 16,1 km/h (3 Bft) 100,00 %
17.02.2018 17:39 -0,2 C 4,4 C 96 % 1017,6 hPa 0,0 l/m 16,0 km/h (3 Bft) O 94 0 min 0,000 mm 0,0 UV-I 0 W/m -0,8 C -7,8 C 20,9 km/h (4 Bft) 95,65 %
17.02.2018 17:40 -0,2 C 4,4 C 96 % 1017,6 hPa 0,0 l/m 15,6 km/h (3 Bft) O 97 0 min 0,000 mm 0,0 UV-I 0 W/m -0,8 C -7,6 C 17,7 km/h (3 Bft) 100,00 %
17.02.2018 17:41 -0,2 C 4,4 C 96 % 1017,6 hPa 0,0 l/m 13,5 km/h (3 Bft) O-SO 105 0 min 0,000 mm 0,0 UV-I 0 W/m -0,8 C -6,3 C 17,7 km/h (3 Bft) 95,65 %
17.02.2018 17:42 -0,2 C 4,4 C 96 % 1017,7 hPa 0,0 l/m 9,0 km/h (2 Bft) O-NO 67 0 min 0,000 mm 0,0 UV-I 0 W/m -0,8 C -2,8 C 12,9 km/h (3 Bft) 96,30 %
17.02.2018 17:43 -0,2 C 4,4 C 96 % 1017,7 hPa 0,0 l/m 10,3 km/h (2 Bft) O-SO 105 0 min 0,000 mm 0,0 UV-I 0 W/m -0,8 C -3,9 C 14,5 km/h (3 Bft) 100,00 %
17.02.2018 17:44 -0,2 C 4,4 C 96 % 1017,6 hPa 0,0 l/m 10,4 km/h (2 Bft) O-SO 106 0 min 0,000 mm 0,0 UV-I 0 W/m -0,8 C -4,0 C 12,9 km/h (3 Bft) 100,00 %
17.02.2018 17:45 -0,2 C 4,4 C 96 % 1017,6 hPa 0,0 l/m 9,7 km/h (2 Bft) O-NO 74 0 min 0,000 mm 0,0 UV-I 0 W/m -0,8 C -3,4 C 14,5 km/h (3 Bft) 82,61 %
17.02.2018 17:46 -0,2 C 4,4 C 96 % 1017,6 hPa 0,0 l/m 12,2 km/h (2 Bft) O-NO 66 0 min 0,000 mm 0,0 UV-I 0 W/m -0,8 C -5,4 C 17,7 km/h (3 Bft) 95,83 %
17.02.2018 17:47 -0,2 C 4,4 C 96 % 1017,6 hPa 0,0 l/m 14,3 km/h (3 Bft) O 89 0 min 0,000 mm 0,0 UV-I 0 W/m -0,8 C -6,8 C 19,3 km/h (3 Bft) 100,00 %
17.02.2018 17:48 -0,2 C 4,4 C 96 % 1017,7 hPa 0,0 l/m 11,5 km/h (2 Bft) O 90 0 min 0,000 mm 0,0 UV-I 0 W/m -0,8 C -4,9 C 14,5 km/h (3 Bft) 95,83 %
17.02.2018 17:49 -0,2 C 4,4 C 96 % 1017,7 hPa 0,0 l/m 10,8 km/h (2 Bft) O-NO 65 0 min 0,000 mm 0,0 UV-I 0 W/m -0,8 C -4,3 C 14,5 km/h (3 Bft) 95,65 %
17.02.2018 17:50 -0,2 C 4,4 C 96 % 1017,7 hPa 0,0 l/m 11,1 km/h (2 Bft) O 84 0 min 0,000 mm 0,0 UV-I 0 W/m -0,8 C -4,6 C 14,5 km/h (3 Bft) 100,00 %
17.02.2018 17:51 -0,2 C 4,4 C 96 % 1017,6 hPa 0,0 l/m 11,3 km/h (2 Bft) O 90 0 min 0,000 mm 0,0 UV-I 0 W/m -0,8 C -4,7 C 14,5 km/h (3 Bft) 95,65 %
17.02.2018 17:52 -0,2 C 4,4 C 96 % 1017,7 hPa 0,0 l/m 12,3 km/h (3 Bft) O-NO 57 0 min 0,000 mm 0,0 UV-I 0 W/m -0,8 C -5,4 C 14,5 km/h (3 Bft) 87,50 %
17.02.2018 17:53 -0,2 C 4,4 C 96 % 1017,7 hPa 0,0 l/m 12,0 km/h (2 Bft) O 83 0 min 0,000 mm 0,0 UV-I 0 W/m -0,8 C -5,2 C 14,5 km/h (3 Bft) 91,67 %
17.02.2018 17:54 -0,2 C 4,4 C 96 % 1017,7 hPa 0,0 l/m 12,3 km/h (3 Bft) O-NO 72 0 min 0,000 mm 0,0 UV-I 0 W/m -0,8 C -5,4 C 16,1 km/h (3 Bft) 94,74 %
17.02.2018 17:55 -0,2 C 4,4 C 96 % 1017,6 hPa 0,0 l/m 14,1 km/h (3 Bft) O 92 0 min 0,000 mm 0,0 UV-I 0 W/m -0,8 C -6,7 C 17,7 km/h (3 Bft) 95,83 %
17.02.2018 17:56 -0,2 C 4,4 C 96 % 1017,6 hPa 0,0 l/m 16,4 km/h (3 Bft) O-NO 78 0 min 0,000 mm 0,0 UV-I 0 W/m -0,8 C -8,0 C 20,9 km/h (4 Bft) 100,00 %
17.02.2018 17:57 -0,2 C 4,4 C 96 % 1017,6 hPa 0,0 l/m 15,5 km/h (3 Bft) O 90 0 min 0,000 mm 0,0 UV-I 0 W/m -0,8 C -7,5 C 19,3 km/h (3 Bft) 100,00 %
17.02.2018 17:58 -0,2 C 4,4 C 96 % 1017,6 hPa 0,0 l/m 14,8 km/h (3 Bft) O 83 0 min 0,000 mm 0,0 UV-I 0 W/m -0,8 C -7,1 C 17,7 km/h (3 Bft) 100,00 %
17.02.2018 17:59 -0,2 C 4,4 C 96 % 1017,6 hPa 0,0 l/m 12,8 km/h (3 Bft) O-NO 64 0 min 0,000 mm 0,0 UV-I 0 W/m -0,8 C -5,8 C 17,7 km/h (3 Bft) 95,83 %
17.02.2018 18:00 -0,2 C 4,4 C 96 % 1017,6 hPa 0,0 l/m 13,0 km/h (3 Bft) O-NO 64 0 min 0,000 mm 0,0 UV-I 0 W/m -0,8 C -5,9 C 16,1 km/h (3 Bft) 96,15 %
17.02.2018 18:01 -0,2 C 4,4 C 96 % 1017,6 hPa 0,0 l/m 13,5 km/h (3 Bft) O 81 0 min 0,000 mm 0,0 UV-I 0 W/m -0,8 C -6,3 C 16,1 km/h (3 Bft) 100,00 %
17.02.2018 18:02 -0,2 C 4,4 C 96 % 1017,6 hPa 0,0 l/m 13,5 km/h (3 Bft) O 85 0 min 0,000 mm 0,0 UV-I 0 W/m -0,8 C -6,3 C 17,7 km/h (3 Bft) 100,00 %
17.02.2018 18:03 -0,2 C 4,4 C 96 % 1017,6 hPa 0,0 l/m 12,5 km/h (3 Bft) O-NO 78 0 min 0,000 mm 0,0 UV-I 0 W/m -0,8 C -5,6 C 16,1 km/h (3 Bft) 93,33 %
17.02.2018 18:04 -0,2 C 4,4 C 96 % 1017,6 hPa 0,0 l/m 11,3 km/h (2 Bft) O 86 0 min 0,000 mm 0,0 UV-I 0 W/m -0,8 C -4,7 C 17,7 km/h (3 Bft) 86,96 %
17.02.2018 18:05 -0,2 C 4,4 C 96 % 1017,6 hPa 0,0 l/m 11,7 km/h (2 Bft) O-NO 75 0 min 0,000 mm 0,0 UV-I 0 W/m -0,8 C -5,0 C 16,1 km/h (3 Bft) 91,67 %
17.02.2018 18:06 -0,2 C 4,4 C 96 % 1017,6 hPa 0,0 l/m 13,1 km/h (3 Bft) O-NO 74 0 min 0,000 mm 0,0 UV-I 0 W/m -0,8 C -6,0 C 16,1 km/h (3 Bft) 100,00 %
17.02.2018 18:07 -0,2 C 4,4 C 96 % 1017,6 hPa 0,0 l/m 13,2 km/h (3 Bft) O-NO 69 0 min 0,000 mm 0,0 UV-I 0 W/m -0,8 C -6,1 C 16,1 km/h (3 Bft) 100,00 %
17.02.2018 18:08 -0,2 C 4,4 C 96 % 1017,6 hPa 0,0 l/m 15,7 km/h (3 Bft) O-NO 78 0 min 0,000 mm 0,0 UV-I 0 W/m -0,8 C -7,6 C 19,3 km/h (3 Bft) 100,00 %
17.02.2018 18:09 -0,2 C 4,4 C 96 % 1017,6 hPa 0,0 l/m 12,7 km/h (3 Bft) O 96 0 min 0,000 mm 0,0 UV-I 0 W/m -0,8 C -5,7 C 16,1 km/h (3 Bft) 100,00 %
17.02.2018 18:10 -0,3 C 4,4 C 96 % 1017,6 hPa 0,0 l/m 9,3 km/h (2 Bft) O-NO 70 0 min 0,000 mm 0,0 UV-I 0 W/m -0,9 C -3,2 C 14,5 km/h (3 Bft) 100,00 %
17.02.2018 18:11 -0,2 C 4,4 C 96 % 1017,6 hPa 0,0 l/m 14,6 km/h (3 Bft) O-NO 76 0 min 0,000 mm 0,0 UV-I 0 W/m -0,8 C -7,0 C 17,7 km/h (3 Bft) 95,83 %
17.02.2018 18:12 -0,3 C 4,4 C 96 % 1017,6 hPa 0,0 l/m 13,4 km/h (3 Bft) O-NO 69 0 min 0,000 mm 0,0 UV-I 0 W/m -0,9 C -6,3 C 17,7 km/h (3 Bft) 100,00 %
17.02.2018 18:13 -0,3 C 4,4 C 96 % 1017,6 hPa 0,0 l/m 10,6 km/h (2 Bft) O 98 0 min 0,000 mm 0,0 UV-I 0 W/m -0,9 C -4,3 C 16,1 km/h (3 Bft) 100,00 %
17.02.2018 18:14 -0,3 C 4,4 C 96 % 1017,6 hPa 0,0 l/m 12,7 km/h (3 Bft) O 80 0 min 0,000 mm 0,0 UV-I 0 W/m -0,9 C -5,8 C 16,1 km/h (3 Bft) 100,00 %
17.02.2018 18:15 -0,3 C 4,4 C 96 % 1017,7 hPa 0,0 l/m 10,9 km/h (2 Bft) O-NO 69 0 min 0,000 mm 0,0 UV-I 0 W/m -0,9 C -4,5 C 16,1 km/h (3 Bft) 100,00 %
17.02.2018 18:16 -0,3 C 4,4 C 96 % 1017,6 hPa 0,0 l/m 11,3 km/h (2 Bft) O 83 0 min 0,000 mm 0,0 UV-I 0 W/m -0,9 C -4,8 C 16,1 km/h (3 Bft) 100,00 %
17.02.2018 18:18 -0,3 C 4,4 C 96 % 1017,7 hPa 0,0 l/m 10,8 km/h (2 Bft) O-SO 105 0 min 0,000 mm 0,0 UV-I 0 W/m -0,9 C -4,4 C 14,5 km/h (3 Bft) 98,11 %
17.02.2018 18:19 -0,3 C 4,4 C 96 % 1017,7 hPa 0,0 l/m 13,9 km/h (3 Bft) O-NO 60 0 min 0,000 mm 0,0 UV-I 0 W/m -0,9 C -6,7 C 16,1 km/h (3 Bft) 95,65 %
17.02.2018 18:20 -0,3 C 4,4 C 96 % 1017,6 hPa 0,0 l/m 11,3 km/h (2 Bft) NO 54 0 min 0,000 mm 0,0 UV-I 0 W/m -0,9 C -4,8 C 17,7 km/h (3 Bft) 100,00 %
17.02.2018 18:21 -0,3 C 4,4 C 96 % 1017,7 hPa 0,0 l/m 10,3 km/h (2 Bft) O-NO 67 0 min 0,000 mm 0,0 UV-I 0 W/m -0,9 C -4,0 C 14,5 km/h (3 Bft) 95,65 %
17.02.2018 18:22 -0,3 C 4,4 C 96 % 1017,7 hPa 0,0 l/m 12,7 km/h (3 Bft) O 85 0 min 0,000 mm 0,0 UV-I 0 W/m -0,9 C -5,8 C 16,1 km/h (3 Bft) 100,00 %
17.02.2018 18:23 -0,3 C 4,4 C 96 % 1017,7 hPa 0,0 l/m 10,1 km/h (2 Bft) O 88 0 min 0,000 mm 0,0 UV-I 0 W/m -0,9 C -3,9 C 12,9 km/h (3 Bft) 100,00 %
17.02.2018 18:24 -0,3 C 4,4 C 96 % 1017,8 hPa 0,0 l/m 12,1 km/h (2 Bft) O 98 0 min 0,000 mm 0,0 UV-I 0 W/m -0,9 C -5,4 C 19,3 km/h (3 Bft) 100,00 %
17.02.2018 18:25 -0,3 C 4,4 C 96 % 1017,8 hPa 0,0 l/m 13,5 km/h (3 Bft) O 92 0 min 0,000 mm 0,0 UV-I 0 W/m -0,9 C -6,4 C 16,1 km/h (3 Bft) 100,00 %
17.02.2018 18:26 -0,3 C 4,4 C 96 % 1017,8 hPa 0,0 l/m 14,3 km/h (3 Bft) O 84 0 min 0,000 mm 0,0 UV-I 0 W/m -0,9 C -6,9 C 19,3 km/h (3 Bft) 100,00 %
17.02.2018 18:27 -0,3 C 4,4 C 96 % 1017,8 hPa 0,0 l/m 10,7 km/h (2 Bft) O 82 0 min 0,000 mm 0,0 UV-I 0 W/m -0,9 C -4,4 C 14,5 km/h (3 Bft) 100,00 %
17.02.2018 18:28 -0,3 C 4,4 C 96 % 1017,8 hPa 0,0 l/m 11,5 km/h (2 Bft) O-NO 74 0 min 0,000 mm 0,0 UV-I 0 W/m -0,9 C -5,0 C 16,1 km/h (3 Bft) 100,00 %
17.02.2018 18:29 -0,3 C 4,4 C 96 % 1017,8 hPa 0,0 l/m 9,1 km/h (2 Bft) O 91 0 min 0,000 mm 0,0 UV-I 0 W/m -0,9 C -3,0 C 12,9 km/h (3 Bft) 100,00 %
17.02.2018 18:30 -0,3 C 4,4 C 96 % 1017,8 hPa 0,0 l/m 8,3 km/h (2 Bft) O-NO 67 0 min 0,000 mm 0,0 UV-I 0 W/m -0,9 C -2,3 C 11,3 km/h (2 Bft) 100,00 %
17.02.2018 18:31 -0,3 C 4,4 C 96 % 1017,8 hPa 0,0 l/m 11,4 km/h (2 Bft) O-NO 78 0 min 0,000 mm 0,0 UV-I 0 W/m -0,9 C -4,9 C 14,5 km/h (3 Bft) 95,83 %
17.02.2018 18:32 -0,3 C 4,4 C 96 % 1017,8 hPa 0,0 l/m 14,9 km/h (3 Bft) O 82 0 min 0,000 mm 0,0 UV-I 0 W/m -0,9 C -7,3 C 17,7 km/h (3 Bft) 100,00 %
17.02.2018 18:33 -0,3 C 4,4 C 96 % 1017,8 hPa 0,0 l/m 11,5 km/h (2 Bft) O-NO 69 0 min 0,000 mm 0,0 UV-I 0 W/m -0,9 C -5,0 C 16,1 km/h (3 Bft) 100,00 %
17.02.2018 18:34 -0,3 C 4,4 C 96 % 1017,8 hPa 0,0 l/m 9,9 km/h (2 Bft) O 79 0 min 0,000 mm 0,0 UV-I 0 W/m -0,9 C -3,7 C 14,5 km/h (3 Bft) 100,00 %
17.02.2018 18:35 -0,3 C 4,4 C 96 % 1017,8 hPa 0,0 l/m 9,9 km/h (2 Bft) O 80 0 min 0,000 mm 0,0 UV-I 0 W/m -0,9 C -3,7 C 14,5 km/h (3 Bft) 100,00 %
17.02.2018 18:36 -0,3 C 4,4 C 96 % 1017,8 hPa 0,0 l/m 12,7 km/h (3 Bft) O 79 0 min 0,000 mm 0,0 UV-I 0 W/m -0,9 C -5,8 C 16,1 km/h (3 Bft) 96,30 %
17.02.2018 18:37 -0,3 C 4,4 C 96 % 1017,8 hPa 0,0 l/m 11,6 km/h (2 Bft) O 79 0 min 0,000 mm 0,0 UV-I 0 W/m -0,9 C -5,1 C 14,5 km/h (3 Bft) 100,00 %
17.02.2018 18:38 -0,3 C 4,4 C 96 % 1017,9 hPa 0,0 l/m 13,1 km/h (3 Bft) O-NO 69 0 min 0,000 mm 0,0 UV-I 0 W/m -0,9 C -6,1 C 16,1 km/h (3 Bft) 95,65 %
17.02.2018 18:39 -0,3 C 4,4 C 96 % 1017,8 hPa 0,0 l/m 9,8 km/h (2 Bft) O-NO 70 0 min 0,000 mm 0,0 UV-I 0 W/m -0,9 C -3,6 C 12,9 km/h (3 Bft) 100,00 %
17.02.2018 18:40 -0,3 C 4,4 C 97 % 1017,8 hPa 0,0 l/m 8,9 km/h (2 Bft) O-NO 67 0 min 0,000 mm 0,0 UV-I 0 W/m -0,7 C -2,8 C 12,9 km/h (3 Bft) 95,65 %
17.02.2018 18:41 -0,3 C 4,4 C 97 % 1017,9 hPa 0,0 l/m 9,7 km/h (2 Bft) O-NO 69 0 min 0,000 mm 0,0 UV-I 0 W/m -0,7 C -3,5 C 12,9 km/h (3 Bft) 100,00 %
17.02.2018 18:42 -0,3 C 4,4 C 97 % 1017,9 hPa 0,0 l/m 7,8 km/h (2 Bft) O-NO 68 0 min 0,000 mm 0,0 UV-I 0 W/m -0,7 C -1,8 C 12,9 km/h (3 Bft) 95,65 %
17.02.2018 18:43 -0,3 C 4,4 C 97 % 1018,0 hPa 0,0 l/m 6,8 km/h (2 Bft) O 90 0 min 0,000 mm 0,0 UV-I 0 W/m -0,7 C -0,7 C 9,7 km/h (2 Bft) 100,00 %
17.02.2018 18:44 -0,3 C 4,4 C 97 % 1018,0 hPa 0,0 l/m 5,7 km/h (1 Bft) O 80 0 min 0,000 mm 0,0 UV-I 0 W/m -0,7 C -0,3 C 9,7 km/h (2 Bft) 100,00 %
17.02.2018 18:45 -0,3 C 4,4 C 97 % 1017,9 hPa 0,0 l/m 5,4 km/h (1 Bft) O 79 0 min 0,000 mm 0,0 UV-I 0 W/m -0,7 C -0,3 C 8,0 km/h (2 Bft) 100,00 %
17.02.2018 18:46 -0,3 C 4,4 C 97 % 1017,9 hPa 0,0 l/m 8,6 km/h (2 Bft) O-NO 74 0 min 0,000 mm 0,0 UV-I 0 W/m -0,7 C -2,5 C 12,9 km/h (3 Bft) 100,00 %
17.02.2018 18:47 -0,3 C 4,4 C 97 % 1017,9 hPa 0,0 l/m 9,7 km/h (2 Bft) O-NO 59 0 min 0,000 mm 0,0 UV-I 0 W/m -0,7 C -3,5 C 12,9 km/h (3 Bft) 100,00 %
17.02.2018 18:48 -0,3 C 4,4 C 97 % 1017,9 hPa 0,0 l/m 9,4 km/h (2 Bft) O-NO 70 0 min 0,000 mm 0,0 UV-I 0 W/m -0,7 C -3,3 C 14,5 km/h (3 Bft) 100,00 %
17.02.2018 18:49 -0,3 C 4,4 C 97 % 1017,9 hPa 0,0 l/m 9,2 km/h (2 Bft) O 80 0 min 0,000 mm 0,0 UV-I 0 W/m -0,7 C -3,1 C 11,3 km/h (2 Bft) 100,00 %
17.02.2018 18:50 -0,3 C 4,4 C 97 % 1017,9 hPa 0,0 l/m 8,0 km/h (2 Bft) O-NO 71 0 min 0,000 mm 0,0 UV-I 0 W/m -0,7 C -2,0 C 12,9 km/h (3 Bft) 95,83 %
17.02.2018 18:51 -0,3 C 4,4 C 97 % 1017,9 hPa 0,0 l/m 8,6 km/h (2 Bft) O-NO 71 0 min 0,000 mm 0,0 UV-I 0 W/m -0,7 C -2,5 C 12,9 km/h (3 Bft) 100,00 %
17.02.2018 18:52 -0,4 C 4,4 C 97 % 1017,9 hPa 0,0 l/m 8,0 km/h (2 Bft) NO 44 0 min 0,000 mm 0,0 UV-I 0 W/m -0,8 C -2,1 C 11,3 km/h (2 Bft) 100,00 %
17.02.2018 18:53 -0,3 C 4,4 C 97 % 1017,9 hPa 0,0 l/m 6,4 km/h (2 Bft) O 97 0 min 0,000 mm 0,0 UV-I 0 W/m -0,7 C -0,3 C 9,7 km/h (2 Bft) 96,15 %
17.02.2018 18:54 -0,4 C 4,4 C 97 % 1017,9 hPa 0,0 l/m 7,7 km/h (2 Bft) O-NO 63 0 min 0,000 mm 0,0 UV-I 0 W/m -0,8 C -1,8 C 12,9 km/h (3 Bft) 100,00 %
17.02.2018 18:55 -0,3 C 4,4 C 97 % 1017,9 hPa 0,0 l/m 7,4 km/h (2 Bft) O-NO 62 0 min 0,000 mm 0,0 UV-I 0 W/m -0,7 C -1,4 C 11,3 km/h (2 Bft) 95,65 %
17.02.2018 18:56 -0,4 C 4,4 C 97 % 1017,9 hPa 0,0 l/m 7,2 km/h (2 Bft) NO 38 0 min 0,000 mm 0,0 UV-I 0 W/m -0,8 C -1,2 C 12,9 km/h (3 Bft) 100,00 %
17.02.2018 18:57 -0,4 C 4,4 C 97 % 1018,0 hPa 0,0 l/m 5,0 km/h (1 Bft) NO 48 0 min 0,000 mm 0,0 UV-I 0 W/m -0,8 C -0,4 C 8,0 km/h (2 Bft) 100,00 %
17.02.2018 18:58 -0,4 C 4,4 C 97 % 1018,0 hPa 0,0 l/m 7,8 km/h (2 Bft) O-NO 57 0 min 0,000 mm 0,0 UV-I 0 W/m -0,8 C -1,9 C 9,7 km/h (2 Bft) 95,83 %
17.02.2018 18:59 -0,4 C 4,4 C 97 % 1018,0 hPa 0,0 l/m 7,6 km/h (2 Bft) NO 54 0 min 0,000 mm 0,0 UV-I 0 W/m -0,8 C -1,7 C 11,3 km/h (2 Bft) 100,00 %
17.02.2018 19:00 -0,4 C 4,4 C 97 % 1018,0 hPa 0,0 l/m 8,8 km/h (2 Bft) NO 56 0 min 0,000 mm 0,0 UV-I 0 W/m -0,8 C -2,8 C 12,9 km/h (3 Bft) 100,00 %
17.02.2018 19:01 -0,4 C 4,4 C 97 % 1018,0 hPa 0,0 l/m 8,6 km/h (2 Bft) O-NO 71 0 min 0,000 mm 0,0 UV-I 0 W/m -0,8 C -2,6 C 12,9 km/h (3 Bft) 100,00 %
17.02.2018 19:02 -0,4 C 4,4 C 97 % 1018,0 hPa 0,0 l/m 6,8 km/h (2 Bft) O-NO 62 0 min 0,000 mm 0,0 UV-I 0 W/m -0,8 C -0,8 C 9,7 km/h (2 Bft) 100,00 %
17.02.2018 19:03 -0,4 C 4,4 C 97 % 1018,0 hPa 0,0 l/m 5,9 km/h (2 Bft) O 86 0 min 0,000 mm 0,0 UV-I 0 W/m -0,8 C -0,4 C 9,7 km/h (2 Bft) 100,00 %
17.02.2018 19:04 -0,4 C 4,4 C 97 % 1018,1 hPa 0,0 l/m 6,7 km/h (2 Bft) O-NO 63 0 min 0,000 mm 0,0 UV-I 0 W/m -0,8 C -0,7 C 9,7 km/h (2 Bft) 100,00 %
17.02.2018 19:05 -0,4 C 4,4 C 97 % 1018,1 hPa 0,0 l/m 5,9 km/h (2 Bft) NO 45 0 min 0,000 mm 0,0 UV-I 0 W/m -0,8 C -0,4 C 8,0 km/h (2 Bft) 100,00 %
17.02.2018 19:06 -0,4 C 4,4 C 97 % 1018,2 hPa 0,0 l/m 5,8 km/h (2 Bft) O-NO 65 0 min 0,000 mm 0,0 UV-I 0 W/m -0,8 C -0,4 C 8,0 km/h (2 Bft) 100,00 %
17.02.2018 19:07 -0,4 C 4,4 C 97 % 1018,2 hPa 0,0 l/m 6,2 km/h (2 Bft) NO 44 0 min 0,000 mm 0,0 UV-I 0 W/m -0,8 C -0,4 C 9,7 km/h (2 Bft) 100,00 %
17.02.2018 19:08 -0,4 C 4,4 C 97 % 1018,2 hPa 0,0 l/m 6,2 km/h (2 Bft) NO 48 0 min 0,000 mm 0,0 UV-I 0 W/m -0,8 C -0,4 C 8,0 km/h (2 Bft) 100,00 %
17.02.2018 19:09 -0,4 C 4,4 C 97 % 1018,2 hPa 0,0 l/m 5,4 km/h (1 Bft) O-NO 62 0 min 0,000 mm 0,0 UV-I 0 W/m -0,8 C -0,4 C 8,0 km/h (2 Bft) 95,65 %
17.02.2018 19:10 -0,4 C 4,4 C 97 % 1018,3 hPa 0,0 l/m 6,8 km/h (2 Bft) O-NO 59 0 min 0,000 mm 0,0 UV-I 0 W/m -0,8 C -0,8 C 8,0 km/h (2 Bft) 100,00 %
17.02.2018 19:11 -0,4 C 4,4 C 97 % 1018,3 hPa 0,0 l/m 6,9 km/h (2 Bft) NO 44 0 min 0,000 mm 0,0 UV-I 0 W/m -0,8 C -0,9 C 9,7 km/h (2 Bft) 100,00 %
17.02.2018 19:12 -0,4 C 4,4 C 97 % 1018,3 hPa 0,0 l/m 5,8 km/h (2 Bft) NO 54 0 min 0,000 mm 0,0 UV-I 0 W/m -0,8 C -0,4 C 6,4 km/h (2 Bft) 93,33 %
17.02.2018 19:13 -0,4 C 4,4 C 97 % 1018,3 hPa 0,0 l/m 6,8 km/h (2 Bft) NO 53 0 min 0,000 mm 0,0 UV-I 0 W/m -0,8 C -0,8 C 8,0 km/h (2 Bft) 95,83 %
17.02.2018 19:14 -0,4 C 4,4 C 97 % 1018,3 hPa 0,0 l/m 5,9 km/h (2 Bft) NO 53 0 min 0,000 mm 0,0 UV-I 0 W/m -0,8 C -0,4 C 8,0 km/h (2 Bft) 95,65 %
17.02.2018 19:15 -0,4 C 4,4 C 97 % 1018,3 hPa 0,0 l/m 7,0 km/h (2 Bft) NO 39 0 min 0,000 mm 0,0 UV-I 0 W/m -0,8 C -1,0 C 8,0 km/h (2 Bft) 95,83 %
17.02.2018 19:16 -0,4 C 4,4 C 97 % 1018,2 hPa 0,0 l/m 7,0 km/h (2 Bft) NO 44 0 min 0,000 mm 0,0 UV-I 0 W/m -0,8 C -1,0 C 9,7 km/h (2 Bft) 91,30 %
17.02.2018 19:18 -0,4 C 4,4 C 97 % 1018,3 hPa 0,0 l/m 8,4 km/h (2 Bft) NO 42 0 min 0,000 mm 0,0 UV-I 0 W/m -0,8 C -2,5 C 11,3 km/h (2 Bft) 100,00 %
17.02.2018 19:19 -0,4 C 4,4 C 97 % 1018,3 hPa 0,0 l/m 8,6 km/h (2 Bft) O-NO 61 0 min 0,000 mm 0,0 UV-I 0 W/m -0,8 C -2,6 C 9,7 km/h (2 Bft) 100,00 %
17.02.2018 19:20 -0,4 C 4,4 C 97 % 1018,2 hPa 0,0 l/m 6,9 km/h (2 Bft) O-NO 57 0 min 0,000 mm 0,0 UV-I 0 W/m -0,8 C -0,9 C 9,7 km/h (2 Bft) 100,00 %
17.02.2018 19:21 -0,4 C 4,4 C 97 % 1018,2 hPa 0,0 l/m 8,1 km/h (2 Bft) O-NO 63 0 min 0,000 mm 0,0 UV-I 0 W/m -0,8 C -2,2 C 9,7 km/h (2 Bft) 95,83 %
17.02.2018 19:22 -0,4 C 4,4 C 97 % 1018,2 hPa 0,0 l/m 8,7 km/h (2 Bft) NO 44 0 min 0,000 mm 0,0 UV-I 0 W/m -0,8 C -2,7 C 11,3 km/h (2 Bft) 100,00 %
17.02.2018 19:23 -0,4 C 4,4 C 97 % 1018,2 hPa 0,0 l/m 9,4 km/h (2 Bft) NO 41 0 min 0,000 mm 0,0 UV-I 0 W/m -0,8 C -3,4 C 12,9 km/h (3 Bft) 100,00 %
17.02.2018 19:24 -0,4 C 4,4 C 97 % 1018,2 hPa 0,0 l/m 7,8 km/h (2 Bft) NO 42 0 min 0,000 mm 0,0 UV-I 0 W/m -0,8 C -1,9 C 9,7 km/h (2 Bft) 100,00 %
17.02.2018 19:25 -0,4 C 4,4 C 97 % 1018,3 hPa 0,0 l/m 6,2 km/h (2 Bft) O-NO 59 0 min 0,000 mm 0,0 UV-I 0 W/m -0,8 C -0,4 C 8,0 km/h (2 Bft) 100,00 %
17.02.2018 19:26 -0,4 C 4,4 C 97 % 1018,3 hPa 0,0 l/m 6,9 km/h (2 Bft) NO 46 0 min 0,000 mm 0,0 UV-I 0 W/m -0,8 C -0,9 C 9,7 km/h (2 Bft) 95,65 %
17.02.2018 19:27 -0,4 C 4,4 C 97 % 1018,2 hPa 0,0 l/m 6,2 km/h (2 Bft) NO 44 0 min 0,000 mm 0,0 UV-I 0 W/m -0,8 C -0,4 C 8,0 km/h (2 Bft) 95,83 %
17.02.2018 19:28 -0,4 C 4,4 C 97 % 1018,3 hPa 0,0 l/m 6,6 km/h (2 Bft) NO 38 0 min 0,000 mm 0,0 UV-I 0 W/m -0,8 C -0,6 C 9,7 km/h (2 Bft) 95,83 %
17.02.2018 19:29 -0,4 C 4,4 C 97 % 1018,3 hPa 0,0 l/m 8,0 km/h (2 Bft) NO 42 0 min 0,000 mm 0,0 UV-I 0 W/m -0,8 C -2,1 C 9,7 km/h (2 Bft) 95,65 %
17.02.2018 19:30 -0,4 C 4,4 C 97 % 1018,3 hPa 0,0 l/m 8,2 km/h (2 Bft) NO 38 0 min 0,000 mm 0,0 UV-I 0 W/m -0,8 C -2,3 C 9,7 km/h (2 Bft) 95,83 %
17.02.2018 19:31 -0,4 C 4,4 C 97 % 1018,3 hPa 0,0 l/m 7,7 km/h (2 Bft) NO 45 0 min 0,000 mm 0,0 UV-I 0 W/m -0,8 C -1,8 C 9,7 km/h (2 Bft) 100,00 %
17.02.2018 19:32 -0,4 C 4,4 C 97 % 1018,3 hPa 0,0 l/m 8,6 km/h (2 Bft) NO 37 0 min 0,000 mm 0,0 UV-I 0 W/m -0,8 C -2,6 C 9,7 km/h (2 Bft) 95,83 %
17.02.2018 19:33 -0,4 C 4,4 C 97 % 1018,3 hPa 0,0 l/m 6,9 km/h (2 Bft) NO 34 0 min 0,000 mm 0,0 UV-I 0 W/m -0,8 C -0,9 C 9,7 km/h (2 Bft) 95,65 %
17.02.2018 19:34 -0,4 C 4,4 C 97 % 1018,3 hPa 0,0 l/m 8,2 km/h (2 Bft) N-NO 30 0 min 0,000 mm 0,0 UV-I 0 W/m -0,8 C -2,3 C 9,7 km/h (2 Bft) 95,83 %
17.02.2018 19:35 -0,4 C 4,4 C 97 % 1018,3 hPa 0,0 l/m 8,0 km/h (2 Bft) N-NO 30 0 min 0,000 mm 0,0 UV-I 0 W/m -0,8 C -2,1 C 11,3 km/h (2 Bft) 91,30 %
17.02.2018 19:36 -0,4 C 4,4 C 97 % 1018,3 hPa 0,0 l/m 6,4 km/h (2 Bft) N-NO 30 0 min 0,000 mm 0,0 UV-I 0 W/m -0,8 C -0,4 C 8,0 km/h (2 Bft) 100,00 %
17.02.2018 19:37 -0,4 C 4,4 C 97 % 1018,3 hPa 0,0 l/m 6,8 km/h (2 Bft) N-NO 24 0 min 0,000 mm 0,0 UV-I 0 W/m -0,8 C -0,8 C 8,0 km/h (2 Bft) 95,65 %
17.02.2018 19:38 -0,4 C 4,4 C 97 % 1018,4 hPa 0,0 l/m 5,2 km/h (1 Bft) NO 38 0 min 0,000 mm 0,0 UV-I 0 W/m -0,8 C -0,4 C 6,4 km/h (2 Bft) 100,00 %
17.02.2018 19:39 -0,4 C 4,4 C 97 % 1018,4 hPa 0,0 l/m 5,2 km/h (1 Bft) N-NO 19 0 min 0,000 mm 0,0 UV-I 0 W/m -0,8 C -0,4 C 8,0 km/h (2 Bft) 95,65 %
17.02.2018 19:40 -0,4 C 4,4 C 97 % 1018,4 hPa 0,0 l/m 4,5 km/h (1 Bft) NO 35 0 min 0,000 mm 0,0 UV-I 0 W/m -0,8 C -0,4 C 6,4 km/h (2 Bft) 100,00 %
17.02.2018 19:41 -0,4 C 4,4 C 97 % 1018,4 hPa 0,0 l/m 4,8 km/h (1 Bft) N 9 0 min 0,000 mm 0,0 UV-I 0 W/m -0,8 C -0,4 C 6,4 km/h (2 Bft) 95,65 %
17.02.2018 19:42 -0,4 C 4,4 C 97 % 1018,5 hPa 0,0 l/m 6,4 km/h (2 Bft) N-NO 27 0 min 0,000 mm 0,0 UV-I 0 W/m -0,8 C -0,4 C 8,0 km/h (2 Bft) 95,83 %
17.02.2018 19:43 -0,4 C 4,4 C 97 % 1018,5 hPa 0,0 l/m 9,5 km/h (2 Bft) O-NO 65 0 min 0,000 mm 0,0 UV-I 0 W/m -0,8 C -3,5 C 14,5 km/h (3 Bft) 95,65 %
17.02.2018 19:44 -0,4 C 4,4 C 97 % 1018,4 hPa 0,0 l/m 7,4 km/h (2 Bft) NO 53 0 min 0,000 mm 0,0 UV-I 0 W/m -0,8 C -1,5 C 8,0 km/h (2 Bft) 95,83 %
17.02.2018 19:45 -0,4 C 4,4 C 97 % 1018,4 hPa 0,0 l/m 7,5 km/h (2 Bft) N-NO 32 0 min 0,000 mm 0,0 UV-I 0 W/m -0,8 C -1,6 C 9,7 km/h (2 Bft) 100,00 %
17.02.2018 19:46 -0,4 C 4,4 C 97 % 1018,5 hPa 0,0 l/m 8,5 km/h (2 Bft) NO 51 0 min 0,000 mm 0,0 UV-I 0 W/m -0,8 C -2,6 C 9,7 km/h (2 Bft) 100,00 %
17.02.2018 19:47 -0,4 C 4,4 C 97 % 1018,5 hPa 0,0 l/m 8,9 km/h (2 Bft) NO 52 0 min 0,000 mm 0,0 UV-I 0 W/m -0,8 C -2,9 C 11,3 km/h (2 Bft) 97,14 %
17.02.2018 19:48 -0,4 C 4,4 C 97 % 1018,5 hPa 0,0 l/m 6,8 km/h (2 Bft) N-NO 25 0 min 0,000 mm 0,0 UV-I 0 W/m -0,8 C -0,8 C 8,0 km/h (2 Bft) 93,33 %
17.02.2018 19:49 -0,4 C 4,4 C 97 % 1018,5 hPa 0,0 l/m 6,4 km/h (2 Bft) NO 35 0 min 0,000 mm 0,0 UV-I 0 W/m -0,8 C -0,4 C 8,0 km/h (2 Bft) 100,00 %
17.02.2018 19:50 -0,4 C 4,4 C 97 % 1018,5 hPa 0,0 l/m 7,0 km/h (2 Bft) N-NO 28 0 min 0,000 mm 0,0 UV-I 0 W/m -0,8 C -1,0 C 8,0 km/h (2 Bft) 95,65 %
17.02.2018 19:51 -0,4 C 4,4 C 97 % 1018,5 hPa 0,0 l/m 6,0 km/h (2 Bft) NO 45 0 min 0,000 mm 0,0 UV-I 0 W/m -0,8 C -0,4 C 8,0 km/h (2 Bft) 95,83 %
17.02.2018 19:52 -0,5 C 4,4 C 97 % 1018,5 hPa 0,0 l/m 8,4 km/h (2 Bft) NO 49 0 min 0,000 mm 0,0 UV-I 0 W/m -0,9 C -2,6 C 14,5 km/h (3 Bft) 91,30 %
17.02.2018 19:53 -0,5 C 4,4 C 97 % 1018,5 hPa 0,0 l/m 9,2 km/h (2 Bft) NO 38 0 min 0,000 mm 0,0 UV-I 0 W/m -0,9 C -3,3 C 11,3 km/h (2 Bft) 95,83 %
17.02.2018 19:54 -0,5 C 4,4 C 97 % 1018,5 hPa 0,0 l/m 7,7 km/h (2 Bft) NO 34 0 min 0,000 mm 0,0 UV-I 0 W/m -0,9 C -1,9 C 9,7 km/h (2 Bft) 96,15 %
17.02.2018 19:55 -0,5 C 4,4 C 97 % 1018,6 hPa 0,0 l/m 6,2 km/h (2 Bft) NO 53 0 min 0,000 mm 0,0 UV-I 0 W/m -0,9 C -0,5 C 8,0 km/h (2 Bft) 95,83 %
17.02.2018 19:56 -0,5 C 4,4 C 97 % 1018,6 hPa 0,0 l/m 5,4 km/h (1 Bft) NO 49 0 min 0,000 mm 0,0 UV-I 0 W/m -0,9 C -0,5 C 8,0 km/h (2 Bft) 100,00 %
17.02.2018 19:57 -0,5 C 4,4 C 97 % 1018,5 hPa 0,0 l/m 6,4 km/h (2 Bft) NO 36 0 min 0,000 mm 0,0 UV-I 0 W/m -0,9 C -0,5 C 8,0 km/h (2 Bft) 95,83 %
17.02.2018 19:58 -0,5 C 4,4 C 97 % 1018,6 hPa 0,0 l/m 5,5 km/h (1 Bft) N-NO 22 0 min 0,000 mm 0,0 UV-I 0 W/m -0,9 C -0,5 C 8,0 km/h (2 Bft) 100,00 %
17.02.2018 19:59 -0,5 C 4,4 C 97 % 1018,6 hPa 0,0 l/m 6,1 km/h (2 Bft) NO 38 0 min 0,000 mm 0,0 UV-I 0 W/m -0,9 C -0,5 C 8,0 km/h (2 Bft) 95,83 %
17.02.2018 20:00 -0,5 C 4,4 C 97 % 1018,6 hPa 0,0 l/m 6,8 km/h (2 Bft) N-NO 19 0 min 0,000 mm 0,0 UV-I 0 W/m -0,9 C -0,9 C 11,3 km/h (2 Bft) 91,30 %
17.02.2018 20:01 -0,6 C 4,4 C 97 % 1018,6 hPa 0,0 l/m 7,5 km/h (2 Bft) N 11 0 min 0,000 mm 0,0 UV-I 0 W/m -1,0 C -1,8 C 11,3 km/h (2 Bft) 95,83 %
17.02.2018 20:02 -0,6 C 4,4 C 97 % 1018,6 hPa 0,0 l/m 7,7 km/h (2 Bft) N-NO 15 0 min 0,000 mm 0,0 UV-I 0 W/m -1,0 C -2,0 C 11,3 km/h (2 Bft) 95,65 %
17.02.2018 20:03 -0,6 C 4,4 C 97 % 1018,7 hPa 0,0 l/m 9,8 km/h (2 Bft) N 10 0 min 0,000 mm 0,0 UV-I 0 W/m -1,0 C -3,9 C 12,9 km/h (3 Bft) 100,00 %
17.02.2018 20:04 -0,6 C 4,4 C 97 % 1018,6 hPa 0,0 l/m 9,5 km/h (2 Bft) N-NO 20 0 min 0,000 mm 0,0 UV-I 0 W/m -1,0 C -3,7 C 12,9 km/h (3 Bft) 100,00 %
17.02.2018 20:05 -0,6 C 4,4 C 97 % 1018,6 hPa 0,0 l/m 6,8 km/h (2 Bft) N 10 0 min 0,000 mm 0,0 UV-I 0 W/m -1,0 C -1,0 C 8,0 km/h (2 Bft) 100,00 %
17.02.2018 20:06 -0,6 C 4,4 C 97 % 1018,7 hPa 0,0 l/m 10,3 km/h (2 Bft) N-NO 15 0 min 0,000 mm 0,0 UV-I 0 W/m -1,0 C -4,4 C 12,9 km/h (3 Bft) 95,65 %
17.02.2018 20:07 -0,6 C 4,4 C 97 % 1018,7 hPa 0,0 l/m 9,3 km/h (2 Bft) NO 36 0 min 0,000 mm 0,0 UV-I 0 W/m -1,0 C -3,5 C 11,3 km/h (2 Bft) 95,83 %
17.02.2018 20:08 -0,7 C 4,4 C 97 % 1018,7 hPa 0,0 l/m 8,2 km/h (2 Bft) N-NO 30 0 min 0,000 mm 0,0 UV-I 0 W/m -1,1 C -2,6 C 11,3 km/h (2 Bft) 100,00 %
17.02.2018 20:09 -0,7 C 4,4 C 97 % 1018,7 hPa 0,0 l/m 10,1 km/h (2 Bft) N 9 0 min 0,000 mm 0,0 UV-I 0 W/m -1,1 C -4,3 C 12,9 km/h (3 Bft) 91,67 %
17.02.2018 20:10 -0,7 C 4,4 C 97 % 1018,7 hPa 0,0 l/m 10,1 km/h (2 Bft) N-NO 26 0 min 0,000 mm 0,0 UV-I 0 W/m -1,1 C -4,3 C 12,9 km/h (3 Bft) 95,65 %
17.02.2018 20:11 -0,7 C 4,4 C 97 % 1018,7 hPa 0,0 l/m 9,3 km/h (2 Bft) N 9 0 min 0,000 mm 0,0 UV-I 0 W/m -1,1 C -3,6 C 12,9 km/h (3 Bft) 95,83 %
17.02.2018 20:12 -0,7 C 4,4 C 97 % 1018,7 hPa 0,0 l/m 9,9 km/h (2 Bft) NO 41 0 min 0,000 mm 0,0 UV-I 0 W/m -1,1 C -4,1 C 12,9 km/h (3 Bft) 100,00 %
17.02.2018 20:13 -0,7 C 4,4 C 97 % 1018,7 hPa 0,0 l/m 10,0 km/h (2 Bft) N-NO 26 0 min 0,000 mm 0,0 UV-I 0 W/m -1,1 C -4,2 C 14,5 km/h (3 Bft) 97,14 %
17.02.2018 20:14 -0,7 C 4,4 C 97 % 1018,7 hPa 0,0 l/m 8,0 km/h (2 Bft) N 355 0 min 0,000 mm 0,0 UV-I 0 W/m -1,1 C -2,4 C 9,7 km/h (2 Bft) 100,00 %
17.02.2018 20:15 -0,7 C 4,4 C 97 % 1018,7 hPa 0,0 l/m 9,2 km/h (2 Bft) N-NO 15 0 min 0,000 mm 0,0 UV-I 0 W/m -1,1 C -3,5 C 12,9 km/h (3 Bft) 96,15 %
17.02.2018 20:16 -0,7 C 4,4 C 97 % 1018,7 hPa 0,0 l/m 8,0 km/h (2 Bft) NO 41 0 min 0,000 mm 0,0 UV-I 0 W/m -1,1 C -2,4 C 12,9 km/h (3 Bft) 100,00 %
17.02.2018 20:17 -0,7 C 4,4 C 97 % 1018,7 hPa 0,0 l/m 8,9 km/h (2 Bft) NO 35 0 min 0,000 mm 0,0 UV-I 0 W/m -1,1 C -3,2 C 11,3 km/h (2 Bft) 95,65 %
17.02.2018 20:18 -0,7 C 4,4 C 97 % 1018,7 hPa 0,0 l/m 6,6 km/h (2 Bft) NO 36 0 min 0,000 mm 0,0 UV-I 0 W/m -1,1 C -0,9 C 8,0 km/h (2 Bft) 100,00 %
17.02.2018 20:19 -0,7 C 4,4 C 97 % 1018,7 hPa 0,0 l/m 7,6 km/h (2 Bft) N-NO 27 0 min 0,000 mm 0,0 UV-I 0 W/m -1,1 C -2,0 C 11,3 km/h (2 Bft) 95,65 %
17.02.2018 20:20 -0,7 C 4,4 C 97 % 1018,7 hPa 0,0 l/m 6,2 km/h (2 Bft) N-NO 23 0 min 0,000 mm 0,0 UV-I 0 W/m -1,1 C -0,7 C 8,0 km/h (2 Bft) 95,83 %
17.02.2018 20:21 -0,7 C 4,4 C 97 % 1018,7 hPa 0,0 l/m 6,8 km/h (2 Bft) N-NO 26 0 min 0,000 mm 0,0 UV-I 0 W/m -1,1 C -1,1 C 8,0 km/h (2 Bft) 95,65 %
17.02.2018 20:22 -0,7 C 4,4 C 97 % 1018,8 hPa 0,0 l/m 6,7 km/h (2 Bft) NO 46 0 min 0,000 mm 0,0 UV-I 0 W/m -1,1 C -1,0 C 8,0 km/h (2 Bft) 95,83 %
17.02.2018 20:23 -0,7 C 4,4 C 97 % 1018,8 hPa 0,0 l/m 7,1 km/h (2 Bft) NO 38 0 min 0,000 mm 0,0 UV-I 0 W/m -1,1 C -1,4 C 9,7 km/h (2 Bft) 100,00 %
17.02.2018 20:24 -0,7 C 4,4 C 97 % 1018,7 hPa 0,0 l/m 5,5 km/h (1 Bft) N-NO 17 0 min 0,000 mm 0,0 UV-I 0 W/m -1,1 C -0,7 C 8,0 km/h (2 Bft) 95,83 %
17.02.2018 20:25 -0,7 C 4,4 C 97 % 1018,8 hPa 0,0 l/m 9,9 km/h (2 Bft) N-NO 17 0 min 0,000 mm 0,0 UV-I 0 W/m -1,1 C -4,1 C 14,5 km/h (3 Bft) 100,00 %
17.02.2018 20:26 -0,7 C 4,4 C 97 % 1018,8 hPa 0,0 l/m 6,6 km/h (2 Bft) N-NO 26 0 min 0,000 mm 0,0 UV-I 0 W/m -1,1 C -0,9 C 8,0 km/h (2 Bft) 91,30 %
17.02.2018 20:27 -0,7 C 4,4 C 97 % 1018,8 hPa 0,0 l/m 6,9 km/h (2 Bft) N-NO 28 0 min 0,000 mm 0,0 UV-I 0 W/m -1,1 C -1,2 C 8,0 km/h (2 Bft) 100,00 %
17.02.2018 20:28 -0,7 C 4,4 C 97 % 1018,8 hPa 0,0 l/m 6,9 km/h (2 Bft) NO 35 0 min 0,000 mm 0,0 UV-I 0 W/m -1,1 C -1,2 C 9,7 km/h (2 Bft) 86,96 %
17.02.2018 20:29 -0,7 C 4,4 C 97 % 1018,9 hPa 0,0 l/m 6,0 km/h (2 Bft) N-NO 32 0 min 0,000 mm 0,0 UV-I 0 W/m -1,1 C -0,7 C 9,7 km/h (2 Bft) 91,67 %
17.02.2018 20:30 -0,7 C 4,4 C 97 % 1018,9 hPa 0,0 l/m 10,5 km/h (2 Bft) N-NO 26 0 min 0,000 mm 0,0 UV-I 0 W/m -1,1 C -4,6 C 14,5 km/h (3 Bft) 97,56 %
17.02.2018 20:31 -0,8 C 4,4 C 97 % 1018,9 hPa 0,0 l/m 7,6 km/h (2 Bft) O-NO 60 0 min 0,000 mm 0,0 UV-I 0 W/m -1,2 C -2,1 C 11,3 km/h (2 Bft) 95,83 %
17.02.2018 20:32 -0,8 C 4,4 C 97 % 1018,9 hPa 0,0 l/m 7,5 km/h (2 Bft) N-NO 18 0 min 0,000 mm 0,0 UV-I 0 W/m -1,2 C -2,0 C 12,9 km/h (3 Bft) 86,96 %
17.02.2018 20:33 -0,8 C 4,4 C 97 % 1018,9 hPa 0,0 l/m 7,9 km/h (2 Bft) NO 34 0 min 0,000 mm 0,0 UV-I 0 W/m -1,2 C -2,4 C 11,3 km/h (2 Bft) 95,83 %
17.02.2018 20:34 -0,8 C 4,4 C 97 % 1018,9 hPa 0,0 l/m 7,9 km/h (2 Bft) NO 39 0 min 0,000 mm 0,0 UV-I 0 W/m -1,2 C -2,4 C 11,3 km/h (2 Bft) 100,00 %
17.02.2018 20:35 -0,8 C 4,4 C 97 % 1018,9 hPa 0,0 l/m 10,3 km/h (2 Bft) N-NO 26 0 min 0,000 mm 0,0 UV-I 0 W/m -1,2 C -4,6 C 11,3 km/h (2 Bft) 93,33 %
17.02.2018 20:36 -0,8 C 4,4 C 97 % 1019,0 hPa 0,0 l/m 6,6 km/h (2 Bft) NO 49 0 min 0,000 mm 0,0 UV-I 0 W/m -1,2 C -1,0 C 11,3 km/h (2 Bft) 100,00 %
17.02.2018 20:37 -0,8 C 4,4 C 97 % 1019,0 hPa 0,0 l/m 6,2 km/h (2 Bft) NO 42 0 min 0,000 mm 0,0 UV-I 0 W/m -1,2 C -0,8 C 8,0 km/h (2 Bft) 95,83 %
17.02.2018 20:38 -0,8 C 4,4 C 97 % 1019,0 hPa 0,0 l/m 7,4 km/h (2 Bft) NO 52 0 min 0,000 mm 0,0 UV-I 0 W/m -1,2 C -1,9 C 9,7 km/h (2 Bft) 100,00 %
17.02.2018 20:39 -0,8 C 4,4 C 97 % 1019,0 hPa 0,0 l/m 7,2 km/h (2 Bft) NO 41 0 min 0,000 mm 0,0 UV-I 0 W/m -1,2 C -1,7 C 8,0 km/h (2 Bft) 95,83 %
17.02.2018 20:40 -0,8 C 4,4 C 97 % 1019,0 hPa 0,0 l/m 6,3 km/h (2 Bft) NO 40 0 min 0,000 mm 0,0 UV-I 0 W/m -1,2 C -0,8 C 8,0 km/h (2 Bft) 100,00 %
17.02.2018 20:41 -0,8 C 4,4 C 97 % 1019,0 hPa 0,0 l/m 7,3 km/h (2 Bft) N-NO 23 0 min 0,000 mm 0,0 UV-I 0 W/m -1,2 C -1,8 C 11,3 km/h (2 Bft) 95,83 %
17.02.2018 20:42 -0,8 C 4,4 C 97 % 1019,0 hPa 0,0 l/m 8,2 km/h (2 Bft) NO 40 0 min 0,000 mm 0,0 UV-I 0 W/m -1,2 C -2,7 C 11,3 km/h (2 Bft) 100,00 %
17.02.2018 20:43 -0,8 C 4,4 C 97 % 1019,0 hPa 0,0 l/m 9,9 km/h (2 Bft) N-NO 22 0 min 0,000 mm 0,0 UV-I 0 W/m -1,2 C -4,2 C 12,9 km/h (3 Bft) 95,83 %
17.02.2018 20:44 -0,8 C 4,4 C 97 % 1019,1 hPa 0,0 l/m 7,4 km/h (2 Bft) NO 38 0 min 0,000 mm 0,0 UV-I 0 W/m -1,2 C -1,9 C 9,7 km/h (2 Bft) 96,15 %
17.02.2018 20:45 -0,8 C 4,4 C 97 % 1019,1 hPa 0,0 l/m 8,4 km/h (2 Bft) NO 43 0 min 0,000 mm 0,0 UV-I 0 W/m -1,2 C -2,9 C 11,3 km/h (2 Bft) 96,30 %
17.02.2018 20:46 -0,8 C 4,4 C 97 % 1019,1 hPa 0,0 l/m 7,0 km/h (2 Bft) NO 42 0 min 0,000 mm 0,0 UV-I 0 W/m -1,2 C -1,4 C 8,0 km/h (2 Bft) 91,30 %
17.02.2018 20:47 -0,8 C 4,4 C 97 % 1019,1 hPa 0,0 l/m 6,7 km/h (2 Bft) N-NO 31 0 min 0,000 mm 0,0 UV-I 0 W/m -1,2 C -1,1 C 9,7 km/h (2 Bft) 100,00 %
17.02.2018 20:48 -0,8 C 4,4 C 97 % 1019,1 hPa 0,0 l/m 8,8 km/h (2 Bft) NO 53 0 min 0,000 mm 0,0 UV-I 0 W/m -1,2 C -3,3 C 11,3 km/h (2 Bft) 96,30 %
17.02.2018 20:49 -0,8 C 4,4 C 97 % 1019,1 hPa 0,0 l/m 8,9 km/h (2 Bft) NO 40 0 min 0,000 mm 0,0 UV-I 0 W/m -1,2 C -3,4 C 11,3 km/h (2 Bft) 100,00 %
17.02.2018 20:50 -0,9 C 4,4 C 97 % 1019,1 hPa 0,0 l/m 8,0 km/h (2 Bft) NO 41 0 min 0,000 mm 0,0 UV-I 0 W/m -1,3 C -2,6 C 9,7 km/h (2 Bft) 95,83 %
17.02.2018 20:51 -0,8 C 4,4 C 97 % 1019,1 hPa 0,0 l/m 7,4 km/h (2 Bft) O-NO 58 0 min 0,000 mm 0,0 UV-I 0 W/m -1,2 C -1,9 C 9,7 km/h (2 Bft) 100,00 %
17.02.2018 20:52 -0,8 C 4,4 C 97 % 1019,1 hPa 0,0 l/m 7,6 km/h (2 Bft) NO 40 0 min 0,000 mm 0,0 UV-I 0 W/m -1,2 C -2,1 C 9,7 km/h (2 Bft) 95,83 %
17.02.2018 20:53 -0,8 C 4,4 C 97 % 1019,1 hPa 0,0 l/m 7,8 km/h (2 Bft) N-NO 26 0 min 0,000 mm 0,0 UV-I 0 W/m -1,2 C -2,3 C 9,7 km/h (2 Bft) 100,00 %
17.02.2018 20:54 -0,8 C 4,4 C 97 % 1019,1 hPa 0,0 l/m 7,1 km/h (2 Bft) NO 36 0 min 0,000 mm 0,0 UV-I 0 W/m -1,2 C -1,5 C 9,7 km/h (2 Bft) 95,83 %
17.02.2018 20:55 -0,8 C 4,4 C 97 % 1019,2 hPa 0,0 l/m 7,4 km/h (2 Bft) NO 39 0 min 0,000 mm 0,0 UV-I 0 W/m -1,2 C -1,9 C 9,7 km/h (2 Bft) 88,46 %
17.02.2018 20:56 -0,9 C 4,4 C 97 % 1019,2 hPa 0,0 l/m 5,7 km/h (1 Bft) N-NO 31 0 min 0,000 mm 0,0 UV-I 0 W/m -1,3 C -0,9 C 8,0 km/h (2 Bft) 100,00 %
17.02.2018 20:57 -0,8 C 4,4 C 97 % 1019,2 hPa 0,0 l/m 5,0 km/h (1 Bft) N-NO 17 0 min 0,000 mm 0,0 UV-I 0 W/m -1,2 C -0,8 C 6,4 km/h (2 Bft) 95,65 %
17.02.2018 20:58 -0,8 C 4,4 C 97 % 1019,3 hPa 0,0 l/m 6,2 km/h (2 Bft) N-NO 33 0 min 0,000 mm 0,0 UV-I 0 W/m -1,2 C -0,8 C 8,0 km/h (2 Bft) 100,00 %
17.02.2018 20:59 -0,8 C 4,4 C 97 % 1019,2 hPa 0,0 l/m 5,9 km/h (2 Bft) NO 51 0 min 0,000 mm 0,0 UV-I 0 W/m -1,2 C -0,8 C 8,0 km/h (2 Bft) 95,65 %
17.02.2018 21:00 -0,8 C 4,4 C 97 % 1019,3 hPa 0,0 l/m 5,3 km/h (1 Bft) NO 49 0 min 0,000 mm 0,0 UV-I 0 W/m -1,2 C -0,8 C 6,4 km/h (2 Bft) 100,00 %
17.02.2018 21:01 -0,8 C 4,4 C 97 % 1019,3 hPa 0,0 l/m 5,6 km/h (1 Bft) N-NO 22 0 min 0,000 mm 0,0 UV-I 0 W/m -1,2 C -0,8 C 6,4 km/h (2 Bft) 91,30 %
17.02.2018 21:02 -0,8 C 4,4 C 97 % 1019,3 hPa 0,0 l/m 7,2 km/h (2 Bft) NO 40 0 min 0,000 mm 0,0 UV-I 0 W/m -1,2 C -1,7 C 8,0 km/h (2 Bft) 100,00 %
17.02.2018 21:03 -0,8 C 4,4 C 97 % 1019,3 hPa 0,0 l/m 6,6 km/h (2 Bft) NO 48 0 min 0,000 mm 0,0 UV-I 0 W/m -1,2 C -1,0 C 8,0 km/h (2 Bft) 95,65 %
17.02.2018 21:04 -0,8 C 4,4 C 97 % 1019,3 hPa 0,0 l/m 6,0 km/h (2 Bft) NO 40 0 min 0,000 mm 0,0 UV-I 0 W/m -1,2 C -0,8 C 6,4 km/h (2 Bft) 100,00 %
17.02.2018 21:05 -0,8 C 4,4 C 97 % 1019,3 hPa 0,0 l/m 6,0 km/h (2 Bft) N-NO 33 0 min 0,000 mm 0,0 UV-I 0 W/m -1,2 C -0,8 C 8,0 km/h (2 Bft) 95,65 %
17.02.2018 21:06 -0,8 C 4,4 C 97 % 1019,4 hPa 0,0 l/m 4,8 km/h (1 Bft) N-NO 30 0 min 0,000 mm 0,0 UV-I 0 W/m -1,2 C -0,8 C 6,4 km/h (2 Bft) 95,83 %
17.02.2018 21:07 -0,8 C 4,4 C 97 % 1019,4 hPa 0,0 l/m 4,2 km/h (1 Bft) NO 34 0 min 0,000 mm 0,0 UV-I 0 W/m -1,2 C -0,8 C 6,4 km/h (2 Bft) 100,00 %
17.02.2018 21:08 -0,8 C 4,4 C 97 % 1019,4 hPa 0,0 l/m 5,2 km/h (1 Bft) N-NO 22 0 min 0,000 mm 0,0 UV-I 0 W/m -1,2 C -0,8 C 6,4 km/h (2 Bft) 95,83 %
17.02.2018 21:09 -0,8 C 4,4 C 97 % 1019,4 hPa 0,0 l/m 4,8 km/h (1 Bft) N-NO 22 0 min 0,000 mm 0,0 UV-I 0 W/m -1,2 C -0,8 C 6,4 km/h (2 Bft) 100,00 %
17.02.2018 21:10 -0,8 C 4,4 C 97 % 1019,4 hPa 0,0 l/m 5,1 km/h (1 Bft) NO 34 0 min 0,000 mm 0,0 UV-I 0 W/m -1,2 C -0,8 C 6,4 km/h (2 Bft) 95,65 %
17.02.2018 21:11 -0,8 C 4,4 C 97 % 1019,4 hPa 0,0 l/m 4,3 km/h (1 Bft) N-NO 32 0 min 0,000 mm 0,0 UV-I 0 W/m -1,2 C -0,8 C 6,4 km/h (2 Bft) 100,00 %
17.02.2018 21:12 -0,8 C 4,4 C 97 % 1019,4 hPa 0,0 l/m 3,9 km/h (1 Bft) N-NO 32 0 min 0,000 mm 0,0 UV-I 0 W/m -1,2 C -0,8 C 4,8 km/h (1 Bft) 100,00 %
17.02.2018 21:13 -0,8 C 4,4 C 97 % 1019,4 hPa 0,0 l/m 3,6 km/h (1 Bft) N-NO 32 0 min 0,000 mm 0,0 UV-I 0 W/m -1,2 C -0,8 C 4,8 km/h (1 Bft) 95,83 %
17.02.2018 21:14 -0,8 C 4,4 C 97 % 1019,4 hPa 0,0 l/m 4,8 km/h (1 Bft) N-NO 32 0 min 0,000 mm 0,0 UV-I 0 W/m -1,2 C -0,8 C 6,4 km/h (2 Bft) 95,65 %
17.02.2018 21:15 -0,8 C 4,4 C 97 % 1019,5 hPa 0,0 l/m 5,3 km/h (1 Bft) N-NO 32 0 min 0,000 mm 0,0 UV-I 0 W/m -1,2 C -0,8 C 6,4 km/h (2 Bft) 100,00 %
17.02.2018 21:16 -0,8 C 4,4 C 97 % 1019,4 hPa 0,0 l/m 4,1 km/h (1 Bft) N-NO 32 0 min 0,000 mm 0,0 UV-I 0 W/m -1,2 C -0,8 C 4,8 km/h (1 Bft) 100,00 %
17.02.2018 21:17 -0,8 C 4,4 C 97 % 1019,4 hPa 0,0 l/m 4,0 km/h (1 Bft) N-NO 32 0 min 0,000 mm 0,0 UV-I 0 W/m -1,2 C -0,8 C 6,4 km/h (2 Bft) 100,00 %
17.02.2018 21:18 -0,8 C 4,4 C 97 % 1019,4 hPa 0,0 l/m 6,2 km/h (2 Bft) N-NO 22 0 min 0,000 mm 0,0 UV-I 0 W/m -1,2 C -0,8 C 8,0 km/h (2 Bft) 100,00 %
17.02.2018 21:19 -0,8 C 4,4 C 97 % 1019,5 hPa 0,0 l/m 5,8 km/h (2 Bft) N-NO 19 0 min 0,000 mm 0,0 UV-I 0 W/m -1,2 C -0,8 C 8,0 km/h (2 Bft) 100,00 %
17.02.2018 21:20 -0,8 C 4,4 C 97 % 1019,4 hPa 0,0 l/m 6,6 km/h (2 Bft) N-NO 29 0 min 0,000 mm 0,0 UV-I 0 W/m -1,2 C -1,0 C 8,0 km/h (2 Bft) 100,00 %
17.02.2018 21:21 -0,8 C 4,4 C 97 % 1019,4 hPa 0,0 l/m 6,1 km/h (2 Bft) N-NO 23 0 min 0,000 mm 0,0 UV-I 0 W/m -1,2 C -0,8 C 8,0 km/h (2 Bft) 100,00 %
17.02.2018 21:22 -0,8 C 4,4 C 97 % 1019,4 hPa 0,0 l/m 4,6 km/h (1 Bft) N-NO 30 0 min 0,000 mm 0,0 UV-I 0 W/m -1,2 C -0,8 C 6,4 km/h (2 Bft) 92,31 %
17.02.2018 21:23 -0,8 C 4,4 C 97 % 1019,5 hPa 0,0 l/m 5,2 km/h (1 Bft) N-NO 25 0 min 0,000 mm 0,0 UV-I 0 W/m -1,2 C -0,8 C 8,0 km/h (2 Bft) 100,00 %
17.02.2018 21:24 -0,8 C 4,4 C 97 % 1019,5 hPa 0,0 l/m 4,6 km/h (1 Bft) N-NO 22 0 min 0,000 mm 0,0 UV-I 0 W/m -1,2 C -0,8 C 4,8 km/h (1 Bft) 100,00 %
17.02.2018 21:25 -0,8 C 4,4 C 97 % 1019,5 hPa 0,0 l/m 4,4 km/h (1 Bft) N-NO 22 0 min 0,000 mm 0,0 UV-I 0 W/m -1,2 C -0,8 C 4,8 km/h (1 Bft) 100,00 %
17.02.2018 21:26 -0,8 C 3,9 C 97 % 1019,5 hPa 0,0 l/m 4,1 km/h (1 Bft) N-NO 22 0 min 0,000 mm 0,0 UV-I 0 W/m -1,2 C -0,8 C 4,8 km/h (1 Bft) 100,00 %
17.02.2018 21:27 -0,8 C 3,9 C 97 % 1019,5 hPa 0,0 l/m 3,7 km/h (1 Bft) N-NO 23 0 min 0,000 mm 0,0 UV-I 0 W/m -1,2 C -0,8 C 4,8 km/h (1 Bft) 100,00 %
17.02.2018 21:28 -0,8 C 3,9 C 97 % 1019,6 hPa 0,0 l/m 2,8 km/h (1 Bft) N-NO 23 0 min 0,000 mm 0,0 UV-I 0 W/m -1,2 C -0,8 C 3,2 km/h (1 Bft) 91,67 %
17.02.2018 21:29 -0,8 C 3,9 C 97 % 1019,5 hPa 0,0 l/m 3,0 km/h (1 Bft) N-NO 23 0 min 0,000 mm 0,0 UV-I 0 W/m -1,2 C -0,8 C 4,8 km/h (1 Bft) 100,00 %
17.02.2018 21:30 -0,8 C 3,9 C 97 % 1019,5 hPa 0,0 l/m 4,0 km/h (1 Bft) N-NO 23 0 min 0,000 mm 0,0 UV-I 0 W/m -1,2 C -0,8 C 4,8 km/h (1 Bft) 100,00 %
17.02.2018 21:31 -0,8 C 3,9 C 97 % 1019,5 hPa 0,0 l/m 3,7 km/h (1 Bft) N-NO 23 0 min 0,000 mm 0,0 UV-I 0 W/m -1,2 C -0,8 C 4,8 km/h (1 Bft) 95,83 %
17.02.2018 21:32 -0,8 C 3,9 C 97 % 1019,6 hPa 0,0 l/m 3,0 km/h (1 Bft) N-NO 23 0 min 0,000 mm 0,0 UV-I 0 W/m -1,2 C -0,8 C 3,2 km/h (1 Bft) 95,83 %
17.02.2018 21:33 -0,8 C 3,9 C 97 % 1019,6 hPa 0,0 l/m 2,4 km/h (1 Bft) N-NO 23 0 min 0,000 mm 0,0 UV-I 0 W/m -1,2 C -0,8 C 3,2 km/h (1 Bft) 100,00 %
17.02.2018 21:34 -0,8 C 3,9 C 97 % 1019,6 hPa 0,0 l/m 2,4 km/h (1 Bft) N-NO 23 0 min 0,000 mm 0,0 UV-I 0 W/m -1,2 C -0,8 C 3,2 km/h (1 Bft) 96,67 %
17.02.2018 21:35 -0,8 C 4,4 C 97 % 1019,7 hPa 0,0 l/m 1,5 km/h (1 Bft) N-NO 23 0 min 0,000 mm 0,0 UV-I 0 W/m -1,2 C -0,8 C 3,2 km/h (1 Bft) 100,00 %
17.02.2018 21:36 -0,8 C 3,9 C 97 % 1019,7 hPa 0,0 l/m 1,3 km/h (1 Bft) N-NO 23 0 min 0,000 mm 0,0 UV-I 0 W/m -1,2 C -0,8 C 1,6 km/h (1 Bft) 95,83 %
17.02.2018 21:37 -0,8 C 3,9 C 97 % 1019,7 hPa 0,0 l/m 0,6 km/h (0 Bft) N-NO 23 0 min 0,000 mm 0,0 UV-I 0 W/m -1,2 C -0,8 C 1,6 km/h (1 Bft) 91,30 %
17.02.2018 21:38 -0,8 C 3,9 C 97 % 1019,7 hPa 0,0 l/m 0,3 km/h (0 Bft) N-NO 23 0 min 0,000 mm 0,0 UV-I 0 W/m -1,2 C -0,8 C 1,6 km/h (1 Bft) 100,00 %
17.02.2018 21:39 -0,8 C 3,9 C 97 % 1019,8 hPa 0,0 l/m 1,4 km/h (1 Bft) N-NO 23 0 min 0,000 mm 0,0 UV-I 0 W/m -1,2 C -0,8 C 3,2 km/h (1 Bft) 95,65 %
17.02.2018 21:40 -0,8 C 3,9 C 97 % 1019,8 hPa 0,0 l/m 1,5 km/h (1 Bft) N-NO 23 0 min 0,000 mm 0,0 UV-I 0 W/m -1,2 C -0,8 C 1,6 km/h (1 Bft) 100,00 %
17.02.2018 21:41 -0,8 C 3,9 C 97 % 1019,8 hPa 0,0 l/m 1,6 km/h (1 Bft) N-NO 23 0 min 0,000 mm 0,0 UV-I 0 W/m -1,2 C -0,8 C 1,6 km/h (1 Bft) 95,65 %
17.02.2018 21:42 -0,8 C 3,9 C 97 % 1019,8 hPa 0,0 l/m 1,6 km/h (1 Bft) N-NO 23 0 min 0,000 mm 0,0 UV-I 0 W/m -1,2 C -0,8 C 3,2 km/h (1 Bft) 100,00 %
17.02.2018 21:43 -0,8 C 3,9 C 97 % 1019,8 hPa 0,0 l/m 1,1 km/h (1 Bft) N-NO 23 0 min 0,000 mm 0,0 UV-I 0 W/m -1,2 C -0,8 C 1,6 km/h (1 Bft) 93,33 %
17.02.2018 21:44 -0,8 C 3,9 C 97 % 1019,8 hPa 0,0 l/m 1,1 km/h (1 Bft) N-NO 23 0 min 0,000 mm 0,0 UV-I 0 W/m -1,2 C -0,8 C 1,6 km/h (1 Bft) 100,00 %
17.02.2018 21:45 -0,8 C 3,9 C 97 % 1019,8 hPa 0,0 l/m 0,9 km/h (0 Bft) N-NO 23 0 min 0,000 mm 0,0 UV-I 0 W/m -1,2 C -0,8 C 1,6 km/h (1 Bft) 95,83 %
17.02.2018 21:46 -0,8 C 3,9 C 97 % 1019,8 hPa 0,0 l/m 0,4 km/h (0 Bft) N-NO 23 0 min 0,000 mm 0,0 UV-I 0 W/m -1,2 C -0,8 C 1,6 km/h (1 Bft) 100,00 %
17.02.2018 21:47 -0,8 C 3,9 C 97 % 1019,9 hPa 0,0 l/m 0,0 km/h (0 Bft) N-NO 23 0 min 0,000 mm 0,0 UV-I 0 W/m -1,2 C -0,8 C 0,0 km/h (0 Bft) 95,83 %
17.02.2018 21:48 -0,8 C 3,9 C 97 % 1019,8 hPa 0,0 l/m 0,0 km/h (0 Bft) N-NO 23 0 min 0,000 mm 0,0 UV-I 0 W/m -1,2 C -0,8 C 0,0 km/h (0 Bft) 91,30 %
17.02.2018 21:49 -0,8 C 3,9 C 97 % 1019,8 hPa 0,0 l/m 0,0 km/h (0 Bft) N-NO 23 0 min 0,000 mm 0,0 UV-I 0 W/m -1,2 C -0,8 C 0,0 km/h (0 Bft) 100,00 %
17.02.2018 21:50 -0,8 C 3,9 C 97 % 1019,8 hPa 0,0 l/m 0,4 km/h (0 Bft) N-NO 23 0 min 0,000 mm 0,0 UV-I 0 W/m -1,2 C -0,8 C 1,6 km/h (1 Bft) 91,30 %
17.02.2018 21:51 -0,8 C 3,9 C 97 % 1019,8 hPa 0,0 l/m 0,8 km/h (0 Bft) N-NO 23 0 min 0,000 mm 0,0 UV-I 0 W/m -1,2 C -0,8 C 1,6 km/h (1 Bft) 100,00 %
17.02.2018 21:52 -0,8 C 3,9 C 97 % 1019,8 hPa 0,0 l/m 1,0 km/h (0 Bft) N-NO 23 0 min 0,000 mm 0,0 UV-I 0 W/m -1,2 C -0,8 C 1,6 km/h (1 Bft) 95,65 %
17.02.2018 21:53 -0,8 C 3,9 C 97 % 1019,9 hPa 0,0 l/m 0,8 km/h (0 Bft) N-NO 23 0 min 0,000 mm 0,0 UV-I 0 W/m -1,2 C -0,8 C 1,6 km/h (1 Bft) 100,00 %
17.02.2018 21:54 -0,8 C 3,9 C 97 % 1019,9 hPa 0,0 l/m 0,9 km/h (0 Bft) N-NO 23 0 min 0,000 mm 0,0 UV-I 0 W/m -1,2 C -0,8 C 1,6 km/h (1 Bft) 91,30 %
17.02.2018 21:55 -0,8 C 3,9 C 97 % 1019,9 hPa 0,0 l/m 0,6 km/h (0 Bft) N-NO 23 0 min 0,000 mm 0,0 UV-I 0 W/m -1,2 C -0,8 C 1,6 km/h (1 Bft) 95,83 %
17.02.2018 21:56 -0,8 C 3,9 C 97 % 1019,9 hPa 0,0 l/m 0,0 km/h (0 Bft) N-NO 23 0 min 0,000 mm 0,0 UV-I 0 W/m -1,2 C -0,8 C 0,0 km/h (0 Bft) 95,65 %
17.02.2018 21:57 -0,7 C 3,9 C 97 % 1019,9 hPa 0,0 l/m 0,0 km/h (0 Bft) N-NO 23 0 min 0,000 mm 0,0 UV-I 0 W/m -1,1 C -0,7 C 0,0 km/h (0 Bft) 91,67 %
17.02.2018 21:58 -0,7 C 3,9 C 97 % 1019,9 hPa 0,0 l/m 0,0 km/h (0 Bft) N-NO 23 0 min 0,000 mm 0,0 UV-I 0 W/m -1,1 C -0,7 C 0,0 km/h (0 Bft) 100,00 %
17.02.2018 21:59 -0,7 C 3,9 C 97 % 1019,9 hPa 0,0 l/m 0,0 km/h (0 Bft) N-NO 23 0 min 0,000 mm 0,0 UV-I 0 W/m -1,1 C -0,7 C 0,0 km/h (0 Bft) 95,83 %
17.02.2018 22:00 -0,8 C 3,9 C 97 % 1019,9 hPa 0,0 l/m 0,2 km/h (0 Bft) N-NO 23 0 min 0,000 mm 0,0 UV-I 0 W/m -1,2 C -0,8 C 1,6 km/h (1 Bft) 95,65 %
17.02.2018 22:01 -0,8 C 3,9 C 97 % 1020,0 hPa 0,0 l/m 0,3 km/h (0 Bft) N-NO 23 0 min 0,000 mm 0,0 UV-I 0 W/m -1,2 C -0,8 C 1,6 km/h (1 Bft) 95,83 %
17.02.2018 22:02 -0,8 C 3,9 C 97 % 1020,0 hPa 0,0 l/m 0,0 km/h (0 Bft) N-NO 23 0 min 0,000 mm 0,0 UV-I 0 W/m -1,2 C -0,8 C 0,0 km/h (0 Bft) 96,15 %
17.02.2018 22:03 -0,8 C 3,9 C 97 % 1020,0 hPa 0,0 l/m 0,0 km/h (0 Bft) N-NO 23 0 min 0,000 mm 0,0 UV-I 0 W/m -1,2 C -0,8 C 0,0 km/h (0 Bft) 100,00 %
17.02.2018 22:04 -0,7 C 3,9 C 97 % 1020,1 hPa 0,0 l/m 0,0 km/h (0 Bft) N-NO 23 0 min 0,000 mm 0,0 UV-I 0 W/m -1,1 C -0,7 C 0,0 km/h (0 Bft) 95,65 %
17.02.2018 22:05 -0,7 C 3,9 C 97 % 1020,1 hPa 0,0 l/m 0,0 km/h (0 Bft) N-NO 23 0 min 0,000 mm 0,0 UV-I 0 W/m -1,1 C -0,7 C 0,0 km/h (0 Bft) 100,00 %
17.02.2018 22:06 -0,7 C 4,4 C 97 % 1020,1 hPa 0,0 l/m 0,0 km/h (0 Bft) N-NO 23 0 min 0,000 mm 0,0 UV-I 0 W/m -1,1 C -0,7 C 0,0 km/h (0 Bft) 86,67 %
17.02.2018 22:07 -0,7 C 4,4 C 97 % 1020,2 hPa 0,0 l/m 0,0 km/h (0 Bft) N-NO 23 0 min 0,000 mm 0,0 UV-I 0 W/m -1,1 C -0,7 C 0,0 km/h (0 Bft) 100,00 %
17.02.2018 22:08 -0,8 C 3,9 C 97 % 1020,2 hPa 0,0 l/m 0,0 km/h (0 Bft) N-NO 23 0 min 0,000 mm 0,0 UV-I 0 W/m -1,2 C -0,8 C 0,0 km/h (0 Bft) 95,83 %
17.02.2018 22:09 -0,8 C 3,9 C 97 % 1020,2 hPa 0,0 l/m 0,0 km/h (0 Bft) N-NO 23 0 min 0,000 mm 0,0 UV-I 0 W/m -1,2 C -0,8 C 0,0 km/h (0 Bft) 95,65 %
17.02.2018 22:10 -0,8 C 3,9 C 97 % 1020,2 hPa 0,0 l/m 0,0 km/h (0 Bft) N-NO 23 0 min 0,000 mm 0,0 UV-I 0 W/m -1,2 C -0,8 C 0,0 km/h (0 Bft) 100,00 %
17.02.2018 22:11 -0,8 C 3,9 C 97 % 1020,1 hPa 0,0 l/m 0,0 km/h (0 Bft) N-NO 23 0 min 0,000 mm 0,0 UV-I 0 W/m -1,2 C -0,8 C 0,0 km/h (0 Bft) 95,65 %
17.02.2018 22:12 -0,8 C 3,9 C 97 % 1020,2 hPa 0,0 l/m 0,0 km/h (0 Bft) N-NO 23 0 min 0,000 mm 0,0 UV-I 0 W/m -1,2 C -0,8 C 0,0 km/h (0 Bft) 100,00 %
17.02.2018 22:13 -0,7 C 3,9 C 97 % 1020,2 hPa 0,0 l/m 0,0 km/h (0 Bft) N-NO 23 0 min 0,000 mm 0,0 UV-I 0 W/m -1,1 C -0,7 C 0,0 km/h (0 Bft) 95,65 %
17.02.2018 22:14 -0,7 C 3,9 C 97 % 1020,3 hPa 0,0 l/m 0,0 km/h (0 Bft) N-NO 23 0 min 0,000 mm 0,0 UV-I 0 W/m -1,1 C -0,7 C 0,0 km/h (0 Bft) 100,00 %
17.02.2018 22:15 -0,7 C 3,9 C 97 % 1020,3 hPa 0,0 l/m 0,0 km/h (0 Bft) N-NO 23 0 min 0,000 mm 0,0 UV-I 0 W/m -1,1 C -0,7 C 0,0 km/h (0 Bft) 91,30 %
17.02.2018 22:16 -0,7 C 3,9 C 97 % 1020,3 hPa 0,0 l/m 0,0 km/h (0 Bft) N-NO 23 0 min 0,000 mm 0,0 UV-I 0 W/m -1,1 C -0,7 C 0,0 km/h (0 Bft) 100,00 %
17.02.2018 22:17 -0,7 C 3,9 C 97 % 1020,3 hPa 0,0 l/m 0,0 km/h (0 Bft) N-NO 23 0 min 0,000 mm 0,0 UV-I 0 W/m -1,1 C -0,7 C 0,0 km/h (0 Bft) 95,65 %
17.02.2018 22:18 -0,8 C 3,9 C 97 % 1020,4 hPa 0,0 l/m 0,0 km/h (0 Bft) N-NO 23 0 min 0,000 mm 0,0 UV-I 0 W/m -1,2 C -0,8 C 0,0 km/h (0 Bft) 100,00 %
17.02.2018 22:19 -0,8 C 3,9 C 97 % 1020,4 hPa 0,0 l/m 0,0 km/h (0 Bft) N-NO 23 0 min 0,000 mm 0,0 UV-I 0 W/m -1,2 C -0,8 C 0,0 km/h (0 Bft) 100,00 %
17.02.2018 22:20 -0,7 C 3,9 C 97 % 1020,4 hPa 0,0 l/m 0,0 km/h (0 Bft) N-NO 23 0 min 0,000 mm 0,0 UV-I 0 W/m -1,1 C -0,7 C 0,0 km/h (0 Bft) 100,00 %
17.02.2018 22:21 -0,8 C 3,9 C 97 % 1020,4 hPa 0,0 l/m 0,0 km/h (0 Bft) N-NO 23 0 min 0,000 mm 0,0 UV-I 0 W/m -1,2 C -0,8 C 0,0 km/h (0 Bft) 100,00 %
17.02.2018 22:22 -0,8 C 3,9 C 97 % 1020,4 hPa 0,0 l/m 0,0 km/h (0 Bft) N-NO 23 0 min 0,000 mm 0,0 UV-I 0 W/m -1,2 C -0,8 C 0,0 km/h (0 Bft) 96,30 %
17.02.2018 22:23 -0,8 C 3,9 C 97 % 1020,5 hPa 0,0 l/m 0,0 km/h (0 Bft) N-NO 23 0 min 0,000 mm 0,0 UV-I 0 W/m -1,2 C -0,8 C 0,0 km/h (0 Bft) 91,30 %
17.02.2018 22:24 -0,8 C 3,9 C 97 % 1020,5 hPa 0,0 l/m 0,0 km/h (0 Bft) N-NO 23 0 min 0,000 mm 0,0 UV-I 0 W/m -1,2 C -0,8 C 0,0 km/h (0 Bft) 100,00 %
17.02.2018 22:25 -0,8 C 3,9 C 97 % 1020,5 hPa 0,0 l/m 0,0 km/h (0 Bft) N-NO 23 0 min 0,000 mm 0,0 UV-I 0 W/m -1,2 C -0,8 C 0,0 km/h (0 Bft) 100,00 %
17.02.2018 22:26 -0,8 C 3,9 C 97 % 1020,5 hPa 0,0 l/m 0,0 km/h (0 Bft) N-NO 23 0 min 0,000 mm 0,0 UV-I 0 W/m -1,2 C -0,8 C 0,0 km/h (0 Bft) 95,83 %
17.02.2018 22:27 -0,8 C 3,9 C 97 % 1020,5 hPa 0,0 l/m 0,0 km/h (0 Bft) N-NO 23 0 min 0,000 mm 0,0 UV-I 0 W/m -1,2 C -0,8 C 0,0 km/h (0 Bft) 100,00 %
17.02.2018 22:28 -0,7 C 3,9 C 97 % 1020,5 hPa 0,0 l/m 0,0 km/h (0 Bft) N-NO 23 0 min 0,000 mm 0,0 UV-I 0 W/m -1,1 C -0,7 C 0,0 km/h (0 Bft) 100,00 %
17.02.2018 22:29 -0,7 C 3,9 C 97 % 1020,5 hPa 0,0 l/m 0,0 km/h (0 Bft) N-NO 23 0 min 0,000 mm 0,0 UV-I 0 W/m -1,1 C -0,7 C 0,0 km/h (0 Bft) 100,00 %
17.02.2018 22:30 -0,8 C 3,9 C 97 % 1020,5 hPa 0,0 l/m 0,0 km/h (0 Bft) N-NO 23 0 min 0,000 mm 0,0 UV-I 0 W/m -1,2 C -0,8 C 0,0 km/h (0 Bft) 86,96 %
17.02.2018 22:31 -0,8 C 3,9 C 97 % 1020,5 hPa 0,0 l/m 0,0 km/h (0 Bft) N-NO 23 0 min 0,000 mm 0,0 UV-I 0 W/m -1,2 C -0,8 C 0,0 km/h (0 Bft) 100,00 %
17.02.2018 22:33 -0,8 C 3,9 C 97 % 1020,5 hPa 0,0 l/m 0,0 km/h (0 Bft) N-NO 23 0 min 0,000 mm 0,0 UV-I 0 W/m -1,2 C -0,8 C 0,0 km/h (0 Bft) 100,00 %
17.02.2018 22:34 -0,8 C 3,9 C 97 % 1020,5 hPa 0,0 l/m 0,0 km/h (0 Bft) N-NO 23 0 min 0,000 mm 0,0 UV-I 0 W/m -1,2 C -0,8 C 0,0 km/h (0 Bft) 100,00 %
17.02.2018 22:35 -0,8 C 3,9 C 97 % 1020,5 hPa 0,0 l/m 0,0 km/h (0 Bft) N-NO 23 0 min 0,000 mm 0,0 UV-I 0 W/m -1,2 C -0,8 C 0,0 km/h (0 Bft) 95,83 %
17.02.2018 22:36 -0,8 C 3,9 C 97 % 1020,5 hPa 0,0 l/m 0,0 km/h (0 Bft) N-NO 23 0 min 0,000 mm 0,0 UV-I 0 W/m -1,2 C -0,8 C 0,0 km/h (0 Bft) 100,00 %
17.02.2018 22:37 -0,8 C 3,9 C 97 % 1020,4 hPa 0,0 l/m 0,0 km/h (0 Bft) N-NO 23 0 min 0,000 mm 0,0 UV-I 0 W/m -1,2 C -0,8 C 0,0 km/h (0 Bft) 95,83 %
17.02.2018 22:38 -0,8 C 3,9 C 97 % 1020,5 hPa 0,0 l/m 0,0 km/h (0 Bft) N-NO 23 0 min 0,000 mm 0,0 UV-I 0 W/m -1,2 C -0,8 C 0,0 km/h (0 Bft) 100,00 %
17.02.2018 22:39 -0,8 C 3,9 C 97 % 1020,4 hPa 0,0 l/m 0,4 km/h (0 Bft) N-NO 23 0 min 0,000 mm 0,0 UV-I 0 W/m -1,2 C -0,8 C 1,6 km/h (1 Bft) 100,00 %
17.02.2018 22:40 -0,8 C 3,9 C 97 % 1020,5 hPa 0,0 l/m 1,3 km/h (1 Bft) N-NO 23 0 min 0,000 mm 0,0 UV-I 0 W/m -1,2 C -0,8 C 1,6 km/h (1 Bft) 100,00 %
17.02.2018 22:41 -0,8 C 3,9 C 97 % 1020,4 hPa 0,0 l/m 0,3 km/h (0 Bft) N-NO 23 0 min 0,000 mm 0,0 UV-I 0 W/m -1,2 C -0,8 C 1,6 km/h (1 Bft) 95,83 %
17.02.2018 22:42 -0,8 C 3,9 C 97 % 1020,5 hPa 0,0 l/m 0,0 km/h (0 Bft) N-NO 23 0 min 0,000 mm 0,0 UV-I 0 W/m -1,2 C -0,8 C 0,0 km/h (0 Bft) 100,00 %
17.02.2018 22:43 -0,8 C 3,9 C 97 % 1020,5 hPa 0,0 l/m 0,0 km/h (0 Bft) N-NO 23 0 min 0,000 mm 0,0 UV-I 0 W/m -1,2 C -0,8 C 0,0 km/h (0 Bft) 100,00 %
17.02.2018 22:44 -0,8 C 3,9 C 97 % 1020,5 hPa 0,0 l/m 0,0 km/h (0 Bft) N-NO 23 0 min 0,000 mm 0,0 UV-I 0 W/m -1,2 C -0,8 C 0,0 km/h (0 Bft) 95,65 %
17.02.2018 22:45 -0,8 C 3,9 C 97 % 1020,5 hPa 0,0 l/m 0,1 km/h (0 Bft) N-NO 23 0 min 0,000 mm 0,0 UV-I 0 W/m -1,2 C -0,8 C 1,6 km/h (1 Bft) 100,00 %
17.02.2018 22:46 -0,8 C 3,9 C 97 % 1020,5 hPa 0,0 l/m 0,1 km/h (0 Bft) N-NO 23 0 min 0,000 mm 0,0 UV-I 0 W/m -1,2 C -0,8 C 1,6 km/h (1 Bft) 95,65 %
17.02.2018 22:47 -0,8 C 3,9 C 97 % 1020,6 hPa 0,0 l/m 0,2 km/h (0 Bft) N-NO 23 0 min 0,000 mm 0,0 UV-I 0 W/m -1,2 C -0,8 C 1,6 km/h (1 Bft) 100,00 %
17.02.2018 22:48 -0,8 C 3,9 C 97 % 1020,6 hPa 0,0 l/m 0,0 km/h (0 Bft) N-NO 23 0 min 0,000 mm 0,0 UV-I 0 W/m -1,2 C -0,8 C 0,0 km/h (0 Bft) 100,00 %
17.02.2018 22:49 -0,8 C 3,9 C 97 % 1020,6 hPa 0,0 l/m 0,0 km/h (0 Bft) N-NO 23 0 min 0,000 mm 0,0 UV-I 0 W/m -1,2 C -0,8 C 0,0 km/h (0 Bft) 95,65 %
17.02.2018 22:50 -0,8 C 3,9 C 97 % 1020,6 hPa 0,0 l/m 0,0 km/h (0 Bft) N-NO 23 0 min 0,000 mm 0,0 UV-I 0 W/m -1,2 C -0,8 C 0,0 km/h (0 Bft) 100,00 %
17.02.2018 22:51 -0,8 C 3,9 C 97 % 1020,6 hPa 0,0 l/m 0,0 km/h (0 Bft) N-NO 23 0 min 0,000 mm 0,0 UV-I 0 W/m -1,2 C -0,8 C 0,0 km/h (0 Bft) 95,65 %
17.02.2018 22:52 -0,9 C 3,9 C 97 % 1020,7 hPa 0,0 l/m 0,0 km/h (0 Bft) N-NO 23 0 min 0,000 mm 0,0 UV-I 0 W/m -1,3 C -0,9 C 0,0 km/h (0 Bft) 95,83 %
17.02.2018 22:53 -0,9 C 3,9 C 97 % 1020,7 hPa 0,0 l/m 0,0 km/h (0 Bft) N-NO 23 0 min 0,000 mm 0,0 UV-I 0 W/m -1,3 C -0,9 C 0,0 km/h (0 Bft) 100,00 %
17.02.2018 22:54 -0,9 C 3,9 C 97 % 1020,7 hPa 0,0 l/m 0,0 km/h (0 Bft) N-NO 23 0 min 0,000 mm 0,0 UV-I 0 W/m -1,3 C -0,9 C 0,0 km/h (0 Bft) 100,00 %
17.02.2018 22:55 -0,8 C 3,9 C 97 % 1020,7 hPa 0,0 l/m 0,0 km/h (0 Bft) N-NO 23 0 min 0,000 mm 0,0 UV-I 0 W/m -1,2 C -0,8 C 0,0 km/h (0 Bft) 92,31 %
17.02.2018 22:56 -0,8 C 3,9 C 97 % 1020,8 hPa 0,0 l/m 0,0 km/h (0 Bft) N-NO 23 0 min 0,000 mm 0,0 UV-I 0 W/m -1,2 C -0,8 C 0,0 km/h (0 Bft) 100,00 %
17.02.2018 22:57 -0,8 C 3,9 C 97 % 1020,8 hPa 0,0 l/m 0,0 km/h (0 Bft) N-NO 23 0 min 0,000 mm 0,0 UV-I 0 W/m -1,2 C -0,8 C 0,0 km/h (0 Bft) 100,00 %
17.02.2018 22:58 -0,9 C 3,9 C 97 % 1020,8 hPa 0,0 l/m 0,0 km/h (0 Bft) N-NO 23 0 min 0,000 mm 0,0 UV-I 0 W/m -1,3 C -0,9 C 0,0 km/h (0 Bft) 100,00 %
17.02.2018 22:59 -0,8 C 3,9 C 97 % 1020,8 hPa 0,0 l/m 0,0 km/h (0 Bft) N-NO 23 0 min 0,000 mm 0,0 UV-I 0 W/m -1,2 C -0,8 C 0,0 km/h (0 Bft) 100,00 %
17.02.2018 23:00 -0,9 C 3,9 C 97 % 1020,9 hPa 0,0 l/m 0,0 km/h (0 Bft) N-NO 23 0 min 0,000 mm 0,0 UV-I 0 W/m -1,3 C -0,9 C 0,0 km/h (0 Bft) 100,00 %
17.02.2018 23:01 -0,9 C 3,9 C 97 % 1020,9 hPa 0,0 l/m 0,0 km/h (0 Bft) N-NO 23 0 min 0,000 mm 0,0 UV-I 0 W/m -1,3 C -0,9 C 0,0 km/h (0 Bft) 95,65 %
17.02.2018 23:02 -0,9 C 3,9 C 97 % 1020,9 hPa 0,0 l/m 0,0 km/h (0 Bft) N-NO 23 0 min 0,000 mm 0,0 UV-I 0 W/m -1,3 C -0,9 C 0,0 km/h (0 Bft) 100,00 %
17.02.2018 23:03 -0,9 C 3,9 C 97 % 1020,9 hPa 0,0 l/m 0,0 km/h (0 Bft) N-NO 23 0 min 0,000 mm 0,0 UV-I 0 W/m -1,3 C -0,9 C 0,0 km/h (0 Bft) 100,00 %
17.02.2018 23:04 -0,9 C 3,9 C 97 % 1020,9 hPa 0,0 l/m 0,0 km/h (0 Bft) N-NO 23 0 min 0,000 mm 0,0 UV-I 0 W/m -1,3 C -0,9 C 0,0 km/h (0 Bft) 93,33 %
17.02.2018 23:05 -0,9 C 3,9 C 97 % 1021,0 hPa 0,0 l/m 0,0 km/h (0 Bft) N-NO 23 0 min 0,000 mm 0,0 UV-I 0 W/m -1,3 C -0,9 C 0,0 km/h (0 Bft) 100,00 %
17.02.2018 23:06 -0,9 C 3,9 C 97 % 1021,0 hPa 0,0 l/m 0,0 km/h (0 Bft) N-NO 23 0 min 0,000 mm 0,0 UV-I 0 W/m -1,3 C -0,9 C 0,0 km/h (0 Bft) 95,65 %
17.02.2018 23:07 -0,9 C 3,9 C 97 % 1021,0 hPa 0,0 l/m 0,0 km/h (0 Bft) N-NO 23 0 min 0,000 mm 0,0 UV-I 0 W/m -1,3 C -0,9 C 0,0 km/h (0 Bft) 95,83 %
17.02.2018 23:08 -0,9 C 3,9 C 97 % 1020,9 hPa 0,0 l/m 0,0 km/h (0 Bft) N-NO 23 0 min 0,000 mm 0,0 UV-I 0 W/m -1,3 C -0,9 C 0,0 km/h (0 Bft) 100,00 %
17.02.2018 23:09 -0,9 C 3,9 C 97 % 1021,0 hPa 0,0 l/m 0,0 km/h (0 Bft) N-NO 23 0 min 0,000 mm 0,0 UV-I 0 W/m -1,3 C -0,9 C 0,0 km/h (0 Bft) 100,00 %
17.02.2018 23:10 -0,8 C 3,9 C 97 % 1021,0 hPa 0,0 l/m 0,0 km/h (0 Bft) N-NO 23 0 min 0,000 mm 0,0 UV-I 0 W/m -1,2 C -0,8 C 0,0 km/h (0 Bft) 100,00 %
17.02.2018 23:11 -0,9 C 3,9 C 97 % 1021,0 hPa 0,0 l/m 0,0 km/h (0 Bft) N-NO 23 0 min 0,000 mm 0,0 UV-I 0 W/m -1,3 C -0,9 C 0,0 km/h (0 Bft) 100,00 %
17.02.2018 23:12 -0,9 C 3,9 C 97 % 1021,0 hPa 0,0 l/m 0,0 km/h (0 Bft) N-NO 23 0 min 0,000 mm 0,0 UV-I 0 W/m -1,3 C -0,9 C 0,0 km/h (0 Bft) 100,00 %
17.02.2018 23:13 -0,9 C 3,9 C 97 % 1021,0 hPa 0,0 l/m 0,0 km/h (0 Bft) N-NO 23 0 min 0,000 mm 0,0 UV-I 0 W/m -1,3 C -0,9 C 0,0 km/h (0 Bft) 100,00 %
17.02.2018 23:14 -0,8 C 3,9 C 97 % 1021,0 hPa 0,0 l/m 0,1 km/h (0 Bft) N-NO 23 0 min 0,000 mm 0,0 UV-I 0 W/m -1,2 C -0,8 C 1,6 km/h (1 Bft) 100,00 %
17.02.2018 23:15 -0,9 C 3,9 C 97 % 1021,0 hPa 0,0 l/m 0,0 km/h (0 Bft) N-NO 23 0 min 0,000 mm 0,0 UV-I 0 W/m -1,3 C -0,9 C 0,0 km/h (0 Bft) 91,67 %
17.02.2018 23:16 -0,9 C 3,9 C 97 % 1021,1 hPa 0,0 l/m 0,0 km/h (0 Bft) N-NO 23 0 min 0,000 mm 0,0 UV-I 0 W/m -1,3 C -0,9 C 0,0 km/h (0 Bft) 95,65 %
17.02.2018 23:17 -0,9 C 3,9 C 97 % 1021,0 hPa 0,0 l/m 0,0 km/h (0 Bft) N-NO 23 0 min 0,000 mm 0,0 UV-I 0 W/m -1,3 C -0,9 C 0,0 km/h (0 Bft) 95,83 %
17.02.2018 23:18 -0,8 C 3,9 C 97 % 1021,1 hPa 0,0 l/m 0,0 km/h (0 Bft) N-NO 23 0 min 0,000 mm 0,0 UV-I 0 W/m -1,2 C -0,8 C 0,0 km/h (0 Bft) 95,65 %
17.02.2018 23:19 -0,9 C 3,9 C 97 % 1021,1 hPa 0,0 l/m 0,0 km/h (0 Bft) N-NO 23 0 min 0,000 mm 0,0 UV-I 0 W/m -1,3 C -0,9 C 0,0 km/h (0 Bft) 100,00 %
17.02.2018 23:20 -0,9 C 3,9 C 97 % 1021,1 hPa 0,0 l/m 0,0 km/h (0 Bft) N-NO 23 0 min 0,000 mm 0,0 UV-I 0 W/m -1,3 C -0,9 C 0,0 km/h (0 Bft) 96,15 %
17.02.2018 23:21 -0,9 C 3,9 C 97 % 1021,1 hPa 0,0 l/m 0,0 km/h (0 Bft) N-NO 23 0 min 0,000 mm 0,0 UV-I 0 W/m -1,3 C -0,9 C 0,0 km/h (0 Bft) 100,00 %
17.02.2018 23:22 -0,9 C 3,9 C 97 % 1021,1 hPa 0,0 l/m 0,1 km/h (0 Bft) N-NO 23 0 min 0,000 mm 0,0 UV-I 0 W/m -1,3 C -0,9 C 1,6 km/h (1 Bft) 100,00 %
17.02.2018 23:23 -0,9 C 3,9 C 97 % 1021,1 hPa 0,0 l/m 0,0 km/h (0 Bft) N-NO 23 0 min 0,000 mm 0,0 UV-I 0 W/m -1,3 C -0,9 C 0,0 km/h (0 Bft) 100,00 %
17.02.2018 23:24 -0,9 C 3,9 C 97 % 1021,1 hPa 0,0 l/m 0,0 km/h (0 Bft) N-NO 23 0 min 0,000 mm 0,0 UV-I 0 W/m -1,3 C -0,9 C 0,0 km/h (0 Bft) 100,00 %
17.02.2018 23:25 -0,9 C 3,9 C 97 % 1021,1 hPa 0,0 l/m 0,0 km/h (0 Bft) N-NO 23 0 min 0,000 mm 0,0 UV-I 0 W/m -1,3 C -0,9 C 0,0 km/h (0 Bft) 100,00 %
17.02.2018 23:26 -0,9 C 3,9 C 97 % 1021,1 hPa 0,0 l/m 0,0 km/h (0 Bft) N-NO 23 0 min 0,000 mm 0,0 UV-I 0 W/m -1,3 C -0,9 C 0,0 km/h (0 Bft) 100,00 %
17.02.2018 23:27 -0,9 C 3,9 C 97 % 1021,2 hPa 0,0 l/m 0,0 km/h (0 Bft) N-NO 23 0 min 0,000 mm 0,0 UV-I 0 W/m -1,3 C -0,9 C 0,0 km/h (0 Bft) 95,65 %
17.02.2018 23:28 -0,9 C 3,9 C 97 % 1021,1 hPa 0,0 l/m 0,0 km/h (0 Bft) N-NO 23 0 min 0,000 mm 0,0 UV-I 0 W/m -1,3 C -0,9 C 0,0 km/h (0 Bft) 100,00 %
17.02.2018 23:29 -0,9 C 3,9 C 97 % 1021,2 hPa 0,0 l/m 0,0 km/h (0 Bft) N-NO 23 0 min 0,000 mm 0,0 UV-I 0 W/m -1,3 C -0,9 C 0,0 km/h (0 Bft) 95,65 %
17.02.2018 23:30 -0,9 C 3,9 C 97 % 1021,1 hPa 0,0 l/m 0,0 km/h (0 Bft) N-NO 23 0 min 0,000 mm 0,0 UV-I 0 W/m -1,3 C -0,9 C 0,0 km/h (0 Bft) 100,00 %
17.02.2018 23:31 -0,9 C 3,9 C 97 % 1021,2 hPa 0,0 l/m 0,0 km/h (0 Bft) N-NO 23 0 min 0,000 mm 0,0 UV-I 0 W/m -1,3 C -0,9 C 0,0 km/h (0 Bft) 91,30 %
17.02.2018 23:32 -0,9 C 3,9 C 97 % 1021,2 hPa 0,0 l/m 0,0 km/h (0 Bft) N-NO 23 0 min 0,000 mm 0,0 UV-I 0 W/m -1,3 C -0,9 C 0,0 km/h (0 Bft) 100,00 %
17.02.2018 23:33 -0,9 C 3,9 C 97 % 1021,2 hPa 0,0 l/m 0,0 km/h (0 Bft) N-NO 23 0 min 0,000 mm 0,0 UV-I 0 W/m -1,3 C -0,9 C 0,0 km/h (0 Bft) 100,00 %
17.02.2018 23:34 -0,9 C 3,9 C 97 % 1021,2 hPa 0,0 l/m 0,0 km/h (0 Bft) N-NO 23 0 min 0,000 mm 0,0 UV-I 0 W/m -1,3 C -0,9 C 0,0 km/h (0 Bft) 100,00 %
17.02.2018 23:35 -0,9 C 3,9 C 97 % 1021,3 hPa 0,0 l/m 1,1 km/h (1 Bft) N-NO 16 0 min 0,000 mm 0,0 UV-I 0 W/m -1,3 C -0,9 C 3,2 km/h (1 Bft) 100,00 %
17.02.2018 23:36 -0,9 C 3,9 C 97 % 1021,2 hPa 0,0 l/m 1,1 km/h (1 Bft) N-NO 16 0 min 0,000 mm 0,0 UV-I 0 W/m -1,3 C -0,9 C 3,2 km/h (1 Bft) 91,67 %
17.02.2018 23:37 -0,9 C 3,9 C 97 % 1021,3 hPa 0,0 l/m 1,2 km/h (1 Bft) N-NO 15 0 min 0,000 mm 0,0 UV-I 0 W/m -1,3 C -0,9 C 1,6 km/h (1 Bft) 100,00 %
17.02.2018 23:38 -0,9 C 3,9 C 97 % 1021,3 hPa 0,0 l/m 1,3 km/h (1 Bft) N-NO 15 0 min 0,000 mm 0,0 UV-I 0 W/m -1,3 C -0,9 C 1,6 km/h (1 Bft) 100,00 %
17.02.2018 23:39 -0,9 C 3,9 C 97 % 1021,2 hPa 0,0 l/m 0,0 km/h (0 Bft) N-NO 15 0 min 0,000 mm 0,0 UV-I 0 W/m -1,3 C -0,9 C 0,0 km/h (0 Bft) 100,00 %
17.02.2018 23:40 -0,9 C 3,9 C 97 % 1021,3 hPa 0,0 l/m 0,3 km/h (0 Bft) N-NW 329 0 min 0,000 mm 0,0 UV-I 0 W/m -1,3 C -0,9 C 1,6 km/h (1 Bft) 91,67 %
17.02.2018 23:41 -0,9 C 3,9 C 97 % 1021,3 hPa 0,0 l/m 2,0 km/h (1 Bft) W 260 0 min 0,000 mm 0,0 UV-I 0 W/m -1,3 C -0,9 C 3,2 km/h (1 Bft) 96,15 %
17.02.2018 23:42 -0,9 C 3,9 C 98 % 1021,3 hPa 0,0 l/m 1,1 km/h (1 Bft) W 260 0 min 0,000 mm 0,0 UV-I 0 W/m -1,2 C -0,9 C 1,6 km/h (1 Bft) 95,83 %
17.02.2018 23:43 -0,9 C 3,9 C 98 % 1021,3 hPa 0,0 l/m 0,4 km/h (0 Bft) W 260 0 min 0,000 mm 0,0 UV-I 0 W/m -1,2 C -0,9 C 1,6 km/h (1 Bft) 91,30 %
17.02.2018 23:44 -0,9 C 3,9 C 98 % 1021,3 hPa 0,0 l/m 0,1 km/h (0 Bft) W 260 0 min 0,000 mm 0,0 UV-I 0 W/m -1,2 C -0,9 C 1,6 km/h (1 Bft) 100,00 %
17.02.2018 23:45 -0,9 C 3,9 C 98 % 1021,3 hPa 0,0 l/m 0,7 km/h (0 Bft) W 260 0 min 0,000 mm 0,0 UV-I 0 W/m -1,2 C -0,9 C 1,6 km/h (1 Bft) 91,30 %
17.02.2018 23:46 -0,9 C 3,9 C 98 % 1021,4 hPa 0,0 l/m 0,3 km/h (0 Bft) W 260 0 min 0,000 mm 0,0 UV-I 0 W/m -1,2 C -0,9 C 1,6 km/h (1 Bft) 96,30 %
17.02.2018 23:47 -0,9 C 3,9 C 98 % 1021,4 hPa 0,0 l/m 1,4 km/h (1 Bft) W 260 0 min 0,000 mm 0,0 UV-I 0 W/m -1,2 C -0,9 C 3,2 km/h (1 Bft) 95,65 %
17.02.2018 23:48 -0,9 C 3,9 C 98 % 1021,4 hPa 0,0 l/m 1,5 km/h (1 Bft) W 260 0 min 0,000 mm 0,0 UV-I 0 W/m -1,2 C -0,9 C 3,2 km/h (1 Bft) 95,83 %
17.02.2018 23:49 -0,9 C 3,9 C 98 % 1021,4 hPa 0,0 l/m 1,6 km/h (1 Bft) W 260 0 min 0,000 mm 0,0 UV-I 0 W/m -1,2 C -0,9 C 3,2 km/h (1 Bft) 91,67 %
17.02.2018 23:50 -0,9 C 3,9 C 98 % 1021,4 hPa 0,0 l/m 0,8 km/h (0 Bft) W 260 0 min 0,000 mm 0,0 UV-I 0 W/m -1,2 C -0,9 C 1,6 km/h (1 Bft) 97,14 %
17.02.2018 23:51 -0,9 C 3,9 C 97 % 1021,4 hPa 0,0 l/m 0,0 km/h (0 Bft) W 260 0 min 0,000 mm 0,0 UV-I 0 W/m -1,3 C -0,9 C 0,0 km/h (0 Bft) 100,00 %
17.02.2018 23:52 -0,9 C 3,9 C 97 % 1021,4 hPa 0,0 l/m 0,0 km/h (0 Bft) W 260 0 min 0,000 mm 0,0 UV-I 0 W/m -1,3 C -0,9 C 0,0 km/h (0 Bft) 95,65 %
17.02.2018 23:53 -0,9 C 3,9 C 97 % 1021,4 hPa 0,0 l/m 0,0 km/h (0 Bft) W 260 0 min 0,000 mm 0,0 UV-I 0 W/m -1,3 C -0,9 C 0,0 km/h (0 Bft) 91,67 %
17.02.2018 23:54 -0,9 C 3,9 C 97 % 1021,4 hPa 0,0 l/m 0,0 km/h (0 Bft) W 260 0 min 0,000 mm 0,0 UV-I 0 W/m -1,3 C -0,9 C 0,0 km/h (0 Bft) 96,15 %
17.02.2018 23:55 -0,9 C 3,9 C 97 % 1021,5 hPa 0,0 l/m 0,0 km/h (0 Bft) W 260 0 min 0,000 mm 0,0 UV-I 0 W/m -1,3 C -0,9 C 0,0 km/h (0 Bft) 91,67 %
17.02.2018 23:56 -0,9 C 3,9 C 97 % 1021,5 hPa 0,0 l/m 0,0 km/h (0 Bft) W 260 0 min 0,000 mm 0,0 UV-I 0 W/m -1,3 C -0,9 C 0,0 km/h (0 Bft) 86,96 %
17.02.2018 23:57 -0,9 C 3,9 C 97 % 1021,5 hPa 0,0 l/m 0,0 km/h (0 Bft) W 260 0 min 0,000 mm 0,0 UV-I 0 W/m -1,3 C -0,9 C 0,0 km/h (0 Bft) 91,67 %
17.02.2018 23:58 -0,9 C 3,9 C 97 % 1021,5 hPa 0,0 l/m 0,0 km/h (0 Bft) W 260 0 min 0,000 mm 0,0 UV-I 0 W/m -1,3 C -0,9 C 0,0 km/h (0 Bft) 95,65 %
17.02.2018 23:59 -0,9 C 3,9 C 97 % 1021,5 hPa 0,0 l/m 0,0 km/h (0 Bft) W 260 0 min 0,000 mm 0,0 UV-I 0 W/m -1,3 C -0,9 C 0,0 km/h (0 Bft) 95,83 %
_ Min-Zeit 20:50 21:26 09:30 14:31 - 00:09 - - - - - - 20:50 11:59 00:09 15:37
Minimum _ -0,9 C 3,9 C 95 % 1016,5 hPa - 0,0 km/h (0 Bft) - - - - - - -1,3 C -12,9 C 0,0 km/h (0 Bft) 82,61 %
_ Max-Zeit 00:00 00:00 00:00 00:00 00:00 11:59 - - 00:00 10:01 12:06 12:06 00:00 00:00 11:58 00:01
Maximum _ 1,4 C 4,4 C 98 % 1027,0 hPa 0,0 l/m 32,6 km/h
O (5 Bft)
- - 0 min 0,026 mm 0,5 UV-I 123 W/m 1,1 C 1,4 C 40,2 km/h
O-NO (6 Bft)
100,00 %
Durchschnitt _ 0,3 C 4,3 C 97 % 1020,6 hPa #0,0 l/m 10,6 km/h (2 Bft) NO - #0 min. #0,229 mm 0,4 UV-I 44 W/m -0,1 C -3,8 C 14,1 km/h (3 Bft) 97,43 %